<?xml version="1.0" encoding="UTF-8" standalone="no" ?>
<gpx xmlns="http://www.topografix.com/GPX/1/1" xmlns:xsi="http://www.w3.org/2001/XMLSchema-instance" xsi:schemaLocation="http://www.topografix.com/GPX/1/1 http://www.topografix.com/GPX/1/1/gpx.xsd" version="1.1" creator="VisuGPX - https://www.visugpx.com">
  <metadata>
    <name>vtt: tour du pic de courmettes</name>
    <desc><![CDATA[avec Aga, beau parcours caillouteux...]]></desc>
  </metadata>
  <trk>
    <name><![CDATA[vtt: tour du pic de courmettes]]></name>
    <desc><![CDATA[avec Aga... très beau tour, assez technique]]></desc>
    <trkseg>
      <trkpt lat="43.73925" lon="7.01304">
        <ele>728</ele>
        <time>2011-04-03T11:38:31.000Z</time>
      </trkpt>
      <trkpt lat="43.7392" lon="7.01306">
        <ele>728.59997558594</ele>
        <time>2011-04-03T11:38:35.000Z</time>
      </trkpt>
      <trkpt lat="43.73907" lon="7.0131">
        <ele>730.59997558594</ele>
        <time>2011-04-03T11:38:44.000Z</time>
      </trkpt>
      <trkpt lat="43.73896" lon="7.01312">
        <ele>731.79998779297</ele>
        <time>2011-04-03T11:38:52.000Z</time>
      </trkpt>
      <trkpt lat="43.73888" lon="7.01313">
        <ele>732.79998779297</ele>
        <time>2011-04-03T11:38:58.000Z</time>
      </trkpt>
      <trkpt lat="43.73885" lon="7.01313">
        <ele>733</ele>
        <time>2011-04-03T11:39:01.000Z</time>
      </trkpt>
      <trkpt lat="43.73883" lon="7.01313">
        <ele>733.20001220703</ele>
        <time>2011-04-03T11:39:02.000Z</time>
      </trkpt>
      <trkpt lat="43.73876" lon="7.01313">
        <ele>733.79998779297</ele>
        <time>2011-04-03T11:39:07.000Z</time>
      </trkpt>
      <trkpt lat="43.73872" lon="7.01309">
        <ele>733.59997558594</ele>
        <time>2011-04-03T11:39:11.000Z</time>
      </trkpt>
      <trkpt lat="43.73871" lon="7.01309">
        <ele>733.79998779297</ele>
        <time>2011-04-03T11:39:12.000Z</time>
      </trkpt>
      <trkpt lat="43.73868" lon="7.01308">
        <ele>733.79998779297</ele>
        <time>2011-04-03T11:39:14.000Z</time>
      </trkpt>
      <trkpt lat="43.73859" lon="7.01306">
        <ele>734.40002441406</ele>
        <time>2011-04-03T11:39:21.000Z</time>
      </trkpt>
      <trkpt lat="43.73852" lon="7.01303">
        <ele>734.59997558594</ele>
        <time>2011-04-03T11:39:27.000Z</time>
      </trkpt>
      <trkpt lat="43.73849" lon="7.01301">
        <ele>734.79998779297</ele>
        <time>2011-04-03T11:39:29.000Z</time>
      </trkpt>
      <trkpt lat="43.73843" lon="7.01302">
        <ele>735.59997558594</ele>
        <time>2011-04-03T11:39:33.000Z</time>
      </trkpt>
      <trkpt lat="43.73832" lon="7.01305">
        <ele>737.20001220703</ele>
        <time>2011-04-03T11:39:37.000Z</time>
      </trkpt>
      <trkpt lat="43.73822" lon="7.01319">
        <ele>741</ele>
        <time>2011-04-03T11:39:41.000Z</time>
      </trkpt>
      <trkpt lat="43.7382" lon="7.01323">
        <ele>741.79998779297</ele>
        <time>2011-04-03T11:39:42.000Z</time>
      </trkpt>
      <trkpt lat="43.73808" lon="7.01344">
        <ele>746.40002441406</ele>
        <time>2011-04-03T11:39:47.000Z</time>
      </trkpt>
      <trkpt lat="43.73804" lon="7.01359">
        <ele>749</ele>
        <time>2011-04-03T11:39:51.000Z</time>
      </trkpt>
      <trkpt lat="43.73802" lon="7.01365">
        <ele>750.20001220703</ele>
        <time>2011-04-03T11:39:54.000Z</time>
      </trkpt>
      <trkpt lat="43.73801" lon="7.01368">
        <ele>750.59997558594</ele>
        <time>2011-04-03T11:39:55.000Z</time>
      </trkpt>
      <trkpt lat="43.73799" lon="7.01372">
        <ele>751.40002441406</ele>
        <time>2011-04-03T11:39:57.000Z</time>
      </trkpt>
      <trkpt lat="43.73799" lon="7.01374">
        <ele>751.79998779297</ele>
        <time>2011-04-03T11:39:58.000Z</time>
      </trkpt>
      <trkpt lat="43.73791" lon="7.0138">
        <ele>753.59997558594</ele>
        <time>2011-04-03T11:40:04.000Z</time>
      </trkpt>
      <trkpt lat="43.73791" lon="7.01381">
        <ele>753.59997558594</ele>
        <time>2011-04-03T11:40:06.000Z</time>
      </trkpt>
      <trkpt lat="43.73792" lon="7.01382">
        <ele>753.59997558594</ele>
        <time>2011-04-03T11:40:08.000Z</time>
      </trkpt>
      <trkpt lat="43.73789" lon="7.01383">
        <ele>754.20001220703</ele>
        <time>2011-04-03T11:40:17.000Z</time>
      </trkpt>
      <trkpt lat="43.73788" lon="7.01384">
        <ele>754.40002441406</ele>
        <time>2011-04-03T11:40:19.000Z</time>
      </trkpt>
      <trkpt lat="43.73785" lon="7.01386">
        <ele>754.79998779297</ele>
        <time>2011-04-03T11:40:24.000Z</time>
      </trkpt>
      <trkpt lat="43.73783" lon="7.01385">
        <ele>755</ele>
        <time>2011-04-03T11:40:34.000Z</time>
      </trkpt>
      <trkpt lat="43.73781" lon="7.01381">
        <ele>755</ele>
        <time>2011-04-03T11:40:57.000Z</time>
      </trkpt>
      <trkpt lat="43.73776" lon="7.01379">
        <ele>755.59997558594</ele>
        <time>2011-04-03T11:41:05.000Z</time>
      </trkpt>
      <trkpt lat="43.73771" lon="7.01379">
        <ele>756.20001220703</ele>
        <time>2011-04-03T11:41:12.000Z</time>
      </trkpt>
      <trkpt lat="43.7377" lon="7.0138">
        <ele>756.40002441406</ele>
        <time>2011-04-03T11:41:14.000Z</time>
      </trkpt>
      <trkpt lat="43.73766" lon="7.0138">
        <ele>757</ele>
        <time>2011-04-03T11:41:22.000Z</time>
      </trkpt>
      <trkpt lat="43.73761" lon="7.0138">
        <ele>757.59997558594</ele>
        <time>2011-04-03T11:41:30.000Z</time>
      </trkpt>
      <trkpt lat="43.73755" lon="7.01382">
        <ele>758.59997558594</ele>
        <time>2011-04-03T11:41:39.000Z</time>
      </trkpt>
      <trkpt lat="43.73754" lon="7.01383">
        <ele>758.79998779297</ele>
        <time>2011-04-03T11:41:42.000Z</time>
      </trkpt>
      <trkpt lat="43.73751" lon="7.01385">
        <ele>759.20001220703</ele>
        <time>2011-04-03T11:41:47.000Z</time>
      </trkpt>
      <trkpt lat="43.73749" lon="7.01389">
        <ele>759.79998779297</ele>
        <time>2011-04-03T11:41:52.000Z</time>
      </trkpt>
      <trkpt lat="43.73745" lon="7.01392">
        <ele>760.59997558594</ele>
        <time>2011-04-03T11:41:59.000Z</time>
      </trkpt>
      <trkpt lat="43.73743" lon="7.01393">
        <ele>761</ele>
        <time>2011-04-03T11:42:08.000Z</time>
      </trkpt>
      <trkpt lat="43.73741" lon="7.01397">
        <ele>761.59997558594</ele>
        <time>2011-04-03T11:42:25.000Z</time>
      </trkpt>
      <trkpt lat="43.73741" lon="7.01398">
        <ele>761.59997558594</ele>
        <time>2011-04-03T11:42:26.000Z</time>
      </trkpt>
      <trkpt lat="43.73742" lon="7.01404">
        <ele>761.79998779297</ele>
        <time>2011-04-03T11:42:32.000Z</time>
      </trkpt>
      <trkpt lat="43.73744" lon="7.01412">
        <ele>761.79998779297</ele>
        <time>2011-04-03T11:42:40.000Z</time>
      </trkpt>
      <trkpt lat="43.73744" lon="7.01417">
        <ele>762.20001220703</ele>
        <time>2011-04-03T11:42:47.000Z</time>
      </trkpt>
      <trkpt lat="43.73745" lon="7.0142">
        <ele>762.40002441406</ele>
        <time>2011-04-03T11:42:51.000Z</time>
      </trkpt>
      <trkpt lat="43.73748" lon="7.01425">
        <ele>762.59997558594</ele>
        <time>2011-04-03T11:42:56.000Z</time>
      </trkpt>
      <trkpt lat="43.73752" lon="7.01432">
        <ele>763.40002441406</ele>
        <time>2011-04-03T11:43:05.000Z</time>
      </trkpt>
      <trkpt lat="43.73755" lon="7.01438">
        <ele>764.20001220703</ele>
        <time>2011-04-03T11:43:12.000Z</time>
      </trkpt>
      <trkpt lat="43.73757" lon="7.01439">
        <ele>764.20001220703</ele>
        <time>2011-04-03T11:43:14.000Z</time>
      </trkpt>
      <trkpt lat="43.73758" lon="7.01436">
        <ele>763.59997558594</ele>
        <time>2011-04-03T11:43:16.000Z</time>
      </trkpt>
      <trkpt lat="43.73753" lon="7.01431">
        <ele>763</ele>
        <time>2011-04-03T11:43:20.000Z</time>
      </trkpt>
      <trkpt lat="43.73746" lon="7.01423">
        <ele>762.59997558594</ele>
        <time>2011-04-03T11:43:27.000Z</time>
      </trkpt>
      <trkpt lat="43.73746" lon="7.01422">
        <ele>762.59997558594</ele>
        <time>2011-04-03T11:43:28.000Z</time>
      </trkpt>
      <trkpt lat="43.73745" lon="7.01421">
        <ele>762.40002441406</ele>
        <time>2011-04-03T11:43:32.000Z</time>
      </trkpt>
      <trkpt lat="43.73748" lon="7.01424">
        <ele>762.59997558594</ele>
        <time>2011-04-03T11:43:53.000Z</time>
      </trkpt>
      <trkpt lat="43.73749" lon="7.01428">
        <ele>763</ele>
        <time>2011-04-03T11:44:00.000Z</time>
      </trkpt>
      <trkpt lat="43.73754" lon="7.01437">
        <ele>764</ele>
        <time>2011-04-03T11:44:06.000Z</time>
      </trkpt>
      <trkpt lat="43.73755" lon="7.01442">
        <ele>764.79998779297</ele>
        <time>2011-04-03T11:44:09.000Z</time>
      </trkpt>
      <trkpt lat="43.73755" lon="7.01452">
        <ele>766.59997558594</ele>
        <time>2011-04-03T11:44:15.000Z</time>
      </trkpt>
      <trkpt lat="43.73749" lon="7.01458">
        <ele>767.79998779297</ele>
        <time>2011-04-03T11:44:21.000Z</time>
      </trkpt>
      <trkpt lat="43.73747" lon="7.01455">
        <ele>767.79998779297</ele>
        <time>2011-04-03T11:44:27.000Z</time>
      </trkpt>
      <trkpt lat="43.73747" lon="7.01454">
        <ele>767.59997558594</ele>
        <time>2011-04-03T11:44:29.000Z</time>
      </trkpt>
      <trkpt lat="43.73748" lon="7.01454">
        <ele>767.59997558594</ele>
        <time>2011-04-03T11:44:34.000Z</time>
      </trkpt>
      <trkpt lat="43.73745" lon="7.01452">
        <ele>767.59997558594</ele>
        <time>2011-04-03T11:44:48.000Z</time>
      </trkpt>
      <trkpt lat="43.73733" lon="7.01444">
        <ele>768</ele>
        <time>2011-04-03T11:44:57.000Z</time>
      </trkpt>
      <trkpt lat="43.73732" lon="7.01443">
        <ele>768</ele>
        <time>2011-04-03T11:44:58.000Z</time>
      </trkpt>
      <trkpt lat="43.73719" lon="7.01438">
        <ele>769.20001220703</ele>
        <time>2011-04-03T11:45:06.000Z</time>
      </trkpt>
      <trkpt lat="43.73714" lon="7.01436">
        <ele>769.59997558594</ele>
        <time>2011-04-03T11:45:09.000Z</time>
      </trkpt>
      <trkpt lat="43.7371" lon="7.01436">
        <ele>770.40002441406</ele>
        <time>2011-04-03T11:45:12.000Z</time>
      </trkpt>
      <trkpt lat="43.737" lon="7.01442">
        <ele>772.59997558594</ele>
        <time>2011-04-03T11:45:20.000Z</time>
      </trkpt>
      <trkpt lat="43.73697" lon="7.01445">
        <ele>773.20001220703</ele>
        <time>2011-04-03T11:45:23.000Z</time>
      </trkpt>
      <trkpt lat="43.73692" lon="7.01451">
        <ele>774.40002441406</ele>
        <time>2011-04-03T11:45:27.000Z</time>
      </trkpt>
      <trkpt lat="43.73684" lon="7.01458">
        <ele>776.20001220703</ele>
        <time>2011-04-03T11:45:34.000Z</time>
      </trkpt>
      <trkpt lat="43.73682" lon="7.0146">
        <ele>776.59997558594</ele>
        <time>2011-04-03T11:45:37.000Z</time>
      </trkpt>
      <trkpt lat="43.73674" lon="7.01464">
        <ele>777.79998779297</ele>
        <time>2011-04-03T11:45:44.000Z</time>
      </trkpt>
      <trkpt lat="43.73666" lon="7.01468">
        <ele>779</ele>
        <time>2011-04-03T11:45:51.000Z</time>
      </trkpt>
      <trkpt lat="43.73664" lon="7.01469">
        <ele>779.40002441406</ele>
        <time>2011-04-03T11:45:53.000Z</time>
      </trkpt>
      <trkpt lat="43.73655" lon="7.01473">
        <ele>781</ele>
        <time>2011-04-03T11:46:00.000Z</time>
      </trkpt>
      <trkpt lat="43.73654" lon="7.01475">
        <ele>781.20001220703</ele>
        <time>2011-04-03T11:46:05.000Z</time>
      </trkpt>
      <trkpt lat="43.73655" lon="7.01477">
        <ele>781.40002441406</ele>
        <time>2011-04-03T11:46:59.000Z</time>
      </trkpt>
      <trkpt lat="43.7365" lon="7.01477">
        <ele>782</ele>
        <time>2011-04-03T11:47:02.000Z</time>
      </trkpt>
      <trkpt lat="43.73639" lon="7.01474">
        <ele>783.40002441406</ele>
        <time>2011-04-03T11:47:08.000Z</time>
      </trkpt>
      <trkpt lat="43.73637" lon="7.0147">
        <ele>783.40002441406</ele>
        <time>2011-04-03T11:47:10.000Z</time>
      </trkpt>
      <trkpt lat="43.73636" lon="7.01466">
        <ele>783.20001220703</ele>
        <time>2011-04-03T11:47:12.000Z</time>
      </trkpt>
      <trkpt lat="43.73636" lon="7.01465">
        <ele>783.40002441406</ele>
        <time>2011-04-03T11:47:13.000Z</time>
      </trkpt>
      <trkpt lat="43.7363" lon="7.01461">
        <ele>784</ele>
        <time>2011-04-03T11:47:18.000Z</time>
      </trkpt>
      <trkpt lat="43.73626" lon="7.01459">
        <ele>784.20001220703</ele>
        <time>2011-04-03T11:47:21.000Z</time>
      </trkpt>
      <trkpt lat="43.7362" lon="7.01457">
        <ele>785</ele>
        <time>2011-04-03T11:47:26.000Z</time>
      </trkpt>
      <trkpt lat="43.73616" lon="7.01456">
        <ele>785.59997558594</ele>
        <time>2011-04-03T11:47:29.000Z</time>
      </trkpt>
      <trkpt lat="43.73604" lon="7.01457">
        <ele>787.40002441406</ele>
        <time>2011-04-03T11:47:37.000Z</time>
      </trkpt>
      <trkpt lat="43.73601" lon="7.01459">
        <ele>788</ele>
        <time>2011-04-03T11:47:39.000Z</time>
      </trkpt>
      <trkpt lat="43.73593" lon="7.01464">
        <ele>789.40002441406</ele>
        <time>2011-04-03T11:47:44.000Z</time>
      </trkpt>
      <trkpt lat="43.73584" lon="7.01472">
        <ele>791.40002441406</ele>
        <time>2011-04-03T11:47:51.000Z</time>
      </trkpt>
      <trkpt lat="43.73572" lon="7.01473">
        <ele>793.20001220703</ele>
        <time>2011-04-03T11:47:59.000Z</time>
      </trkpt>
      <trkpt lat="43.73571" lon="7.01472">
        <ele>793.40002441406</ele>
        <time>2011-04-03T11:48:00.000Z</time>
      </trkpt>
      <trkpt lat="43.73567" lon="7.01468">
        <ele>793.59997558594</ele>
        <time>2011-04-03T11:48:04.000Z</time>
      </trkpt>
      <trkpt lat="43.73565" lon="7.01467">
        <ele>793.79998779297</ele>
        <time>2011-04-03T11:48:06.000Z</time>
      </trkpt>
      <trkpt lat="43.73565" lon="7.01467">
        <ele>793.79998779297</ele>
        <time>2011-04-03T11:48:07.000Z</time>
      </trkpt>
      <trkpt lat="43.73562" lon="7.01464">
        <ele>794</ele>
        <time>2011-04-03T11:48:11.000Z</time>
      </trkpt>
      <trkpt lat="43.73559" lon="7.01463">
        <ele>794.40002441406</ele>
        <time>2011-04-03T11:48:13.000Z</time>
      </trkpt>
      <trkpt lat="43.73551" lon="7.0146">
        <ele>795.40002441406</ele>
        <time>2011-04-03T11:48:19.000Z</time>
      </trkpt>
      <trkpt lat="43.73549" lon="7.01461">
        <ele>795.59997558594</ele>
        <time>2011-04-03T11:48:20.000Z</time>
      </trkpt>
      <trkpt lat="43.73538" lon="7.01461">
        <ele>797.20001220703</ele>
        <time>2011-04-03T11:48:28.000Z</time>
      </trkpt>
      <trkpt lat="43.73531" lon="7.01465">
        <ele>798.59997558594</ele>
        <time>2011-04-03T11:48:34.000Z</time>
      </trkpt>
      <trkpt lat="43.7353" lon="7.01466">
        <ele>798.79998779297</ele>
        <time>2011-04-03T11:48:35.000Z</time>
      </trkpt>
      <trkpt lat="43.73527" lon="7.01469">
        <ele>799.40002441406</ele>
        <time>2011-04-03T11:48:38.000Z</time>
      </trkpt>
      <trkpt lat="43.73523" lon="7.01473">
        <ele>800.20001220703</ele>
        <time>2011-04-03T11:48:41.000Z</time>
      </trkpt>
      <trkpt lat="43.73517" lon="7.0148">
        <ele>801.79998779297</ele>
        <time>2011-04-03T11:48:47.000Z</time>
      </trkpt>
      <trkpt lat="43.73516" lon="7.01481">
        <ele>802</ele>
        <time>2011-04-03T11:48:48.000Z</time>
      </trkpt>
      <trkpt lat="43.73515" lon="7.01481">
        <ele>802.20001220703</ele>
        <time>2011-04-03T11:48:49.000Z</time>
      </trkpt>
      <trkpt lat="43.73509" lon="7.01483">
        <ele>803.20001220703</ele>
        <time>2011-04-03T11:48:54.000Z</time>
      </trkpt>
      <trkpt lat="43.73506" lon="7.01484">
        <ele>803.79998779297</ele>
        <time>2011-04-03T11:48:57.000Z</time>
      </trkpt>
      <trkpt lat="43.73502" lon="7.01487">
        <ele>804.40002441406</ele>
        <time>2011-04-03T11:49:00.000Z</time>
      </trkpt>
      <trkpt lat="43.73499" lon="7.01489">
        <ele>805.20001220703</ele>
        <time>2011-04-03T11:49:03.000Z</time>
      </trkpt>
      <trkpt lat="43.73496" lon="7.0149">
        <ele>806</ele>
        <time>2011-04-03T11:49:06.000Z</time>
      </trkpt>
      <trkpt lat="43.73493" lon="7.0149">
        <ele>806.40002441406</ele>
        <time>2011-04-03T11:49:08.000Z</time>
      </trkpt>
      <trkpt lat="43.7349" lon="7.01489">
        <ele>807</ele>
        <time>2011-04-03T11:49:10.000Z</time>
      </trkpt>
      <trkpt lat="43.73482" lon="7.01483">
        <ele>808.20001220703</ele>
        <time>2011-04-03T11:49:16.000Z</time>
      </trkpt>
      <trkpt lat="43.73473" lon="7.01474">
        <ele>809.20001220703</ele>
        <time>2011-04-03T11:49:23.000Z</time>
      </trkpt>
      <trkpt lat="43.73467" lon="7.01468">
        <ele>810</ele>
        <time>2011-04-03T11:49:28.000Z</time>
      </trkpt>
      <trkpt lat="43.73465" lon="7.01467">
        <ele>810.20001220703</ele>
        <time>2011-04-03T11:49:29.000Z</time>
      </trkpt>
      <trkpt lat="43.73454" lon="7.0146">
        <ele>811.79998779297</ele>
        <time>2011-04-03T11:49:37.000Z</time>
      </trkpt>
      <trkpt lat="43.7345" lon="7.01458">
        <ele>812.59997558594</ele>
        <time>2011-04-03T11:49:40.000Z</time>
      </trkpt>
      <trkpt lat="43.73448" lon="7.01456">
        <ele>812.79998779297</ele>
        <time>2011-04-03T11:49:42.000Z</time>
      </trkpt>
      <trkpt lat="43.73447" lon="7.01451">
        <ele>812.59997558594</ele>
        <time>2011-04-03T11:49:44.000Z</time>
      </trkpt>
      <trkpt lat="43.73447" lon="7.01442">
        <ele>811.79998779297</ele>
        <time>2011-04-03T11:49:49.000Z</time>
      </trkpt>
      <trkpt lat="43.73448" lon="7.01434">
        <ele>811</ele>
        <time>2011-04-03T11:49:54.000Z</time>
      </trkpt>
      <trkpt lat="43.73448" lon="7.01427">
        <ele>810.40002441406</ele>
        <time>2011-04-03T11:50:15.000Z</time>
      </trkpt>
      <trkpt lat="43.73449" lon="7.01412">
        <ele>809.59997558594</ele>
        <time>2011-04-03T11:50:20.000Z</time>
      </trkpt>
      <trkpt lat="43.7345" lon="7.01407">
        <ele>809.59997558594</ele>
        <time>2011-04-03T11:50:21.000Z</time>
      </trkpt>
      <trkpt lat="43.73453" lon="7.0139">
        <ele>809.79998779297</ele>
        <time>2011-04-03T11:50:25.000Z</time>
      </trkpt>
      <trkpt lat="43.73454" lon="7.01387">
        <ele>809.79998779297</ele>
        <time>2011-04-03T11:50:26.000Z</time>
      </trkpt>
      <trkpt lat="43.73456" lon="7.01384">
        <ele>809.59997558594</ele>
        <time>2011-04-03T11:50:27.000Z</time>
      </trkpt>
      <trkpt lat="43.73463" lon="7.01365">
        <ele>809.20001220703</ele>
        <time>2011-04-03T11:50:34.000Z</time>
      </trkpt>
      <trkpt lat="43.73471" lon="7.01359">
        <ele>808.20001220703</ele>
        <time>2011-04-03T11:50:39.000Z</time>
      </trkpt>
      <trkpt lat="43.73481" lon="7.01354">
        <ele>806.79998779297</ele>
        <time>2011-04-03T11:50:44.000Z</time>
      </trkpt>
      <trkpt lat="43.73487" lon="7.0135">
        <ele>806</ele>
        <time>2011-04-03T11:50:47.000Z</time>
      </trkpt>
      <trkpt lat="43.73497" lon="7.01342">
        <ele>805</ele>
        <time>2011-04-03T11:50:53.000Z</time>
      </trkpt>
      <trkpt lat="43.73506" lon="7.01336">
        <ele>803.59997558594</ele>
        <time>2011-04-03T11:51:00.000Z</time>
      </trkpt>
      <trkpt lat="43.73514" lon="7.01329">
        <ele>802.59997558594</ele>
        <time>2011-04-03T11:51:03.000Z</time>
      </trkpt>
      <trkpt lat="43.7352" lon="7.01322">
        <ele>801.59997558594</ele>
        <time>2011-04-03T11:51:05.000Z</time>
      </trkpt>
      <trkpt lat="43.73525" lon="7.01307">
        <ele>801</ele>
        <time>2011-04-03T11:51:08.000Z</time>
      </trkpt>
      <trkpt lat="43.73519" lon="7.01294">
        <ele>802.20001220703</ele>
        <time>2011-04-03T11:51:12.000Z</time>
      </trkpt>
      <trkpt lat="43.73515" lon="7.01291">
        <ele>803</ele>
        <time>2011-04-03T11:51:15.000Z</time>
      </trkpt>
      <trkpt lat="43.73512" lon="7.01288">
        <ele>803.59997558594</ele>
        <time>2011-04-03T11:51:17.000Z</time>
      </trkpt>
      <trkpt lat="43.73508" lon="7.01286">
        <ele>804.40002441406</ele>
        <time>2011-04-03T11:51:20.000Z</time>
      </trkpt>
      <trkpt lat="43.73497" lon="7.01279">
        <ele>806.59997558594</ele>
        <time>2011-04-03T11:51:28.000Z</time>
      </trkpt>
      <trkpt lat="43.73494" lon="7.01277">
        <ele>807.20001220703</ele>
        <time>2011-04-03T11:51:30.000Z</time>
      </trkpt>
      <trkpt lat="43.73487" lon="7.01269">
        <ele>808.59997558594</ele>
        <time>2011-04-03T11:51:36.000Z</time>
      </trkpt>
      <trkpt lat="43.73486" lon="7.01267">
        <ele>809</ele>
        <time>2011-04-03T11:51:38.000Z</time>
      </trkpt>
      <trkpt lat="43.73482" lon="7.01263">
        <ele>809.59997558594</ele>
        <time>2011-04-03T11:51:42.000Z</time>
      </trkpt>
      <trkpt lat="43.7348" lon="7.01261">
        <ele>810</ele>
        <time>2011-04-03T11:51:44.000Z</time>
      </trkpt>
      <trkpt lat="43.73477" lon="7.01262">
        <ele>810.59997558594</ele>
        <time>2011-04-03T11:51:47.000Z</time>
      </trkpt>
      <trkpt lat="43.73477" lon="7.01262">
        <ele>810.40002441406</ele>
        <time>2011-04-03T11:51:58.000Z</time>
      </trkpt>
      <trkpt lat="43.73478" lon="7.01261">
        <ele>810.20001220703</ele>
        <time>2011-04-03T11:52:03.000Z</time>
      </trkpt>
      <trkpt lat="43.73481" lon="7.01266">
        <ele>809.79998779297</ele>
        <time>2011-04-03T11:52:23.000Z</time>
      </trkpt>
      <trkpt lat="43.73481" lon="7.01265">
        <ele>809.79998779297</ele>
        <time>2011-04-03T11:52:39.000Z</time>
      </trkpt>
      <trkpt lat="43.7348" lon="7.01262">
        <ele>810</ele>
        <time>2011-04-03T11:53:00.000Z</time>
      </trkpt>
      <trkpt lat="43.73478" lon="7.01267">
        <ele>810.20001220703</ele>
        <time>2011-04-03T11:54:28.000Z</time>
      </trkpt>
      <trkpt lat="43.73478" lon="7.01264">
        <ele>810.20001220703</ele>
        <time>2011-04-03T11:54:57.000Z</time>
      </trkpt>
      <trkpt lat="43.73479" lon="7.01263">
        <ele>810.20001220703</ele>
        <time>2011-04-03T11:55:00.000Z</time>
      </trkpt>
      <trkpt lat="43.73479" lon="7.01261">
        <ele>810.20001220703</ele>
        <time>2011-04-03T11:55:02.000Z</time>
      </trkpt>
      <trkpt lat="43.73478" lon="7.01256">
        <ele>810.40002441406</ele>
        <time>2011-04-03T11:55:06.000Z</time>
      </trkpt>
      <trkpt lat="43.73472" lon="7.01243">
        <ele>811.20001220703</ele>
        <time>2011-04-03T11:55:10.000Z</time>
      </trkpt>
      <trkpt lat="43.73467" lon="7.01235">
        <ele>811.40002441406</ele>
        <time>2011-04-03T11:55:13.000Z</time>
      </trkpt>
      <trkpt lat="43.73466" lon="7.01231">
        <ele>811.40002441406</ele>
        <time>2011-04-03T11:55:15.000Z</time>
      </trkpt>
      <trkpt lat="43.73459" lon="7.0122">
        <ele>812</ele>
        <time>2011-04-03T11:55:22.000Z</time>
      </trkpt>
      <trkpt lat="43.73456" lon="7.01216">
        <ele>812.20001220703</ele>
        <time>2011-04-03T11:55:25.000Z</time>
      </trkpt>
      <trkpt lat="43.73452" lon="7.01207">
        <ele>812.59997558594</ele>
        <time>2011-04-03T11:55:30.000Z</time>
      </trkpt>
      <trkpt lat="43.73446" lon="7.01197">
        <ele>813</ele>
        <time>2011-04-03T11:55:38.000Z</time>
      </trkpt>
      <trkpt lat="43.73445" lon="7.01195">
        <ele>813</ele>
        <time>2011-04-03T11:55:39.000Z</time>
      </trkpt>
      <trkpt lat="43.73442" lon="7.01188">
        <ele>813.20001220703</ele>
        <time>2011-04-03T11:55:44.000Z</time>
      </trkpt>
      <trkpt lat="43.73439" lon="7.01176">
        <ele>813</ele>
        <time>2011-04-03T11:55:50.000Z</time>
      </trkpt>
      <trkpt lat="43.73437" lon="7.01172">
        <ele>813.40002441406</ele>
        <time>2011-04-03T11:55:53.000Z</time>
      </trkpt>
      <trkpt lat="43.73432" lon="7.01167">
        <ele>814</ele>
        <time>2011-04-03T11:55:57.000Z</time>
      </trkpt>
      <trkpt lat="43.73423" lon="7.01153">
        <ele>814.59997558594</ele>
        <time>2011-04-03T11:56:02.000Z</time>
      </trkpt>
      <trkpt lat="43.73424" lon="7.0115">
        <ele>814.20001220703</ele>
        <time>2011-04-03T11:56:03.000Z</time>
      </trkpt>
      <trkpt lat="43.73422" lon="7.0114">
        <ele>813.59997558594</ele>
        <time>2011-04-03T11:56:08.000Z</time>
      </trkpt>
      <trkpt lat="43.73416" lon="7.01136">
        <ele>814.40002441406</ele>
        <time>2011-04-03T11:56:14.000Z</time>
      </trkpt>
      <trkpt lat="43.73415" lon="7.01136">
        <ele>814.79998779297</ele>
        <time>2011-04-03T11:56:15.000Z</time>
      </trkpt>
      <trkpt lat="43.73403" lon="7.01135">
        <ele>817.20001220703</ele>
        <time>2011-04-03T11:56:23.000Z</time>
      </trkpt>
      <trkpt lat="43.73396" lon="7.0114">
        <ele>819</ele>
        <time>2011-04-03T11:56:29.000Z</time>
      </trkpt>
      <trkpt lat="43.73391" lon="7.01152">
        <ele>820.40002441406</ele>
        <time>2011-04-03T11:56:37.000Z</time>
      </trkpt>
      <trkpt lat="43.73388" lon="7.01161">
        <ele>821.20001220703</ele>
        <time>2011-04-03T11:56:43.000Z</time>
      </trkpt>
      <trkpt lat="43.73388" lon="7.01162">
        <ele>821.20001220703</ele>
        <time>2011-04-03T11:56:46.000Z</time>
      </trkpt>
      <trkpt lat="43.73384" lon="7.0117">
        <ele>822</ele>
        <time>2011-04-03T11:56:51.000Z</time>
      </trkpt>
      <trkpt lat="43.73374" lon="7.0118">
        <ele>823.59997558594</ele>
        <time>2011-04-03T11:56:57.000Z</time>
      </trkpt>
      <trkpt lat="43.73372" lon="7.01181">
        <ele>824</ele>
        <time>2011-04-03T11:56:58.000Z</time>
      </trkpt>
      <trkpt lat="43.73362" lon="7.01184">
        <ele>825.40002441406</ele>
        <time>2011-04-03T11:57:04.000Z</time>
      </trkpt>
      <trkpt lat="43.73355" lon="7.01187">
        <ele>826.40002441406</ele>
        <time>2011-04-03T11:57:08.000Z</time>
      </trkpt>
      <trkpt lat="43.73351" lon="7.0119">
        <ele>826.79998779297</ele>
        <time>2011-04-03T11:57:11.000Z</time>
      </trkpt>
      <trkpt lat="43.7335" lon="7.01204">
        <ele>827</ele>
        <time>2011-04-03T11:57:17.000Z</time>
      </trkpt>
      <trkpt lat="43.73351" lon="7.01209">
        <ele>826.79998779297</ele>
        <time>2011-04-03T11:57:19.000Z</time>
      </trkpt>
      <trkpt lat="43.73354" lon="7.01221">
        <ele>826.40002441406</ele>
        <time>2011-04-03T11:57:24.000Z</time>
      </trkpt>
      <trkpt lat="43.73358" lon="7.01233">
        <ele>825.79998779297</ele>
        <time>2011-04-03T11:57:29.000Z</time>
      </trkpt>
      <trkpt lat="43.73359" lon="7.01236">
        <ele>825.79998779297</ele>
        <time>2011-04-03T11:57:30.000Z</time>
      </trkpt>
      <trkpt lat="43.73355" lon="7.01257">
        <ele>825.79998779297</ele>
        <time>2011-04-03T11:57:38.000Z</time>
      </trkpt>
      <trkpt lat="43.73351" lon="7.01263">
        <ele>826</ele>
        <time>2011-04-03T11:57:43.000Z</time>
      </trkpt>
      <trkpt lat="43.73346" lon="7.01266">
        <ele>826.40002441406</ele>
        <time>2011-04-03T11:58:31.000Z</time>
      </trkpt>
      <trkpt lat="43.7334" lon="7.01268">
        <ele>826.79998779297</ele>
        <time>2011-04-03T11:58:35.000Z</time>
      </trkpt>
      <trkpt lat="43.73335" lon="7.0127">
        <ele>827</ele>
        <time>2011-04-03T11:58:38.000Z</time>
      </trkpt>
      <trkpt lat="43.73326" lon="7.01275">
        <ele>828.20001220703</ele>
        <time>2011-04-03T11:58:45.000Z</time>
      </trkpt>
      <trkpt lat="43.73322" lon="7.01278">
        <ele>828.59997558594</ele>
        <time>2011-04-03T11:58:48.000Z</time>
      </trkpt>
      <trkpt lat="43.73315" lon="7.01285">
        <ele>829.40002441406</ele>
        <time>2011-04-03T11:58:53.000Z</time>
      </trkpt>
      <trkpt lat="43.73307" lon="7.01294">
        <ele>830.20001220703</ele>
        <time>2011-04-03T11:58:58.000Z</time>
      </trkpt>
      <trkpt lat="43.73306" lon="7.01295">
        <ele>830.40002441406</ele>
        <time>2011-04-03T11:58:59.000Z</time>
      </trkpt>
      <trkpt lat="43.73295" lon="7.01304">
        <ele>831.79998779297</ele>
        <time>2011-04-03T11:59:06.000Z</time>
      </trkpt>
      <trkpt lat="43.73291" lon="7.01307">
        <ele>832.40002441406</ele>
        <time>2011-04-03T11:59:09.000Z</time>
      </trkpt>
      <trkpt lat="43.7329" lon="7.01312">
        <ele>832.59997558594</ele>
        <time>2011-04-03T11:59:12.000Z</time>
      </trkpt>
      <trkpt lat="43.7329" lon="7.01315">
        <ele>832.59997558594</ele>
        <time>2011-04-03T11:59:13.000Z</time>
      </trkpt>
      <trkpt lat="43.73287" lon="7.01324">
        <ele>832.79998779297</ele>
        <time>2011-04-03T11:59:16.000Z</time>
      </trkpt>
      <trkpt lat="43.73286" lon="7.01325">
        <ele>833</ele>
        <time>2011-04-03T11:59:17.000Z</time>
      </trkpt>
      <trkpt lat="43.73282" lon="7.01325">
        <ele>833.59997558594</ele>
        <time>2011-04-03T11:59:20.000Z</time>
      </trkpt>
      <trkpt lat="43.73279" lon="7.01323">
        <ele>834.20001220703</ele>
        <time>2011-04-03T11:59:23.000Z</time>
      </trkpt>
      <trkpt lat="43.73276" lon="7.01322">
        <ele>834.79998779297</ele>
        <time>2011-04-03T11:59:25.000Z</time>
      </trkpt>
      <trkpt lat="43.73272" lon="7.01322">
        <ele>835.20001220703</ele>
        <time>2011-04-03T11:59:28.000Z</time>
      </trkpt>
      <trkpt lat="43.7327" lon="7.01324">
        <ele>835.59997558594</ele>
        <time>2011-04-03T11:59:30.000Z</time>
      </trkpt>
      <trkpt lat="43.73264" lon="7.01327">
        <ele>836.59997558594</ele>
        <time>2011-04-03T11:59:35.000Z</time>
      </trkpt>
      <trkpt lat="43.73261" lon="7.01328">
        <ele>837.20001220703</ele>
        <time>2011-04-03T11:59:38.000Z</time>
      </trkpt>
      <trkpt lat="43.73254" lon="7.01333">
        <ele>838.20001220703</ele>
        <time>2011-04-03T11:59:45.000Z</time>
      </trkpt>
      <trkpt lat="43.73252" lon="7.01338">
        <ele>838.79998779297</ele>
        <time>2011-04-03T11:59:49.000Z</time>
      </trkpt>
      <trkpt lat="43.73252" lon="7.0134">
        <ele>839</ele>
        <time>2011-04-03T11:59:50.000Z</time>
      </trkpt>
      <trkpt lat="43.73252" lon="7.01343">
        <ele>839.20001220703</ele>
        <time>2011-04-03T11:59:52.000Z</time>
      </trkpt>
      <trkpt lat="43.73251" lon="7.01351">
        <ele>840</ele>
        <time>2011-04-03T11:59:58.000Z</time>
      </trkpt>
      <trkpt lat="43.7325" lon="7.01353">
        <ele>840.20001220703</ele>
        <time>2011-04-03T11:59:59.000Z</time>
      </trkpt>
      <trkpt lat="43.73249" lon="7.01361">
        <ele>841.20001220703</ele>
        <time>2011-04-03T12:00:04.000Z</time>
      </trkpt>
      <trkpt lat="43.73248" lon="7.01364">
        <ele>841.59997558594</ele>
        <time>2011-04-03T12:00:06.000Z</time>
      </trkpt>
      <trkpt lat="43.73248" lon="7.01367">
        <ele>841.79998779297</ele>
        <time>2011-04-03T12:00:08.000Z</time>
      </trkpt>
      <trkpt lat="43.73248" lon="7.0137">
        <ele>842</ele>
        <time>2011-04-03T12:00:10.000Z</time>
      </trkpt>
      <trkpt lat="43.73247" lon="7.01373">
        <ele>842.40002441406</ele>
        <time>2011-04-03T12:00:12.000Z</time>
      </trkpt>
      <trkpt lat="43.73247" lon="7.01374">
        <ele>842.59997558594</ele>
        <time>2011-04-03T12:00:13.000Z</time>
      </trkpt>
      <trkpt lat="43.73247" lon="7.01382">
        <ele>843</ele>
        <time>2011-04-03T12:00:18.000Z</time>
      </trkpt>
      <trkpt lat="43.73248" lon="7.01393">
        <ele>843.59997558594</ele>
        <time>2011-04-03T12:00:25.000Z</time>
      </trkpt>
      <trkpt lat="43.73249" lon="7.01403">
        <ele>844.20001220703</ele>
        <time>2011-04-03T12:00:31.000Z</time>
      </trkpt>
      <trkpt lat="43.7325" lon="7.0141">
        <ele>844.40002441406</ele>
        <time>2011-04-03T12:00:36.000Z</time>
      </trkpt>
      <trkpt lat="43.73252" lon="7.01414">
        <ele>844.40002441406</ele>
        <time>2011-04-03T12:00:39.000Z</time>
      </trkpt>
      <trkpt lat="43.73253" lon="7.01417">
        <ele>844.40002441406</ele>
        <time>2011-04-03T12:00:41.000Z</time>
      </trkpt>
      <trkpt lat="43.73257" lon="7.01424">
        <ele>844.79998779297</ele>
        <time>2011-04-03T12:00:46.000Z</time>
      </trkpt>
      <trkpt lat="43.73262" lon="7.01434">
        <ele>845.59997558594</ele>
        <time>2011-04-03T12:00:53.000Z</time>
      </trkpt>
      <trkpt lat="43.73262" lon="7.01436">
        <ele>845.79998779297</ele>
        <time>2011-04-03T12:00:54.000Z</time>
      </trkpt>
      <trkpt lat="43.73264" lon="7.01438">
        <ele>845.79998779297</ele>
        <time>2011-04-03T12:00:56.000Z</time>
      </trkpt>
      <trkpt lat="43.73268" lon="7.01441">
        <ele>845.40002441406</ele>
        <time>2011-04-03T12:01:00.000Z</time>
      </trkpt>
      <trkpt lat="43.7327" lon="7.01441">
        <ele>845</ele>
        <time>2011-04-03T12:01:02.000Z</time>
      </trkpt>
      <trkpt lat="43.73272" lon="7.0144">
        <ele>844.40002441406</ele>
        <time>2011-04-03T12:01:07.000Z</time>
      </trkpt>
      <trkpt lat="43.73278" lon="7.01447">
        <ele>844.20001220703</ele>
        <time>2011-04-03T12:01:13.000Z</time>
      </trkpt>
      <trkpt lat="43.7328" lon="7.01448">
        <ele>844</ele>
        <time>2011-04-03T12:01:15.000Z</time>
      </trkpt>
      <trkpt lat="43.73285" lon="7.01452">
        <ele>843.59997558594</ele>
        <time>2011-04-03T12:01:20.000Z</time>
      </trkpt>
      <trkpt lat="43.73282" lon="7.01451">
        <ele>844</ele>
        <time>2011-04-03T12:01:28.000Z</time>
      </trkpt>
      <trkpt lat="43.73286" lon="7.01453">
        <ele>843.40002441406</ele>
        <time>2011-04-03T12:01:58.000Z</time>
      </trkpt>
      <trkpt lat="43.7329" lon="7.01458">
        <ele>843.20001220703</ele>
        <time>2011-04-03T12:02:01.000Z</time>
      </trkpt>
      <trkpt lat="43.73298" lon="7.01466">
        <ele>842.59997558594</ele>
        <time>2011-04-03T12:02:06.000Z</time>
      </trkpt>
      <trkpt lat="43.73305" lon="7.01473">
        <ele>841.59997558594</ele>
        <time>2011-04-03T12:02:10.000Z</time>
      </trkpt>
      <trkpt lat="43.73313" lon="7.01481">
        <ele>840.79998779297</ele>
        <time>2011-04-03T12:02:13.000Z</time>
      </trkpt>
      <trkpt lat="43.73321" lon="7.01491">
        <ele>840</ele>
        <time>2011-04-03T12:02:16.000Z</time>
      </trkpt>
      <trkpt lat="43.7333" lon="7.01503">
        <ele>839.40002441406</ele>
        <time>2011-04-03T12:02:19.000Z</time>
      </trkpt>
      <trkpt lat="43.73336" lon="7.01511">
        <ele>839.59997558594</ele>
        <time>2011-04-03T12:02:21.000Z</time>
      </trkpt>
      <trkpt lat="43.73349" lon="7.0153">
        <ele>841</ele>
        <time>2011-04-03T12:02:25.000Z</time>
      </trkpt>
      <trkpt lat="43.73364" lon="7.01547">
        <ele>841.59997558594</ele>
        <time>2011-04-03T12:02:29.000Z</time>
      </trkpt>
      <trkpt lat="43.73368" lon="7.0155">
        <ele>841.40002441406</ele>
        <time>2011-04-03T12:02:30.000Z</time>
      </trkpt>
      <trkpt lat="43.73372" lon="7.01553">
        <ele>841.20001220703</ele>
        <time>2011-04-03T12:02:31.000Z</time>
      </trkpt>
      <trkpt lat="43.73381" lon="7.0156">
        <ele>840.79998779297</ele>
        <time>2011-04-03T12:02:33.000Z</time>
      </trkpt>
      <trkpt lat="43.73397" lon="7.01571">
        <ele>839.59997558594</ele>
        <time>2011-04-03T12:02:37.000Z</time>
      </trkpt>
      <trkpt lat="43.734" lon="7.01574">
        <ele>839.59997558594</ele>
        <time>2011-04-03T12:02:38.000Z</time>
      </trkpt>
      <trkpt lat="43.73412" lon="7.01585">
        <ele>839.20001220703</ele>
        <time>2011-04-03T12:02:41.000Z</time>
      </trkpt>
      <trkpt lat="43.73425" lon="7.01598">
        <ele>839.59997558594</ele>
        <time>2011-04-03T12:02:44.000Z</time>
      </trkpt>
      <trkpt lat="43.7343" lon="7.01602">
        <ele>839.79998779297</ele>
        <time>2011-04-03T12:02:45.000Z</time>
      </trkpt>
      <trkpt lat="43.73449" lon="7.01619">
        <ele>840</ele>
        <time>2011-04-03T12:02:49.000Z</time>
      </trkpt>
      <trkpt lat="43.73459" lon="7.01628">
        <ele>840</ele>
        <time>2011-04-03T12:02:51.000Z</time>
      </trkpt>
      <trkpt lat="43.73468" lon="7.01636">
        <ele>839.79998779297</ele>
        <time>2011-04-03T12:02:53.000Z</time>
      </trkpt>
      <trkpt lat="43.73486" lon="7.01649">
        <ele>839.40002441406</ele>
        <time>2011-04-03T12:02:57.000Z</time>
      </trkpt>
      <trkpt lat="43.73498" lon="7.01662">
        <ele>840.40002441406</ele>
        <time>2011-04-03T12:03:01.000Z</time>
      </trkpt>
      <trkpt lat="43.73501" lon="7.01666">
        <ele>840.40002441406</ele>
        <time>2011-04-03T12:03:02.000Z</time>
      </trkpt>
      <trkpt lat="43.73507" lon="7.01673">
        <ele>839.79998779297</ele>
        <time>2011-04-03T12:03:04.000Z</time>
      </trkpt>
      <trkpt lat="43.73514" lon="7.0168">
        <ele>839</ele>
        <time>2011-04-03T12:03:06.000Z</time>
      </trkpt>
      <trkpt lat="43.73516" lon="7.01684">
        <ele>838.79998779297</ele>
        <time>2011-04-03T12:03:07.000Z</time>
      </trkpt>
      <trkpt lat="43.73531" lon="7.01701">
        <ele>837.40002441406</ele>
        <time>2011-04-03T12:03:12.000Z</time>
      </trkpt>
      <trkpt lat="43.73536" lon="7.01707">
        <ele>836.79998779297</ele>
        <time>2011-04-03T12:03:14.000Z</time>
      </trkpt>
      <trkpt lat="43.73539" lon="7.01713">
        <ele>837</ele>
        <time>2011-04-03T12:03:16.000Z</time>
      </trkpt>
      <trkpt lat="43.7354" lon="7.01721">
        <ele>838</ele>
        <time>2011-04-03T12:03:18.000Z</time>
      </trkpt>
      <trkpt lat="43.73541" lon="7.01746">
        <ele>841</ele>
        <time>2011-04-03T12:03:22.000Z</time>
      </trkpt>
      <trkpt lat="43.7354" lon="7.01767">
        <ele>843.79998779297</ele>
        <time>2011-04-03T12:03:25.000Z</time>
      </trkpt>
      <trkpt lat="43.73541" lon="7.01773">
        <ele>844.20001220703</ele>
        <time>2011-04-03T12:03:26.000Z</time>
      </trkpt>
      <trkpt lat="43.7355" lon="7.01784">
        <ele>843.79998779297</ele>
        <time>2011-04-03T12:03:29.000Z</time>
      </trkpt>
      <trkpt lat="43.73559" lon="7.01789">
        <ele>843</ele>
        <time>2011-04-03T12:03:31.000Z</time>
      </trkpt>
      <trkpt lat="43.73565" lon="7.01792">
        <ele>842.20001220703</ele>
        <time>2011-04-03T12:03:33.000Z</time>
      </trkpt>
      <trkpt lat="43.73566" lon="7.01792">
        <ele>842</ele>
        <time>2011-04-03T12:03:34.000Z</time>
      </trkpt>
      <trkpt lat="43.73567" lon="7.01791">
        <ele>841.79998779297</ele>
        <time>2011-04-03T12:03:36.000Z</time>
      </trkpt>
      <trkpt lat="43.7357" lon="7.01787">
        <ele>840.59997558594</ele>
        <time>2011-04-03T12:04:02.000Z</time>
      </trkpt>
      <trkpt lat="43.73571" lon="7.01785">
        <ele>840.20001220703</ele>
        <time>2011-04-03T12:04:06.000Z</time>
      </trkpt>
      <trkpt lat="43.73574" lon="7.01781">
        <ele>839.20001220703</ele>
        <time>2011-04-03T12:04:09.000Z</time>
      </trkpt>
      <trkpt lat="43.73576" lon="7.01779">
        <ele>838.59997558594</ele>
        <time>2011-04-03T12:04:10.000Z</time>
      </trkpt>
      <trkpt lat="43.73585" lon="7.01766">
        <ele>835</ele>
        <time>2011-04-03T12:04:15.000Z</time>
      </trkpt>
      <trkpt lat="43.73588" lon="7.01764">
        <ele>834.59997558594</ele>
        <time>2011-04-03T12:04:16.000Z</time>
      </trkpt>
      <trkpt lat="43.73595" lon="7.01762">
        <ele>833.59997558594</ele>
        <time>2011-04-03T12:04:20.000Z</time>
      </trkpt>
      <trkpt lat="43.73604" lon="7.01767">
        <ele>833.79998779297</ele>
        <time>2011-04-03T12:04:26.000Z</time>
      </trkpt>
      <trkpt lat="43.73605" lon="7.01769">
        <ele>833.79998779297</ele>
        <time>2011-04-03T12:04:27.000Z</time>
      </trkpt>
      <trkpt lat="43.73615" lon="7.01776">
        <ele>834.20001220703</ele>
        <time>2011-04-03T12:04:32.000Z</time>
      </trkpt>
      <trkpt lat="43.73621" lon="7.01778">
        <ele>834.20001220703</ele>
        <time>2011-04-03T12:04:35.000Z</time>
      </trkpt>
      <trkpt lat="43.73625" lon="7.01781">
        <ele>834.40002441406</ele>
        <time>2011-04-03T12:04:37.000Z</time>
      </trkpt>
      <trkpt lat="43.73627" lon="7.01786">
        <ele>835.20001220703</ele>
        <time>2011-04-03T12:04:42.000Z</time>
      </trkpt>
      <trkpt lat="43.73629" lon="7.01788">
        <ele>835.40002441406</ele>
        <time>2011-04-03T12:04:45.000Z</time>
      </trkpt>
      <trkpt lat="43.73633" lon="7.01792">
        <ele>836</ele>
        <time>2011-04-03T12:04:47.000Z</time>
      </trkpt>
      <trkpt lat="43.73635" lon="7.01795">
        <ele>836.40002441406</ele>
        <time>2011-04-03T12:04:48.000Z</time>
      </trkpt>
      <trkpt lat="43.73647" lon="7.018">
        <ele>836.79998779297</ele>
        <time>2011-04-03T12:04:51.000Z</time>
      </trkpt>
      <trkpt lat="43.73652" lon="7.01801">
        <ele>836.59997558594</ele>
        <time>2011-04-03T12:04:52.000Z</time>
      </trkpt>
      <trkpt lat="43.7366" lon="7.018">
        <ele>836</ele>
        <time>2011-04-03T12:04:54.000Z</time>
      </trkpt>
      <trkpt lat="43.73664" lon="7.018">
        <ele>835.79998779297</ele>
        <time>2011-04-03T12:04:55.000Z</time>
      </trkpt>
      <trkpt lat="43.73671" lon="7.018">
        <ele>835.79998779297</ele>
        <time>2011-04-03T12:04:57.000Z</time>
      </trkpt>
      <trkpt lat="43.73682" lon="7.01798">
        <ele>836.20001220703</ele>
        <time>2011-04-03T12:05:00.000Z</time>
      </trkpt>
      <trkpt lat="43.7369" lon="7.01797">
        <ele>836.40002441406</ele>
        <time>2011-04-03T12:05:02.000Z</time>
      </trkpt>
      <trkpt lat="43.73704" lon="7.01792">
        <ele>836.20001220703</ele>
        <time>2011-04-03T12:05:06.000Z</time>
      </trkpt>
      <trkpt lat="43.73709" lon="7.0179">
        <ele>836.20001220703</ele>
        <time>2011-04-03T12:05:08.000Z</time>
      </trkpt>
      <trkpt lat="43.73719" lon="7.01787">
        <ele>836</ele>
        <time>2011-04-03T12:05:12.000Z</time>
      </trkpt>
      <trkpt lat="43.73729" lon="7.01784">
        <ele>836</ele>
        <time>2011-04-03T12:05:16.000Z</time>
      </trkpt>
      <trkpt lat="43.73735" lon="7.01786">
        <ele>836.59997558594</ele>
        <time>2011-04-03T12:05:19.000Z</time>
      </trkpt>
      <trkpt lat="43.73745" lon="7.01788">
        <ele>837.79998779297</ele>
        <time>2011-04-03T12:05:25.000Z</time>
      </trkpt>
      <trkpt lat="43.73748" lon="7.01789">
        <ele>838.20001220703</ele>
        <time>2011-04-03T12:05:27.000Z</time>
      </trkpt>
      <trkpt lat="43.73757" lon="7.01789">
        <ele>838.59997558594</ele>
        <time>2011-04-03T12:05:32.000Z</time>
      </trkpt>
      <trkpt lat="43.73767" lon="7.01788">
        <ele>838.59997558594</ele>
        <time>2011-04-03T12:05:38.000Z</time>
      </trkpt>
      <trkpt lat="43.7377" lon="7.01787">
        <ele>838.59997558594</ele>
        <time>2011-04-03T12:05:40.000Z</time>
      </trkpt>
      <trkpt lat="43.73779" lon="7.01788">
        <ele>839</ele>
        <time>2011-04-03T12:05:45.000Z</time>
      </trkpt>
      <trkpt lat="43.73786" lon="7.01787">
        <ele>839</ele>
        <time>2011-04-03T12:05:48.000Z</time>
      </trkpt>
      <trkpt lat="43.73795" lon="7.01787">
        <ele>839.40002441406</ele>
        <time>2011-04-03T12:05:51.000Z</time>
      </trkpt>
      <trkpt lat="43.73805" lon="7.01787">
        <ele>839.59997558594</ele>
        <time>2011-04-03T12:05:54.000Z</time>
      </trkpt>
      <trkpt lat="43.73811" lon="7.01786">
        <ele>839.59997558594</ele>
        <time>2011-04-03T12:05:57.000Z</time>
      </trkpt>
      <trkpt lat="43.73813" lon="7.01785">
        <ele>839.40002441406</ele>
        <time>2011-04-03T12:05:58.000Z</time>
      </trkpt>
      <trkpt lat="43.73819" lon="7.0178">
        <ele>838.20001220703</ele>
        <time>2011-04-03T12:06:01.000Z</time>
      </trkpt>
      <trkpt lat="43.73821" lon="7.01779">
        <ele>838</ele>
        <time>2011-04-03T12:06:02.000Z</time>
      </trkpt>
      <trkpt lat="43.73824" lon="7.01779">
        <ele>838</ele>
        <time>2011-04-03T12:06:03.000Z</time>
      </trkpt>
      <trkpt lat="43.73831" lon="7.01781">
        <ele>838.79998779297</ele>
        <time>2011-04-03T12:06:06.000Z</time>
      </trkpt>
      <trkpt lat="43.7384" lon="7.01782">
        <ele>839.79998779297</ele>
        <time>2011-04-03T12:06:11.000Z</time>
      </trkpt>
      <trkpt lat="43.73845" lon="7.01782">
        <ele>840.40002441406</ele>
        <time>2011-04-03T12:06:13.000Z</time>
      </trkpt>
      <trkpt lat="43.7385" lon="7.01781">
        <ele>840.59997558594</ele>
        <time>2011-04-03T12:06:16.000Z</time>
      </trkpt>
      <trkpt lat="43.73854" lon="7.0178">
        <ele>840.59997558594</ele>
        <time>2011-04-03T12:06:18.000Z</time>
      </trkpt>
      <trkpt lat="43.73858" lon="7.01779">
        <ele>841</ele>
        <time>2011-04-03T12:06:20.000Z</time>
      </trkpt>
      <trkpt lat="43.73867" lon="7.01781">
        <ele>842.40002441406</ele>
        <time>2011-04-03T12:06:25.000Z</time>
      </trkpt>
      <trkpt lat="43.73877" lon="7.01783">
        <ele>844</ele>
        <time>2011-04-03T12:06:31.000Z</time>
      </trkpt>
      <trkpt lat="43.73882" lon="7.01781">
        <ele>844</ele>
        <time>2011-04-03T12:06:34.000Z</time>
      </trkpt>
      <trkpt lat="43.73895" lon="7.01777">
        <ele>844.20001220703</ele>
        <time>2011-04-03T12:06:42.000Z</time>
      </trkpt>
      <trkpt lat="43.73905" lon="7.0178">
        <ele>846</ele>
        <time>2011-04-03T12:06:49.000Z</time>
      </trkpt>
      <trkpt lat="43.73907" lon="7.01779">
        <ele>846.20001220703</ele>
        <time>2011-04-03T12:06:50.000Z</time>
      </trkpt>
      <trkpt lat="43.73912" lon="7.01776">
        <ele>845.20001220703</ele>
        <time>2011-04-03T12:06:54.000Z</time>
      </trkpt>
      <trkpt lat="43.73913" lon="7.01775">
        <ele>845</ele>
        <time>2011-04-03T12:06:55.000Z</time>
      </trkpt>
      <trkpt lat="43.73918" lon="7.01773">
        <ele>845</ele>
        <time>2011-04-03T12:06:59.000Z</time>
      </trkpt>
      <trkpt lat="43.7392" lon="7.01773">
        <ele>845</ele>
        <time>2011-04-03T12:07:00.000Z</time>
      </trkpt>
      <trkpt lat="43.73926" lon="7.01769">
        <ele>844</ele>
        <time>2011-04-03T12:07:05.000Z</time>
      </trkpt>
      <trkpt lat="43.73926" lon="7.0177">
        <ele>844.40002441406</ele>
        <time>2011-04-03T12:07:10.000Z</time>
      </trkpt>
      <trkpt lat="43.73926" lon="7.01768">
        <ele>843.59997558594</ele>
        <time>2011-04-03T12:07:26.000Z</time>
      </trkpt>
      <trkpt lat="43.73928" lon="7.01768">
        <ele>843.40002441406</ele>
        <time>2011-04-03T12:07:28.000Z</time>
      </trkpt>
      <trkpt lat="43.73928" lon="7.01768">
        <ele>843.59997558594</ele>
        <time>2011-04-03T12:07:30.000Z</time>
      </trkpt>
      <trkpt lat="43.73928" lon="7.01768">
        <ele>843.40002441406</ele>
        <time>2011-04-03T12:07:35.000Z</time>
      </trkpt>
      <trkpt lat="43.7393" lon="7.01768">
        <ele>843.40002441406</ele>
        <time>2011-04-03T12:07:54.000Z</time>
      </trkpt>
      <trkpt lat="43.73935" lon="7.01768">
        <ele>843.79998779297</ele>
        <time>2011-04-03T12:08:10.000Z</time>
      </trkpt>
      <trkpt lat="43.73945" lon="7.01768">
        <ele>844.20001220703</ele>
        <time>2011-04-03T12:08:16.000Z</time>
      </trkpt>
      <trkpt lat="43.73949" lon="7.01769">
        <ele>844.59997558594</ele>
        <time>2011-04-03T12:08:18.000Z</time>
      </trkpt>
      <trkpt lat="43.73961" lon="7.01771">
        <ele>845.59997558594</ele>
        <time>2011-04-03T12:08:25.000Z</time>
      </trkpt>
      <trkpt lat="43.73965" lon="7.01772">
        <ele>846.20001220703</ele>
        <time>2011-04-03T12:08:27.000Z</time>
      </trkpt>
      <trkpt lat="43.73973" lon="7.01777">
        <ele>848</ele>
        <time>2011-04-03T12:08:33.000Z</time>
      </trkpt>
      <trkpt lat="43.73983" lon="7.01781">
        <ele>849.79998779297</ele>
        <time>2011-04-03T12:08:40.000Z</time>
      </trkpt>
      <trkpt lat="43.73985" lon="7.01783">
        <ele>850.40002441406</ele>
        <time>2011-04-03T12:08:42.000Z</time>
      </trkpt>
      <trkpt lat="43.73997" lon="7.01786">
        <ele>852</ele>
        <time>2011-04-03T12:08:50.000Z</time>
      </trkpt>
      <trkpt lat="43.74001" lon="7.01788">
        <ele>852.40002441406</ele>
        <time>2011-04-03T12:08:53.000Z</time>
      </trkpt>
      <trkpt lat="43.74009" lon="7.0179">
        <ele>852.79998779297</ele>
        <time>2011-04-03T12:08:58.000Z</time>
      </trkpt>
      <trkpt lat="43.74021" lon="7.01791">
        <ele>852.40002441406</ele>
        <time>2011-04-03T12:09:05.000Z</time>
      </trkpt>
      <trkpt lat="43.74022" lon="7.0179">
        <ele>852.20001220703</ele>
        <time>2011-04-03T12:09:06.000Z</time>
      </trkpt>
      <trkpt lat="43.74037" lon="7.01792">
        <ele>852</ele>
        <time>2011-04-03T12:09:16.000Z</time>
      </trkpt>
      <trkpt lat="43.74038" lon="7.01793">
        <ele>852.20001220703</ele>
        <time>2011-04-03T12:09:17.000Z</time>
      </trkpt>
      <trkpt lat="43.74047" lon="7.01799">
        <ele>853.79998779297</ele>
        <time>2011-04-03T12:09:24.000Z</time>
      </trkpt>
      <trkpt lat="43.74056" lon="7.01802">
        <ele>854.40002441406</ele>
        <time>2011-04-03T12:09:30.000Z</time>
      </trkpt>
      <trkpt lat="43.74058" lon="7.01803">
        <ele>854.59997558594</ele>
        <time>2011-04-03T12:09:31.000Z</time>
      </trkpt>
      <trkpt lat="43.74068" lon="7.01807">
        <ele>855.20001220703</ele>
        <time>2011-04-03T12:09:37.000Z</time>
      </trkpt>
      <trkpt lat="43.74075" lon="7.0181">
        <ele>855.79998779297</ele>
        <time>2011-04-03T12:09:42.000Z</time>
      </trkpt>
      <trkpt lat="43.74078" lon="7.01811">
        <ele>855.79998779297</ele>
        <time>2011-04-03T12:09:44.000Z</time>
      </trkpt>
      <trkpt lat="43.74091" lon="7.01817">
        <ele>858.40002441406</ele>
        <time>2011-04-03T12:09:51.000Z</time>
      </trkpt>
      <trkpt lat="43.74093" lon="7.01819">
        <ele>859</ele>
        <time>2011-04-03T12:09:52.000Z</time>
      </trkpt>
      <trkpt lat="43.74108" lon="7.01823">
        <ele>861.79998779297</ele>
        <time>2011-04-03T12:09:59.000Z</time>
      </trkpt>
      <trkpt lat="43.74112" lon="7.01823">
        <ele>862</ele>
        <time>2011-04-03T12:10:01.000Z</time>
      </trkpt>
      <trkpt lat="43.74118" lon="7.01822">
        <ele>862.40002441406</ele>
        <time>2011-04-03T12:10:05.000Z</time>
      </trkpt>
      <trkpt lat="43.74131" lon="7.01821">
        <ele>862.79998779297</ele>
        <time>2011-04-03T12:10:11.000Z</time>
      </trkpt>
      <trkpt lat="43.74133" lon="7.0182">
        <ele>862.79998779297</ele>
        <time>2011-04-03T12:10:12.000Z</time>
      </trkpt>
      <trkpt lat="43.74149" lon="7.01811">
        <ele>860.40002441406</ele>
        <time>2011-04-03T12:10:19.000Z</time>
      </trkpt>
      <trkpt lat="43.74167" lon="7.01804">
        <ele>859.20001220703</ele>
        <time>2011-04-03T12:10:27.000Z</time>
      </trkpt>
      <trkpt lat="43.7417" lon="7.01803">
        <ele>859.20001220703</ele>
        <time>2011-04-03T12:10:28.000Z</time>
      </trkpt>
      <trkpt lat="43.74181" lon="7.018">
        <ele>859.79998779297</ele>
        <time>2011-04-03T12:10:34.000Z</time>
      </trkpt>
      <trkpt lat="43.74185" lon="7.01799">
        <ele>860</ele>
        <time>2011-04-03T12:10:36.000Z</time>
      </trkpt>
      <trkpt lat="43.74197" lon="7.01795">
        <ele>860.79998779297</ele>
        <time>2011-04-03T12:10:42.000Z</time>
      </trkpt>
      <trkpt lat="43.74204" lon="7.01793">
        <ele>861</ele>
        <time>2011-04-03T12:10:46.000Z</time>
      </trkpt>
      <trkpt lat="43.74212" lon="7.01791">
        <ele>861.40002441406</ele>
        <time>2011-04-03T12:10:50.000Z</time>
      </trkpt>
      <trkpt lat="43.74223" lon="7.01787">
        <ele>861.79998779297</ele>
        <time>2011-04-03T12:10:56.000Z</time>
      </trkpt>
      <trkpt lat="43.7423" lon="7.01785">
        <ele>862</ele>
        <time>2011-04-03T12:11:00.000Z</time>
      </trkpt>
      <trkpt lat="43.74241" lon="7.01781">
        <ele>861.79998779297</ele>
        <time>2011-04-03T12:11:06.000Z</time>
      </trkpt>
      <trkpt lat="43.74246" lon="7.01778">
        <ele>861.40002441406</ele>
        <time>2011-04-03T12:11:09.000Z</time>
      </trkpt>
      <trkpt lat="43.7425" lon="7.01778">
        <ele>861.79998779297</ele>
        <time>2011-04-03T12:11:14.000Z</time>
      </trkpt>
      <trkpt lat="43.74253" lon="7.01776">
        <ele>861.79998779297</ele>
        <time>2011-04-03T12:11:26.000Z</time>
      </trkpt>
      <trkpt lat="43.74254" lon="7.01779">
        <ele>863.20001220703</ele>
        <time>2011-04-03T12:11:32.000Z</time>
      </trkpt>
      <trkpt lat="43.74253" lon="7.01781">
        <ele>864</ele>
        <time>2011-04-03T12:11:38.000Z</time>
      </trkpt>
      <trkpt lat="43.74253" lon="7.01781">
        <ele>864.40002441406</ele>
        <time>2011-04-03T12:12:02.000Z</time>
      </trkpt>
      <trkpt lat="43.74252" lon="7.01781">
        <ele>863.79998779297</ele>
        <time>2011-04-03T12:12:13.000Z</time>
      </trkpt>
      <trkpt lat="43.74253" lon="7.01778">
        <ele>862.79998779297</ele>
        <time>2011-04-03T12:12:25.000Z</time>
      </trkpt>
      <trkpt lat="43.74251" lon="7.01781">
        <ele>863.59997558594</ele>
        <time>2011-04-03T12:13:20.000Z</time>
      </trkpt>
      <trkpt lat="43.74251" lon="7.01781">
        <ele>863.59997558594</ele>
        <time>2011-04-03T12:13:26.000Z</time>
      </trkpt>
      <trkpt lat="43.74254" lon="7.01774">
        <ele>861.20001220703</ele>
        <time>2011-04-03T12:15:08.000Z</time>
      </trkpt>
      <trkpt lat="43.74252" lon="7.01773">
        <ele>860</ele>
        <time>2011-04-03T12:15:17.000Z</time>
      </trkpt>
      <trkpt lat="43.74249" lon="7.0177">
        <ele>858.20001220703</ele>
        <time>2011-04-03T12:15:41.000Z</time>
      </trkpt>
      <trkpt lat="43.74252" lon="7.0177">
        <ele>858.79998779297</ele>
        <time>2011-04-03T12:16:08.000Z</time>
      </trkpt>
      <trkpt lat="43.74254" lon="7.01781">
        <ele>864.40002441406</ele>
        <time>2011-04-03T12:16:41.000Z</time>
      </trkpt>
      <trkpt lat="43.7426" lon="7.0178">
        <ele>865</ele>
        <time>2011-04-03T12:16:45.000Z</time>
      </trkpt>
      <trkpt lat="43.74272" lon="7.01776">
        <ele>866</ele>
        <time>2011-04-03T12:16:51.000Z</time>
      </trkpt>
      <trkpt lat="43.74276" lon="7.01775">
        <ele>866.20001220703</ele>
        <time>2011-04-03T12:16:56.000Z</time>
      </trkpt>
      <trkpt lat="43.74277" lon="7.01773">
        <ele>865.40002441406</ele>
        <time>2011-04-03T12:17:32.000Z</time>
      </trkpt>
      <trkpt lat="43.74272" lon="7.01774">
        <ele>864.79998779297</ele>
        <time>2011-04-03T12:17:35.000Z</time>
      </trkpt>
      <trkpt lat="43.74267" lon="7.01774">
        <ele>864</ele>
        <time>2011-04-03T12:17:37.000Z</time>
      </trkpt>
      <trkpt lat="43.74253" lon="7.01777">
        <ele>862.20001220703</ele>
        <time>2011-04-03T12:17:45.000Z</time>
      </trkpt>
      <trkpt lat="43.74253" lon="7.01777">
        <ele>862</ele>
        <time>2011-04-03T12:17:46.000Z</time>
      </trkpt>
      <trkpt lat="43.74252" lon="7.01776">
        <ele>861.40002441406</ele>
        <time>2011-04-03T12:17:51.000Z</time>
      </trkpt>
      <trkpt lat="43.7425" lon="7.01768">
        <ele>857.40002441406</ele>
        <time>2011-04-03T12:18:49.000Z</time>
      </trkpt>
      <trkpt lat="43.7425" lon="7.01773">
        <ele>859.59997558594</ele>
        <time>2011-04-03T12:19:00.000Z</time>
      </trkpt>
      <trkpt lat="43.74253" lon="7.01776">
        <ele>861.79998779297</ele>
        <time>2011-04-03T12:19:43.000Z</time>
      </trkpt>
      <trkpt lat="43.74253" lon="7.01775">
        <ele>861.40002441406</ele>
        <time>2011-04-03T12:19:44.000Z</time>
      </trkpt>
      <trkpt lat="43.74256" lon="7.01774">
        <ele>861.20001220703</ele>
        <time>2011-04-03T12:19:48.000Z</time>
      </trkpt>
      <trkpt lat="43.74267" lon="7.01772">
        <ele>863</ele>
        <time>2011-04-03T12:19:54.000Z</time>
      </trkpt>
      <trkpt lat="43.7427" lon="7.01772">
        <ele>863.40002441406</ele>
        <time>2011-04-03T12:19:55.000Z</time>
      </trkpt>
      <trkpt lat="43.74279" lon="7.01771">
        <ele>865</ele>
        <time>2011-04-03T12:19:59.000Z</time>
      </trkpt>
      <trkpt lat="43.74289" lon="7.01768">
        <ele>866.20001220703</ele>
        <time>2011-04-03T12:20:03.000Z</time>
      </trkpt>
      <trkpt lat="43.74295" lon="7.01766">
        <ele>866.59997558594</ele>
        <time>2011-04-03T12:20:05.000Z</time>
      </trkpt>
      <trkpt lat="43.74308" lon="7.01761">
        <ele>866.79998779297</ele>
        <time>2011-04-03T12:20:10.000Z</time>
      </trkpt>
      <trkpt lat="43.7431" lon="7.01759">
        <ele>866.59997558594</ele>
        <time>2011-04-03T12:20:11.000Z</time>
      </trkpt>
      <trkpt lat="43.74325" lon="7.0175">
        <ele>866</ele>
        <time>2011-04-03T12:20:16.000Z</time>
      </trkpt>
      <trkpt lat="43.74331" lon="7.01747">
        <ele>866</ele>
        <time>2011-04-03T12:20:18.000Z</time>
      </trkpt>
      <trkpt lat="43.74344" lon="7.01743">
        <ele>869.59997558594</ele>
        <time>2011-04-03T12:20:23.000Z</time>
      </trkpt>
      <trkpt lat="43.74346" lon="7.01742">
        <ele>869.79998779297</ele>
        <time>2011-04-03T12:20:24.000Z</time>
      </trkpt>
      <trkpt lat="43.74354" lon="7.0173">
        <ele>868.40002441406</ele>
        <time>2011-04-03T12:20:32.000Z</time>
      </trkpt>
      <trkpt lat="43.74358" lon="7.01727">
        <ele>868.20001220703</ele>
        <time>2011-04-03T12:20:35.000Z</time>
      </trkpt>
      <trkpt lat="43.74366" lon="7.0172">
        <ele>868.40002441406</ele>
        <time>2011-04-03T12:20:41.000Z</time>
      </trkpt>
      <trkpt lat="43.74373" lon="7.01713">
        <ele>868.40002441406</ele>
        <time>2011-04-03T12:20:47.000Z</time>
      </trkpt>
      <trkpt lat="43.74378" lon="7.01709">
        <ele>868.59997558594</ele>
        <time>2011-04-03T12:20:50.000Z</time>
      </trkpt>
      <trkpt lat="43.74385" lon="7.017">
        <ele>867.40002441406</ele>
        <time>2011-04-03T12:20:57.000Z</time>
      </trkpt>
      <trkpt lat="43.74388" lon="7.01697">
        <ele>867.20001220703</ele>
        <time>2011-04-03T12:20:59.000Z</time>
      </trkpt>
      <trkpt lat="43.74398" lon="7.01686">
        <ele>866.40002441406</ele>
        <time>2011-04-03T12:21:07.000Z</time>
      </trkpt>
      <trkpt lat="43.74404" lon="7.01681">
        <ele>866.59997558594</ele>
        <time>2011-04-03T12:21:10.000Z</time>
      </trkpt>
      <trkpt lat="43.7441" lon="7.01677">
        <ele>867.40002441406</ele>
        <time>2011-04-03T12:21:14.000Z</time>
      </trkpt>
      <trkpt lat="43.7442" lon="7.01668">
        <ele>867.40002441406</ele>
        <time>2011-04-03T12:21:21.000Z</time>
      </trkpt>
      <trkpt lat="43.74423" lon="7.01665">
        <ele>867.59997558594</ele>
        <time>2011-04-03T12:21:23.000Z</time>
      </trkpt>
      <trkpt lat="43.74436" lon="7.01655">
        <ele>869</ele>
        <time>2011-04-03T12:21:31.000Z</time>
      </trkpt>
      <trkpt lat="43.74445" lon="7.01642">
        <ele>868.40002441406</ele>
        <time>2011-04-03T12:21:38.000Z</time>
      </trkpt>
      <trkpt lat="43.74449" lon="7.01638">
        <ele>868.40002441406</ele>
        <time>2011-04-03T12:21:40.000Z</time>
      </trkpt>
      <trkpt lat="43.74459" lon="7.0163">
        <ele>869.59997558594</ele>
        <time>2011-04-03T12:21:45.000Z</time>
      </trkpt>
      <trkpt lat="43.74466" lon="7.01623">
        <ele>869.59997558594</ele>
        <time>2011-04-03T12:21:49.000Z</time>
      </trkpt>
      <trkpt lat="43.74469" lon="7.0162">
        <ele>869.59997558594</ele>
        <time>2011-04-03T12:21:51.000Z</time>
      </trkpt>
      <trkpt lat="43.74474" lon="7.01613">
        <ele>869</ele>
        <time>2011-04-03T12:21:56.000Z</time>
      </trkpt>
      <trkpt lat="43.7448" lon="7.01607">
        <ele>869</ele>
        <time>2011-04-03T12:22:01.000Z</time>
      </trkpt>
      <trkpt lat="43.74484" lon="7.01603">
        <ele>868.79998779297</ele>
        <time>2011-04-03T12:22:04.000Z</time>
      </trkpt>
      <trkpt lat="43.74497" lon="7.01594">
        <ele>870.40002441406</ele>
        <time>2011-04-03T12:22:13.000Z</time>
      </trkpt>
      <trkpt lat="43.74509" lon="7.01582">
        <ele>869.79998779297</ele>
        <time>2011-04-03T12:22:22.000Z</time>
      </trkpt>
      <trkpt lat="43.74512" lon="7.01579">
        <ele>870.20001220703</ele>
        <time>2011-04-03T12:22:24.000Z</time>
      </trkpt>
      <trkpt lat="43.74519" lon="7.01572">
        <ele>869.59997558594</ele>
        <time>2011-04-03T12:22:28.000Z</time>
      </trkpt>
      <trkpt lat="43.74526" lon="7.01563">
        <ele>868.79998779297</ele>
        <time>2011-04-03T12:22:33.000Z</time>
      </trkpt>
      <trkpt lat="43.74528" lon="7.0156">
        <ele>868.20001220703</ele>
        <time>2011-04-03T12:22:35.000Z</time>
      </trkpt>
      <trkpt lat="43.74535" lon="7.0155">
        <ele>866.40002441406</ele>
        <time>2011-04-03T12:22:43.000Z</time>
      </trkpt>
      <trkpt lat="43.74535" lon="7.0155">
        <ele>866.59997558594</ele>
        <time>2011-04-03T12:22:48.000Z</time>
      </trkpt>
      <trkpt lat="43.74539" lon="7.01546">
        <ele>866</ele>
        <time>2011-04-03T12:22:58.000Z</time>
      </trkpt>
      <trkpt lat="43.74548" lon="7.01543">
        <ele>868</ele>
        <time>2011-04-03T12:23:03.000Z</time>
      </trkpt>
      <trkpt lat="43.74557" lon="7.01543">
        <ele>871.40002441406</ele>
        <time>2011-04-03T12:23:09.000Z</time>
      </trkpt>
      <trkpt lat="43.74559" lon="7.01543">
        <ele>872</ele>
        <time>2011-04-03T12:23:10.000Z</time>
      </trkpt>
      <trkpt lat="43.74568" lon="7.01541">
        <ele>874</ele>
        <time>2011-04-03T12:23:16.000Z</time>
      </trkpt>
      <trkpt lat="43.74575" lon="7.01537">
        <ele>874.59997558594</ele>
        <time>2011-04-03T12:23:19.000Z</time>
      </trkpt>
      <trkpt lat="43.74582" lon="7.01534">
        <ele>875.79998779297</ele>
        <time>2011-04-03T12:23:22.000Z</time>
      </trkpt>
      <trkpt lat="43.74592" lon="7.01532">
        <ele>877.59997558594</ele>
        <time>2011-04-03T12:23:26.000Z</time>
      </trkpt>
      <trkpt lat="43.746" lon="7.01529">
        <ele>879</ele>
        <time>2011-04-03T12:23:30.000Z</time>
      </trkpt>
      <trkpt lat="43.74611" lon="7.01528">
        <ele>881.20001220703</ele>
        <time>2011-04-03T12:23:37.000Z</time>
      </trkpt>
      <trkpt lat="43.74618" lon="7.01528">
        <ele>883.20001220703</ele>
        <time>2011-04-03T12:23:42.000Z</time>
      </trkpt>
      <trkpt lat="43.74627" lon="7.01527">
        <ele>885</ele>
        <time>2011-04-03T12:23:48.000Z</time>
      </trkpt>
      <trkpt lat="43.74629" lon="7.01526">
        <ele>885.20001220703</ele>
        <time>2011-04-03T12:23:50.000Z</time>
      </trkpt>
      <trkpt lat="43.74634" lon="7.01524">
        <ele>885.79998779297</ele>
        <time>2011-04-03T12:23:53.000Z</time>
      </trkpt>
      <trkpt lat="43.74637" lon="7.01523">
        <ele>886.40002441406</ele>
        <time>2011-04-03T12:23:55.000Z</time>
      </trkpt>
      <trkpt lat="43.74644" lon="7.01519">
        <ele>886.59997558594</ele>
        <time>2011-04-03T12:24:00.000Z</time>
      </trkpt>
      <trkpt lat="43.74647" lon="7.01518">
        <ele>887</ele>
        <time>2011-04-03T12:24:02.000Z</time>
      </trkpt>
      <trkpt lat="43.74651" lon="7.01515">
        <ele>887</ele>
        <time>2011-04-03T12:24:06.000Z</time>
      </trkpt>
      <trkpt lat="43.7466" lon="7.0151">
        <ele>887.20001220703</ele>
        <time>2011-04-03T12:24:14.000Z</time>
      </trkpt>
      <trkpt lat="43.74663" lon="7.01507">
        <ele>886.59997558594</ele>
        <time>2011-04-03T12:24:17.000Z</time>
      </trkpt>
      <trkpt lat="43.74667" lon="7.01503">
        <ele>886.20001220703</ele>
        <time>2011-04-03T12:24:21.000Z</time>
      </trkpt>
      <trkpt lat="43.74675" lon="7.01493">
        <ele>885.20001220703</ele>
        <time>2011-04-03T12:24:29.000Z</time>
      </trkpt>
      <trkpt lat="43.74677" lon="7.0149">
        <ele>884.79998779297</ele>
        <time>2011-04-03T12:24:31.000Z</time>
      </trkpt>
      <trkpt lat="43.74685" lon="7.01481">
        <ele>884.59997558594</ele>
        <time>2011-04-03T12:24:38.000Z</time>
      </trkpt>
      <trkpt lat="43.74691" lon="7.01473">
        <ele>884</ele>
        <time>2011-04-03T12:24:45.000Z</time>
      </trkpt>
      <trkpt lat="43.74692" lon="7.01471">
        <ele>883.79998779297</ele>
        <time>2011-04-03T12:24:46.000Z</time>
      </trkpt>
      <trkpt lat="43.747" lon="7.01457">
        <ele>881.59997558594</ele>
        <time>2011-04-03T12:24:55.000Z</time>
      </trkpt>
      <trkpt lat="43.74703" lon="7.01452">
        <ele>880.79998779297</ele>
        <time>2011-04-03T12:24:58.000Z</time>
      </trkpt>
      <trkpt lat="43.74707" lon="7.01444">
        <ele>879.40002441406</ele>
        <time>2011-04-03T12:25:03.000Z</time>
      </trkpt>
      <trkpt lat="43.74714" lon="7.0143">
        <ele>876.79998779297</ele>
        <time>2011-04-03T12:25:08.000Z</time>
      </trkpt>
      <trkpt lat="43.74715" lon="7.01427">
        <ele>876.40002441406</ele>
        <time>2011-04-03T12:25:09.000Z</time>
      </trkpt>
      <trkpt lat="43.74722" lon="7.01413">
        <ele>873.59997558594</ele>
        <time>2011-04-03T12:25:15.000Z</time>
      </trkpt>
      <trkpt lat="43.74725" lon="7.01407">
        <ele>872.59997558594</ele>
        <time>2011-04-03T12:25:17.000Z</time>
      </trkpt>
      <trkpt lat="43.74733" lon="7.01398">
        <ele>872.20001220703</ele>
        <time>2011-04-03T12:25:21.000Z</time>
      </trkpt>
      <trkpt lat="43.7474" lon="7.01396">
        <ele>873.79998779297</ele>
        <time>2011-04-03T12:25:24.000Z</time>
      </trkpt>
      <trkpt lat="43.74741" lon="7.01395">
        <ele>873.79998779297</ele>
        <time>2011-04-03T12:25:25.000Z</time>
      </trkpt>
      <trkpt lat="43.74741" lon="7.01396">
        <ele>874</ele>
        <time>2011-04-03T12:25:29.000Z</time>
      </trkpt>
      <trkpt lat="43.74742" lon="7.01396">
        <ele>874.40002441406</ele>
        <time>2011-04-03T12:25:34.000Z</time>
      </trkpt>
      <trkpt lat="43.74746" lon="7.01402">
        <ele>877.59997558594</ele>
        <time>2011-04-03T12:26:10.000Z</time>
      </trkpt>
      <trkpt lat="43.74753" lon="7.01411">
        <ele>881</ele>
        <time>2011-04-03T12:26:14.000Z</time>
      </trkpt>
      <trkpt lat="43.74759" lon="7.01418">
        <ele>881.79998779297</ele>
        <time>2011-04-03T12:26:17.000Z</time>
      </trkpt>
      <trkpt lat="43.74767" lon="7.01428">
        <ele>883.40002441406</ele>
        <time>2011-04-03T12:26:21.000Z</time>
      </trkpt>
      <trkpt lat="43.74779" lon="7.01445">
        <ele>886.40002441406</ele>
        <time>2011-04-03T12:26:28.000Z</time>
      </trkpt>
      <trkpt lat="43.74781" lon="7.01448">
        <ele>886.79998779297</ele>
        <time>2011-04-03T12:26:29.000Z</time>
      </trkpt>
      <trkpt lat="43.74789" lon="7.01456">
        <ele>887.59997558594</ele>
        <time>2011-04-03T12:26:34.000Z</time>
      </trkpt>
      <trkpt lat="43.74797" lon="7.01461">
        <ele>887.20001220703</ele>
        <time>2011-04-03T12:26:38.000Z</time>
      </trkpt>
      <trkpt lat="43.74801" lon="7.01464">
        <ele>887.20001220703</ele>
        <time>2011-04-03T12:26:40.000Z</time>
      </trkpt>
      <trkpt lat="43.7481" lon="7.01476">
        <ele>889</ele>
        <time>2011-04-03T12:26:45.000Z</time>
      </trkpt>
      <trkpt lat="43.74824" lon="7.01499">
        <ele>893.20001220703</ele>
        <time>2011-04-03T12:26:52.000Z</time>
      </trkpt>
      <trkpt lat="43.74826" lon="7.01502">
        <ele>893.59997558594</ele>
        <time>2011-04-03T12:26:53.000Z</time>
      </trkpt>
      <trkpt lat="43.74836" lon="7.01518">
        <ele>896.20001220703</ele>
        <time>2011-04-03T12:26:58.000Z</time>
      </trkpt>
      <trkpt lat="43.74841" lon="7.01527">
        <ele>897.79998779297</ele>
        <time>2011-04-03T12:27:01.000Z</time>
      </trkpt>
      <trkpt lat="43.74848" lon="7.0154">
        <ele>900.40002441406</ele>
        <time>2011-04-03T12:27:06.000Z</time>
      </trkpt>
      <trkpt lat="43.7485" lon="7.01545">
        <ele>901.40002441406</ele>
        <time>2011-04-03T12:27:08.000Z</time>
      </trkpt>
      <trkpt lat="43.74861" lon="7.01558">
        <ele>903.20001220703</ele>
        <time>2011-04-03T12:27:16.000Z</time>
      </trkpt>
      <trkpt lat="43.7487" lon="7.01566">
        <ele>904.20001220703</ele>
        <time>2011-04-03T12:27:22.000Z</time>
      </trkpt>
      <trkpt lat="43.74877" lon="7.01571">
        <ele>904.59997558594</ele>
        <time>2011-04-03T12:27:26.000Z</time>
      </trkpt>
      <trkpt lat="43.74881" lon="7.01573">
        <ele>904.59997558594</ele>
        <time>2011-04-03T12:27:28.000Z</time>
      </trkpt>
      <trkpt lat="43.74888" lon="7.01575">
        <ele>903.79998779297</ele>
        <time>2011-04-03T12:27:34.000Z</time>
      </trkpt>
      <trkpt lat="43.74894" lon="7.01576">
        <ele>902.79998779297</ele>
        <time>2011-04-03T12:27:49.000Z</time>
      </trkpt>
      <trkpt lat="43.74896" lon="7.01577">
        <ele>902.59997558594</ele>
        <time>2011-04-03T12:27:50.000Z</time>
      </trkpt>
      <trkpt lat="43.74906" lon="7.01581">
        <ele>902</ele>
        <time>2011-04-03T12:27:56.000Z</time>
      </trkpt>
      <trkpt lat="43.74913" lon="7.01584">
        <ele>901.79998779297</ele>
        <time>2011-04-03T12:28:01.000Z</time>
      </trkpt>
      <trkpt lat="43.74915" lon="7.01584">
        <ele>901.40002441406</ele>
        <time>2011-04-03T12:28:02.000Z</time>
      </trkpt>
      <trkpt lat="43.74926" lon="7.01587">
        <ele>902.40002441406</ele>
        <time>2011-04-03T12:28:09.000Z</time>
      </trkpt>
      <trkpt lat="43.74931" lon="7.01589">
        <ele>903.40002441406</ele>
        <time>2011-04-03T12:28:13.000Z</time>
      </trkpt>
      <trkpt lat="43.74933" lon="7.0159">
        <ele>904</ele>
        <time>2011-04-03T12:28:15.000Z</time>
      </trkpt>
      <trkpt lat="43.74936" lon="7.01591">
        <ele>904.59997558594</ele>
        <time>2011-04-03T12:28:17.000Z</time>
      </trkpt>
      <trkpt lat="43.74936" lon="7.01592">
        <ele>905</ele>
        <time>2011-04-03T12:28:20.000Z</time>
      </trkpt>
      <trkpt lat="43.74939" lon="7.01595">
        <ele>906.20001220703</ele>
        <time>2011-04-03T12:28:29.000Z</time>
      </trkpt>
      <trkpt lat="43.74943" lon="7.01595">
        <ele>906.40002441406</ele>
        <time>2011-04-03T12:28:35.000Z</time>
      </trkpt>
      <trkpt lat="43.74946" lon="7.01595">
        <ele>906.40002441406</ele>
        <time>2011-04-03T12:28:41.000Z</time>
      </trkpt>
      <trkpt lat="43.74948" lon="7.01596">
        <ele>907</ele>
        <time>2011-04-03T12:28:50.000Z</time>
      </trkpt>
      <trkpt lat="43.74951" lon="7.01598">
        <ele>908</ele>
        <time>2011-04-03T12:28:53.000Z</time>
      </trkpt>
      <trkpt lat="43.74952" lon="7.01599">
        <ele>908.20001220703</ele>
        <time>2011-04-03T12:28:57.000Z</time>
      </trkpt>
      <trkpt lat="43.74956" lon="7.01601">
        <ele>909.20001220703</ele>
        <time>2011-04-03T12:29:03.000Z</time>
      </trkpt>
      <trkpt lat="43.74959" lon="7.01604">
        <ele>910.59997558594</ele>
        <time>2011-04-03T12:29:09.000Z</time>
      </trkpt>
      <trkpt lat="43.74962" lon="7.01604">
        <ele>910.59997558594</ele>
        <time>2011-04-03T12:29:15.000Z</time>
      </trkpt>
      <trkpt lat="43.74965" lon="7.01605">
        <ele>911.20001220703</ele>
        <time>2011-04-03T12:29:19.000Z</time>
      </trkpt>
      <trkpt lat="43.74968" lon="7.01607">
        <ele>912.20001220703</ele>
        <time>2011-04-03T12:29:23.000Z</time>
      </trkpt>
      <trkpt lat="43.74973" lon="7.01608">
        <ele>912.79998779297</ele>
        <time>2011-04-03T12:29:30.000Z</time>
      </trkpt>
      <trkpt lat="43.74977" lon="7.01609">
        <ele>913.40002441406</ele>
        <time>2011-04-03T12:29:37.000Z</time>
      </trkpt>
      <trkpt lat="43.74974" lon="7.01608">
        <ele>912.79998779297</ele>
        <time>2011-04-03T12:29:53.000Z</time>
      </trkpt>
      <trkpt lat="43.74975" lon="7.01607">
        <ele>912.40002441406</ele>
        <time>2011-04-03T12:29:58.000Z</time>
      </trkpt>
      <trkpt lat="43.74976" lon="7.01608">
        <ele>913</ele>
        <time>2011-04-03T12:30:05.000Z</time>
      </trkpt>
      <trkpt lat="43.74976" lon="7.01608">
        <ele>912.79998779297</ele>
        <time>2011-04-03T12:30:07.000Z</time>
      </trkpt>
      <trkpt lat="43.74978" lon="7.01608">
        <ele>913</ele>
        <time>2011-04-03T12:30:11.000Z</time>
      </trkpt>
      <trkpt lat="43.74978" lon="7.01609">
        <ele>913.40002441406</ele>
        <time>2011-04-03T12:30:24.000Z</time>
      </trkpt>
      <trkpt lat="43.7498" lon="7.01609">
        <ele>913.20001220703</ele>
        <time>2011-04-03T12:30:29.000Z</time>
      </trkpt>
      <trkpt lat="43.74985" lon="7.0161">
        <ele>913.79998779297</ele>
        <time>2011-04-03T12:30:37.000Z</time>
      </trkpt>
      <trkpt lat="43.74991" lon="7.01611">
        <ele>914.40002441406</ele>
        <time>2011-04-03T12:30:46.000Z</time>
      </trkpt>
      <trkpt lat="43.74994" lon="7.01612">
        <ele>914.79998779297</ele>
        <time>2011-04-03T12:30:53.000Z</time>
      </trkpt>
      <trkpt lat="43.74998" lon="7.01613">
        <ele>915.40002441406</ele>
        <time>2011-04-03T12:30:56.000Z</time>
      </trkpt>
      <trkpt lat="43.75005" lon="7.01615">
        <ele>917</ele>
        <time>2011-04-03T12:31:03.000Z</time>
      </trkpt>
      <trkpt lat="43.75008" lon="7.01616">
        <ele>917.79998779297</ele>
        <time>2011-04-03T12:31:09.000Z</time>
      </trkpt>
      <trkpt lat="43.75012" lon="7.01617">
        <ele>918.40002441406</ele>
        <time>2011-04-03T12:31:15.000Z</time>
      </trkpt>
      <trkpt lat="43.75012" lon="7.01617">
        <ele>918.59997558594</ele>
        <time>2011-04-03T12:31:16.000Z</time>
      </trkpt>
      <trkpt lat="43.75017" lon="7.01617">
        <ele>919</ele>
        <time>2011-04-03T12:31:24.000Z</time>
      </trkpt>
      <trkpt lat="43.75018" lon="7.01617">
        <ele>919.20001220703</ele>
        <time>2011-04-03T12:31:31.000Z</time>
      </trkpt>
      <trkpt lat="43.75019" lon="7.01617">
        <ele>919.40002441406</ele>
        <time>2011-04-03T12:31:32.000Z</time>
      </trkpt>
      <trkpt lat="43.75026" lon="7.01618">
        <ele>920.20001220703</ele>
        <time>2011-04-03T12:31:37.000Z</time>
      </trkpt>
      <trkpt lat="43.75028" lon="7.01618">
        <ele>920.40002441406</ele>
        <time>2011-04-03T12:31:38.000Z</time>
      </trkpt>
      <trkpt lat="43.75029" lon="7.01618">
        <ele>920.59997558594</ele>
        <time>2011-04-03T12:31:39.000Z</time>
      </trkpt>
      <trkpt lat="43.75037" lon="7.01619">
        <ele>921.59997558594</ele>
        <time>2011-04-03T12:31:45.000Z</time>
      </trkpt>
      <trkpt lat="43.75046" lon="7.01621">
        <ele>923.59997558594</ele>
        <time>2011-04-03T12:31:52.000Z</time>
      </trkpt>
      <trkpt lat="43.75048" lon="7.01622">
        <ele>924</ele>
        <time>2011-04-03T12:31:53.000Z</time>
      </trkpt>
      <trkpt lat="43.75049" lon="7.01622">
        <ele>924</ele>
        <time>2011-04-03T12:31:54.000Z</time>
      </trkpt>
      <trkpt lat="43.75054" lon="7.01621">
        <ele>924.20001220703</ele>
        <time>2011-04-03T12:31:58.000Z</time>
      </trkpt>
      <trkpt lat="43.75063" lon="7.01622">
        <ele>925.59997558594</ele>
        <time>2011-04-03T12:32:06.000Z</time>
      </trkpt>
      <trkpt lat="43.75065" lon="7.01623">
        <ele>926</ele>
        <time>2011-04-03T12:32:12.000Z</time>
      </trkpt>
      <trkpt lat="43.75066" lon="7.01623">
        <ele>926.20001220703</ele>
        <time>2011-04-03T12:32:16.000Z</time>
      </trkpt>
      <trkpt lat="43.7507" lon="7.01625">
        <ele>927.40002441406</ele>
        <time>2011-04-03T12:32:20.000Z</time>
      </trkpt>
      <trkpt lat="43.75076" lon="7.01625">
        <ele>928</ele>
        <time>2011-04-03T12:32:27.000Z</time>
      </trkpt>
      <trkpt lat="43.75079" lon="7.01627">
        <ele>928.59997558594</ele>
        <time>2011-04-03T12:32:47.000Z</time>
      </trkpt>
      <trkpt lat="43.75083" lon="7.01626">
        <ele>928.59997558594</ele>
        <time>2011-04-03T12:32:55.000Z</time>
      </trkpt>
      <trkpt lat="43.75087" lon="7.01625">
        <ele>928.20001220703</ele>
        <time>2011-04-03T12:33:02.000Z</time>
      </trkpt>
      <trkpt lat="43.7509" lon="7.01623">
        <ele>927.59997558594</ele>
        <time>2011-04-03T12:33:07.000Z</time>
      </trkpt>
      <trkpt lat="43.75093" lon="7.01616">
        <ele>924.79998779297</ele>
        <time>2011-04-03T12:33:15.000Z</time>
      </trkpt>
      <trkpt lat="43.75097" lon="7.01612">
        <ele>923</ele>
        <time>2011-04-03T12:33:22.000Z</time>
      </trkpt>
      <trkpt lat="43.75097" lon="7.01612">
        <ele>922.79998779297</ele>
        <time>2011-04-03T12:33:23.000Z</time>
      </trkpt>
      <trkpt lat="43.75099" lon="7.01609">
        <ele>921.79998779297</ele>
        <time>2011-04-03T12:33:27.000Z</time>
      </trkpt>
      <trkpt lat="43.75104" lon="7.01602">
        <ele>918.79998779297</ele>
        <time>2011-04-03T12:33:36.000Z</time>
      </trkpt>
      <trkpt lat="43.75105" lon="7.01602">
        <ele>918.79998779297</ele>
        <time>2011-04-03T12:33:44.000Z</time>
      </trkpt>
      <trkpt lat="43.75104" lon="7.01602">
        <ele>918.79998779297</ele>
        <time>2011-04-03T12:33:53.000Z</time>
      </trkpt>
      <trkpt lat="43.75105" lon="7.01602">
        <ele>918.79998779297</ele>
        <time>2011-04-03T12:34:29.000Z</time>
      </trkpt>
      <trkpt lat="43.75107" lon="7.01602">
        <ele>918.59997558594</ele>
        <time>2011-04-03T12:34:56.000Z</time>
      </trkpt>
      <trkpt lat="43.75109" lon="7.01602">
        <ele>919</ele>
        <time>2011-04-03T12:34:58.000Z</time>
      </trkpt>
      <trkpt lat="43.75115" lon="7.01607">
        <ele>920.79998779297</ele>
        <time>2011-04-03T12:35:02.000Z</time>
      </trkpt>
      <trkpt lat="43.75125" lon="7.01609">
        <ele>921.40002441406</ele>
        <time>2011-04-03T12:35:08.000Z</time>
      </trkpt>
      <trkpt lat="43.75127" lon="7.0161">
        <ele>921.79998779297</ele>
        <time>2011-04-03T12:35:09.000Z</time>
      </trkpt>
      <trkpt lat="43.75142" lon="7.01617">
        <ele>924.40002441406</ele>
        <time>2011-04-03T12:35:15.000Z</time>
      </trkpt>
      <trkpt lat="43.75145" lon="7.01618">
        <ele>925</ele>
        <time>2011-04-03T12:35:16.000Z</time>
      </trkpt>
      <trkpt lat="43.75164" lon="7.01627">
        <ele>928.20001220703</ele>
        <time>2011-04-03T12:35:22.000Z</time>
      </trkpt>
      <trkpt lat="43.75167" lon="7.01629">
        <ele>928.79998779297</ele>
        <time>2011-04-03T12:35:23.000Z</time>
      </trkpt>
      <trkpt lat="43.75181" lon="7.0164">
        <ele>929.40002441406</ele>
        <time>2011-04-03T12:35:28.000Z</time>
      </trkpt>
      <trkpt lat="43.75189" lon="7.01649">
        <ele>930.40002441406</ele>
        <time>2011-04-03T12:35:31.000Z</time>
      </trkpt>
      <trkpt lat="43.75198" lon="7.01658">
        <ele>931.59997558594</ele>
        <time>2011-04-03T12:35:34.000Z</time>
      </trkpt>
      <trkpt lat="43.75212" lon="7.01674">
        <ele>933</ele>
        <time>2011-04-03T12:35:39.000Z</time>
      </trkpt>
      <trkpt lat="43.75215" lon="7.01677">
        <ele>932.79998779297</ele>
        <time>2011-04-03T12:35:40.000Z</time>
      </trkpt>
      <trkpt lat="43.7523" lon="7.0169">
        <ele>932.40002441406</ele>
        <time>2011-04-03T12:35:45.000Z</time>
      </trkpt>
      <trkpt lat="43.75243" lon="7.01701">
        <ele>931.79998779297</ele>
        <time>2011-04-03T12:35:49.000Z</time>
      </trkpt>
      <trkpt lat="43.75246" lon="7.01703">
        <ele>931.79998779297</ele>
        <time>2011-04-03T12:35:50.000Z</time>
      </trkpt>
      <trkpt lat="43.75263" lon="7.01719">
        <ele>932.79998779297</ele>
        <time>2011-04-03T12:35:55.000Z</time>
      </trkpt>
      <trkpt lat="43.75269" lon="7.01726">
        <ele>933.59997558594</ele>
        <time>2011-04-03T12:35:57.000Z</time>
      </trkpt>
      <trkpt lat="43.75279" lon="7.01735">
        <ele>934.79998779297</ele>
        <time>2011-04-03T12:36:00.000Z</time>
      </trkpt>
      <trkpt lat="43.75297" lon="7.01749">
        <ele>936.40002441406</ele>
        <time>2011-04-03T12:36:06.000Z</time>
      </trkpt>
      <trkpt lat="43.75314" lon="7.01763">
        <ele>936.40002441406</ele>
        <time>2011-04-03T12:36:13.000Z</time>
      </trkpt>
      <trkpt lat="43.75317" lon="7.01765">
        <ele>936.40002441406</ele>
        <time>2011-04-03T12:36:14.000Z</time>
      </trkpt>
      <trkpt lat="43.7533" lon="7.01776">
        <ele>936.40002441406</ele>
        <time>2011-04-03T12:36:20.000Z</time>
      </trkpt>
      <trkpt lat="43.75332" lon="7.01778">
        <ele>936.40002441406</ele>
        <time>2011-04-03T12:36:21.000Z</time>
      </trkpt>
      <trkpt lat="43.75343" lon="7.01787">
        <ele>937.59997558594</ele>
        <time>2011-04-03T12:36:27.000Z</time>
      </trkpt>
      <trkpt lat="43.75345" lon="7.01789">
        <ele>938</ele>
        <time>2011-04-03T12:36:31.000Z</time>
      </trkpt>
      <trkpt lat="43.75345" lon="7.01788">
        <ele>937.79998779297</ele>
        <time>2011-04-03T12:36:37.000Z</time>
      </trkpt>
      <trkpt lat="43.75344" lon="7.01788">
        <ele>937.79998779297</ele>
        <time>2011-04-03T12:36:43.000Z</time>
      </trkpt>
      <trkpt lat="43.75342" lon="7.01789">
        <ele>938</ele>
        <time>2011-04-03T12:37:35.000Z</time>
      </trkpt>
      <trkpt lat="43.75346" lon="7.01794">
        <ele>938.59997558594</ele>
        <time>2011-04-03T12:37:42.000Z</time>
      </trkpt>
      <trkpt lat="43.75348" lon="7.01796">
        <ele>939</ele>
        <time>2011-04-03T12:37:47.000Z</time>
      </trkpt>
      <trkpt lat="43.75351" lon="7.01796">
        <ele>939</ele>
        <time>2011-04-03T12:38:08.000Z</time>
      </trkpt>
      <trkpt lat="43.75353" lon="7.01797">
        <ele>939</ele>
        <time>2011-04-03T12:38:25.000Z</time>
      </trkpt>
      <trkpt lat="43.75357" lon="7.018">
        <ele>939.40002441406</ele>
        <time>2011-04-03T12:38:28.000Z</time>
      </trkpt>
      <trkpt lat="43.75371" lon="7.01799">
        <ele>939.20001220703</ele>
        <time>2011-04-03T12:38:34.000Z</time>
      </trkpt>
      <trkpt lat="43.75381" lon="7.01797">
        <ele>938.79998779297</ele>
        <time>2011-04-03T12:38:40.000Z</time>
      </trkpt>
      <trkpt lat="43.75386" lon="7.01794">
        <ele>938.40002441406</ele>
        <time>2011-04-03T12:38:44.000Z</time>
      </trkpt>
      <trkpt lat="43.75388" lon="7.01794">
        <ele>938.40002441406</ele>
        <time>2011-04-03T12:38:45.000Z</time>
      </trkpt>
      <trkpt lat="43.7539" lon="7.01794">
        <ele>938.40002441406</ele>
        <time>2011-04-03T12:38:46.000Z</time>
      </trkpt>
      <trkpt lat="43.75397" lon="7.01793">
        <ele>938.20001220703</ele>
        <time>2011-04-03T12:38:49.000Z</time>
      </trkpt>
      <trkpt lat="43.75405" lon="7.01791">
        <ele>937.79998779297</ele>
        <time>2011-04-03T12:38:53.000Z</time>
      </trkpt>
      <trkpt lat="43.75407" lon="7.0179">
        <ele>937.79998779297</ele>
        <time>2011-04-03T12:38:54.000Z</time>
      </trkpt>
      <trkpt lat="43.7542" lon="7.0179">
        <ele>937.79998779297</ele>
        <time>2011-04-03T12:39:01.000Z</time>
      </trkpt>
      <trkpt lat="43.75426" lon="7.0179">
        <ele>938.40002441406</ele>
        <time>2011-04-03T12:39:05.000Z</time>
      </trkpt>
      <trkpt lat="43.75432" lon="7.01792">
        <ele>939</ele>
        <time>2011-04-03T12:39:08.000Z</time>
      </trkpt>
      <trkpt lat="43.75444" lon="7.01798">
        <ele>940.40002441406</ele>
        <time>2011-04-03T12:39:15.000Z</time>
      </trkpt>
      <trkpt lat="43.75447" lon="7.018">
        <ele>940.79998779297</ele>
        <time>2011-04-03T12:39:17.000Z</time>
      </trkpt>
      <trkpt lat="43.75453" lon="7.01806">
        <ele>941.59997558594</ele>
        <time>2011-04-03T12:39:23.000Z</time>
      </trkpt>
      <trkpt lat="43.75455" lon="7.01806">
        <ele>941.79998779297</ele>
        <time>2011-04-03T12:39:24.000Z</time>
      </trkpt>
      <trkpt lat="43.75462" lon="7.01806">
        <ele>942.20001220703</ele>
        <time>2011-04-03T12:39:27.000Z</time>
      </trkpt>
      <trkpt lat="43.7547" lon="7.01807">
        <ele>942.59997558594</ele>
        <time>2011-04-03T12:39:30.000Z</time>
      </trkpt>
      <trkpt lat="43.7548" lon="7.0181">
        <ele>943.40002441406</ele>
        <time>2011-04-03T12:39:34.000Z</time>
      </trkpt>
      <trkpt lat="43.75491" lon="7.01813">
        <ele>944</ele>
        <time>2011-04-03T12:39:38.000Z</time>
      </trkpt>
      <trkpt lat="43.755" lon="7.01815">
        <ele>944.40002441406</ele>
        <time>2011-04-03T12:39:41.000Z</time>
      </trkpt>
      <trkpt lat="43.75517" lon="7.01819">
        <ele>944.40002441406</ele>
        <time>2011-04-03T12:39:47.000Z</time>
      </trkpt>
      <trkpt lat="43.7552" lon="7.0182">
        <ele>944.40002441406</ele>
        <time>2011-04-03T12:39:48.000Z</time>
      </trkpt>
      <trkpt lat="43.75538" lon="7.01824">
        <ele>944.40002441406</ele>
        <time>2011-04-03T12:39:54.000Z</time>
      </trkpt>
      <trkpt lat="43.75545" lon="7.01826">
        <ele>944.40002441406</ele>
        <time>2011-04-03T12:39:56.000Z</time>
      </trkpt>
      <trkpt lat="43.75558" lon="7.01828">
        <ele>944.20001220703</ele>
        <time>2011-04-03T12:39:59.000Z</time>
      </trkpt>
      <trkpt lat="43.75568" lon="7.01834">
        <ele>944</ele>
        <time>2011-04-03T12:40:01.000Z</time>
      </trkpt>
      <trkpt lat="43.75573" lon="7.01837">
        <ele>944</ele>
        <time>2011-04-03T12:40:02.000Z</time>
      </trkpt>
      <trkpt lat="43.75578" lon="7.01839">
        <ele>943.79998779297</ele>
        <time>2011-04-03T12:40:03.000Z</time>
      </trkpt>
      <trkpt lat="43.75587" lon="7.01839">
        <ele>943.79998779297</ele>
        <time>2011-04-03T12:40:05.000Z</time>
      </trkpt>
      <trkpt lat="43.75591" lon="7.01837">
        <ele>943.79998779297</ele>
        <time>2011-04-03T12:40:06.000Z</time>
      </trkpt>
      <trkpt lat="43.75594" lon="7.01836">
        <ele>944</ele>
        <time>2011-04-03T12:40:07.000Z</time>
      </trkpt>
      <trkpt lat="43.75598" lon="7.01836">
        <ele>944</ele>
        <time>2011-04-03T12:40:08.000Z</time>
      </trkpt>
      <trkpt lat="43.75606" lon="7.01835">
        <ele>944.20001220703</ele>
        <time>2011-04-03T12:40:10.000Z</time>
      </trkpt>
      <trkpt lat="43.75617" lon="7.01838">
        <ele>944.20001220703</ele>
        <time>2011-04-03T12:40:13.000Z</time>
      </trkpt>
      <trkpt lat="43.75624" lon="7.01839">
        <ele>944.20001220703</ele>
        <time>2011-04-03T12:40:15.000Z</time>
      </trkpt>
      <trkpt lat="43.75635" lon="7.01844">
        <ele>944.20001220703</ele>
        <time>2011-04-03T12:40:19.000Z</time>
      </trkpt>
      <trkpt lat="43.75644" lon="7.01847">
        <ele>944.20001220703</ele>
        <time>2011-04-03T12:40:22.000Z</time>
      </trkpt>
      <trkpt lat="43.75653" lon="7.0185">
        <ele>944.20001220703</ele>
        <time>2011-04-03T12:40:25.000Z</time>
      </trkpt>
      <trkpt lat="43.75664" lon="7.01854">
        <ele>944.20001220703</ele>
        <time>2011-04-03T12:40:29.000Z</time>
      </trkpt>
      <trkpt lat="43.75673" lon="7.01854">
        <ele>944.59997558594</ele>
        <time>2011-04-03T12:40:32.000Z</time>
      </trkpt>
      <trkpt lat="43.75681" lon="7.01856">
        <ele>945</ele>
        <time>2011-04-03T12:40:35.000Z</time>
      </trkpt>
      <trkpt lat="43.75692" lon="7.01861">
        <ele>945.59997558594</ele>
        <time>2011-04-03T12:40:39.000Z</time>
      </trkpt>
      <trkpt lat="43.75701" lon="7.01865">
        <ele>946</ele>
        <time>2011-04-03T12:40:42.000Z</time>
      </trkpt>
      <trkpt lat="43.75711" lon="7.01869">
        <ele>946.59997558594</ele>
        <time>2011-04-03T12:40:45.000Z</time>
      </trkpt>
      <trkpt lat="43.75727" lon="7.01874">
        <ele>947.40002441406</ele>
        <time>2011-04-03T12:40:49.000Z</time>
      </trkpt>
      <trkpt lat="43.7573" lon="7.01876">
        <ele>947.59997558594</ele>
        <time>2011-04-03T12:40:50.000Z</time>
      </trkpt>
      <trkpt lat="43.75751" lon="7.01883">
        <ele>948.59997558594</ele>
        <time>2011-04-03T12:40:55.000Z</time>
      </trkpt>
      <trkpt lat="43.7576" lon="7.01886">
        <ele>949.20001220703</ele>
        <time>2011-04-03T12:40:57.000Z</time>
      </trkpt>
      <trkpt lat="43.75772" lon="7.01892">
        <ele>950</ele>
        <time>2011-04-03T12:41:00.000Z</time>
      </trkpt>
      <trkpt lat="43.7579" lon="7.01899">
        <ele>951.20001220703</ele>
        <time>2011-04-03T12:41:05.000Z</time>
      </trkpt>
      <trkpt lat="43.75806" lon="7.01907">
        <ele>952.59997558594</ele>
        <time>2011-04-03T12:41:11.000Z</time>
      </trkpt>
      <trkpt lat="43.75808" lon="7.01909">
        <ele>952.59997558594</ele>
        <time>2011-04-03T12:41:14.000Z</time>
      </trkpt>
      <trkpt lat="43.75808" lon="7.0191">
        <ele>952.59997558594</ele>
        <time>2011-04-03T12:41:15.000Z</time>
      </trkpt>
      <trkpt lat="43.75806" lon="7.01918">
        <ele>952.20001220703</ele>
        <time>2011-04-03T12:41:55.000Z</time>
      </trkpt>
      <trkpt lat="43.75808" lon="7.01934">
        <ele>951.59997558594</ele>
        <time>2011-04-03T12:41:59.000Z</time>
      </trkpt>
      <trkpt lat="43.75808" lon="7.01943">
        <ele>951.20001220703</ele>
        <time>2011-04-03T12:42:01.000Z</time>
      </trkpt>
      <trkpt lat="43.75806" lon="7.0196">
        <ele>950.40002441406</ele>
        <time>2011-04-03T12:42:05.000Z</time>
      </trkpt>
      <trkpt lat="43.75804" lon="7.0198">
        <ele>949.40002441406</ele>
        <time>2011-04-03T12:42:09.000Z</time>
      </trkpt>
      <trkpt lat="43.75803" lon="7.01985">
        <ele>949</ele>
        <time>2011-04-03T12:42:10.000Z</time>
      </trkpt>
      <trkpt lat="43.75806" lon="7.02003">
        <ele>948.40002441406</ele>
        <time>2011-04-03T12:42:13.000Z</time>
      </trkpt>
      <trkpt lat="43.75808" lon="7.0201">
        <ele>948.20001220703</ele>
        <time>2011-04-03T12:42:14.000Z</time>
      </trkpt>
      <trkpt lat="43.75809" lon="7.02018">
        <ele>948</ele>
        <time>2011-04-03T12:42:15.000Z</time>
      </trkpt>
      <trkpt lat="43.75809" lon="7.02033">
        <ele>947.20001220703</ele>
        <time>2011-04-03T12:42:17.000Z</time>
      </trkpt>
      <trkpt lat="43.75808" lon="7.02042">
        <ele>946.79998779297</ele>
        <time>2011-04-03T12:42:18.000Z</time>
      </trkpt>
      <trkpt lat="43.75806" lon="7.02059">
        <ele>945.79998779297</ele>
        <time>2011-04-03T12:42:20.000Z</time>
      </trkpt>
      <trkpt lat="43.75803" lon="7.02066">
        <ele>945.20001220703</ele>
        <time>2011-04-03T12:42:21.000Z</time>
      </trkpt>
      <trkpt lat="43.75798" lon="7.02088">
        <ele>944</ele>
        <time>2011-04-03T12:42:24.000Z</time>
      </trkpt>
      <trkpt lat="43.75796" lon="7.02096">
        <ele>943.79998779297</ele>
        <time>2011-04-03T12:42:25.000Z</time>
      </trkpt>
      <trkpt lat="43.75791" lon="7.02123">
        <ele>943.20001220703</ele>
        <time>2011-04-03T12:42:29.000Z</time>
      </trkpt>
      <trkpt lat="43.75787" lon="7.02143">
        <ele>942.79998779297</ele>
        <time>2011-04-03T12:42:32.000Z</time>
      </trkpt>
      <trkpt lat="43.75787" lon="7.02149">
        <ele>942.59997558594</ele>
        <time>2011-04-03T12:42:33.000Z</time>
      </trkpt>
      <trkpt lat="43.75782" lon="7.02167">
        <ele>942.20001220703</ele>
        <time>2011-04-03T12:42:37.000Z</time>
      </trkpt>
      <trkpt lat="43.75781" lon="7.0217">
        <ele>942.20001220703</ele>
        <time>2011-04-03T12:42:38.000Z</time>
      </trkpt>
      <trkpt lat="43.75778" lon="7.02175">
        <ele>942</ele>
        <time>2011-04-03T12:42:40.000Z</time>
      </trkpt>
      <trkpt lat="43.75773" lon="7.02179">
        <ele>941.79998779297</ele>
        <time>2011-04-03T12:42:42.000Z</time>
      </trkpt>
      <trkpt lat="43.75771" lon="7.02182">
        <ele>941.59997558594</ele>
        <time>2011-04-03T12:42:43.000Z</time>
      </trkpt>
      <trkpt lat="43.75772" lon="7.02191">
        <ele>941.20001220703</ele>
        <time>2011-04-03T12:42:45.000Z</time>
      </trkpt>
      <trkpt lat="43.75773" lon="7.02197">
        <ele>941.20001220703</ele>
        <time>2011-04-03T12:42:46.000Z</time>
      </trkpt>
      <trkpt lat="43.75776" lon="7.02224">
        <ele>940.20001220703</ele>
        <time>2011-04-03T12:42:51.000Z</time>
      </trkpt>
      <trkpt lat="43.75772" lon="7.02251">
        <ele>939.20001220703</ele>
        <time>2011-04-03T12:42:56.000Z</time>
      </trkpt>
      <trkpt lat="43.75776" lon="7.02267">
        <ele>938.59997558594</ele>
        <time>2011-04-03T12:42:59.000Z</time>
      </trkpt>
      <trkpt lat="43.75778" lon="7.0227">
        <ele>938.59997558594</ele>
        <time>2011-04-03T12:43:00.000Z</time>
      </trkpt>
      <trkpt lat="43.75782" lon="7.02275">
        <ele>938.40002441406</ele>
        <time>2011-04-03T12:43:02.000Z</time>
      </trkpt>
      <trkpt lat="43.75784" lon="7.02278">
        <ele>938.40002441406</ele>
        <time>2011-04-03T12:43:03.000Z</time>
      </trkpt>
      <trkpt lat="43.75786" lon="7.02281">
        <ele>938.40002441406</ele>
        <time>2011-04-03T12:43:04.000Z</time>
      </trkpt>
      <trkpt lat="43.75786" lon="7.02288">
        <ele>938.20001220703</ele>
        <time>2011-04-03T12:43:06.000Z</time>
      </trkpt>
      <trkpt lat="43.75786" lon="7.0229">
        <ele>938</ele>
        <time>2011-04-03T12:43:10.000Z</time>
      </trkpt>
      <trkpt lat="43.75785" lon="7.02299">
        <ele>937.79998779297</ele>
        <time>2011-04-03T12:43:22.000Z</time>
      </trkpt>
      <trkpt lat="43.75786" lon="7.02302">
        <ele>937.79998779297</ele>
        <time>2011-04-03T12:43:23.000Z</time>
      </trkpt>
      <trkpt lat="43.75788" lon="7.02316">
        <ele>937.40002441406</ele>
        <time>2011-04-03T12:43:27.000Z</time>
      </trkpt>
      <trkpt lat="43.75787" lon="7.02324">
        <ele>937</ele>
        <time>2011-04-03T12:43:29.000Z</time>
      </trkpt>
      <trkpt lat="43.75786" lon="7.02346">
        <ele>936.59997558594</ele>
        <time>2011-04-03T12:43:34.000Z</time>
      </trkpt>
      <trkpt lat="43.75785" lon="7.02351">
        <ele>936.59997558594</ele>
        <time>2011-04-03T12:43:35.000Z</time>
      </trkpt>
      <trkpt lat="43.75778" lon="7.02365">
        <ele>936.40002441406</ele>
        <time>2011-04-03T12:43:39.000Z</time>
      </trkpt>
      <trkpt lat="43.75775" lon="7.02373">
        <ele>936.40002441406</ele>
        <time>2011-04-03T12:43:42.000Z</time>
      </trkpt>
      <trkpt lat="43.75776" lon="7.0238">
        <ele>936.40002441406</ele>
        <time>2011-04-03T12:43:44.000Z</time>
      </trkpt>
      <trkpt lat="43.75774" lon="7.02399">
        <ele>936.20001220703</ele>
        <time>2011-04-03T12:43:49.000Z</time>
      </trkpt>
      <trkpt lat="43.75774" lon="7.02402">
        <ele>936.20001220703</ele>
        <time>2011-04-03T12:43:50.000Z</time>
      </trkpt>
      <trkpt lat="43.75771" lon="7.0242">
        <ele>936.20001220703</ele>
        <time>2011-04-03T12:43:56.000Z</time>
      </trkpt>
      <trkpt lat="43.75771" lon="7.02426">
        <ele>936.20001220703</ele>
        <time>2011-04-03T12:43:58.000Z</time>
      </trkpt>
      <trkpt lat="43.75771" lon="7.02436">
        <ele>936.20001220703</ele>
        <time>2011-04-03T12:44:01.000Z</time>
      </trkpt>
      <trkpt lat="43.75776" lon="7.0245">
        <ele>936.40002441406</ele>
        <time>2011-04-03T12:44:05.000Z</time>
      </trkpt>
      <trkpt lat="43.75776" lon="7.02453">
        <ele>936.40002441406</ele>
        <time>2011-04-03T12:44:06.000Z</time>
      </trkpt>
      <trkpt lat="43.75776" lon="7.02456">
        <ele>936.40002441406</ele>
        <time>2011-04-03T12:44:07.000Z</time>
      </trkpt>
      <trkpt lat="43.75775" lon="7.02466">
        <ele>936.40002441406</ele>
        <time>2011-04-03T12:44:10.000Z</time>
      </trkpt>
      <trkpt lat="43.75776" lon="7.02479">
        <ele>936.40002441406</ele>
        <time>2011-04-03T12:44:12.000Z</time>
      </trkpt>
      <trkpt lat="43.75777" lon="7.02492">
        <ele>936.59997558594</ele>
        <time>2011-04-03T12:44:14.000Z</time>
      </trkpt>
      <trkpt lat="43.75779" lon="7.02504">
        <ele>936.59997558594</ele>
        <time>2011-04-03T12:44:16.000Z</time>
      </trkpt>
      <trkpt lat="43.75781" lon="7.02521">
        <ele>937</ele>
        <time>2011-04-03T12:44:19.000Z</time>
      </trkpt>
      <trkpt lat="43.75782" lon="7.02527">
        <ele>937.20001220703</ele>
        <time>2011-04-03T12:44:20.000Z</time>
      </trkpt>
      <trkpt lat="43.75783" lon="7.02532">
        <ele>937.40002441406</ele>
        <time>2011-04-03T12:44:21.000Z</time>
      </trkpt>
      <trkpt lat="43.75783" lon="7.02537">
        <ele>937.40002441406</ele>
        <time>2011-04-03T12:44:22.000Z</time>
      </trkpt>
      <trkpt lat="43.75787" lon="7.02553">
        <ele>937.79998779297</ele>
        <time>2011-04-03T12:44:26.000Z</time>
      </trkpt>
      <trkpt lat="43.75788" lon="7.02557">
        <ele>937.79998779297</ele>
        <time>2011-04-03T12:44:27.000Z</time>
      </trkpt>
      <trkpt lat="43.75786" lon="7.02571">
        <ele>938.20001220703</ele>
        <time>2011-04-03T12:44:31.000Z</time>
      </trkpt>
      <trkpt lat="43.75785" lon="7.02583">
        <ele>938.40002441406</ele>
        <time>2011-04-03T12:44:34.000Z</time>
      </trkpt>
      <trkpt lat="43.75784" lon="7.02601">
        <ele>938.59997558594</ele>
        <time>2011-04-03T12:44:39.000Z</time>
      </trkpt>
      <trkpt lat="43.75783" lon="7.02609">
        <ele>938.79998779297</ele>
        <time>2011-04-03T12:44:41.000Z</time>
      </trkpt>
      <trkpt lat="43.75781" lon="7.02631">
        <ele>939.20001220703</ele>
        <time>2011-04-03T12:44:47.000Z</time>
      </trkpt>
      <trkpt lat="43.75781" lon="7.02635">
        <ele>939.20001220703</ele>
        <time>2011-04-03T12:44:48.000Z</time>
      </trkpt>
      <trkpt lat="43.75779" lon="7.0265">
        <ele>939.59997558594</ele>
        <time>2011-04-03T12:44:52.000Z</time>
      </trkpt>
      <trkpt lat="43.75778" lon="7.02653">
        <ele>939.59997558594</ele>
        <time>2011-04-03T12:44:53.000Z</time>
      </trkpt>
      <trkpt lat="43.75778" lon="7.02662">
        <ele>939.79998779297</ele>
        <time>2011-04-03T12:44:56.000Z</time>
      </trkpt>
      <trkpt lat="43.75778" lon="7.02665">
        <ele>939.79998779297</ele>
        <time>2011-04-03T12:44:57.000Z</time>
      </trkpt>
      <trkpt lat="43.75779" lon="7.02672">
        <ele>939.79998779297</ele>
        <time>2011-04-03T12:44:59.000Z</time>
      </trkpt>
      <trkpt lat="43.7578" lon="7.02688">
        <ele>939.79998779297</ele>
        <time>2011-04-03T12:45:04.000Z</time>
      </trkpt>
      <trkpt lat="43.75783" lon="7.02713">
        <ele>939.79998779297</ele>
        <time>2011-04-03T12:45:11.000Z</time>
      </trkpt>
      <trkpt lat="43.75788" lon="7.02729">
        <ele>939.79998779297</ele>
        <time>2011-04-03T12:45:16.000Z</time>
      </trkpt>
      <trkpt lat="43.7579" lon="7.02736">
        <ele>939.79998779297</ele>
        <time>2011-04-03T12:45:18.000Z</time>
      </trkpt>
      <trkpt lat="43.75795" lon="7.02759">
        <ele>940</ele>
        <time>2011-04-03T12:45:24.000Z</time>
      </trkpt>
      <trkpt lat="43.75796" lon="7.02764">
        <ele>940</ele>
        <time>2011-04-03T12:45:25.000Z</time>
      </trkpt>
      <trkpt lat="43.75804" lon="7.02786">
        <ele>940</ele>
        <time>2011-04-03T12:45:30.000Z</time>
      </trkpt>
      <trkpt lat="43.75813" lon="7.02812">
        <ele>939.79998779297</ele>
        <time>2011-04-03T12:45:35.000Z</time>
      </trkpt>
      <trkpt lat="43.75817" lon="7.02823">
        <ele>939.79998779297</ele>
        <time>2011-04-03T12:45:37.000Z</time>
      </trkpt>
      <trkpt lat="43.75823" lon="7.02838">
        <ele>939.59997558594</ele>
        <time>2011-04-03T12:45:40.000Z</time>
      </trkpt>
      <trkpt lat="43.7583" lon="7.02851">
        <ele>939</ele>
        <time>2011-04-03T12:45:43.000Z</time>
      </trkpt>
      <trkpt lat="43.75834" lon="7.02857">
        <ele>938.79998779297</ele>
        <time>2011-04-03T12:45:45.000Z</time>
      </trkpt>
      <trkpt lat="43.75836" lon="7.0286">
        <ele>938.79998779297</ele>
        <time>2011-04-03T12:45:46.000Z</time>
      </trkpt>
      <trkpt lat="43.75848" lon="7.0288">
        <ele>938.40002441406</ele>
        <time>2011-04-03T12:45:53.000Z</time>
      </trkpt>
      <trkpt lat="43.7586" lon="7.02899">
        <ele>938.20001220703</ele>
        <time>2011-04-03T12:45:59.000Z</time>
      </trkpt>
      <trkpt lat="43.75875" lon="7.02916">
        <ele>938.40002441406</ele>
        <time>2011-04-03T12:46:04.000Z</time>
      </trkpt>
      <trkpt lat="43.75881" lon="7.02923">
        <ele>938.40002441406</ele>
        <time>2011-04-03T12:46:06.000Z</time>
      </trkpt>
      <trkpt lat="43.7589" lon="7.02938">
        <ele>938.20001220703</ele>
        <time>2011-04-03T12:46:09.000Z</time>
      </trkpt>
      <trkpt lat="43.75894" lon="7.0295">
        <ele>938</ele>
        <time>2011-04-03T12:46:11.000Z</time>
      </trkpt>
      <trkpt lat="43.75897" lon="7.02961">
        <ele>937.59997558594</ele>
        <time>2011-04-03T12:46:13.000Z</time>
      </trkpt>
      <trkpt lat="43.75898" lon="7.02966">
        <ele>937.40002441406</ele>
        <time>2011-04-03T12:46:14.000Z</time>
      </trkpt>
      <trkpt lat="43.759" lon="7.02975">
        <ele>937.20001220703</ele>
        <time>2011-04-03T12:46:16.000Z</time>
      </trkpt>
      <trkpt lat="43.75903" lon="7.0299">
        <ele>936.59997558594</ele>
        <time>2011-04-03T12:46:20.000Z</time>
      </trkpt>
      <trkpt lat="43.75905" lon="7.02993">
        <ele>936.59997558594</ele>
        <time>2011-04-03T12:46:21.000Z</time>
      </trkpt>
      <trkpt lat="43.75909" lon="7.02997">
        <ele>936.59997558594</ele>
        <time>2011-04-03T12:46:23.000Z</time>
      </trkpt>
      <trkpt lat="43.75917" lon="7.03009">
        <ele>937</ele>
        <time>2011-04-03T12:46:27.000Z</time>
      </trkpt>
      <trkpt lat="43.75928" lon="7.03033">
        <ele>938.59997558594</ele>
        <time>2011-04-03T12:46:34.000Z</time>
      </trkpt>
      <trkpt lat="43.75931" lon="7.03039">
        <ele>939</ele>
        <time>2011-04-03T12:46:36.000Z</time>
      </trkpt>
      <trkpt lat="43.75943" lon="7.0305">
        <ele>940.40002441406</ele>
        <time>2011-04-03T12:46:41.000Z</time>
      </trkpt>
      <trkpt lat="43.75945" lon="7.03051">
        <ele>940.79998779297</ele>
        <time>2011-04-03T12:46:42.000Z</time>
      </trkpt>
      <trkpt lat="43.75958" lon="7.03065">
        <ele>942.20001220703</ele>
        <time>2011-04-03T12:46:48.000Z</time>
      </trkpt>
      <trkpt lat="43.75961" lon="7.03082">
        <ele>942.20001220703</ele>
        <time>2011-04-03T12:46:53.000Z</time>
      </trkpt>
      <trkpt lat="43.75963" lon="7.03092">
        <ele>942</ele>
        <time>2011-04-03T12:46:56.000Z</time>
      </trkpt>
      <trkpt lat="43.75967" lon="7.031">
        <ele>942.20001220703</ele>
        <time>2011-04-03T12:46:59.000Z</time>
      </trkpt>
      <trkpt lat="43.75973" lon="7.03113">
        <ele>942.20001220703</ele>
        <time>2011-04-03T12:47:04.000Z</time>
      </trkpt>
      <trkpt lat="43.75977" lon="7.03118">
        <ele>942.40002441406</ele>
        <time>2011-04-03T12:47:06.000Z</time>
      </trkpt>
      <trkpt lat="43.75987" lon="7.03131">
        <ele>942.79998779297</ele>
        <time>2011-04-03T12:47:12.000Z</time>
      </trkpt>
      <trkpt lat="43.75992" lon="7.03139">
        <ele>942.79998779297</ele>
        <time>2011-04-03T12:47:15.000Z</time>
      </trkpt>
      <trkpt lat="43.75998" lon="7.03151">
        <ele>942.59997558594</ele>
        <time>2011-04-03T12:47:19.000Z</time>
      </trkpt>
      <trkpt lat="43.76002" lon="7.03158">
        <ele>942.79998779297</ele>
        <time>2011-04-03T12:47:21.000Z</time>
      </trkpt>
      <trkpt lat="43.76006" lon="7.03174">
        <ele>942.79998779297</ele>
        <time>2011-04-03T12:47:26.000Z</time>
      </trkpt>
      <trkpt lat="43.76006" lon="7.03177">
        <ele>942.79998779297</ele>
        <time>2011-04-03T12:47:27.000Z</time>
      </trkpt>
      <trkpt lat="43.76005" lon="7.03197">
        <ele>942.40002441406</ele>
        <time>2011-04-03T12:47:33.000Z</time>
      </trkpt>
      <trkpt lat="43.76006" lon="7.032">
        <ele>942.59997558594</ele>
        <time>2011-04-03T12:47:34.000Z</time>
      </trkpt>
      <trkpt lat="43.76012" lon="7.03214">
        <ele>943.40002441406</ele>
        <time>2011-04-03T12:47:39.000Z</time>
      </trkpt>
      <trkpt lat="43.76017" lon="7.03223">
        <ele>943.79998779297</ele>
        <time>2011-04-03T12:47:42.000Z</time>
      </trkpt>
      <trkpt lat="43.76023" lon="7.0323">
        <ele>944.59997558594</ele>
        <time>2011-04-03T12:47:46.000Z</time>
      </trkpt>
      <trkpt lat="43.7603" lon="7.03239">
        <ele>945.59997558594</ele>
        <time>2011-04-03T12:47:51.000Z</time>
      </trkpt>
      <trkpt lat="43.76034" lon="7.03246">
        <ele>946</ele>
        <time>2011-04-03T12:47:54.000Z</time>
      </trkpt>
      <trkpt lat="43.76042" lon="7.0326">
        <ele>946.40002441406</ele>
        <time>2011-04-03T12:48:00.000Z</time>
      </trkpt>
      <trkpt lat="43.76045" lon="7.03264">
        <ele>946.59997558594</ele>
        <time>2011-04-03T12:48:02.000Z</time>
      </trkpt>
      <trkpt lat="43.76056" lon="7.03279">
        <ele>947</ele>
        <time>2011-04-03T12:48:09.000Z</time>
      </trkpt>
      <trkpt lat="43.76057" lon="7.03281">
        <ele>947</ele>
        <time>2011-04-03T12:48:10.000Z</time>
      </trkpt>
      <trkpt lat="43.76069" lon="7.03288">
        <ele>947.79998779297</ele>
        <time>2011-04-03T12:48:16.000Z</time>
      </trkpt>
      <trkpt lat="43.76073" lon="7.03291">
        <ele>947.79998779297</ele>
        <time>2011-04-03T12:48:18.000Z</time>
      </trkpt>
      <trkpt lat="43.76085" lon="7.033">
        <ele>948.20001220703</ele>
        <time>2011-04-03T12:48:25.000Z</time>
      </trkpt>
      <trkpt lat="43.76088" lon="7.03304">
        <ele>948.40002441406</ele>
        <time>2011-04-03T12:48:30.000Z</time>
      </trkpt>
      <trkpt lat="43.76085" lon="7.03304">
        <ele>948</ele>
        <time>2011-04-03T12:49:12.000Z</time>
      </trkpt>
      <trkpt lat="43.76085" lon="7.0331">
        <ele>947.40002441406</ele>
        <time>2011-04-03T12:49:58.000Z</time>
      </trkpt>
      <trkpt lat="43.76085" lon="7.03309">
        <ele>947.40002441406</ele>
        <time>2011-04-03T12:50:03.000Z</time>
      </trkpt>
      <trkpt lat="43.76085" lon="7.03306">
        <ele>947.59997558594</ele>
        <time>2011-04-03T12:50:12.000Z</time>
      </trkpt>
      <trkpt lat="43.76086" lon="7.03305">
        <ele>948</ele>
        <time>2011-04-03T12:50:30.000Z</time>
      </trkpt>
      <trkpt lat="43.76089" lon="7.03302">
        <ele>948.79998779297</ele>
        <time>2011-04-03T12:50:46.000Z</time>
      </trkpt>
      <trkpt lat="43.76087" lon="7.03301">
        <ele>948.59997558594</ele>
        <time>2011-04-03T12:51:04.000Z</time>
      </trkpt>
      <trkpt lat="43.76087" lon="7.03302">
        <ele>948.40002441406</ele>
        <time>2011-04-03T12:51:12.000Z</time>
      </trkpt>
      <trkpt lat="43.76086" lon="7.03303">
        <ele>948.20001220703</ele>
        <time>2011-04-03T12:51:28.000Z</time>
      </trkpt>
      <trkpt lat="43.76087" lon="7.03304">
        <ele>948.20001220703</ele>
        <time>2011-04-03T12:52:16.000Z</time>
      </trkpt>
      <trkpt lat="43.76087" lon="7.03305">
        <ele>948.20001220703</ele>
        <time>2011-04-03T12:52:21.000Z</time>
      </trkpt>
      <trkpt lat="43.76088" lon="7.03307">
        <ele>948.20001220703</ele>
        <time>2011-04-03T12:53:29.000Z</time>
      </trkpt>
      <trkpt lat="43.76088" lon="7.03305">
        <ele>948.40002441406</ele>
        <time>2011-04-03T12:55:19.000Z</time>
      </trkpt>
      <trkpt lat="43.7609" lon="7.03304">
        <ele>948.59997558594</ele>
        <time>2011-04-03T12:57:19.000Z</time>
      </trkpt>
      <trkpt lat="43.7609" lon="7.03306">
        <ele>948.40002441406</ele>
        <time>2011-04-03T12:58:05.000Z</time>
      </trkpt>
      <trkpt lat="43.76087" lon="7.03307">
        <ele>948</ele>
        <time>2011-04-03T12:59:13.000Z</time>
      </trkpt>
      <trkpt lat="43.76088" lon="7.03308">
        <ele>948</ele>
        <time>2011-04-03T12:59:29.000Z</time>
      </trkpt>
      <trkpt lat="43.76087" lon="7.03308">
        <ele>947.79998779297</ele>
        <time>2011-04-03T12:59:51.000Z</time>
      </trkpt>
      <trkpt lat="43.76088" lon="7.03306">
        <ele>948.20001220703</ele>
        <time>2011-04-03T13:00:01.000Z</time>
      </trkpt>
      <trkpt lat="43.76088" lon="7.03303">
        <ele>948.40002441406</ele>
        <time>2011-04-03T13:00:13.000Z</time>
      </trkpt>
      <trkpt lat="43.76088" lon="7.03304">
        <ele>948.40002441406</ele>
        <time>2011-04-03T13:00:16.000Z</time>
      </trkpt>
      <trkpt lat="43.76088" lon="7.03304">
        <ele>948.40002441406</ele>
        <time>2011-04-03T13:00:26.000Z</time>
      </trkpt>
      <trkpt lat="43.76086" lon="7.03302">
        <ele>948.40002441406</ele>
        <time>2011-04-03T13:00:50.000Z</time>
      </trkpt>
      <trkpt lat="43.76087" lon="7.03305">
        <ele>948</ele>
        <time>2011-04-03T13:01:19.000Z</time>
      </trkpt>
      <trkpt lat="43.76085" lon="7.03304">
        <ele>948</ele>
        <time>2011-04-03T13:01:31.000Z</time>
      </trkpt>
      <trkpt lat="43.76086" lon="7.03303">
        <ele>948.20001220703</ele>
        <time>2011-04-03T13:01:57.000Z</time>
      </trkpt>
      <trkpt lat="43.76087" lon="7.03303">
        <ele>948.40002441406</ele>
        <time>2011-04-03T13:02:09.000Z</time>
      </trkpt>
      <trkpt lat="43.76088" lon="7.03305">
        <ele>948.20001220703</ele>
        <time>2011-04-03T13:02:12.000Z</time>
      </trkpt>
      <trkpt lat="43.7609" lon="7.03307">
        <ele>948.40002441406</ele>
        <time>2011-04-03T13:02:17.000Z</time>
      </trkpt>
      <trkpt lat="43.76093" lon="7.03314">
        <ele>948</ele>
        <time>2011-04-03T13:02:22.000Z</time>
      </trkpt>
      <trkpt lat="43.76094" lon="7.03319">
        <ele>947.79998779297</ele>
        <time>2011-04-03T13:02:24.000Z</time>
      </trkpt>
      <trkpt lat="43.76094" lon="7.03323">
        <ele>947.40002441406</ele>
        <time>2011-04-03T13:02:27.000Z</time>
      </trkpt>
      <trkpt lat="43.76098" lon="7.03329">
        <ele>947.20001220703</ele>
        <time>2011-04-03T13:02:33.000Z</time>
      </trkpt>
      <trkpt lat="43.76106" lon="7.03338">
        <ele>947.59997558594</ele>
        <time>2011-04-03T13:02:38.000Z</time>
      </trkpt>
      <trkpt lat="43.76107" lon="7.0334">
        <ele>947.59997558594</ele>
        <time>2011-04-03T13:02:40.000Z</time>
      </trkpt>
      <trkpt lat="43.7611" lon="7.03344">
        <ele>947.79998779297</ele>
        <time>2011-04-03T13:03:05.000Z</time>
      </trkpt>
      <trkpt lat="43.76115" lon="7.03357">
        <ele>947.59997558594</ele>
        <time>2011-04-03T13:03:09.000Z</time>
      </trkpt>
      <trkpt lat="43.76117" lon="7.03361">
        <ele>947.59997558594</ele>
        <time>2011-04-03T13:03:10.000Z</time>
      </trkpt>
      <trkpt lat="43.76123" lon="7.0338">
        <ele>946.79998779297</ele>
        <time>2011-04-03T13:03:16.000Z</time>
      </trkpt>
      <trkpt lat="43.76131" lon="7.03403">
        <ele>945.79998779297</ele>
        <time>2011-04-03T13:03:23.000Z</time>
      </trkpt>
      <trkpt lat="43.76132" lon="7.03406">
        <ele>945.59997558594</ele>
        <time>2011-04-03T13:03:24.000Z</time>
      </trkpt>
      <trkpt lat="43.76138" lon="7.03423">
        <ele>945.20001220703</ele>
        <time>2011-04-03T13:03:30.000Z</time>
      </trkpt>
      <trkpt lat="43.76142" lon="7.03428">
        <ele>945.40002441406</ele>
        <time>2011-04-03T13:03:32.000Z</time>
      </trkpt>
      <trkpt lat="43.76148" lon="7.03438">
        <ele>945.79998779297</ele>
        <time>2011-04-03T13:03:36.000Z</time>
      </trkpt>
      <trkpt lat="43.76154" lon="7.03448">
        <ele>946.20001220703</ele>
        <time>2011-04-03T13:03:40.000Z</time>
      </trkpt>
      <trkpt lat="43.76156" lon="7.03451">
        <ele>946.40002441406</ele>
        <time>2011-04-03T13:03:41.000Z</time>
      </trkpt>
      <trkpt lat="43.76168" lon="7.03467">
        <ele>947</ele>
        <time>2011-04-03T13:03:49.000Z</time>
      </trkpt>
      <trkpt lat="43.76178" lon="7.03476">
        <ele>947.59997558594</ele>
        <time>2011-04-03T13:03:55.000Z</time>
      </trkpt>
      <trkpt lat="43.76184" lon="7.03479">
        <ele>948</ele>
        <time>2011-04-03T13:03:58.000Z</time>
      </trkpt>
      <trkpt lat="43.76194" lon="7.03485">
        <ele>948.59997558594</ele>
        <time>2011-04-03T13:04:03.000Z</time>
      </trkpt>
      <trkpt lat="43.76199" lon="7.03493">
        <ele>948.59997558594</ele>
        <time>2011-04-03T13:04:07.000Z</time>
      </trkpt>
      <trkpt lat="43.76201" lon="7.03497">
        <ele>948.59997558594</ele>
        <time>2011-04-03T13:04:09.000Z</time>
      </trkpt>
      <trkpt lat="43.76208" lon="7.03512">
        <ele>949.20001220703</ele>
        <time>2011-04-03T13:04:17.000Z</time>
      </trkpt>
      <trkpt lat="43.76209" lon="7.03514">
        <ele>949.40002441406</ele>
        <time>2011-04-03T13:04:18.000Z</time>
      </trkpt>
      <trkpt lat="43.76216" lon="7.03521">
        <ele>949.79998779297</ele>
        <time>2011-04-03T13:04:23.000Z</time>
      </trkpt>
      <trkpt lat="43.76224" lon="7.03531">
        <ele>950.59997558594</ele>
        <time>2011-04-03T13:04:30.000Z</time>
      </trkpt>
      <trkpt lat="43.76233" lon="7.03538">
        <ele>951.20001220703</ele>
        <time>2011-04-03T13:04:37.000Z</time>
      </trkpt>
      <trkpt lat="43.76241" lon="7.03543">
        <ele>951.59997558594</ele>
        <time>2011-04-03T13:04:42.000Z</time>
      </trkpt>
      <trkpt lat="43.76243" lon="7.03544">
        <ele>951.59997558594</ele>
        <time>2011-04-03T13:04:44.000Z</time>
      </trkpt>
      <trkpt lat="43.7625" lon="7.03551">
        <ele>952.20001220703</ele>
        <time>2011-04-03T13:04:50.000Z</time>
      </trkpt>
      <trkpt lat="43.76253" lon="7.03555">
        <ele>952.40002441406</ele>
        <time>2011-04-03T13:05:04.000Z</time>
      </trkpt>
      <trkpt lat="43.76255" lon="7.03558">
        <ele>952.59997558594</ele>
        <time>2011-04-03T13:05:06.000Z</time>
      </trkpt>
      <trkpt lat="43.76265" lon="7.03565">
        <ele>953.20001220703</ele>
        <time>2011-04-03T13:05:13.000Z</time>
      </trkpt>
      <trkpt lat="43.76271" lon="7.0357">
        <ele>953.59997558594</ele>
        <time>2011-04-03T13:05:17.000Z</time>
      </trkpt>
      <trkpt lat="43.76273" lon="7.03574">
        <ele>953.59997558594</ele>
        <time>2011-04-03T13:05:19.000Z</time>
      </trkpt>
      <trkpt lat="43.76283" lon="7.03588">
        <ele>954.40002441406</ele>
        <time>2011-04-03T13:05:25.000Z</time>
      </trkpt>
      <trkpt lat="43.76289" lon="7.03593">
        <ele>955</ele>
        <time>2011-04-03T13:05:28.000Z</time>
      </trkpt>
      <trkpt lat="43.76299" lon="7.03603">
        <ele>956.20001220703</ele>
        <time>2011-04-03T13:05:34.000Z</time>
      </trkpt>
      <trkpt lat="43.76303" lon="7.03608">
        <ele>956.79998779297</ele>
        <time>2011-04-03T13:05:37.000Z</time>
      </trkpt>
      <trkpt lat="43.76316" lon="7.03617">
        <ele>958</ele>
        <time>2011-04-03T13:05:44.000Z</time>
      </trkpt>
      <trkpt lat="43.76333" lon="7.03628">
        <ele>959.59997558594</ele>
        <time>2011-04-03T13:05:50.000Z</time>
      </trkpt>
      <trkpt lat="43.76348" lon="7.03643">
        <ele>961</ele>
        <time>2011-04-03T13:05:55.000Z</time>
      </trkpt>
      <trkpt lat="43.76351" lon="7.03646">
        <ele>961.20001220703</ele>
        <time>2011-04-03T13:05:56.000Z</time>
      </trkpt>
      <trkpt lat="43.76362" lon="7.03656">
        <ele>962</ele>
        <time>2011-04-03T13:06:00.000Z</time>
      </trkpt>
      <trkpt lat="43.76367" lon="7.03663">
        <ele>962.40002441406</ele>
        <time>2011-04-03T13:06:03.000Z</time>
      </trkpt>
      <trkpt lat="43.7637" lon="7.03667">
        <ele>962.59997558594</ele>
        <time>2011-04-03T13:06:05.000Z</time>
      </trkpt>
      <trkpt lat="43.76377" lon="7.03676">
        <ele>962.79998779297</ele>
        <time>2011-04-03T13:06:10.000Z</time>
      </trkpt>
      <trkpt lat="43.76382" lon="7.03681">
        <ele>963</ele>
        <time>2011-04-03T13:06:13.000Z</time>
      </trkpt>
      <trkpt lat="43.76386" lon="7.03687">
        <ele>963.40002441406</ele>
        <time>2011-04-03T13:06:16.000Z</time>
      </trkpt>
      <trkpt lat="43.7639" lon="7.03701">
        <ele>964</ele>
        <time>2011-04-03T13:06:21.000Z</time>
      </trkpt>
      <trkpt lat="43.76391" lon="7.03704">
        <ele>964.20001220703</ele>
        <time>2011-04-03T13:06:22.000Z</time>
      </trkpt>
      <trkpt lat="43.76393" lon="7.03714">
        <ele>964.59997558594</ele>
        <time>2011-04-03T13:06:26.000Z</time>
      </trkpt>
      <trkpt lat="43.76397" lon="7.03727">
        <ele>965.20001220703</ele>
        <time>2011-04-03T13:06:32.000Z</time>
      </trkpt>
      <trkpt lat="43.76398" lon="7.03728">
        <ele>965.20001220703</ele>
        <time>2011-04-03T13:06:33.000Z</time>
      </trkpt>
      <trkpt lat="43.764" lon="7.03737">
        <ele>965.59997558594</ele>
        <time>2011-04-03T13:06:38.000Z</time>
      </trkpt>
      <trkpt lat="43.76403" lon="7.03746">
        <ele>966</ele>
        <time>2011-04-03T13:06:43.000Z</time>
      </trkpt>
      <trkpt lat="43.76406" lon="7.0375">
        <ele>966.20001220703</ele>
        <time>2011-04-03T13:06:46.000Z</time>
      </trkpt>
      <trkpt lat="43.76411" lon="7.03755">
        <ele>966.20001220703</ele>
        <time>2011-04-03T13:06:49.000Z</time>
      </trkpt>
      <trkpt lat="43.76422" lon="7.03764">
        <ele>967</ele>
        <time>2011-04-03T13:06:56.000Z</time>
      </trkpt>
      <trkpt lat="43.76424" lon="7.03767">
        <ele>967.40002441406</ele>
        <time>2011-04-03T13:06:58.000Z</time>
      </trkpt>
      <trkpt lat="43.76425" lon="7.03768">
        <ele>967.40002441406</ele>
        <time>2011-04-03T13:06:59.000Z</time>
      </trkpt>
      <trkpt lat="43.76426" lon="7.03769">
        <ele>967.59997558594</ele>
        <time>2011-04-03T13:07:03.000Z</time>
      </trkpt>
      <trkpt lat="43.76428" lon="7.03775">
        <ele>968.20001220703</ele>
        <time>2011-04-03T13:07:09.000Z</time>
      </trkpt>
      <trkpt lat="43.76428" lon="7.03776">
        <ele>968.20001220703</ele>
        <time>2011-04-03T13:07:10.000Z</time>
      </trkpt>
      <trkpt lat="43.76426" lon="7.03778">
        <ele>968</ele>
        <time>2011-04-03T13:07:17.000Z</time>
      </trkpt>
      <trkpt lat="43.76427" lon="7.0378">
        <ele>968.20001220703</ele>
        <time>2011-04-03T13:07:21.000Z</time>
      </trkpt>
      <trkpt lat="43.76427" lon="7.03782">
        <ele>968.20001220703</ele>
        <time>2011-04-03T13:07:25.000Z</time>
      </trkpt>
      <trkpt lat="43.76428" lon="7.03785">
        <ele>968.40002441406</ele>
        <time>2011-04-03T13:07:26.000Z</time>
      </trkpt>
      <trkpt lat="43.76429" lon="7.03787">
        <ele>968.59997558594</ele>
        <time>2011-04-03T13:07:27.000Z</time>
      </trkpt>
      <trkpt lat="43.76432" lon="7.03803">
        <ele>969.59997558594</ele>
        <time>2011-04-03T13:07:33.000Z</time>
      </trkpt>
      <trkpt lat="43.76433" lon="7.03809">
        <ele>969.79998779297</ele>
        <time>2011-04-03T13:07:35.000Z</time>
      </trkpt>
      <trkpt lat="43.76436" lon="7.03831">
        <ele>971</ele>
        <time>2011-04-03T13:07:42.000Z</time>
      </trkpt>
      <trkpt lat="43.76439" lon="7.03835">
        <ele>971.40002441406</ele>
        <time>2011-04-03T13:07:44.000Z</time>
      </trkpt>
      <trkpt lat="43.76441" lon="7.03837">
        <ele>971.59997558594</ele>
        <time>2011-04-03T13:07:47.000Z</time>
      </trkpt>
      <trkpt lat="43.76438" lon="7.03845">
        <ele>971.40002441406</ele>
        <time>2011-04-03T13:07:52.000Z</time>
      </trkpt>
      <trkpt lat="43.7643" lon="7.03848">
        <ele>970.40002441406</ele>
        <time>2011-04-03T13:07:57.000Z</time>
      </trkpt>
      <trkpt lat="43.76429" lon="7.03848">
        <ele>970.40002441406</ele>
        <time>2011-04-03T13:07:58.000Z</time>
      </trkpt>
      <trkpt lat="43.76428" lon="7.03847">
        <ele>970.20001220703</ele>
        <time>2011-04-03T13:08:02.000Z</time>
      </trkpt>
      <trkpt lat="43.76422" lon="7.03848">
        <ele>969.59997558594</ele>
        <time>2011-04-03T13:08:11.000Z</time>
      </trkpt>
      <trkpt lat="43.76411" lon="7.0385">
        <ele>969</ele>
        <time>2011-04-03T13:08:17.000Z</time>
      </trkpt>
      <trkpt lat="43.76397" lon="7.03854">
        <ele>968.79998779297</ele>
        <time>2011-04-03T13:08:23.000Z</time>
      </trkpt>
      <trkpt lat="43.76394" lon="7.03855">
        <ele>968.79998779297</ele>
        <time>2011-04-03T13:08:24.000Z</time>
      </trkpt>
      <trkpt lat="43.7638" lon="7.03867">
        <ele>968.59997558594</ele>
        <time>2011-04-03T13:08:30.000Z</time>
      </trkpt>
      <trkpt lat="43.76378" lon="7.0387">
        <ele>968.40002441406</ele>
        <time>2011-04-03T13:08:31.000Z</time>
      </trkpt>
      <trkpt lat="43.76368" lon="7.03891">
        <ele>968.20001220703</ele>
        <time>2011-04-03T13:08:37.000Z</time>
      </trkpt>
      <trkpt lat="43.76366" lon="7.03908">
        <ele>968</ele>
        <time>2011-04-03T13:08:41.000Z</time>
      </trkpt>
      <trkpt lat="43.76362" lon="7.03917">
        <ele>968</ele>
        <time>2011-04-03T13:08:43.000Z</time>
      </trkpt>
      <trkpt lat="43.76356" lon="7.03928">
        <ele>968.20001220703</ele>
        <time>2011-04-03T13:08:46.000Z</time>
      </trkpt>
      <trkpt lat="43.7635" lon="7.03935">
        <ele>968.20001220703</ele>
        <time>2011-04-03T13:08:49.000Z</time>
      </trkpt>
      <trkpt lat="43.76343" lon="7.03942">
        <ele>968.20001220703</ele>
        <time>2011-04-03T13:08:52.000Z</time>
      </trkpt>
      <trkpt lat="43.76334" lon="7.03952">
        <ele>968.20001220703</ele>
        <time>2011-04-03T13:08:56.000Z</time>
      </trkpt>
      <trkpt lat="43.76329" lon="7.03958">
        <ele>968.59997558594</ele>
        <time>2011-04-03T13:08:58.000Z</time>
      </trkpt>
      <trkpt lat="43.76318" lon="7.03969">
        <ele>969.20001220703</ele>
        <time>2011-04-03T13:09:02.000Z</time>
      </trkpt>
      <trkpt lat="43.76313" lon="7.03975">
        <ele>969.59997558594</ele>
        <time>2011-04-03T13:09:04.000Z</time>
      </trkpt>
      <trkpt lat="43.76302" lon="7.03986">
        <ele>970.20001220703</ele>
        <time>2011-04-03T13:09:08.000Z</time>
      </trkpt>
      <trkpt lat="43.76292" lon="7.03997">
        <ele>970.79998779297</ele>
        <time>2011-04-03T13:09:11.000Z</time>
      </trkpt>
      <trkpt lat="43.76287" lon="7.04002">
        <ele>971</ele>
        <time>2011-04-03T13:09:13.000Z</time>
      </trkpt>
      <trkpt lat="43.76277" lon="7.04011">
        <ele>971.40002441406</ele>
        <time>2011-04-03T13:09:17.000Z</time>
      </trkpt>
      <trkpt lat="43.76269" lon="7.04016">
        <ele>971.59997558594</ele>
        <time>2011-04-03T13:09:20.000Z</time>
      </trkpt>
      <trkpt lat="43.76261" lon="7.0402">
        <ele>971.79998779297</ele>
        <time>2011-04-03T13:09:23.000Z</time>
      </trkpt>
      <trkpt lat="43.76251" lon="7.04023">
        <ele>971.79998779297</ele>
        <time>2011-04-03T13:09:27.000Z</time>
      </trkpt>
      <trkpt lat="43.76244" lon="7.04026">
        <ele>972</ele>
        <time>2011-04-03T13:09:30.000Z</time>
      </trkpt>
      <trkpt lat="43.76235" lon="7.04032">
        <ele>972.20001220703</ele>
        <time>2011-04-03T13:09:36.000Z</time>
      </trkpt>
      <trkpt lat="43.76233" lon="7.04033">
        <ele>972.20001220703</ele>
        <time>2011-04-03T13:09:37.000Z</time>
      </trkpt>
      <trkpt lat="43.76226" lon="7.04036">
        <ele>972.20001220703</ele>
        <time>2011-04-03T13:09:41.000Z</time>
      </trkpt>
      <trkpt lat="43.76217" lon="7.04048">
        <ele>972.20001220703</ele>
        <time>2011-04-03T13:09:47.000Z</time>
      </trkpt>
      <trkpt lat="43.76206" lon="7.04063">
        <ele>972.20001220703</ele>
        <time>2011-04-03T13:09:52.000Z</time>
      </trkpt>
      <trkpt lat="43.76202" lon="7.04068">
        <ele>972.20001220703</ele>
        <time>2011-04-03T13:09:54.000Z</time>
      </trkpt>
      <trkpt lat="43.76197" lon="7.04078">
        <ele>972</ele>
        <time>2011-04-03T13:09:57.000Z</time>
      </trkpt>
      <trkpt lat="43.7619" lon="7.04089">
        <ele>971.79998779297</ele>
        <time>2011-04-03T13:10:00.000Z</time>
      </trkpt>
      <trkpt lat="43.76182" lon="7.041">
        <ele>971.79998779297</ele>
        <time>2011-04-03T13:10:03.000Z</time>
      </trkpt>
      <trkpt lat="43.76175" lon="7.04109">
        <ele>971.59997558594</ele>
        <time>2011-04-03T13:10:06.000Z</time>
      </trkpt>
      <trkpt lat="43.76159" lon="7.04128">
        <ele>971.20001220703</ele>
        <time>2011-04-03T13:10:12.000Z</time>
      </trkpt>
      <trkpt lat="43.76142" lon="7.04144">
        <ele>970.79998779297</ele>
        <time>2011-04-03T13:10:18.000Z</time>
      </trkpt>
      <trkpt lat="43.76132" lon="7.04155">
        <ele>970.59997558594</ele>
        <time>2011-04-03T13:10:22.000Z</time>
      </trkpt>
      <trkpt lat="43.76126" lon="7.0416">
        <ele>970.40002441406</ele>
        <time>2011-04-03T13:10:24.000Z</time>
      </trkpt>
      <trkpt lat="43.76109" lon="7.04176">
        <ele>970.20001220703</ele>
        <time>2011-04-03T13:10:30.000Z</time>
      </trkpt>
      <trkpt lat="43.76104" lon="7.04182">
        <ele>970</ele>
        <time>2011-04-03T13:10:32.000Z</time>
      </trkpt>
      <trkpt lat="43.76093" lon="7.04194">
        <ele>969.79998779297</ele>
        <time>2011-04-03T13:10:36.000Z</time>
      </trkpt>
      <trkpt lat="43.7608" lon="7.04208">
        <ele>969.40002441406</ele>
        <time>2011-04-03T13:10:41.000Z</time>
      </trkpt>
      <trkpt lat="43.76077" lon="7.04211">
        <ele>969.20001220703</ele>
        <time>2011-04-03T13:10:42.000Z</time>
      </trkpt>
      <trkpt lat="43.76062" lon="7.04228">
        <ele>969</ele>
        <time>2011-04-03T13:10:48.000Z</time>
      </trkpt>
      <trkpt lat="43.76056" lon="7.04234">
        <ele>969</ele>
        <time>2011-04-03T13:10:50.000Z</time>
      </trkpt>
      <trkpt lat="43.76046" lon="7.04243">
        <ele>968.79998779297</ele>
        <time>2011-04-03T13:10:55.000Z</time>
      </trkpt>
      <trkpt lat="43.76045" lon="7.04244">
        <ele>968.79998779297</ele>
        <time>2011-04-03T13:10:56.000Z</time>
      </trkpt>
      <trkpt lat="43.76038" lon="7.04255">
        <ele>969</ele>
        <time>2011-04-03T13:11:01.000Z</time>
      </trkpt>
      <trkpt lat="43.76032" lon="7.04263">
        <ele>969.20001220703</ele>
        <time>2011-04-03T13:11:05.000Z</time>
      </trkpt>
      <trkpt lat="43.76026" lon="7.0427">
        <ele>969.40002441406</ele>
        <time>2011-04-03T13:11:08.000Z</time>
      </trkpt>
      <trkpt lat="43.76019" lon="7.04278">
        <ele>969.40002441406</ele>
        <time>2011-04-03T13:11:12.000Z</time>
      </trkpt>
      <trkpt lat="43.76018" lon="7.0428">
        <ele>969.59997558594</ele>
        <time>2011-04-03T13:11:13.000Z</time>
      </trkpt>
      <trkpt lat="43.76017" lon="7.04283">
        <ele>969.59997558594</ele>
        <time>2011-04-03T13:11:14.000Z</time>
      </trkpt>
      <trkpt lat="43.76008" lon="7.04297">
        <ele>970</ele>
        <time>2011-04-03T13:11:20.000Z</time>
      </trkpt>
      <trkpt lat="43.76005" lon="7.043">
        <ele>970</ele>
        <time>2011-04-03T13:11:22.000Z</time>
      </trkpt>
      <trkpt lat="43.75998" lon="7.04309">
        <ele>970.40002441406</ele>
        <time>2011-04-03T13:11:27.000Z</time>
      </trkpt>
      <trkpt lat="43.7599" lon="7.04318">
        <ele>970.79998779297</ele>
        <time>2011-04-03T13:11:31.000Z</time>
      </trkpt>
      <trkpt lat="43.75986" lon="7.04323">
        <ele>971</ele>
        <time>2011-04-03T13:11:33.000Z</time>
      </trkpt>
      <trkpt lat="43.75975" lon="7.04335">
        <ele>971.59997558594</ele>
        <time>2011-04-03T13:11:38.000Z</time>
      </trkpt>
      <trkpt lat="43.7597" lon="7.04338">
        <ele>971.59997558594</ele>
        <time>2011-04-03T13:11:40.000Z</time>
      </trkpt>
      <trkpt lat="43.75956" lon="7.04342">
        <ele>971.79998779297</ele>
        <time>2011-04-03T13:11:45.000Z</time>
      </trkpt>
      <trkpt lat="43.7595" lon="7.04343">
        <ele>972</ele>
        <time>2011-04-03T13:11:47.000Z</time>
      </trkpt>
      <trkpt lat="43.75937" lon="7.04347">
        <ele>972.20001220703</ele>
        <time>2011-04-03T13:11:52.000Z</time>
      </trkpt>
      <trkpt lat="43.75934" lon="7.04348">
        <ele>972.20001220703</ele>
        <time>2011-04-03T13:11:53.000Z</time>
      </trkpt>
      <trkpt lat="43.75917" lon="7.04353">
        <ele>972.40002441406</ele>
        <time>2011-04-03T13:12:00.000Z</time>
      </trkpt>
      <trkpt lat="43.75899" lon="7.0436">
        <ele>972.20001220703</ele>
        <time>2011-04-03T13:12:06.000Z</time>
      </trkpt>
      <trkpt lat="43.75896" lon="7.04361">
        <ele>972.20001220703</ele>
        <time>2011-04-03T13:12:07.000Z</time>
      </trkpt>
      <trkpt lat="43.75882" lon="7.04367">
        <ele>972</ele>
        <time>2011-04-03T13:12:12.000Z</time>
      </trkpt>
      <trkpt lat="43.75866" lon="7.04377">
        <ele>971.79998779297</ele>
        <time>2011-04-03T13:12:17.000Z</time>
      </trkpt>
      <trkpt lat="43.75864" lon="7.0438">
        <ele>971.79998779297</ele>
        <time>2011-04-03T13:12:18.000Z</time>
      </trkpt>
      <trkpt lat="43.75853" lon="7.0439">
        <ele>971.79998779297</ele>
        <time>2011-04-03T13:12:22.000Z</time>
      </trkpt>
      <trkpt lat="43.75847" lon="7.04396">
        <ele>971.79998779297</ele>
        <time>2011-04-03T13:12:24.000Z</time>
      </trkpt>
      <trkpt lat="43.7583" lon="7.04413">
        <ele>972</ele>
        <time>2011-04-03T13:12:29.000Z</time>
      </trkpt>
      <trkpt lat="43.75827" lon="7.04417">
        <ele>972</ele>
        <time>2011-04-03T13:12:30.000Z</time>
      </trkpt>
      <trkpt lat="43.75817" lon="7.04434">
        <ele>972.40002441406</ele>
        <time>2011-04-03T13:12:34.000Z</time>
      </trkpt>
      <trkpt lat="43.75809" lon="7.04446">
        <ele>972.59997558594</ele>
        <time>2011-04-03T13:12:37.000Z</time>
      </trkpt>
      <trkpt lat="43.75803" lon="7.04453">
        <ele>972.59997558594</ele>
        <time>2011-04-03T13:12:39.000Z</time>
      </trkpt>
      <trkpt lat="43.7579" lon="7.04472">
        <ele>972.79998779297</ele>
        <time>2011-04-03T13:12:44.000Z</time>
      </trkpt>
      <trkpt lat="43.75778" lon="7.0449">
        <ele>972.59997558594</ele>
        <time>2011-04-03T13:12:49.000Z</time>
      </trkpt>
      <trkpt lat="43.7577" lon="7.045">
        <ele>972.40002441406</ele>
        <time>2011-04-03T13:12:52.000Z</time>
      </trkpt>
      <trkpt lat="43.75764" lon="7.0451">
        <ele>972.40002441406</ele>
        <time>2011-04-03T13:12:55.000Z</time>
      </trkpt>
      <trkpt lat="43.75755" lon="7.04524">
        <ele>972.20001220703</ele>
        <time>2011-04-03T13:12:59.000Z</time>
      </trkpt>
      <trkpt lat="43.75752" lon="7.04531">
        <ele>972.20001220703</ele>
        <time>2011-04-03T13:13:01.000Z</time>
      </trkpt>
      <trkpt lat="43.75751" lon="7.04533">
        <ele>972.40002441406</ele>
        <time>2011-04-03T13:13:03.000Z</time>
      </trkpt>
      <trkpt lat="43.75749" lon="7.04534">
        <ele>972.20001220703</ele>
        <time>2011-04-03T13:13:55.000Z</time>
      </trkpt>
      <trkpt lat="43.75742" lon="7.04541">
        <ele>972.20001220703</ele>
        <time>2011-04-03T13:13:57.000Z</time>
      </trkpt>
      <trkpt lat="43.75734" lon="7.04551">
        <ele>972</ele>
        <time>2011-04-03T13:14:00.000Z</time>
      </trkpt>
      <trkpt lat="43.75728" lon="7.04558">
        <ele>971.79998779297</ele>
        <time>2011-04-03T13:14:02.000Z</time>
      </trkpt>
      <trkpt lat="43.75724" lon="7.04564">
        <ele>971.59997558594</ele>
        <time>2011-04-03T13:14:05.000Z</time>
      </trkpt>
      <trkpt lat="43.75718" lon="7.0457">
        <ele>971.40002441406</ele>
        <time>2011-04-03T13:14:11.000Z</time>
      </trkpt>
      <trkpt lat="43.75712" lon="7.04575">
        <ele>971.20001220703</ele>
        <time>2011-04-03T13:14:13.000Z</time>
      </trkpt>
      <trkpt lat="43.75704" lon="7.04584">
        <ele>970.59997558594</ele>
        <time>2011-04-03T13:14:17.000Z</time>
      </trkpt>
      <trkpt lat="43.75697" lon="7.04591">
        <ele>970.20001220703</ele>
        <time>2011-04-03T13:14:20.000Z</time>
      </trkpt>
      <trkpt lat="43.75687" lon="7.04604">
        <ele>969.20001220703</ele>
        <time>2011-04-03T13:14:25.000Z</time>
      </trkpt>
      <trkpt lat="43.75684" lon="7.04607">
        <ele>969</ele>
        <time>2011-04-03T13:14:26.000Z</time>
      </trkpt>
      <trkpt lat="43.75666" lon="7.04625">
        <ele>967.79998779297</ele>
        <time>2011-04-03T13:14:31.000Z</time>
      </trkpt>
      <trkpt lat="43.7565" lon="7.04642">
        <ele>967.20001220703</ele>
        <time>2011-04-03T13:14:35.000Z</time>
      </trkpt>
      <trkpt lat="43.75641" lon="7.0465">
        <ele>967</ele>
        <time>2011-04-03T13:14:37.000Z</time>
      </trkpt>
      <trkpt lat="43.75634" lon="7.04657">
        <ele>966.59997558594</ele>
        <time>2011-04-03T13:14:39.000Z</time>
      </trkpt>
      <trkpt lat="43.7563" lon="7.04661">
        <ele>966.59997558594</ele>
        <time>2011-04-03T13:14:40.000Z</time>
      </trkpt>
      <trkpt lat="43.75619" lon="7.04671">
        <ele>966</ele>
        <time>2011-04-03T13:14:43.000Z</time>
      </trkpt>
      <trkpt lat="43.75616" lon="7.04675">
        <ele>965.79998779297</ele>
        <time>2011-04-03T13:14:44.000Z</time>
      </trkpt>
      <trkpt lat="43.75607" lon="7.04689">
        <ele>965</ele>
        <time>2011-04-03T13:14:47.000Z</time>
      </trkpt>
      <trkpt lat="43.75601" lon="7.04698">
        <ele>964.59997558594</ele>
        <time>2011-04-03T13:14:49.000Z</time>
      </trkpt>
      <trkpt lat="43.75586" lon="7.04716">
        <ele>964</ele>
        <time>2011-04-03T13:14:53.000Z</time>
      </trkpt>
      <trkpt lat="43.75579" lon="7.04726">
        <ele>964</ele>
        <time>2011-04-03T13:14:55.000Z</time>
      </trkpt>
      <trkpt lat="43.75572" lon="7.04734">
        <ele>964.20001220703</ele>
        <time>2011-04-03T13:14:57.000Z</time>
      </trkpt>
      <trkpt lat="43.75565" lon="7.04744">
        <ele>964.40002441406</ele>
        <time>2011-04-03T13:14:59.000Z</time>
      </trkpt>
      <trkpt lat="43.75558" lon="7.04756">
        <ele>964.40002441406</ele>
        <time>2011-04-03T13:15:01.000Z</time>
      </trkpt>
      <trkpt lat="43.75545" lon="7.04781">
        <ele>964.20001220703</ele>
        <time>2011-04-03T13:15:06.000Z</time>
      </trkpt>
      <trkpt lat="43.75534" lon="7.04805">
        <ele>964</ele>
        <time>2011-04-03T13:15:11.000Z</time>
      </trkpt>
      <trkpt lat="43.7553" lon="7.04814">
        <ele>964</ele>
        <time>2011-04-03T13:15:13.000Z</time>
      </trkpt>
      <trkpt lat="43.75524" lon="7.04829">
        <ele>964.20001220703</ele>
        <time>2011-04-03T13:15:17.000Z</time>
      </trkpt>
      <trkpt lat="43.75517" lon="7.04844">
        <ele>965.20001220703</ele>
        <time>2011-04-03T13:15:21.000Z</time>
      </trkpt>
      <trkpt lat="43.75514" lon="7.04854">
        <ele>965.79998779297</ele>
        <time>2011-04-03T13:15:23.000Z</time>
      </trkpt>
      <trkpt lat="43.75509" lon="7.04874">
        <ele>967</ele>
        <time>2011-04-03T13:15:28.000Z</time>
      </trkpt>
      <trkpt lat="43.75508" lon="7.0488">
        <ele>967.40002441406</ele>
        <time>2011-04-03T13:15:30.000Z</time>
      </trkpt>
      <trkpt lat="43.75507" lon="7.04896">
        <ele>968</ele>
        <time>2011-04-03T13:15:35.000Z</time>
      </trkpt>
      <trkpt lat="43.75507" lon="7.04908">
        <ele>968.40002441406</ele>
        <time>2011-04-03T13:15:39.000Z</time>
      </trkpt>
      <trkpt lat="43.75507" lon="7.04912">
        <ele>968.59997558594</ele>
        <time>2011-04-03T13:15:41.000Z</time>
      </trkpt>
      <trkpt lat="43.75503" lon="7.04931">
        <ele>969.79998779297</ele>
        <time>2011-04-03T13:15:48.000Z</time>
      </trkpt>
      <trkpt lat="43.75502" lon="7.04933">
        <ele>969.79998779297</ele>
        <time>2011-04-03T13:15:49.000Z</time>
      </trkpt>
      <trkpt lat="43.755" lon="7.04947">
        <ele>970.59997558594</ele>
        <time>2011-04-03T13:15:55.000Z</time>
      </trkpt>
      <trkpt lat="43.75496" lon="7.04956">
        <ele>970.79998779297</ele>
        <time>2011-04-03T13:15:59.000Z</time>
      </trkpt>
      <trkpt lat="43.75491" lon="7.04964">
        <ele>971.20001220703</ele>
        <time>2011-04-03T13:16:03.000Z</time>
      </trkpt>
      <trkpt lat="43.75481" lon="7.0497">
        <ele>971.40002441406</ele>
        <time>2011-04-03T13:16:08.000Z</time>
      </trkpt>
      <trkpt lat="43.75478" lon="7.04972">
        <ele>971.40002441406</ele>
        <time>2011-04-03T13:16:09.000Z</time>
      </trkpt>
      <trkpt lat="43.75466" lon="7.04989">
        <ele>972</ele>
        <time>2011-04-03T13:16:13.000Z</time>
      </trkpt>
      <trkpt lat="43.75463" lon="7.05017">
        <ele>972</ele>
        <time>2011-04-03T13:16:17.000Z</time>
      </trkpt>
      <trkpt lat="43.75459" lon="7.05046">
        <ele>971.59997558594</ele>
        <time>2011-04-03T13:16:22.000Z</time>
      </trkpt>
      <trkpt lat="43.75456" lon="7.05068">
        <ele>971.20001220703</ele>
        <time>2011-04-03T13:16:27.000Z</time>
      </trkpt>
      <trkpt lat="43.75455" lon="7.05073">
        <ele>971.20001220703</ele>
        <time>2011-04-03T13:16:28.000Z</time>
      </trkpt>
      <trkpt lat="43.75447" lon="7.05096">
        <ele>971.20001220703</ele>
        <time>2011-04-03T13:16:34.000Z</time>
      </trkpt>
      <trkpt lat="43.75441" lon="7.05113">
        <ele>971.40002441406</ele>
        <time>2011-04-03T13:16:39.000Z</time>
      </trkpt>
      <trkpt lat="43.7544" lon="7.05119">
        <ele>971.40002441406</ele>
        <time>2011-04-03T13:16:41.000Z</time>
      </trkpt>
      <trkpt lat="43.75436" lon="7.05125">
        <ele>971.40002441406</ele>
        <time>2011-04-03T13:16:44.000Z</time>
      </trkpt>
      <trkpt lat="43.75424" lon="7.05134">
        <ele>972</ele>
        <time>2011-04-03T13:16:49.000Z</time>
      </trkpt>
      <trkpt lat="43.7542" lon="7.05135">
        <ele>972.20001220703</ele>
        <time>2011-04-03T13:16:50.000Z</time>
      </trkpt>
      <trkpt lat="43.75405" lon="7.0514">
        <ele>972</ele>
        <time>2011-04-03T13:16:54.000Z</time>
      </trkpt>
      <trkpt lat="43.75402" lon="7.05142">
        <ele>972</ele>
        <time>2011-04-03T13:16:55.000Z</time>
      </trkpt>
      <trkpt lat="43.75389" lon="7.05154">
        <ele>971.79998779297</ele>
        <time>2011-04-03T13:17:00.000Z</time>
      </trkpt>
      <trkpt lat="43.75386" lon="7.05158">
        <ele>971.59997558594</ele>
        <time>2011-04-03T13:17:01.000Z</time>
      </trkpt>
      <trkpt lat="43.75378" lon="7.05177">
        <ele>971.40002441406</ele>
        <time>2011-04-03T13:17:05.000Z</time>
      </trkpt>
      <trkpt lat="43.75377" lon="7.05181">
        <ele>971.40002441406</ele>
        <time>2011-04-03T13:17:06.000Z</time>
      </trkpt>
      <trkpt lat="43.75372" lon="7.05191">
        <ele>971.20001220703</ele>
        <time>2011-04-03T13:17:10.000Z</time>
      </trkpt>
      <trkpt lat="43.75372" lon="7.05192">
        <ele>971.20001220703</ele>
        <time>2011-04-03T13:17:11.000Z</time>
      </trkpt>
      <trkpt lat="43.75365" lon="7.05198">
        <ele>971.20001220703</ele>
        <time>2011-04-03T13:17:43.000Z</time>
      </trkpt>
      <trkpt lat="43.75353" lon="7.05216">
        <ele>971</ele>
        <time>2011-04-03T13:17:48.000Z</time>
      </trkpt>
      <trkpt lat="43.75339" lon="7.05237">
        <ele>971</ele>
        <time>2011-04-03T13:17:52.000Z</time>
      </trkpt>
      <trkpt lat="43.75328" lon="7.05253">
        <ele>970.79998779297</ele>
        <time>2011-04-03T13:17:55.000Z</time>
      </trkpt>
      <trkpt lat="43.75324" lon="7.05259">
        <ele>970.59997558594</ele>
        <time>2011-04-03T13:17:56.000Z</time>
      </trkpt>
      <trkpt lat="43.75311" lon="7.05277">
        <ele>970</ele>
        <time>2011-04-03T13:17:59.000Z</time>
      </trkpt>
      <trkpt lat="43.75303" lon="7.05289">
        <ele>969.79998779297</ele>
        <time>2011-04-03T13:18:01.000Z</time>
      </trkpt>
      <trkpt lat="43.75296" lon="7.05302">
        <ele>969.59997558594</ele>
        <time>2011-04-03T13:18:03.000Z</time>
      </trkpt>
      <trkpt lat="43.75293" lon="7.05307">
        <ele>969.59997558594</ele>
        <time>2011-04-03T13:18:04.000Z</time>
      </trkpt>
      <trkpt lat="43.75291" lon="7.05313">
        <ele>969.40002441406</ele>
        <time>2011-04-03T13:18:05.000Z</time>
      </trkpt>
      <trkpt lat="43.7529" lon="7.05327">
        <ele>969</ele>
        <time>2011-04-03T13:18:07.000Z</time>
      </trkpt>
      <trkpt lat="43.75288" lon="7.05341">
        <ele>968.59997558594</ele>
        <time>2011-04-03T13:18:09.000Z</time>
      </trkpt>
      <trkpt lat="43.75284" lon="7.05354">
        <ele>968.20001220703</ele>
        <time>2011-04-03T13:18:11.000Z</time>
      </trkpt>
      <trkpt lat="43.75279" lon="7.05364">
        <ele>967.79998779297</ele>
        <time>2011-04-03T13:18:13.000Z</time>
      </trkpt>
      <trkpt lat="43.75275" lon="7.05377">
        <ele>967.40002441406</ele>
        <time>2011-04-03T13:18:15.000Z</time>
      </trkpt>
      <trkpt lat="43.75274" lon="7.05384">
        <ele>967.20001220703</ele>
        <time>2011-04-03T13:18:16.000Z</time>
      </trkpt>
      <trkpt lat="43.75271" lon="7.05398">
        <ele>966.59997558594</ele>
        <time>2011-04-03T13:18:18.000Z</time>
      </trkpt>
      <trkpt lat="43.75269" lon="7.05405">
        <ele>966.40002441406</ele>
        <time>2011-04-03T13:18:19.000Z</time>
      </trkpt>
      <trkpt lat="43.75258" lon="7.0542">
        <ele>966.20001220703</ele>
        <time>2011-04-03T13:18:22.000Z</time>
      </trkpt>
      <trkpt lat="43.75254" lon="7.05424">
        <ele>966.20001220703</ele>
        <time>2011-04-03T13:18:23.000Z</time>
      </trkpt>
      <trkpt lat="43.75243" lon="7.05439">
        <ele>965.40002441406</ele>
        <time>2011-04-03T13:18:26.000Z</time>
      </trkpt>
      <trkpt lat="43.75239" lon="7.05444">
        <ele>965.20001220703</ele>
        <time>2011-04-03T13:18:27.000Z</time>
      </trkpt>
      <trkpt lat="43.75235" lon="7.05449">
        <ele>965</ele>
        <time>2011-04-03T13:18:28.000Z</time>
      </trkpt>
      <trkpt lat="43.75221" lon="7.0546">
        <ele>965</ele>
        <time>2011-04-03T13:18:31.000Z</time>
      </trkpt>
      <trkpt lat="43.75202" lon="7.05472">
        <ele>965.20001220703</ele>
        <time>2011-04-03T13:18:35.000Z</time>
      </trkpt>
      <trkpt lat="43.75195" lon="7.05477">
        <ele>965.40002441406</ele>
        <time>2011-04-03T13:18:37.000Z</time>
      </trkpt>
      <trkpt lat="43.75193" lon="7.05479">
        <ele>965.40002441406</ele>
        <time>2011-04-03T13:18:38.000Z</time>
      </trkpt>
      <trkpt lat="43.75187" lon="7.05485">
        <ele>965.40002441406</ele>
        <time>2011-04-03T13:18:41.000Z</time>
      </trkpt>
      <trkpt lat="43.75186" lon="7.05486">
        <ele>965.40002441406</ele>
        <time>2011-04-03T13:18:42.000Z</time>
      </trkpt>
      <trkpt lat="43.75186" lon="7.05488">
        <ele>965.20001220703</ele>
        <time>2011-04-03T13:18:44.000Z</time>
      </trkpt>
      <trkpt lat="43.75185" lon="7.0549">
        <ele>965.20001220703</ele>
        <time>2011-04-03T13:18:46.000Z</time>
      </trkpt>
      <trkpt lat="43.75185" lon="7.05491">
        <ele>965.20001220703</ele>
        <time>2011-04-03T13:18:48.000Z</time>
      </trkpt>
      <trkpt lat="43.75179" lon="7.05497">
        <ele>965.20001220703</ele>
        <time>2011-04-03T13:19:08.000Z</time>
      </trkpt>
      <trkpt lat="43.75172" lon="7.05505">
        <ele>965.40002441406</ele>
        <time>2011-04-03T13:19:12.000Z</time>
      </trkpt>
      <trkpt lat="43.75169" lon="7.05509">
        <ele>965.40002441406</ele>
        <time>2011-04-03T13:19:14.000Z</time>
      </trkpt>
      <trkpt lat="43.7516" lon="7.05521">
        <ele>965.79998779297</ele>
        <time>2011-04-03T13:19:20.000Z</time>
      </trkpt>
      <trkpt lat="43.75158" lon="7.05524">
        <ele>966</ele>
        <time>2011-04-03T13:19:21.000Z</time>
      </trkpt>
      <trkpt lat="43.75147" lon="7.05538">
        <ele>966.40002441406</ele>
        <time>2011-04-03T13:19:27.000Z</time>
      </trkpt>
      <trkpt lat="43.75143" lon="7.05544">
        <ele>966.59997558594</ele>
        <time>2011-04-03T13:19:29.000Z</time>
      </trkpt>
      <trkpt lat="43.75132" lon="7.05553">
        <ele>967.20001220703</ele>
        <time>2011-04-03T13:19:34.000Z</time>
      </trkpt>
      <trkpt lat="43.75127" lon="7.05555">
        <ele>967.59997558594</ele>
        <time>2011-04-03T13:19:36.000Z</time>
      </trkpt>
      <trkpt lat="43.75116" lon="7.05562">
        <ele>968.40002441406</ele>
        <time>2011-04-03T13:19:41.000Z</time>
      </trkpt>
      <trkpt lat="43.7511" lon="7.05568">
        <ele>968.79998779297</ele>
        <time>2011-04-03T13:19:44.000Z</time>
      </trkpt>
      <trkpt lat="43.75105" lon="7.05572">
        <ele>969.20001220703</ele>
        <time>2011-04-03T13:19:47.000Z</time>
      </trkpt>
      <trkpt lat="43.75104" lon="7.05568">
        <ele>969.20001220703</ele>
        <time>2011-04-03T13:19:53.000Z</time>
      </trkpt>
      <trkpt lat="43.75103" lon="7.05566">
        <ele>969.40002441406</ele>
        <time>2011-04-03T13:20:00.000Z</time>
      </trkpt>
      <trkpt lat="43.75095" lon="7.05562">
        <ele>970</ele>
        <time>2011-04-03T13:20:05.000Z</time>
      </trkpt>
      <trkpt lat="43.75083" lon="7.05548">
        <ele>971</ele>
        <time>2011-04-03T13:20:11.000Z</time>
      </trkpt>
      <trkpt lat="43.7508" lon="7.05547">
        <ele>971</ele>
        <time>2011-04-03T13:20:12.000Z</time>
      </trkpt>
      <trkpt lat="43.75071" lon="7.05547">
        <ele>971.20001220703</ele>
        <time>2011-04-03T13:20:15.000Z</time>
      </trkpt>
      <trkpt lat="43.75062" lon="7.05549">
        <ele>971.40002441406</ele>
        <time>2011-04-03T13:20:18.000Z</time>
      </trkpt>
      <trkpt lat="43.75057" lon="7.05549">
        <ele>971.40002441406</ele>
        <time>2011-04-03T13:20:20.000Z</time>
      </trkpt>
      <trkpt lat="43.75044" lon="7.05547">
        <ele>971.59997558594</ele>
        <time>2011-04-03T13:20:25.000Z</time>
      </trkpt>
      <trkpt lat="43.75041" lon="7.05545">
        <ele>971.59997558594</ele>
        <time>2011-04-03T13:20:26.000Z</time>
      </trkpt>
      <trkpt lat="43.75025" lon="7.0554">
        <ele>972</ele>
        <time>2011-04-03T13:20:31.000Z</time>
      </trkpt>
      <trkpt lat="43.75019" lon="7.05538">
        <ele>972</ele>
        <time>2011-04-03T13:20:33.000Z</time>
      </trkpt>
      <trkpt lat="43.75007" lon="7.0553">
        <ele>972.20001220703</ele>
        <time>2011-04-03T13:20:37.000Z</time>
      </trkpt>
      <trkpt lat="43.74999" lon="7.05523">
        <ele>972.20001220703</ele>
        <time>2011-04-03T13:20:40.000Z</time>
      </trkpt>
      <trkpt lat="43.74991" lon="7.05518">
        <ele>972.20001220703</ele>
        <time>2011-04-03T13:20:43.000Z</time>
      </trkpt>
      <trkpt lat="43.74981" lon="7.05508">
        <ele>972.40002441406</ele>
        <time>2011-04-03T13:20:47.000Z</time>
      </trkpt>
      <trkpt lat="43.74975" lon="7.05505">
        <ele>972.40002441406</ele>
        <time>2011-04-03T13:20:49.000Z</time>
      </trkpt>
      <trkpt lat="43.74969" lon="7.05505">
        <ele>972.59997558594</ele>
        <time>2011-04-03T13:20:51.000Z</time>
      </trkpt>
      <trkpt lat="43.74961" lon="7.05504">
        <ele>972.79998779297</ele>
        <time>2011-04-03T13:20:56.000Z</time>
      </trkpt>
      <trkpt lat="43.7496" lon="7.05497">
        <ele>973</ele>
        <time>2011-04-03T13:21:12.000Z</time>
      </trkpt>
      <trkpt lat="43.74956" lon="7.0549">
        <ele>973.20001220703</ele>
        <time>2011-04-03T13:21:15.000Z</time>
      </trkpt>
      <trkpt lat="43.74953" lon="7.05487">
        <ele>973.20001220703</ele>
        <time>2011-04-03T13:21:17.000Z</time>
      </trkpt>
      <trkpt lat="43.74945" lon="7.05485">
        <ele>973.40002441406</ele>
        <time>2011-04-03T13:21:23.000Z</time>
      </trkpt>
      <trkpt lat="43.74933" lon="7.05484">
        <ele>973.59997558594</ele>
        <time>2011-04-03T13:21:31.000Z</time>
      </trkpt>
      <trkpt lat="43.74928" lon="7.05478">
        <ele>973.79998779297</ele>
        <time>2011-04-03T13:21:35.000Z</time>
      </trkpt>
      <trkpt lat="43.74925" lon="7.05474">
        <ele>973.79998779297</ele>
        <time>2011-04-03T13:21:37.000Z</time>
      </trkpt>
      <trkpt lat="43.74918" lon="7.05464">
        <ele>973.79998779297</ele>
        <time>2011-04-03T13:21:43.000Z</time>
      </trkpt>
      <trkpt lat="43.74915" lon="7.05459">
        <ele>974</ele>
        <time>2011-04-03T13:21:46.000Z</time>
      </trkpt>
      <trkpt lat="43.74911" lon="7.05452">
        <ele>974.20001220703</ele>
        <time>2011-04-03T13:21:51.000Z</time>
      </trkpt>
      <trkpt lat="43.74903" lon="7.05444">
        <ele>974.59997558594</ele>
        <time>2011-04-03T13:21:58.000Z</time>
      </trkpt>
      <trkpt lat="43.74901" lon="7.05442">
        <ele>974.59997558594</ele>
        <time>2011-04-03T13:22:00.000Z</time>
      </trkpt>
      <trkpt lat="43.74897" lon="7.05439">
        <ele>975</ele>
        <time>2011-04-03T13:22:04.000Z</time>
      </trkpt>
      <trkpt lat="43.74891" lon="7.0543">
        <ele>975.20001220703</ele>
        <time>2011-04-03T13:22:10.000Z</time>
      </trkpt>
      <trkpt lat="43.74887" lon="7.05426">
        <ele>975.59997558594</ele>
        <time>2011-04-03T13:22:13.000Z</time>
      </trkpt>
      <trkpt lat="43.74885" lon="7.05424">
        <ele>975.79998779297</ele>
        <time>2011-04-03T13:22:16.000Z</time>
      </trkpt>
      <trkpt lat="43.74884" lon="7.05421">
        <ele>975.79998779297</ele>
        <time>2011-04-03T13:22:21.000Z</time>
      </trkpt>
      <trkpt lat="43.74886" lon="7.05422">
        <ele>975.59997558594</ele>
        <time>2011-04-03T13:22:28.000Z</time>
      </trkpt>
      <trkpt lat="43.74886" lon="7.05423">
        <ele>975.59997558594</ele>
        <time>2011-04-03T13:22:34.000Z</time>
      </trkpt>
      <trkpt lat="43.74885" lon="7.05423">
        <ele>975.79998779297</ele>
        <time>2011-04-03T13:23:00.000Z</time>
      </trkpt>
      <trkpt lat="43.74883" lon="7.05418">
        <ele>975.79998779297</ele>
        <time>2011-04-03T13:24:00.000Z</time>
      </trkpt>
      <trkpt lat="43.74883" lon="7.05419">
        <ele>976</ele>
        <time>2011-04-03T13:24:02.000Z</time>
      </trkpt>
      <trkpt lat="43.7488" lon="7.05418">
        <ele>976.20001220703</ele>
        <time>2011-04-03T13:24:05.000Z</time>
      </trkpt>
      <trkpt lat="43.74879" lon="7.05418">
        <ele>976.20001220703</ele>
        <time>2011-04-03T13:24:10.000Z</time>
      </trkpt>
      <trkpt lat="43.74879" lon="7.0542">
        <ele>976</ele>
        <time>2011-04-03T13:24:38.000Z</time>
      </trkpt>
      <trkpt lat="43.74882" lon="7.05421">
        <ele>976</ele>
        <time>2011-04-03T13:24:47.000Z</time>
      </trkpt>
      <trkpt lat="43.74885" lon="7.05423">
        <ele>975.79998779297</ele>
        <time>2011-04-03T13:24:53.000Z</time>
      </trkpt>
      <trkpt lat="43.74885" lon="7.05421">
        <ele>975.79998779297</ele>
        <time>2011-04-03T13:25:14.000Z</time>
      </trkpt>
      <trkpt lat="43.74887" lon="7.05422">
        <ele>975.59997558594</ele>
        <time>2011-04-03T13:25:25.000Z</time>
      </trkpt>
      <trkpt lat="43.74885" lon="7.05421">
        <ele>975.79998779297</ele>
        <time>2011-04-03T13:26:05.000Z</time>
      </trkpt>
      <trkpt lat="43.74884" lon="7.05421">
        <ele>975.79998779297</ele>
        <time>2011-04-03T13:26:09.000Z</time>
      </trkpt>
      <trkpt lat="43.74876" lon="7.05418">
        <ele>976.20001220703</ele>
        <time>2011-04-03T13:26:16.000Z</time>
      </trkpt>
      <trkpt lat="43.74872" lon="7.05417">
        <ele>976.59997558594</ele>
        <time>2011-04-03T13:26:22.000Z</time>
      </trkpt>
      <trkpt lat="43.74871" lon="7.05417">
        <ele>976.59997558594</ele>
        <time>2011-04-03T13:26:31.000Z</time>
      </trkpt>
      <trkpt lat="43.7487" lon="7.05413">
        <ele>977</ele>
        <time>2011-04-03T13:26:57.000Z</time>
      </trkpt>
      <trkpt lat="43.74872" lon="7.05413">
        <ele>976.79998779297</ele>
        <time>2011-04-03T13:27:01.000Z</time>
      </trkpt>
      <trkpt lat="43.74882" lon="7.05419">
        <ele>976</ele>
        <time>2011-04-03T13:27:10.000Z</time>
      </trkpt>
      <trkpt lat="43.74885" lon="7.05421">
        <ele>975.79998779297</ele>
        <time>2011-04-03T13:27:17.000Z</time>
      </trkpt>
      <trkpt lat="43.74887" lon="7.05423">
        <ele>975.59997558594</ele>
        <time>2011-04-03T13:27:24.000Z</time>
      </trkpt>
      <trkpt lat="43.74887" lon="7.05423">
        <ele>975.59997558594</ele>
        <time>2011-04-03T13:27:31.000Z</time>
      </trkpt>
      <trkpt lat="43.74887" lon="7.05425">
        <ele>975.59997558594</ele>
        <time>2011-04-03T13:28:26.000Z</time>
      </trkpt>
      <trkpt lat="43.7489" lon="7.05422">
        <ele>975.40002441406</ele>
        <time>2011-04-03T13:28:52.000Z</time>
      </trkpt>
      <trkpt lat="43.74888" lon="7.05419">
        <ele>975.59997558594</ele>
        <time>2011-04-03T13:29:11.000Z</time>
      </trkpt>
      <trkpt lat="43.74887" lon="7.05425">
        <ele>975.59997558594</ele>
        <time>2011-04-03T13:29:39.000Z</time>
      </trkpt>
      <trkpt lat="43.74887" lon="7.05425">
        <ele>975.59997558594</ele>
        <time>2011-04-03T13:29:45.000Z</time>
      </trkpt>
      <trkpt lat="43.74889" lon="7.05424">
        <ele>975.40002441406</ele>
        <time>2011-04-03T13:30:01.000Z</time>
      </trkpt>
      <trkpt lat="43.74887" lon="7.05427">
        <ele>975.59997558594</ele>
        <time>2011-04-03T13:30:20.000Z</time>
      </trkpt>
      <trkpt lat="43.74888" lon="7.05426">
        <ele>975.59997558594</ele>
        <time>2011-04-03T13:30:26.000Z</time>
      </trkpt>
      <trkpt lat="43.74888" lon="7.05425">
        <ele>975.40002441406</ele>
        <time>2011-04-03T13:30:31.000Z</time>
      </trkpt>
      <trkpt lat="43.74886" lon="7.05423">
        <ele>975.59997558594</ele>
        <time>2011-04-03T13:30:43.000Z</time>
      </trkpt>
      <trkpt lat="43.74882" lon="7.05418">
        <ele>976</ele>
        <time>2011-04-03T13:30:50.000Z</time>
      </trkpt>
      <trkpt lat="43.74875" lon="7.05417">
        <ele>976.40002441406</ele>
        <time>2011-04-03T13:31:55.000Z</time>
      </trkpt>
      <trkpt lat="43.74873" lon="7.05417">
        <ele>976.59997558594</ele>
        <time>2011-04-03T13:31:56.000Z</time>
      </trkpt>
      <trkpt lat="43.74864" lon="7.05415">
        <ele>977.20001220703</ele>
        <time>2011-04-03T13:32:02.000Z</time>
      </trkpt>
      <trkpt lat="43.74855" lon="7.05412">
        <ele>978</ele>
        <time>2011-04-03T13:32:08.000Z</time>
      </trkpt>
      <trkpt lat="43.74852" lon="7.05412">
        <ele>978.20001220703</ele>
        <time>2011-04-03T13:32:10.000Z</time>
      </trkpt>
      <trkpt lat="43.74843" lon="7.05412">
        <ele>978.59997558594</ele>
        <time>2011-04-03T13:32:17.000Z</time>
      </trkpt>
      <trkpt lat="43.74837" lon="7.05414">
        <ele>979</ele>
        <time>2011-04-03T13:32:22.000Z</time>
      </trkpt>
      <trkpt lat="43.74836" lon="7.05413">
        <ele>979</ele>
        <time>2011-04-03T13:32:23.000Z</time>
      </trkpt>
      <trkpt lat="43.74828" lon="7.05408">
        <ele>980</ele>
        <time>2011-04-03T13:32:31.000Z</time>
      </trkpt>
      <trkpt lat="43.7482" lon="7.05407">
        <ele>980.59997558594</ele>
        <time>2011-04-03T13:32:38.000Z</time>
      </trkpt>
      <trkpt lat="43.74811" lon="7.05405">
        <ele>981.40002441406</ele>
        <time>2011-04-03T13:32:45.000Z</time>
      </trkpt>
      <trkpt lat="43.74803" lon="7.05401">
        <ele>982.20001220703</ele>
        <time>2011-04-03T13:32:51.000Z</time>
      </trkpt>
      <trkpt lat="43.748" lon="7.05399">
        <ele>982.59997558594</ele>
        <time>2011-04-03T13:32:53.000Z</time>
      </trkpt>
      <trkpt lat="43.7479" lon="7.05392">
        <ele>983.79998779297</ele>
        <time>2011-04-03T13:33:01.000Z</time>
      </trkpt>
      <trkpt lat="43.74786" lon="7.05389">
        <ele>984.40002441406</ele>
        <time>2011-04-03T13:33:04.000Z</time>
      </trkpt>
      <trkpt lat="43.74781" lon="7.05382">
        <ele>985.40002441406</ele>
        <time>2011-04-03T13:33:09.000Z</time>
      </trkpt>
      <trkpt lat="43.74779" lon="7.05371">
        <ele>986.59997558594</ele>
        <time>2011-04-03T13:33:15.000Z</time>
      </trkpt>
      <trkpt lat="43.74779" lon="7.05366">
        <ele>987.20001220703</ele>
        <time>2011-04-03T13:33:18.000Z</time>
      </trkpt>
      <trkpt lat="43.74778" lon="7.05358">
        <ele>988</ele>
        <time>2011-04-03T13:33:22.000Z</time>
      </trkpt>
      <trkpt lat="43.74778" lon="7.05356">
        <ele>988.20001220703</ele>
        <time>2011-04-03T13:33:23.000Z</time>
      </trkpt>
      <trkpt lat="43.74777" lon="7.05347">
        <ele>989.20001220703</ele>
        <time>2011-04-03T13:33:28.000Z</time>
      </trkpt>
      <trkpt lat="43.74776" lon="7.0534">
        <ele>990</ele>
        <time>2011-04-03T13:33:32.000Z</time>
      </trkpt>
      <trkpt lat="43.74774" lon="7.05335">
        <ele>990.79998779297</ele>
        <time>2011-04-03T13:33:35.000Z</time>
      </trkpt>
      <trkpt lat="43.74773" lon="7.05322">
        <ele>991.79998779297</ele>
        <time>2011-04-03T13:33:42.000Z</time>
      </trkpt>
      <trkpt lat="43.74772" lon="7.05316">
        <ele>992.40002441406</ele>
        <time>2011-04-03T13:33:46.000Z</time>
      </trkpt>
      <trkpt lat="43.74771" lon="7.05313">
        <ele>992.79998779297</ele>
        <time>2011-04-03T13:33:48.000Z</time>
      </trkpt>
      <trkpt lat="43.74767" lon="7.05299">
        <ele>994.40002441406</ele>
        <time>2011-04-03T13:33:57.000Z</time>
      </trkpt>
      <trkpt lat="43.74767" lon="7.05291">
        <ele>995.20001220703</ele>
        <time>2011-04-03T13:34:02.000Z</time>
      </trkpt>
      <trkpt lat="43.74767" lon="7.05289">
        <ele>995.20001220703</ele>
        <time>2011-04-03T13:34:03.000Z</time>
      </trkpt>
      <trkpt lat="43.74767" lon="7.05286">
        <ele>995.40002441406</ele>
        <time>2011-04-03T13:34:08.000Z</time>
      </trkpt>
      <trkpt lat="43.74767" lon="7.05284">
        <ele>995.59997558594</ele>
        <time>2011-04-03T13:34:40.000Z</time>
      </trkpt>
      <trkpt lat="43.74768" lon="7.05285">
        <ele>995.40002441406</ele>
        <time>2011-04-03T13:34:45.000Z</time>
      </trkpt>
      <trkpt lat="43.74768" lon="7.05285">
        <ele>995.40002441406</ele>
        <time>2011-04-03T13:34:59.000Z</time>
      </trkpt>
      <trkpt lat="43.74768" lon="7.05284">
        <ele>995.59997558594</ele>
        <time>2011-04-03T13:37:01.000Z</time>
      </trkpt>
      <trkpt lat="43.74768" lon="7.05284">
        <ele>995.59997558594</ele>
        <time>2011-04-03T13:37:07.000Z</time>
      </trkpt>
      <trkpt lat="43.74768" lon="7.05284">
        <ele>995.40002441406</ele>
        <time>2011-04-03T13:37:15.000Z</time>
      </trkpt>
      <trkpt lat="43.74769" lon="7.05285">
        <ele>995.40002441406</ele>
        <time>2011-04-03T13:37:19.000Z</time>
      </trkpt>
      <trkpt lat="43.7477" lon="7.05286">
        <ele>995</ele>
        <time>2011-04-03T13:37:35.000Z</time>
      </trkpt>
      <trkpt lat="43.74768" lon="7.05287">
        <ele>995.20001220703</ele>
        <time>2011-04-03T13:38:04.000Z</time>
      </trkpt>
      <trkpt lat="43.74768" lon="7.05285">
        <ele>995.40002441406</ele>
        <time>2011-04-03T13:38:11.000Z</time>
      </trkpt>
      <trkpt lat="43.74769" lon="7.05284">
        <ele>995.40002441406</ele>
        <time>2011-04-03T13:38:28.000Z</time>
      </trkpt>
      <trkpt lat="43.74768" lon="7.05281">
        <ele>995.79998779297</ele>
        <time>2011-04-03T13:38:40.000Z</time>
      </trkpt>
      <trkpt lat="43.74769" lon="7.05271">
        <ele>996.40002441406</ele>
        <time>2011-04-03T13:38:44.000Z</time>
      </trkpt>
      <trkpt lat="43.74769" lon="7.05269">
        <ele>996.59997558594</ele>
        <time>2011-04-03T13:38:45.000Z</time>
      </trkpt>
      <trkpt lat="43.74769" lon="7.05255">
        <ele>997.79998779297</ele>
        <time>2011-04-03T13:38:51.000Z</time>
      </trkpt>
      <trkpt lat="43.74766" lon="7.05247">
        <ele>998.79998779297</ele>
        <time>2011-04-03T13:38:56.000Z</time>
      </trkpt>
      <trkpt lat="43.74763" lon="7.05239">
        <ele>999.40002441406</ele>
        <time>2011-04-03T13:39:01.000Z</time>
      </trkpt>
      <trkpt lat="43.74759" lon="7.05229">
        <ele>1000.4000244141</ele>
        <time>2011-04-03T13:39:08.000Z</time>
      </trkpt>
      <trkpt lat="43.74757" lon="7.05224">
        <ele>1000.799987793</ele>
        <time>2011-04-03T13:39:11.000Z</time>
      </trkpt>
      <trkpt lat="43.74755" lon="7.05217">
        <ele>1001.4000244141</ele>
        <time>2011-04-03T13:39:15.000Z</time>
      </trkpt>
      <trkpt lat="43.74752" lon="7.05203">
        <ele>1002.4000244141</ele>
        <time>2011-04-03T13:39:23.000Z</time>
      </trkpt>
      <trkpt lat="43.74752" lon="7.05201">
        <ele>1002.4000244141</ele>
        <time>2011-04-03T13:39:24.000Z</time>
      </trkpt>
      <trkpt lat="43.74752" lon="7.05199">
        <ele>1002.4000244141</ele>
        <time>2011-04-03T13:39:25.000Z</time>
      </trkpt>
      <trkpt lat="43.74752" lon="7.05185">
        <ele>1002.799987793</ele>
        <time>2011-04-03T13:39:32.000Z</time>
      </trkpt>
      <trkpt lat="43.74752" lon="7.05174">
        <ele>1003.4000244141</ele>
        <time>2011-04-03T13:39:38.000Z</time>
      </trkpt>
      <trkpt lat="43.7475" lon="7.05171">
        <ele>1003.5999755859</ele>
        <time>2011-04-03T13:39:40.000Z</time>
      </trkpt>
      <trkpt lat="43.74748" lon="7.05158">
        <ele>1004.799987793</ele>
        <time>2011-04-03T13:39:46.000Z</time>
      </trkpt>
      <trkpt lat="43.74744" lon="7.05153">
        <ele>1005.5999755859</ele>
        <time>2011-04-03T13:39:50.000Z</time>
      </trkpt>
      <trkpt lat="43.74741" lon="7.05152">
        <ele>1006.200012207</ele>
        <time>2011-04-03T13:39:52.000Z</time>
      </trkpt>
      <trkpt lat="43.74733" lon="7.05151">
        <ele>1007.5999755859</ele>
        <time>2011-04-03T13:39:58.000Z</time>
      </trkpt>
      <trkpt lat="43.74732" lon="7.0515">
        <ele>1007.799987793</ele>
        <time>2011-04-03T13:39:59.000Z</time>
      </trkpt>
      <trkpt lat="43.74728" lon="7.05148">
        <ele>1008.4000244141</ele>
        <time>2011-04-03T13:40:02.000Z</time>
      </trkpt>
      <trkpt lat="43.74727" lon="7.05147">
        <ele>1008.5999755859</ele>
        <time>2011-04-03T13:40:03.000Z</time>
      </trkpt>
      <trkpt lat="43.74724" lon="7.05146">
        <ele>1009.200012207</ele>
        <time>2011-04-03T13:40:05.000Z</time>
      </trkpt>
      <trkpt lat="43.74719" lon="7.05136">
        <ele>1010.4000244141</ele>
        <time>2011-04-03T13:40:11.000Z</time>
      </trkpt>
      <trkpt lat="43.74716" lon="7.05128">
        <ele>1011.4000244141</ele>
        <time>2011-04-03T13:40:16.000Z</time>
      </trkpt>
      <trkpt lat="43.74712" lon="7.05122">
        <ele>1012.200012207</ele>
        <time>2011-04-03T13:40:20.000Z</time>
      </trkpt>
      <trkpt lat="43.74704" lon="7.05111">
        <ele>1014</ele>
        <time>2011-04-03T13:40:28.000Z</time>
      </trkpt>
      <trkpt lat="43.74704" lon="7.05109">
        <ele>1014.200012207</ele>
        <time>2011-04-03T13:40:29.000Z</time>
      </trkpt>
      <trkpt lat="43.74698" lon="7.05096">
        <ele>1015.5999755859</ele>
        <time>2011-04-03T13:40:35.000Z</time>
      </trkpt>
      <trkpt lat="43.74693" lon="7.05087">
        <ele>1016.799987793</ele>
        <time>2011-04-03T13:40:39.000Z</time>
      </trkpt>
      <trkpt lat="43.74686" lon="7.05074">
        <ele>1019</ele>
        <time>2011-04-03T13:40:46.000Z</time>
      </trkpt>
      <trkpt lat="43.74681" lon="7.05067">
        <ele>1020.200012207</ele>
        <time>2011-04-03T13:40:50.000Z</time>
      </trkpt>
      <trkpt lat="43.74676" lon="7.05061">
        <ele>1021.200012207</ele>
        <time>2011-04-03T13:40:54.000Z</time>
      </trkpt>
      <trkpt lat="43.74672" lon="7.05056">
        <ele>1022</ele>
        <time>2011-04-03T13:40:58.000Z</time>
      </trkpt>
      <trkpt lat="43.74672" lon="7.05056">
        <ele>1022</ele>
        <time>2011-04-03T13:41:00.000Z</time>
      </trkpt>
      <trkpt lat="43.74672" lon="7.05055">
        <ele>1022</ele>
        <time>2011-04-03T13:41:06.000Z</time>
      </trkpt>
      <trkpt lat="43.74672" lon="7.05054">
        <ele>1022.200012207</ele>
        <time>2011-04-03T13:42:16.000Z</time>
      </trkpt>
      <trkpt lat="43.7467" lon="7.05051">
        <ele>1022.5999755859</ele>
        <time>2011-04-03T13:42:18.000Z</time>
      </trkpt>
      <trkpt lat="43.74659" lon="7.05038">
        <ele>1024</ele>
        <time>2011-04-03T13:42:26.000Z</time>
      </trkpt>
      <trkpt lat="43.74658" lon="7.05037">
        <ele>1024.1999511719</ele>
        <time>2011-04-03T13:42:27.000Z</time>
      </trkpt>
      <trkpt lat="43.74651" lon="7.05032">
        <ele>1025</ele>
        <time>2011-04-03T13:42:32.000Z</time>
      </trkpt>
      <trkpt lat="43.74648" lon="7.05029">
        <ele>1025.1999511719</ele>
        <time>2011-04-03T13:42:34.000Z</time>
      </trkpt>
      <trkpt lat="43.74642" lon="7.05023">
        <ele>1025.8000488281</ele>
        <time>2011-04-03T13:42:38.000Z</time>
      </trkpt>
      <trkpt lat="43.74638" lon="7.0502">
        <ele>1026.1999511719</ele>
        <time>2011-04-03T13:42:41.000Z</time>
      </trkpt>
      <trkpt lat="43.74631" lon="7.05013">
        <ele>1027</ele>
        <time>2011-04-03T13:42:47.000Z</time>
      </trkpt>
      <trkpt lat="43.74629" lon="7.05012">
        <ele>1027.1999511719</ele>
        <time>2011-04-03T13:42:52.000Z</time>
      </trkpt>
      <trkpt lat="43.74631" lon="7.05013">
        <ele>1027</ele>
        <time>2011-04-03T13:43:10.000Z</time>
      </trkpt>
      <trkpt lat="43.7463" lon="7.05013">
        <ele>1027</ele>
        <time>2011-04-03T13:43:13.000Z</time>
      </trkpt>
      <trkpt lat="43.74627" lon="7.05009">
        <ele>1027.4000244141</ele>
        <time>2011-04-03T13:43:19.000Z</time>
      </trkpt>
      <trkpt lat="43.74616" lon="7.05007">
        <ele>1028</ele>
        <time>2011-04-03T13:43:26.000Z</time>
      </trkpt>
      <trkpt lat="43.74614" lon="7.05006">
        <ele>1028.1999511719</ele>
        <time>2011-04-03T13:43:27.000Z</time>
      </trkpt>
      <trkpt lat="43.74608" lon="7.05006">
        <ele>1028.4000244141</ele>
        <time>2011-04-03T13:43:31.000Z</time>
      </trkpt>
      <trkpt lat="43.74604" lon="7.05004">
        <ele>1028.8000488281</ele>
        <time>2011-04-03T13:43:34.000Z</time>
      </trkpt>
      <trkpt lat="43.74599" lon="7.05002">
        <ele>1029</ele>
        <time>2011-04-03T13:43:37.000Z</time>
      </trkpt>
      <trkpt lat="43.74596" lon="7.05001">
        <ele>1029.1999511719</ele>
        <time>2011-04-03T13:43:39.000Z</time>
      </trkpt>
      <trkpt lat="43.74587" lon="7.05002">
        <ele>1029.5999755859</ele>
        <time>2011-04-03T13:43:44.000Z</time>
      </trkpt>
      <trkpt lat="43.74577" lon="7.05002">
        <ele>1030</ele>
        <time>2011-04-03T13:43:49.000Z</time>
      </trkpt>
      <trkpt lat="43.74574" lon="7.05001">
        <ele>1030</ele>
        <time>2011-04-03T13:43:51.000Z</time>
      </trkpt>
      <trkpt lat="43.74563" lon="7.05004">
        <ele>1030</ele>
        <time>2011-04-03T13:43:57.000Z</time>
      </trkpt>
      <trkpt lat="43.74559" lon="7.05004">
        <ele>1030</ele>
        <time>2011-04-03T13:43:59.000Z</time>
      </trkpt>
      <trkpt lat="43.74554" lon="7.05004">
        <ele>1030</ele>
        <time>2011-04-03T13:44:02.000Z</time>
      </trkpt>
      <trkpt lat="43.7454" lon="7.04999">
        <ele>1030.4000244141</ele>
        <time>2011-04-03T13:44:09.000Z</time>
      </trkpt>
      <trkpt lat="43.74538" lon="7.04997">
        <ele>1030.5999755859</ele>
        <time>2011-04-03T13:44:10.000Z</time>
      </trkpt>
      <trkpt lat="43.74536" lon="7.04996">
        <ele>1030.5999755859</ele>
        <time>2011-04-03T13:44:11.000Z</time>
      </trkpt>
      <trkpt lat="43.74527" lon="7.04995">
        <ele>1030.8000488281</ele>
        <time>2011-04-03T13:44:15.000Z</time>
      </trkpt>
      <trkpt lat="43.74521" lon="7.04995">
        <ele>1031</ele>
        <time>2011-04-03T13:44:18.000Z</time>
      </trkpt>
      <trkpt lat="43.7451" lon="7.04997">
        <ele>1031</ele>
        <time>2011-04-03T13:44:23.000Z</time>
      </trkpt>
      <trkpt lat="43.74501" lon="7.05">
        <ele>1030.8000488281</ele>
        <time>2011-04-03T13:44:27.000Z</time>
      </trkpt>
      <trkpt lat="43.74496" lon="7.05002">
        <ele>1030.5999755859</ele>
        <time>2011-04-03T13:44:30.000Z</time>
      </trkpt>
      <trkpt lat="43.74483" lon="7.05008">
        <ele>1029.5999755859</ele>
        <time>2011-04-03T13:44:37.000Z</time>
      </trkpt>
      <trkpt lat="43.74484" lon="7.05008">
        <ele>1029.5999755859</ele>
        <time>2011-04-03T13:44:50.000Z</time>
      </trkpt>
      <trkpt lat="43.74479" lon="7.05009">
        <ele>1029.4000244141</ele>
        <time>2011-04-03T13:44:53.000Z</time>
      </trkpt>
      <trkpt lat="43.74477" lon="7.05009">
        <ele>1029.4000244141</ele>
        <time>2011-04-03T13:44:54.000Z</time>
      </trkpt>
      <trkpt lat="43.74471" lon="7.05003">
        <ele>1029.4000244141</ele>
        <time>2011-04-03T13:44:58.000Z</time>
      </trkpt>
      <trkpt lat="43.74469" lon="7.04999">
        <ele>1029.4000244141</ele>
        <time>2011-04-03T13:45:00.000Z</time>
      </trkpt>
      <trkpt lat="43.74463" lon="7.04992">
        <ele>1029.8000488281</ele>
        <time>2011-04-03T13:45:05.000Z</time>
      </trkpt>
      <trkpt lat="43.74455" lon="7.04986">
        <ele>1029.8000488281</ele>
        <time>2011-04-03T13:45:13.000Z</time>
      </trkpt>
      <trkpt lat="43.74453" lon="7.04985">
        <ele>1029.8000488281</ele>
        <time>2011-04-03T13:45:16.000Z</time>
      </trkpt>
      <trkpt lat="43.74451" lon="7.04983">
        <ele>1030</ele>
        <time>2011-04-03T13:45:18.000Z</time>
      </trkpt>
      <trkpt lat="43.74449" lon="7.04979">
        <ele>1030.1999511719</ele>
        <time>2011-04-03T13:45:24.000Z</time>
      </trkpt>
      <trkpt lat="43.74449" lon="7.04972">
        <ele>1030.8000488281</ele>
        <time>2011-04-03T13:45:31.000Z</time>
      </trkpt>
      <trkpt lat="43.74446" lon="7.04964">
        <ele>1031.4000244141</ele>
        <time>2011-04-03T13:45:38.000Z</time>
      </trkpt>
      <trkpt lat="43.74446" lon="7.04963">
        <ele>1031.4000244141</ele>
        <time>2011-04-03T13:45:39.000Z</time>
      </trkpt>
      <trkpt lat="43.74444" lon="7.04963">
        <ele>1031.4000244141</ele>
        <time>2011-04-03T13:45:41.000Z</time>
      </trkpt>
      <trkpt lat="43.74441" lon="7.04963">
        <ele>1031.1999511719</ele>
        <time>2011-04-03T13:45:44.000Z</time>
      </trkpt>
      <trkpt lat="43.74441" lon="7.04963">
        <ele>1031.1999511719</ele>
        <time>2011-04-03T13:45:45.000Z</time>
      </trkpt>
      <trkpt lat="43.74436" lon="7.04964">
        <ele>1031</ele>
        <time>2011-04-03T13:45:51.000Z</time>
      </trkpt>
      <trkpt lat="43.74433" lon="7.04965">
        <ele>1030.8000488281</ele>
        <time>2011-04-03T13:45:57.000Z</time>
      </trkpt>
      <trkpt lat="43.7443" lon="7.04966">
        <ele>1030.5999755859</ele>
        <time>2011-04-03T13:46:04.000Z</time>
      </trkpt>
      <trkpt lat="43.74428" lon="7.04967">
        <ele>1030.4000244141</ele>
        <time>2011-04-03T13:46:07.000Z</time>
      </trkpt>
      <trkpt lat="43.74426" lon="7.04967">
        <ele>1030.4000244141</ele>
        <time>2011-04-03T13:46:11.000Z</time>
      </trkpt>
      <trkpt lat="43.74422" lon="7.0497">
        <ele>1030</ele>
        <time>2011-04-03T13:46:17.000Z</time>
      </trkpt>
      <trkpt lat="43.74416" lon="7.04972">
        <ele>1029.5999755859</ele>
        <time>2011-04-03T13:46:25.000Z</time>
      </trkpt>
      <trkpt lat="43.74413" lon="7.04971">
        <ele>1029.5999755859</ele>
        <time>2011-04-03T13:46:30.000Z</time>
      </trkpt>
      <trkpt lat="43.74412" lon="7.04973">
        <ele>1029.4000244141</ele>
        <time>2011-04-03T13:46:32.000Z</time>
      </trkpt>
      <trkpt lat="43.74408" lon="7.04977">
        <ele>1029</ele>
        <time>2011-04-03T13:46:37.000Z</time>
      </trkpt>
      <trkpt lat="43.74403" lon="7.04978">
        <ele>1028.8000488281</ele>
        <time>2011-04-03T13:47:00.000Z</time>
      </trkpt>
      <trkpt lat="43.74398" lon="7.04979">
        <ele>1028.5999755859</ele>
        <time>2011-04-03T13:47:06.000Z</time>
      </trkpt>
      <trkpt lat="43.74395" lon="7.0498">
        <ele>1028.4000244141</ele>
        <time>2011-04-03T13:47:07.000Z</time>
      </trkpt>
      <trkpt lat="43.74385" lon="7.04985">
        <ele>1027.5999755859</ele>
        <time>2011-04-03T13:47:11.000Z</time>
      </trkpt>
      <trkpt lat="43.7438" lon="7.04986">
        <ele>1027.4000244141</ele>
        <time>2011-04-03T13:47:14.000Z</time>
      </trkpt>
      <trkpt lat="43.74377" lon="7.0499">
        <ele>1026.8000488281</ele>
        <time>2011-04-03T13:47:16.000Z</time>
      </trkpt>
      <trkpt lat="43.74369" lon="7.04996">
        <ele>1025.5999755859</ele>
        <time>2011-04-03T13:47:20.000Z</time>
      </trkpt>
      <trkpt lat="43.74367" lon="7.04998">
        <ele>1025.4000244141</ele>
        <time>2011-04-03T13:47:21.000Z</time>
      </trkpt>
      <trkpt lat="43.74365" lon="7.04998">
        <ele>1025.4000244141</ele>
        <time>2011-04-03T13:47:22.000Z</time>
      </trkpt>
      <trkpt lat="43.74359" lon="7.04999">
        <ele>1025</ele>
        <time>2011-04-03T13:47:25.000Z</time>
      </trkpt>
      <trkpt lat="43.7435" lon="7.05005">
        <ele>1023.799987793</ele>
        <time>2011-04-03T13:47:30.000Z</time>
      </trkpt>
      <trkpt lat="43.74347" lon="7.05006">
        <ele>1023.5999755859</ele>
        <time>2011-04-03T13:47:32.000Z</time>
      </trkpt>
      <trkpt lat="43.74346" lon="7.05006">
        <ele>1023.5999755859</ele>
        <time>2011-04-03T13:47:34.000Z</time>
      </trkpt>
      <trkpt lat="43.74341" lon="7.05007">
        <ele>1023.200012207</ele>
        <time>2011-04-03T13:47:41.000Z</time>
      </trkpt>
      <trkpt lat="43.74331" lon="7.05009">
        <ele>1022.799987793</ele>
        <time>2011-04-03T13:47:50.000Z</time>
      </trkpt>
      <trkpt lat="43.7433" lon="7.0501">
        <ele>1022.799987793</ele>
        <time>2011-04-03T13:48:00.000Z</time>
      </trkpt>
      <trkpt lat="43.74324" lon="7.05011">
        <ele>1023.4000244141</ele>
        <time>2011-04-03T13:48:03.000Z</time>
      </trkpt>
      <trkpt lat="43.74321" lon="7.0501">
        <ele>1023.799987793</ele>
        <time>2011-04-03T13:48:04.000Z</time>
      </trkpt>
      <trkpt lat="43.74312" lon="7.05005">
        <ele>1025.5999755859</ele>
        <time>2011-04-03T13:48:09.000Z</time>
      </trkpt>
      <trkpt lat="43.74306" lon="7.05004">
        <ele>1026.1999511719</ele>
        <time>2011-04-03T13:48:12.000Z</time>
      </trkpt>
      <trkpt lat="43.743" lon="7.05003">
        <ele>1027</ele>
        <time>2011-04-03T13:48:15.000Z</time>
      </trkpt>
      <trkpt lat="43.74297" lon="7.05004">
        <ele>1027.1999511719</ele>
        <time>2011-04-03T13:48:19.000Z</time>
      </trkpt>
      <trkpt lat="43.74294" lon="7.05002">
        <ele>1027.8000488281</ele>
        <time>2011-04-03T13:48:25.000Z</time>
      </trkpt>
      <trkpt lat="43.7429" lon="7.05006">
        <ele>1027.8000488281</ele>
        <time>2011-04-03T13:48:30.000Z</time>
      </trkpt>
      <trkpt lat="43.74289" lon="7.05008">
        <ele>1027.5999755859</ele>
        <time>2011-04-03T13:48:31.000Z</time>
      </trkpt>
      <trkpt lat="43.74287" lon="7.05011">
        <ele>1027.1999511719</ele>
        <time>2011-04-03T13:48:35.000Z</time>
      </trkpt>
      <trkpt lat="43.74286" lon="7.05014">
        <ele>1027</ele>
        <time>2011-04-03T13:48:42.000Z</time>
      </trkpt>
      <trkpt lat="43.74285" lon="7.05022">
        <ele>1026</ele>
        <time>2011-04-03T13:48:50.000Z</time>
      </trkpt>
      <trkpt lat="43.74282" lon="7.05031">
        <ele>1024.8000488281</ele>
        <time>2011-04-03T13:48:59.000Z</time>
      </trkpt>
      <trkpt lat="43.74282" lon="7.05033">
        <ele>1024.8000488281</ele>
        <time>2011-04-03T13:49:01.000Z</time>
      </trkpt>
      <trkpt lat="43.74281" lon="7.05034">
        <ele>1024.5999755859</ele>
        <time>2011-04-03T13:49:09.000Z</time>
      </trkpt>
      <trkpt lat="43.74277" lon="7.05038">
        <ele>1024.4000244141</ele>
        <time>2011-04-03T13:49:13.000Z</time>
      </trkpt>
      <trkpt lat="43.7427" lon="7.05047">
        <ele>1024</ele>
        <time>2011-04-03T13:49:20.000Z</time>
      </trkpt>
      <trkpt lat="43.74269" lon="7.05048">
        <ele>1024</ele>
        <time>2011-04-03T13:49:21.000Z</time>
      </trkpt>
      <trkpt lat="43.74258" lon="7.05053">
        <ele>1024.4000244141</ele>
        <time>2011-04-03T13:49:28.000Z</time>
      </trkpt>
      <trkpt lat="43.74252" lon="7.0506">
        <ele>1024</ele>
        <time>2011-04-03T13:49:33.000Z</time>
      </trkpt>
      <trkpt lat="43.74249" lon="7.05063">
        <ele>1023.799987793</ele>
        <time>2011-04-03T13:49:35.000Z</time>
      </trkpt>
      <trkpt lat="43.74244" lon="7.05068">
        <ele>1024.1999511719</ele>
        <time>2011-04-03T13:49:40.000Z</time>
      </trkpt>
      <trkpt lat="43.74236" lon="7.05073">
        <ele>1024.8000488281</ele>
        <time>2011-04-03T13:49:46.000Z</time>
      </trkpt>
      <trkpt lat="43.74232" lon="7.05075">
        <ele>1025</ele>
        <time>2011-04-03T13:49:49.000Z</time>
      </trkpt>
      <trkpt lat="43.74221" lon="7.05081">
        <ele>1026</ele>
        <time>2011-04-03T13:49:58.000Z</time>
      </trkpt>
      <trkpt lat="43.74218" lon="7.05082">
        <ele>1026.4000244141</ele>
        <time>2011-04-03T13:50:00.000Z</time>
      </trkpt>
      <trkpt lat="43.74207" lon="7.05087">
        <ele>1027.5999755859</ele>
        <time>2011-04-03T13:50:08.000Z</time>
      </trkpt>
      <trkpt lat="43.74201" lon="7.05087">
        <ele>1028.4000244141</ele>
        <time>2011-04-03T13:50:12.000Z</time>
      </trkpt>
      <trkpt lat="43.74198" lon="7.05088">
        <ele>1029</ele>
        <time>2011-04-03T13:50:14.000Z</time>
      </trkpt>
      <trkpt lat="43.74196" lon="7.05088">
        <ele>1029.1999511719</ele>
        <time>2011-04-03T13:50:16.000Z</time>
      </trkpt>
      <trkpt lat="43.74192" lon="7.05091">
        <ele>1029.4000244141</ele>
        <time>2011-04-03T13:50:19.000Z</time>
      </trkpt>
      <trkpt lat="43.74184" lon="7.05094">
        <ele>1030.5999755859</ele>
        <time>2011-04-03T13:50:25.000Z</time>
      </trkpt>
      <trkpt lat="43.74182" lon="7.05095">
        <ele>1030.5999755859</ele>
        <time>2011-04-03T13:50:27.000Z</time>
      </trkpt>
      <trkpt lat="43.74179" lon="7.05097">
        <ele>1030.8000488281</ele>
        <time>2011-04-03T13:50:29.000Z</time>
      </trkpt>
      <trkpt lat="43.74177" lon="7.05101">
        <ele>1030.5999755859</ele>
        <time>2011-04-03T13:50:31.000Z</time>
      </trkpt>
      <trkpt lat="43.74177" lon="7.05103">
        <ele>1030.5999755859</ele>
        <time>2011-04-03T13:50:35.000Z</time>
      </trkpt>
      <trkpt lat="43.74177" lon="7.05103">
        <ele>1030.4000244141</ele>
        <time>2011-04-03T13:50:52.000Z</time>
      </trkpt>
      <trkpt lat="43.74179" lon="7.05105">
        <ele>1029.8000488281</ele>
        <time>2011-04-03T13:51:22.000Z</time>
      </trkpt>
      <trkpt lat="43.74176" lon="7.05109">
        <ele>1029.8000488281</ele>
        <time>2011-04-03T13:51:27.000Z</time>
      </trkpt>
      <trkpt lat="43.74175" lon="7.0511">
        <ele>1030</ele>
        <time>2011-04-03T13:51:28.000Z</time>
      </trkpt>
      <trkpt lat="43.7417" lon="7.05107">
        <ele>1031.1999511719</ele>
        <time>2011-04-03T13:51:31.000Z</time>
      </trkpt>
      <trkpt lat="43.74167" lon="7.05105">
        <ele>1032</ele>
        <time>2011-04-03T13:51:33.000Z</time>
      </trkpt>
      <trkpt lat="43.74159" lon="7.05102">
        <ele>1032.8000488281</ele>
        <time>2011-04-03T13:51:38.000Z</time>
      </trkpt>
      <trkpt lat="43.74158" lon="7.05102">
        <ele>1032.8000488281</ele>
        <time>2011-04-03T13:51:39.000Z</time>
      </trkpt>
      <trkpt lat="43.74156" lon="7.05102">
        <ele>1032.8000488281</ele>
        <time>2011-04-03T13:51:45.000Z</time>
      </trkpt>
      <trkpt lat="43.74146" lon="7.05099">
        <ele>1033.5999755859</ele>
        <time>2011-04-03T13:51:52.000Z</time>
      </trkpt>
      <trkpt lat="43.74141" lon="7.05097">
        <ele>1033.8000488281</ele>
        <time>2011-04-03T13:51:55.000Z</time>
      </trkpt>
      <trkpt lat="43.74136" lon="7.05097">
        <ele>1034</ele>
        <time>2011-04-03T13:51:59.000Z</time>
      </trkpt>
      <trkpt lat="43.74136" lon="7.05097">
        <ele>1034</ele>
        <time>2011-04-03T13:52:04.000Z</time>
      </trkpt>
      <trkpt lat="43.74136" lon="7.05097">
        <ele>1034.1999511719</ele>
        <time>2011-04-03T13:52:11.000Z</time>
      </trkpt>
      <trkpt lat="43.74133" lon="7.05101">
        <ele>1033.8000488281</ele>
        <time>2011-04-03T13:52:19.000Z</time>
      </trkpt>
      <trkpt lat="43.74129" lon="7.05105">
        <ele>1033.5999755859</ele>
        <time>2011-04-03T13:52:26.000Z</time>
      </trkpt>
      <trkpt lat="43.74129" lon="7.05105">
        <ele>1033.5999755859</ele>
        <time>2011-04-03T13:52:27.000Z</time>
      </trkpt>
      <trkpt lat="43.74127" lon="7.05109">
        <ele>1033.4000244141</ele>
        <time>2011-04-03T13:52:30.000Z</time>
      </trkpt>
      <trkpt lat="43.74125" lon="7.0511">
        <ele>1033.4000244141</ele>
        <time>2011-04-03T13:52:32.000Z</time>
      </trkpt>
      <trkpt lat="43.74124" lon="7.05111">
        <ele>1033.4000244141</ele>
        <time>2011-04-03T13:52:34.000Z</time>
      </trkpt>
      <trkpt lat="43.74122" lon="7.05112">
        <ele>1033.4000244141</ele>
        <time>2011-04-03T13:52:36.000Z</time>
      </trkpt>
      <trkpt lat="43.74121" lon="7.05114">
        <ele>1033.4000244141</ele>
        <time>2011-04-03T13:52:40.000Z</time>
      </trkpt>
      <trkpt lat="43.74115" lon="7.05116">
        <ele>1033.5999755859</ele>
        <time>2011-04-03T13:52:46.000Z</time>
      </trkpt>
      <trkpt lat="43.74114" lon="7.05116">
        <ele>1033.5999755859</ele>
        <time>2011-04-03T13:52:47.000Z</time>
      </trkpt>
      <trkpt lat="43.74113" lon="7.05116">
        <ele>1033.8000488281</ele>
        <time>2011-04-03T13:52:48.000Z</time>
      </trkpt>
      <trkpt lat="43.74112" lon="7.05117">
        <ele>1033.8000488281</ele>
        <time>2011-04-03T13:52:50.000Z</time>
      </trkpt>
      <trkpt lat="43.74112" lon="7.0512">
        <ele>1033.5999755859</ele>
        <time>2011-04-03T13:52:52.000Z</time>
      </trkpt>
      <trkpt lat="43.74108" lon="7.05127">
        <ele>1033.5999755859</ele>
        <time>2011-04-03T13:52:59.000Z</time>
      </trkpt>
      <trkpt lat="43.74106" lon="7.05128">
        <ele>1033.5999755859</ele>
        <time>2011-04-03T13:53:01.000Z</time>
      </trkpt>
      <trkpt lat="43.74104" lon="7.05127">
        <ele>1033.8000488281</ele>
        <time>2011-04-03T13:53:06.000Z</time>
      </trkpt>
      <trkpt lat="43.741" lon="7.05126">
        <ele>1034.1999511719</ele>
        <time>2011-04-03T13:53:13.000Z</time>
      </trkpt>
      <trkpt lat="43.74098" lon="7.05125">
        <ele>1034.4000244141</ele>
        <time>2011-04-03T13:53:16.000Z</time>
      </trkpt>
      <trkpt lat="43.74096" lon="7.05125">
        <ele>1034.5999755859</ele>
        <time>2011-04-03T13:53:22.000Z</time>
      </trkpt>
      <trkpt lat="43.74091" lon="7.05124">
        <ele>1034.8000488281</ele>
        <time>2011-04-03T13:53:29.000Z</time>
      </trkpt>
      <trkpt lat="43.74089" lon="7.05123">
        <ele>1035</ele>
        <time>2011-04-03T13:53:34.000Z</time>
      </trkpt>
      <trkpt lat="43.74085" lon="7.05123">
        <ele>1035.1999511719</ele>
        <time>2011-04-03T13:53:39.000Z</time>
      </trkpt>
      <trkpt lat="43.74085" lon="7.05124">
        <ele>1035.4000244141</ele>
        <time>2011-04-03T13:53:46.000Z</time>
      </trkpt>
      <trkpt lat="43.74082" lon="7.05125">
        <ele>1035.1999511719</ele>
        <time>2011-04-03T13:53:51.000Z</time>
      </trkpt>
      <trkpt lat="43.7408" lon="7.05125">
        <ele>1035.1999511719</ele>
        <time>2011-04-03T13:53:53.000Z</time>
      </trkpt>
      <trkpt lat="43.74078" lon="7.05127">
        <ele>1034.8000488281</ele>
        <time>2011-04-03T13:53:57.000Z</time>
      </trkpt>
      <trkpt lat="43.74071" lon="7.05125">
        <ele>1034.1999511719</ele>
        <time>2011-04-03T13:54:05.000Z</time>
      </trkpt>
      <trkpt lat="43.74064" lon="7.05124">
        <ele>1033.5999755859</ele>
        <time>2011-04-03T13:54:12.000Z</time>
      </trkpt>
      <trkpt lat="43.74062" lon="7.05123">
        <ele>1033.4000244141</ele>
        <time>2011-04-03T13:54:15.000Z</time>
      </trkpt>
      <trkpt lat="43.74059" lon="7.05121">
        <ele>1033</ele>
        <time>2011-04-03T13:54:20.000Z</time>
      </trkpt>
      <trkpt lat="43.74053" lon="7.05118">
        <ele>1032.4000244141</ele>
        <time>2011-04-03T13:54:27.000Z</time>
      </trkpt>
      <trkpt lat="43.7405" lon="7.05119">
        <ele>1032.1999511719</ele>
        <time>2011-04-03T13:54:33.000Z</time>
      </trkpt>
      <trkpt lat="43.74049" lon="7.05119">
        <ele>1032</ele>
        <time>2011-04-03T13:54:43.000Z</time>
      </trkpt>
      <trkpt lat="43.74047" lon="7.05118">
        <ele>1031.8000488281</ele>
        <time>2011-04-03T13:54:51.000Z</time>
      </trkpt>
      <trkpt lat="43.74044" lon="7.05117">
        <ele>1031.4000244141</ele>
        <time>2011-04-03T13:54:53.000Z</time>
      </trkpt>
      <trkpt lat="43.74031" lon="7.05112">
        <ele>1030</ele>
        <time>2011-04-03T13:55:01.000Z</time>
      </trkpt>
      <trkpt lat="43.74029" lon="7.05112">
        <ele>1029.5999755859</ele>
        <time>2011-04-03T13:55:02.000Z</time>
      </trkpt>
      <trkpt lat="43.74022" lon="7.05113">
        <ele>1029</ele>
        <time>2011-04-03T13:55:06.000Z</time>
      </trkpt>
      <trkpt lat="43.74012" lon="7.05106">
        <ele>1027.5999755859</ele>
        <time>2011-04-03T13:55:12.000Z</time>
      </trkpt>
      <trkpt lat="43.7401" lon="7.05105">
        <ele>1027.4000244141</ele>
        <time>2011-04-03T13:55:13.000Z</time>
      </trkpt>
      <trkpt lat="43.74006" lon="7.05102">
        <ele>1026.5999755859</ele>
        <time>2011-04-03T13:55:16.000Z</time>
      </trkpt>
      <trkpt lat="43.74004" lon="7.05097">
        <ele>1026.1999511719</ele>
        <time>2011-04-03T13:55:19.000Z</time>
      </trkpt>
      <trkpt lat="43.74003" lon="7.05087">
        <ele>1025.4000244141</ele>
        <time>2011-04-03T13:55:23.000Z</time>
      </trkpt>
      <trkpt lat="43.74003" lon="7.05086">
        <ele>1025.4000244141</ele>
        <time>2011-04-03T13:55:27.000Z</time>
      </trkpt>
      <trkpt lat="43.74003" lon="7.05085">
        <ele>1025.4000244141</ele>
        <time>2011-04-03T13:55:31.000Z</time>
      </trkpt>
      <trkpt lat="43.74004" lon="7.05084">
        <ele>1025.4000244141</ele>
        <time>2011-04-03T13:55:35.000Z</time>
      </trkpt>
      <trkpt lat="43.74006" lon="7.05081">
        <ele>1026</ele>
        <time>2011-04-03T13:55:41.000Z</time>
      </trkpt>
      <trkpt lat="43.74007" lon="7.05084">
        <ele>1025.8000488281</ele>
        <time>2011-04-03T13:55:54.000Z</time>
      </trkpt>
      <trkpt lat="43.74007" lon="7.05085">
        <ele>1026</ele>
        <time>2011-04-03T13:55:55.000Z</time>
      </trkpt>
      <trkpt lat="43.74007" lon="7.05088">
        <ele>1026</ele>
        <time>2011-04-03T13:56:02.000Z</time>
      </trkpt>
      <trkpt lat="43.74006" lon="7.05086">
        <ele>1025.8000488281</ele>
        <time>2011-04-03T13:56:06.000Z</time>
      </trkpt>
      <trkpt lat="43.74007" lon="7.05086">
        <ele>1026</ele>
        <time>2011-04-03T13:56:11.000Z</time>
      </trkpt>
      <trkpt lat="43.74007" lon="7.05085">
        <ele>1025.8000488281</ele>
        <time>2011-04-03T13:56:19.000Z</time>
      </trkpt>
      <trkpt lat="43.74005" lon="7.05083">
        <ele>1025.5999755859</ele>
        <time>2011-04-03T13:56:33.000Z</time>
      </trkpt>
      <trkpt lat="43.74006" lon="7.05082">
        <ele>1025.8000488281</ele>
        <time>2011-04-03T13:57:06.000Z</time>
      </trkpt>
      <trkpt lat="43.74001" lon="7.05081">
        <ele>1025.1999511719</ele>
        <time>2011-04-03T13:57:14.000Z</time>
      </trkpt>
      <trkpt lat="43.73991" lon="7.0508">
        <ele>1022.5999755859</ele>
        <time>2011-04-03T13:57:20.000Z</time>
      </trkpt>
      <trkpt lat="43.73986" lon="7.05083">
        <ele>1020.5999755859</ele>
        <time>2011-04-03T13:57:25.000Z</time>
      </trkpt>
      <trkpt lat="43.73978" lon="7.0508">
        <ele>1018.4000244141</ele>
        <time>2011-04-03T13:57:30.000Z</time>
      </trkpt>
      <trkpt lat="43.73975" lon="7.05079">
        <ele>1017.5999755859</ele>
        <time>2011-04-03T13:57:33.000Z</time>
      </trkpt>
      <trkpt lat="43.73975" lon="7.0508">
        <ele>1017.5999755859</ele>
        <time>2011-04-03T13:57:35.000Z</time>
      </trkpt>
      <trkpt lat="43.73976" lon="7.05079">
        <ele>1018.200012207</ele>
        <time>2011-04-03T13:57:40.000Z</time>
      </trkpt>
      <trkpt lat="43.73977" lon="7.05081">
        <ele>1018</ele>
        <time>2011-04-03T13:57:46.000Z</time>
      </trkpt>
      <trkpt lat="43.73977" lon="7.0509">
        <ele>1018</ele>
        <time>2011-04-03T13:57:51.000Z</time>
      </trkpt>
      <trkpt lat="43.73975" lon="7.0509">
        <ele>1017.4000244141</ele>
        <time>2011-04-03T13:57:59.000Z</time>
      </trkpt>
      <trkpt lat="43.73972" lon="7.05089">
        <ele>1016.4000244141</ele>
        <time>2011-04-03T13:58:26.000Z</time>
      </trkpt>
      <trkpt lat="43.73969" lon="7.05086">
        <ele>1015.4000244141</ele>
        <time>2011-04-03T13:58:29.000Z</time>
      </trkpt>
      <trkpt lat="43.73965" lon="7.05084">
        <ele>1014</ele>
        <time>2011-04-03T13:58:32.000Z</time>
      </trkpt>
      <trkpt lat="43.7396" lon="7.05081">
        <ele>1012.799987793</ele>
        <time>2011-04-03T13:58:38.000Z</time>
      </trkpt>
      <trkpt lat="43.73955" lon="7.05077">
        <ele>1012</ele>
        <time>2011-04-03T13:58:46.000Z</time>
      </trkpt>
      <trkpt lat="43.73953" lon="7.05074">
        <ele>1011.799987793</ele>
        <time>2011-04-03T13:58:50.000Z</time>
      </trkpt>
      <trkpt lat="43.73951" lon="7.05072">
        <ele>1011.4000244141</ele>
        <time>2011-04-03T13:58:54.000Z</time>
      </trkpt>
      <trkpt lat="43.73947" lon="7.05069">
        <ele>1011</ele>
        <time>2011-04-03T13:59:02.000Z</time>
      </trkpt>
      <trkpt lat="43.73942" lon="7.05067">
        <ele>1010</ele>
        <time>2011-04-03T13:59:12.000Z</time>
      </trkpt>
      <trkpt lat="43.73937" lon="7.05065">
        <ele>1008.799987793</ele>
        <time>2011-04-03T13:59:16.000Z</time>
      </trkpt>
      <trkpt lat="43.73935" lon="7.05064">
        <ele>1008.4000244141</ele>
        <time>2011-04-03T13:59:17.000Z</time>
      </trkpt>
      <trkpt lat="43.73923" lon="7.05062">
        <ele>1005.4000244141</ele>
        <time>2011-04-03T13:59:24.000Z</time>
      </trkpt>
      <trkpt lat="43.73917" lon="7.05061">
        <ele>1004</ele>
        <time>2011-04-03T13:59:27.000Z</time>
      </trkpt>
      <trkpt lat="43.73911" lon="7.0506">
        <ele>1001.799987793</ele>
        <time>2011-04-03T13:59:30.000Z</time>
      </trkpt>
      <trkpt lat="43.73899" lon="7.0506">
        <ele>996.40002441406</ele>
        <time>2011-04-03T13:59:36.000Z</time>
      </trkpt>
      <trkpt lat="43.7389" lon="7.05061">
        <ele>992.40002441406</ele>
        <time>2011-04-03T13:59:42.000Z</time>
      </trkpt>
      <trkpt lat="43.73883" lon="7.0506">
        <ele>989.79998779297</ele>
        <time>2011-04-03T13:59:46.000Z</time>
      </trkpt>
      <trkpt lat="43.73881" lon="7.05058">
        <ele>989.59997558594</ele>
        <time>2011-04-03T13:59:47.000Z</time>
      </trkpt>
      <trkpt lat="43.73878" lon="7.05052">
        <ele>989.59997558594</ele>
        <time>2011-04-03T13:59:52.000Z</time>
      </trkpt>
      <trkpt lat="43.73879" lon="7.05051">
        <ele>990.40002441406</ele>
        <time>2011-04-03T14:00:32.000Z</time>
      </trkpt>
      <trkpt lat="43.73881" lon="7.05054">
        <ele>990.20001220703</ele>
        <time>2011-04-03T14:00:37.000Z</time>
      </trkpt>
      <trkpt lat="43.73884" lon="7.05058">
        <ele>990.59997558594</ele>
        <time>2011-04-03T14:00:45.000Z</time>
      </trkpt>
      <trkpt lat="43.73885" lon="7.0506">
        <ele>990.79998779297</ele>
        <time>2011-04-03T14:00:55.000Z</time>
      </trkpt>
      <trkpt lat="43.73886" lon="7.0506">
        <ele>991.20001220703</ele>
        <time>2011-04-03T14:01:07.000Z</time>
      </trkpt>
      <trkpt lat="43.73887" lon="7.05061">
        <ele>991.20001220703</ele>
        <time>2011-04-03T14:01:21.000Z</time>
      </trkpt>
      <trkpt lat="43.73886" lon="7.0506">
        <ele>991.20001220703</ele>
        <time>2011-04-03T14:01:35.000Z</time>
      </trkpt>
      <trkpt lat="43.73882" lon="7.0505">
        <ele>991.79998779297</ele>
        <time>2011-04-03T14:01:44.000Z</time>
      </trkpt>
      <trkpt lat="43.73879" lon="7.05046">
        <ele>991.40002441406</ele>
        <time>2011-04-03T14:01:50.000Z</time>
      </trkpt>
      <trkpt lat="43.73877" lon="7.05046">
        <ele>990.79998779297</ele>
        <time>2011-04-03T14:01:53.000Z</time>
      </trkpt>
      <trkpt lat="43.73875" lon="7.05044">
        <ele>990.20001220703</ele>
        <time>2011-04-03T14:01:57.000Z</time>
      </trkpt>
      <trkpt lat="43.73873" lon="7.0504">
        <ele>990</ele>
        <time>2011-04-03T14:02:02.000Z</time>
      </trkpt>
      <trkpt lat="43.73869" lon="7.05029">
        <ele>991</ele>
        <time>2011-04-03T14:02:11.000Z</time>
      </trkpt>
      <trkpt lat="43.73867" lon="7.05027">
        <ele>990.59997558594</ele>
        <time>2011-04-03T14:02:14.000Z</time>
      </trkpt>
      <trkpt lat="43.73867" lon="7.05027">
        <ele>990.59997558594</ele>
        <time>2011-04-03T14:02:15.000Z</time>
      </trkpt>
      <trkpt lat="43.73866" lon="7.05025">
        <ele>990.40002441406</ele>
        <time>2011-04-03T14:02:18.000Z</time>
      </trkpt>
      <trkpt lat="43.73862" lon="7.0502">
        <ele>990</ele>
        <time>2011-04-03T14:02:27.000Z</time>
      </trkpt>
      <trkpt lat="43.73857" lon="7.05014">
        <ele>989.59997558594</ele>
        <time>2011-04-03T14:02:37.000Z</time>
      </trkpt>
      <trkpt lat="43.73854" lon="7.05009">
        <ele>989.40002441406</ele>
        <time>2011-04-03T14:02:44.000Z</time>
      </trkpt>
      <trkpt lat="43.73854" lon="7.05008">
        <ele>989.40002441406</ele>
        <time>2011-04-03T14:02:45.000Z</time>
      </trkpt>
      <trkpt lat="43.73852" lon="7.05006">
        <ele>989</ele>
        <time>2011-04-03T14:02:53.000Z</time>
      </trkpt>
      <trkpt lat="43.73846" lon="7.04999">
        <ele>988.40002441406</ele>
        <time>2011-04-03T14:03:25.000Z</time>
      </trkpt>
      <trkpt lat="43.73842" lon="7.04993">
        <ele>988</ele>
        <time>2011-04-03T14:03:33.000Z</time>
      </trkpt>
      <trkpt lat="43.73841" lon="7.04992">
        <ele>988</ele>
        <time>2011-04-03T14:03:36.000Z</time>
      </trkpt>
      <trkpt lat="43.73839" lon="7.04989">
        <ele>987.59997558594</ele>
        <time>2011-04-03T14:03:43.000Z</time>
      </trkpt>
      <trkpt lat="43.73834" lon="7.04986">
        <ele>986.40002441406</ele>
        <time>2011-04-03T14:03:51.000Z</time>
      </trkpt>
      <trkpt lat="43.73827" lon="7.04983">
        <ele>984.59997558594</ele>
        <time>2011-04-03T14:04:01.000Z</time>
      </trkpt>
      <trkpt lat="43.73825" lon="7.04983">
        <ele>983.79998779297</ele>
        <time>2011-04-03T14:04:04.000Z</time>
      </trkpt>
      <trkpt lat="43.73823" lon="7.04981">
        <ele>983.40002441406</ele>
        <time>2011-04-03T14:04:07.000Z</time>
      </trkpt>
      <trkpt lat="43.73818" lon="7.04977">
        <ele>982.59997558594</ele>
        <time>2011-04-03T14:04:16.000Z</time>
      </trkpt>
      <trkpt lat="43.73815" lon="7.04974">
        <ele>982.40002441406</ele>
        <time>2011-04-03T14:04:27.000Z</time>
      </trkpt>
      <trkpt lat="43.7381" lon="7.0497">
        <ele>981.40002441406</ele>
        <time>2011-04-03T14:04:35.000Z</time>
      </trkpt>
      <trkpt lat="43.7381" lon="7.0497">
        <ele>981.20001220703</ele>
        <time>2011-04-03T14:04:36.000Z</time>
      </trkpt>
      <trkpt lat="43.73806" lon="7.04968">
        <ele>980.20001220703</ele>
        <time>2011-04-03T14:04:42.000Z</time>
      </trkpt>
      <trkpt lat="43.738" lon="7.04966">
        <ele>978.40002441406</ele>
        <time>2011-04-03T14:04:51.000Z</time>
      </trkpt>
      <trkpt lat="43.73793" lon="7.04963">
        <ele>976.79998779297</ele>
        <time>2011-04-03T14:05:01.000Z</time>
      </trkpt>
      <trkpt lat="43.73793" lon="7.04963">
        <ele>976.40002441406</ele>
        <time>2011-04-03T14:05:02.000Z</time>
      </trkpt>
      <trkpt lat="43.73788" lon="7.04964">
        <ele>974.40002441406</ele>
        <time>2011-04-03T14:05:09.000Z</time>
      </trkpt>
      <trkpt lat="43.73783" lon="7.04964">
        <ele>972.59997558594</ele>
        <time>2011-04-03T14:05:16.000Z</time>
      </trkpt>
      <trkpt lat="43.73778" lon="7.04962">
        <ele>971.20001220703</ele>
        <time>2011-04-03T14:05:23.000Z</time>
      </trkpt>
      <trkpt lat="43.73778" lon="7.04961">
        <ele>971.20001220703</ele>
        <time>2011-04-03T14:05:29.000Z</time>
      </trkpt>
      <trkpt lat="43.73776" lon="7.04961">
        <ele>970.59997558594</ele>
        <time>2011-04-03T14:06:07.000Z</time>
      </trkpt>
      <trkpt lat="43.73775" lon="7.04961">
        <ele>970</ele>
        <time>2011-04-03T14:06:11.000Z</time>
      </trkpt>
      <trkpt lat="43.73772" lon="7.04962">
        <ele>968.59997558594</ele>
        <time>2011-04-03T14:06:18.000Z</time>
      </trkpt>
      <trkpt lat="43.73769" lon="7.04962">
        <ele>967.59997558594</ele>
        <time>2011-04-03T14:06:29.000Z</time>
      </trkpt>
      <trkpt lat="43.73766" lon="7.04962">
        <ele>966.59997558594</ele>
        <time>2011-04-03T14:06:37.000Z</time>
      </trkpt>
      <trkpt lat="43.73762" lon="7.0496">
        <ele>965.79998779297</ele>
        <time>2011-04-03T14:06:48.000Z</time>
      </trkpt>
      <trkpt lat="43.7376" lon="7.04959">
        <ele>964.79998779297</ele>
        <time>2011-04-03T14:06:52.000Z</time>
      </trkpt>
      <trkpt lat="43.73757" lon="7.04959">
        <ele>963.79998779297</ele>
        <time>2011-04-03T14:06:56.000Z</time>
      </trkpt>
      <trkpt lat="43.73753" lon="7.04957">
        <ele>963</ele>
        <time>2011-04-03T14:07:03.000Z</time>
      </trkpt>
      <trkpt lat="43.73747" lon="7.04953">
        <ele>961.59997558594</ele>
        <time>2011-04-03T14:07:07.000Z</time>
      </trkpt>
      <trkpt lat="43.73745" lon="7.04953">
        <ele>960.79998779297</ele>
        <time>2011-04-03T14:07:08.000Z</time>
      </trkpt>
      <trkpt lat="43.73744" lon="7.04954">
        <ele>960</ele>
        <time>2011-04-03T14:07:09.000Z</time>
      </trkpt>
      <trkpt lat="43.73741" lon="7.04956">
        <ele>958.20001220703</ele>
        <time>2011-04-03T14:07:11.000Z</time>
      </trkpt>
      <trkpt lat="43.7374" lon="7.04962">
        <ele>956.40002441406</ele>
        <time>2011-04-03T14:07:15.000Z</time>
      </trkpt>
      <trkpt lat="43.73743" lon="7.04968">
        <ele>956</ele>
        <time>2011-04-03T14:07:20.000Z</time>
      </trkpt>
      <trkpt lat="43.73741" lon="7.04969">
        <ele>955.20001220703</ele>
        <time>2011-04-03T14:07:21.000Z</time>
      </trkpt>
      <trkpt lat="43.7374" lon="7.0497">
        <ele>954.40002441406</ele>
        <time>2011-04-03T14:07:22.000Z</time>
      </trkpt>
      <trkpt lat="43.73734" lon="7.04968">
        <ele>952.79998779297</ele>
        <time>2011-04-03T14:07:25.000Z</time>
      </trkpt>
      <trkpt lat="43.73723" lon="7.04961">
        <ele>950</ele>
        <time>2011-04-03T14:07:31.000Z</time>
      </trkpt>
      <trkpt lat="43.73721" lon="7.04959">
        <ele>949.59997558594</ele>
        <time>2011-04-03T14:07:33.000Z</time>
      </trkpt>
      <trkpt lat="43.73721" lon="7.04959">
        <ele>949.40002441406</ele>
        <time>2011-04-03T14:07:35.000Z</time>
      </trkpt>
      <trkpt lat="43.7372" lon="7.04963">
        <ele>948.40002441406</ele>
        <time>2011-04-03T14:07:42.000Z</time>
      </trkpt>
      <trkpt lat="43.7372" lon="7.04971">
        <ele>946.59997558594</ele>
        <time>2011-04-03T14:07:51.000Z</time>
      </trkpt>
      <trkpt lat="43.73718" lon="7.04972">
        <ele>945.59997558594</ele>
        <time>2011-04-03T14:08:00.000Z</time>
      </trkpt>
      <trkpt lat="43.73715" lon="7.04971">
        <ele>944.40002441406</ele>
        <time>2011-04-03T14:08:10.000Z</time>
      </trkpt>
      <trkpt lat="43.73714" lon="7.0497">
        <ele>944.20001220703</ele>
        <time>2011-04-03T14:08:11.000Z</time>
      </trkpt>
      <trkpt lat="43.73711" lon="7.04972">
        <ele>942.79998779297</ele>
        <time>2011-04-03T14:08:16.000Z</time>
      </trkpt>
      <trkpt lat="43.73713" lon="7.04978">
        <ele>942.20001220703</ele>
        <time>2011-04-03T14:08:23.000Z</time>
      </trkpt>
      <trkpt lat="43.7371" lon="7.04981">
        <ele>940.20001220703</ele>
        <time>2011-04-03T14:08:29.000Z</time>
      </trkpt>
      <trkpt lat="43.73706" lon="7.04981">
        <ele>938.40002441406</ele>
        <time>2011-04-03T14:08:36.000Z</time>
      </trkpt>
      <trkpt lat="43.73706" lon="7.04984">
        <ele>937.79998779297</ele>
        <time>2011-04-03T14:08:44.000Z</time>
      </trkpt>
      <trkpt lat="43.73706" lon="7.04988">
        <ele>936.79998779297</ele>
        <time>2011-04-03T14:08:56.000Z</time>
      </trkpt>
      <trkpt lat="43.73702" lon="7.04992">
        <ele>934.59997558594</ele>
        <time>2011-04-03T14:09:02.000Z</time>
      </trkpt>
      <trkpt lat="43.73697" lon="7.04989">
        <ele>933</ele>
        <time>2011-04-03T14:09:09.000Z</time>
      </trkpt>
      <trkpt lat="43.73695" lon="7.04988">
        <ele>932.59997558594</ele>
        <time>2011-04-03T14:09:11.000Z</time>
      </trkpt>
      <trkpt lat="43.73693" lon="7.04986">
        <ele>932.20001220703</ele>
        <time>2011-04-03T14:09:16.000Z</time>
      </trkpt>
      <trkpt lat="43.73694" lon="7.04993">
        <ele>931.20001220703</ele>
        <time>2011-04-03T14:09:24.000Z</time>
      </trkpt>
      <trkpt lat="43.73697" lon="7.04999">
        <ele>930.59997558594</ele>
        <time>2011-04-03T14:09:29.000Z</time>
      </trkpt>
      <trkpt lat="43.73696" lon="7.05003">
        <ele>929.40002441406</ele>
        <time>2011-04-03T14:09:31.000Z</time>
      </trkpt>
      <trkpt lat="43.73695" lon="7.05004">
        <ele>929</ele>
        <time>2011-04-03T14:09:33.000Z</time>
      </trkpt>
      <trkpt lat="43.73692" lon="7.05001">
        <ele>928.59997558594</ele>
        <time>2011-04-03T14:09:50.000Z</time>
      </trkpt>
      <trkpt lat="43.73689" lon="7.04998">
        <ele>927.79998779297</ele>
        <time>2011-04-03T14:09:56.000Z</time>
      </trkpt>
      <trkpt lat="43.73688" lon="7.04998">
        <ele>927.40002441406</ele>
        <time>2011-04-03T14:09:57.000Z</time>
      </trkpt>
      <trkpt lat="43.73687" lon="7.05001">
        <ele>926.79998779297</ele>
        <time>2011-04-03T14:10:00.000Z</time>
      </trkpt>
      <trkpt lat="43.73687" lon="7.05005">
        <ele>926</ele>
        <time>2011-04-03T14:10:04.000Z</time>
      </trkpt>
      <trkpt lat="43.73687" lon="7.05006">
        <ele>925.59997558594</ele>
        <time>2011-04-03T14:10:05.000Z</time>
      </trkpt>
      <trkpt lat="43.73684" lon="7.05005">
        <ele>924.59997558594</ele>
        <time>2011-04-03T14:10:09.000Z</time>
      </trkpt>
      <trkpt lat="43.73682" lon="7.05003">
        <ele>924.40002441406</ele>
        <time>2011-04-03T14:10:11.000Z</time>
      </trkpt>
      <trkpt lat="43.73678" lon="7.04992">
        <ele>925</ele>
        <time>2011-04-03T14:10:16.000Z</time>
      </trkpt>
      <trkpt lat="43.73676" lon="7.04988">
        <ele>925.20001220703</ele>
        <time>2011-04-03T14:10:20.000Z</time>
      </trkpt>
      <trkpt lat="43.73673" lon="7.04986">
        <ele>924.79998779297</ele>
        <time>2011-04-03T14:10:26.000Z</time>
      </trkpt>
      <trkpt lat="43.73673" lon="7.04986">
        <ele>924.59997558594</ele>
        <time>2011-04-03T14:10:27.000Z</time>
      </trkpt>
      <trkpt lat="43.73673" lon="7.04989">
        <ele>923.79998779297</ele>
        <time>2011-04-03T14:10:32.000Z</time>
      </trkpt>
      <trkpt lat="43.73674" lon="7.0499">
        <ele>924</ele>
        <time>2011-04-03T14:10:41.000Z</time>
      </trkpt>
      <trkpt lat="43.73676" lon="7.04993">
        <ele>924.20001220703</ele>
        <time>2011-04-03T14:10:51.000Z</time>
      </trkpt>
      <trkpt lat="43.73677" lon="7.04999">
        <ele>923.20001220703</ele>
        <time>2011-04-03T14:11:03.000Z</time>
      </trkpt>
      <trkpt lat="43.73675" lon="7.05002">
        <ele>921.59997558594</ele>
        <time>2011-04-03T14:11:11.000Z</time>
      </trkpt>
      <trkpt lat="43.73672" lon="7.05001">
        <ele>920.79998779297</ele>
        <time>2011-04-03T14:11:20.000Z</time>
      </trkpt>
      <trkpt lat="43.7367" lon="7.05">
        <ele>920.40002441406</ele>
        <time>2011-04-03T14:11:22.000Z</time>
      </trkpt>
      <trkpt lat="43.73667" lon="7.04997">
        <ele>919.79998779297</ele>
        <time>2011-04-03T14:11:29.000Z</time>
      </trkpt>
      <trkpt lat="43.73664" lon="7.04994">
        <ele>919.40002441406</ele>
        <time>2011-04-03T14:11:40.000Z</time>
      </trkpt>
      <trkpt lat="43.73664" lon="7.04994">
        <ele>919.20001220703</ele>
        <time>2011-04-03T14:11:45.000Z</time>
      </trkpt>
      <trkpt lat="43.73663" lon="7.04992">
        <ele>919</ele>
        <time>2011-04-03T14:11:52.000Z</time>
      </trkpt>
      <trkpt lat="43.7366" lon="7.04993">
        <ele>917.79998779297</ele>
        <time>2011-04-03T14:11:59.000Z</time>
      </trkpt>
      <trkpt lat="43.73662" lon="7.04998">
        <ele>917.20001220703</ele>
        <time>2011-04-03T14:12:18.000Z</time>
      </trkpt>
      <trkpt lat="43.73661" lon="7.04998">
        <ele>917</ele>
        <time>2011-04-03T14:12:19.000Z</time>
      </trkpt>
      <trkpt lat="43.7366" lon="7.05001">
        <ele>915.79998779297</ele>
        <time>2011-04-03T14:12:26.000Z</time>
      </trkpt>
      <trkpt lat="43.7366" lon="7.05006">
        <ele>914.79998779297</ele>
        <time>2011-04-03T14:12:34.000Z</time>
      </trkpt>
      <trkpt lat="43.73661" lon="7.05008">
        <ele>914.79998779297</ele>
        <time>2011-04-03T14:12:39.000Z</time>
      </trkpt>
      <trkpt lat="43.7366" lon="7.0501">
        <ele>914.20001220703</ele>
        <time>2011-04-03T14:12:43.000Z</time>
      </trkpt>
      <trkpt lat="43.73658" lon="7.05015">
        <ele>912.40002441406</ele>
        <time>2011-04-03T14:12:48.000Z</time>
      </trkpt>
      <trkpt lat="43.73655" lon="7.05014">
        <ele>911</ele>
        <time>2011-04-03T14:12:53.000Z</time>
      </trkpt>
      <trkpt lat="43.73654" lon="7.05014">
        <ele>910.79998779297</ele>
        <time>2011-04-03T14:12:54.000Z</time>
      </trkpt>
      <trkpt lat="43.73654" lon="7.05013">
        <ele>910.59997558594</ele>
        <time>2011-04-03T14:12:55.000Z</time>
      </trkpt>
      <trkpt lat="43.73651" lon="7.05007">
        <ele>910.59997558594</ele>
        <time>2011-04-03T14:13:03.000Z</time>
      </trkpt>
      <trkpt lat="43.73648" lon="7.05006">
        <ele>909.79998779297</ele>
        <time>2011-04-03T14:13:10.000Z</time>
      </trkpt>
      <trkpt lat="43.73647" lon="7.05008">
        <ele>908.79998779297</ele>
        <time>2011-04-03T14:13:15.000Z</time>
      </trkpt>
      <trkpt lat="43.73647" lon="7.05015">
        <ele>907.40002441406</ele>
        <time>2011-04-03T14:13:25.000Z</time>
      </trkpt>
      <trkpt lat="43.73646" lon="7.05017">
        <ele>906.79998779297</ele>
        <time>2011-04-03T14:13:28.000Z</time>
      </trkpt>
      <trkpt lat="43.73647" lon="7.05019">
        <ele>906.59997558594</ele>
        <time>2011-04-03T14:13:32.000Z</time>
      </trkpt>
      <trkpt lat="43.73648" lon="7.05025">
        <ele>906.20001220703</ele>
        <time>2011-04-03T14:13:38.000Z</time>
      </trkpt>
      <trkpt lat="43.73649" lon="7.0503">
        <ele>905.59997558594</ele>
        <time>2011-04-03T14:13:44.000Z</time>
      </trkpt>
      <trkpt lat="43.73649" lon="7.05032">
        <ele>905.20001220703</ele>
        <time>2011-04-03T14:13:49.000Z</time>
      </trkpt>
      <trkpt lat="43.73649" lon="7.05036">
        <ele>904.40002441406</ele>
        <time>2011-04-03T14:13:56.000Z</time>
      </trkpt>
      <trkpt lat="43.7365" lon="7.0504">
        <ele>904.40002441406</ele>
        <time>2011-04-03T14:14:02.000Z</time>
      </trkpt>
      <trkpt lat="43.7365" lon="7.05041">
        <ele>904</ele>
        <time>2011-04-03T14:14:03.000Z</time>
      </trkpt>
      <trkpt lat="43.7365" lon="7.05043">
        <ele>903.59997558594</ele>
        <time>2011-04-03T14:14:07.000Z</time>
      </trkpt>
      <trkpt lat="43.73649" lon="7.05045">
        <ele>903</ele>
        <time>2011-04-03T14:14:11.000Z</time>
      </trkpt>
      <trkpt lat="43.73648" lon="7.05048">
        <ele>902</ele>
        <time>2011-04-03T14:14:21.000Z</time>
      </trkpt>
      <trkpt lat="43.73647" lon="7.05049">
        <ele>901.20001220703</ele>
        <time>2011-04-03T14:14:27.000Z</time>
      </trkpt>
      <trkpt lat="43.73644" lon="7.05049">
        <ele>900.20001220703</ele>
        <time>2011-04-03T14:14:32.000Z</time>
      </trkpt>
      <trkpt lat="43.73643" lon="7.05054">
        <ele>898.79998779297</ele>
        <time>2011-04-03T14:14:39.000Z</time>
      </trkpt>
      <trkpt lat="43.73643" lon="7.05056">
        <ele>898.40002441406</ele>
        <time>2011-04-03T14:14:47.000Z</time>
      </trkpt>
      <trkpt lat="43.73644" lon="7.0506">
        <ele>898</ele>
        <time>2011-04-03T14:14:55.000Z</time>
      </trkpt>
      <trkpt lat="43.73644" lon="7.05063">
        <ele>897.59997558594</ele>
        <time>2011-04-03T14:14:57.000Z</time>
      </trkpt>
      <trkpt lat="43.73644" lon="7.05069">
        <ele>896.40002441406</ele>
        <time>2011-04-03T14:15:05.000Z</time>
      </trkpt>
      <trkpt lat="43.73642" lon="7.05074">
        <ele>894.79998779297</ele>
        <time>2011-04-03T14:15:12.000Z</time>
      </trkpt>
      <trkpt lat="43.73637" lon="7.05072">
        <ele>893.20001220703</ele>
        <time>2011-04-03T14:15:19.000Z</time>
      </trkpt>
      <trkpt lat="43.73636" lon="7.05075">
        <ele>892.20001220703</ele>
        <time>2011-04-03T14:15:26.000Z</time>
      </trkpt>
      <trkpt lat="43.73636" lon="7.0508">
        <ele>891.20001220703</ele>
        <time>2011-04-03T14:15:37.000Z</time>
      </trkpt>
      <trkpt lat="43.73637" lon="7.05084">
        <ele>890.79998779297</ele>
        <time>2011-04-03T14:15:43.000Z</time>
      </trkpt>
      <trkpt lat="43.73639" lon="7.05092">
        <ele>890.20001220703</ele>
        <time>2011-04-03T14:15:53.000Z</time>
      </trkpt>
      <trkpt lat="43.7364" lon="7.05097">
        <ele>889.59997558594</ele>
        <time>2011-04-03T14:15:58.000Z</time>
      </trkpt>
      <trkpt lat="43.7364" lon="7.05099">
        <ele>889</ele>
        <time>2011-04-03T14:16:00.000Z</time>
      </trkpt>
      <trkpt lat="43.73639" lon="7.05106">
        <ele>887.59997558594</ele>
        <time>2011-04-03T14:16:06.000Z</time>
      </trkpt>
      <trkpt lat="43.73641" lon="7.05114">
        <ele>886.79998779297</ele>
        <time>2011-04-03T14:16:15.000Z</time>
      </trkpt>
      <trkpt lat="43.73641" lon="7.05121">
        <ele>885.20001220703</ele>
        <time>2011-04-03T14:16:23.000Z</time>
      </trkpt>
      <trkpt lat="43.73641" lon="7.05123">
        <ele>884.59997558594</ele>
        <time>2011-04-03T14:16:25.000Z</time>
      </trkpt>
      <trkpt lat="43.73642" lon="7.05127">
        <ele>884.20001220703</ele>
        <time>2011-04-03T14:16:31.000Z</time>
      </trkpt>
      <trkpt lat="43.73643" lon="7.05134">
        <ele>883.20001220703</ele>
        <time>2011-04-03T14:16:38.000Z</time>
      </trkpt>
      <trkpt lat="43.73641" lon="7.05135">
        <ele>882.40002441406</ele>
        <time>2011-04-03T14:16:44.000Z</time>
      </trkpt>
      <trkpt lat="43.7364" lon="7.05143">
        <ele>880.59997558594</ele>
        <time>2011-04-03T14:16:58.000Z</time>
      </trkpt>
      <trkpt lat="43.7364" lon="7.05144">
        <ele>880.20001220703</ele>
        <time>2011-04-03T14:16:59.000Z</time>
      </trkpt>
      <trkpt lat="43.7364" lon="7.05152">
        <ele>878.59997558594</ele>
        <time>2011-04-03T14:17:07.000Z</time>
      </trkpt>
      <trkpt lat="43.73642" lon="7.05156">
        <ele>878.40002441406</ele>
        <time>2011-04-03T14:17:13.000Z</time>
      </trkpt>
      <trkpt lat="43.73642" lon="7.0516">
        <ele>877.59997558594</ele>
        <time>2011-04-03T14:17:19.000Z</time>
      </trkpt>
      <trkpt lat="43.73644" lon="7.05166">
        <ele>877</ele>
        <time>2011-04-03T14:17:25.000Z</time>
      </trkpt>
      <trkpt lat="43.73644" lon="7.05169">
        <ele>876.59997558594</ele>
        <time>2011-04-03T14:17:27.000Z</time>
      </trkpt>
      <trkpt lat="43.73644" lon="7.0517">
        <ele>876.40002441406</ele>
        <time>2011-04-03T14:17:28.000Z</time>
      </trkpt>
      <trkpt lat="43.73644" lon="7.05172">
        <ele>876.40002441406</ele>
        <time>2011-04-03T14:17:30.000Z</time>
      </trkpt>
      <trkpt lat="43.73645" lon="7.05173">
        <ele>876.40002441406</ele>
        <time>2011-04-03T14:17:32.000Z</time>
      </trkpt>
      <trkpt lat="43.73646" lon="7.05177">
        <ele>876</ele>
        <time>2011-04-03T14:17:38.000Z</time>
      </trkpt>
      <trkpt lat="43.73646" lon="7.05179">
        <ele>875.79998779297</ele>
        <time>2011-04-03T14:17:43.000Z</time>
      </trkpt>
      <trkpt lat="43.73646" lon="7.05185">
        <ele>875</ele>
        <time>2011-04-03T14:17:54.000Z</time>
      </trkpt>
      <trkpt lat="43.73647" lon="7.0519">
        <ele>874.59997558594</ele>
        <time>2011-04-03T14:18:03.000Z</time>
      </trkpt>
      <trkpt lat="43.73647" lon="7.05193">
        <ele>874</ele>
        <time>2011-04-03T14:18:09.000Z</time>
      </trkpt>
      <trkpt lat="43.73647" lon="7.05193">
        <ele>874</ele>
        <time>2011-04-03T14:18:11.000Z</time>
      </trkpt>
      <trkpt lat="43.73647" lon="7.05197">
        <ele>873.59997558594</ele>
        <time>2011-04-03T14:18:17.000Z</time>
      </trkpt>
      <trkpt lat="43.73647" lon="7.05202">
        <ele>872.59997558594</ele>
        <time>2011-04-03T14:18:24.000Z</time>
      </trkpt>
      <trkpt lat="43.73648" lon="7.05206">
        <ele>872.40002441406</ele>
        <time>2011-04-03T14:18:29.000Z</time>
      </trkpt>
      <trkpt lat="43.73649" lon="7.05211">
        <ele>872</ele>
        <time>2011-04-03T14:18:35.000Z</time>
      </trkpt>
      <trkpt lat="43.73649" lon="7.05214">
        <ele>871.20001220703</ele>
        <time>2011-04-03T14:18:41.000Z</time>
      </trkpt>
      <trkpt lat="43.73647" lon="7.05217">
        <ele>870.40002441406</ele>
        <time>2011-04-03T14:18:49.000Z</time>
      </trkpt>
      <trkpt lat="43.73647" lon="7.05217">
        <ele>870.40002441406</ele>
        <time>2011-04-03T14:18:50.000Z</time>
      </trkpt>
      <trkpt lat="43.73648" lon="7.05222">
        <ele>870</ele>
        <time>2011-04-03T14:18:57.000Z</time>
      </trkpt>
      <trkpt lat="43.73649" lon="7.05225">
        <ele>869.79998779297</ele>
        <time>2011-04-03T14:19:05.000Z</time>
      </trkpt>
      <trkpt lat="43.7365" lon="7.0523">
        <ele>869.20001220703</ele>
        <time>2011-04-03T14:19:11.000Z</time>
      </trkpt>
      <trkpt lat="43.73648" lon="7.05233">
        <ele>868.40002441406</ele>
        <time>2011-04-03T14:19:18.000Z</time>
      </trkpt>
      <trkpt lat="43.73645" lon="7.05235">
        <ele>867</ele>
        <time>2011-04-03T14:19:31.000Z</time>
      </trkpt>
      <trkpt lat="43.73644" lon="7.05234">
        <ele>866.79998779297</ele>
        <time>2011-04-03T14:19:32.000Z</time>
      </trkpt>
      <trkpt lat="43.7364" lon="7.05232">
        <ele>866</ele>
        <time>2011-04-03T14:19:38.000Z</time>
      </trkpt>
      <trkpt lat="43.73638" lon="7.05233">
        <ele>865.20001220703</ele>
        <time>2011-04-03T14:19:44.000Z</time>
      </trkpt>
      <trkpt lat="43.73639" lon="7.05238">
        <ele>864.59997558594</ele>
        <time>2011-04-03T14:19:50.000Z</time>
      </trkpt>
      <trkpt lat="43.73643" lon="7.05246">
        <ele>864.59997558594</ele>
        <time>2011-04-03T14:19:56.000Z</time>
      </trkpt>
      <trkpt lat="43.73643" lon="7.05248">
        <ele>864.20001220703</ele>
        <time>2011-04-03T14:19:59.000Z</time>
      </trkpt>
      <trkpt lat="43.73642" lon="7.05249">
        <ele>864</ele>
        <time>2011-04-03T14:20:00.000Z</time>
      </trkpt>
      <trkpt lat="43.73639" lon="7.0525">
        <ele>863</ele>
        <time>2011-04-03T14:20:04.000Z</time>
      </trkpt>
      <trkpt lat="43.73639" lon="7.0525">
        <ele>862.79998779297</ele>
        <time>2011-04-03T14:20:05.000Z</time>
      </trkpt>
      <trkpt lat="43.73635" lon="7.05247">
        <ele>862.20001220703</ele>
        <time>2011-04-03T14:20:13.000Z</time>
      </trkpt>
      <trkpt lat="43.7363" lon="7.05243">
        <ele>861.40002441406</ele>
        <time>2011-04-03T14:20:19.000Z</time>
      </trkpt>
      <trkpt lat="43.73626" lon="7.05246">
        <ele>859.79998779297</ele>
        <time>2011-04-03T14:20:26.000Z</time>
      </trkpt>
      <trkpt lat="43.73629" lon="7.05251">
        <ele>860</ele>
        <time>2011-04-03T14:20:35.000Z</time>
      </trkpt>
      <trkpt lat="43.73627" lon="7.05252">
        <ele>859.40002441406</ele>
        <time>2011-04-03T14:20:40.000Z</time>
      </trkpt>
      <trkpt lat="43.73623" lon="7.05252">
        <ele>858.20001220703</ele>
        <time>2011-04-03T14:20:53.000Z</time>
      </trkpt>
      <trkpt lat="43.7362" lon="7.05254">
        <ele>857.20001220703</ele>
        <time>2011-04-03T14:21:01.000Z</time>
      </trkpt>
      <trkpt lat="43.73617" lon="7.05256">
        <ele>856.20001220703</ele>
        <time>2011-04-03T14:21:08.000Z</time>
      </trkpt>
      <trkpt lat="43.73616" lon="7.05256">
        <ele>856</ele>
        <time>2011-04-03T14:21:09.000Z</time>
      </trkpt>
      <trkpt lat="43.73614" lon="7.05256">
        <ele>855.20001220703</ele>
        <time>2011-04-03T14:21:14.000Z</time>
      </trkpt>
      <trkpt lat="43.73611" lon="7.05256">
        <ele>854.59997558594</ele>
        <time>2011-04-03T14:21:19.000Z</time>
      </trkpt>
      <trkpt lat="43.73609" lon="7.05259">
        <ele>853.79998779297</ele>
        <time>2011-04-03T14:21:25.000Z</time>
      </trkpt>
      <trkpt lat="43.7361" lon="7.05263">
        <ele>853.59997558594</ele>
        <time>2011-04-03T14:21:32.000Z</time>
      </trkpt>
      <trkpt lat="43.73608" lon="7.05267">
        <ele>853</ele>
        <time>2011-04-03T14:21:44.000Z</time>
      </trkpt>
      <trkpt lat="43.73605" lon="7.05271">
        <ele>852</ele>
        <time>2011-04-03T14:21:52.000Z</time>
      </trkpt>
      <trkpt lat="43.73605" lon="7.05272">
        <ele>851.59997558594</ele>
        <time>2011-04-03T14:21:56.000Z</time>
      </trkpt>
      <trkpt lat="43.73602" lon="7.05276">
        <ele>850.79998779297</ele>
        <time>2011-04-03T14:21:59.000Z</time>
      </trkpt>
      <trkpt lat="43.73593" lon="7.05288">
        <ele>846.59997558594</ele>
        <time>2011-04-03T14:22:04.000Z</time>
      </trkpt>
      <trkpt lat="43.73584" lon="7.053">
        <ele>842.79998779297</ele>
        <time>2011-04-03T14:22:09.000Z</time>
      </trkpt>
      <trkpt lat="43.7358" lon="7.05302">
        <ele>842</ele>
        <time>2011-04-03T14:22:14.000Z</time>
      </trkpt>
      <trkpt lat="43.73577" lon="7.05301">
        <ele>841.40002441406</ele>
        <time>2011-04-03T14:22:18.000Z</time>
      </trkpt>
      <trkpt lat="43.73575" lon="7.05301">
        <ele>841.20001220703</ele>
        <time>2011-04-03T14:22:19.000Z</time>
      </trkpt>
      <trkpt lat="43.73573" lon="7.05302">
        <ele>840.59997558594</ele>
        <time>2011-04-03T14:22:23.000Z</time>
      </trkpt>
      <trkpt lat="43.73573" lon="7.05301">
        <ele>840.79998779297</ele>
        <time>2011-04-03T14:22:29.000Z</time>
      </trkpt>
      <trkpt lat="43.73573" lon="7.05303">
        <ele>840.59997558594</ele>
        <time>2011-04-03T14:22:53.000Z</time>
      </trkpt>
      <trkpt lat="43.73567" lon="7.05302">
        <ele>839.59997558594</ele>
        <time>2011-04-03T14:22:57.000Z</time>
      </trkpt>
      <trkpt lat="43.73562" lon="7.05297">
        <ele>839</ele>
        <time>2011-04-03T14:23:01.000Z</time>
      </trkpt>
      <trkpt lat="43.7356" lon="7.05293">
        <ele>839</ele>
        <time>2011-04-03T14:23:03.000Z</time>
      </trkpt>
      <trkpt lat="43.73557" lon="7.05286">
        <ele>838.79998779297</ele>
        <time>2011-04-03T14:23:08.000Z</time>
      </trkpt>
      <trkpt lat="43.73556" lon="7.05285">
        <ele>838.79998779297</ele>
        <time>2011-04-03T14:23:09.000Z</time>
      </trkpt>
      <trkpt lat="43.73555" lon="7.05286">
        <ele>838.59997558594</ele>
        <time>2011-04-03T14:23:15.000Z</time>
      </trkpt>
      <trkpt lat="43.73556" lon="7.05287">
        <ele>838.79998779297</ele>
        <time>2011-04-03T14:23:27.000Z</time>
      </trkpt>
      <trkpt lat="43.73559" lon="7.05288">
        <ele>839.20001220703</ele>
        <time>2011-04-03T14:23:42.000Z</time>
      </trkpt>
      <trkpt lat="43.73561" lon="7.0529">
        <ele>839.40002441406</ele>
        <time>2011-04-03T14:23:47.000Z</time>
      </trkpt>
      <trkpt lat="43.73565" lon="7.05295">
        <ele>839.79998779297</ele>
        <time>2011-04-03T14:23:52.000Z</time>
      </trkpt>
      <trkpt lat="43.73572" lon="7.05301">
        <ele>840.59997558594</ele>
        <time>2011-04-03T14:23:57.000Z</time>
      </trkpt>
      <trkpt lat="43.73573" lon="7.05301">
        <ele>840.79998779297</ele>
        <time>2011-04-03T14:23:58.000Z</time>
      </trkpt>
      <trkpt lat="43.73579" lon="7.05311">
        <ele>841.20001220703</ele>
        <time>2011-04-03T14:24:02.000Z</time>
      </trkpt>
      <trkpt lat="43.7358" lon="7.05319">
        <ele>840.59997558594</ele>
        <time>2011-04-03T14:24:05.000Z</time>
      </trkpt>
      <trkpt lat="43.73579" lon="7.05324">
        <ele>840</ele>
        <time>2011-04-03T14:24:07.000Z</time>
      </trkpt>
      <trkpt lat="43.73574" lon="7.05335">
        <ele>838.20001220703</ele>
        <time>2011-04-03T14:24:11.000Z</time>
      </trkpt>
      <trkpt lat="43.73571" lon="7.0534">
        <ele>837.59997558594</ele>
        <time>2011-04-03T14:24:13.000Z</time>
      </trkpt>
      <trkpt lat="43.7356" lon="7.05354">
        <ele>835.20001220703</ele>
        <time>2011-04-03T14:24:18.000Z</time>
      </trkpt>
      <trkpt lat="43.73557" lon="7.05357">
        <ele>834.59997558594</ele>
        <time>2011-04-03T14:24:19.000Z</time>
      </trkpt>
      <trkpt lat="43.73545" lon="7.05376">
        <ele>831.59997558594</ele>
        <time>2011-04-03T14:24:24.000Z</time>
      </trkpt>
      <trkpt lat="43.73529" lon="7.05391">
        <ele>828.20001220703</ele>
        <time>2011-04-03T14:24:29.000Z</time>
      </trkpt>
      <trkpt lat="43.73514" lon="7.05405">
        <ele>825</ele>
        <time>2011-04-03T14:24:33.000Z</time>
      </trkpt>
      <trkpt lat="43.7351" lon="7.0541">
        <ele>824</ele>
        <time>2011-04-03T14:24:34.000Z</time>
      </trkpt>
      <trkpt lat="43.735" lon="7.05424">
        <ele>821.79998779297</ele>
        <time>2011-04-03T14:24:37.000Z</time>
      </trkpt>
      <trkpt lat="43.73497" lon="7.05429">
        <ele>821</ele>
        <time>2011-04-03T14:24:38.000Z</time>
      </trkpt>
      <trkpt lat="43.73491" lon="7.05435">
        <ele>819.59997558594</ele>
        <time>2011-04-03T14:24:40.000Z</time>
      </trkpt>
      <trkpt lat="43.73488" lon="7.05437">
        <ele>819</ele>
        <time>2011-04-03T14:24:41.000Z</time>
      </trkpt>
      <trkpt lat="43.73484" lon="7.0544">
        <ele>818.20001220703</ele>
        <time>2011-04-03T14:24:44.000Z</time>
      </trkpt>
      <trkpt lat="43.73483" lon="7.05439">
        <ele>818</ele>
        <time>2011-04-03T14:24:55.000Z</time>
      </trkpt>
      <trkpt lat="43.73483" lon="7.05439">
        <ele>818</ele>
        <time>2011-04-03T14:24:59.000Z</time>
      </trkpt>
      <trkpt lat="43.7348" lon="7.0544">
        <ele>817.40002441406</ele>
        <time>2011-04-03T14:26:21.000Z</time>
      </trkpt>
      <trkpt lat="43.73476" lon="7.05443">
        <ele>816.40002441406</ele>
        <time>2011-04-03T14:26:23.000Z</time>
      </trkpt>
      <trkpt lat="43.73469" lon="7.05446">
        <ele>815</ele>
        <time>2011-04-03T14:26:25.000Z</time>
      </trkpt>
      <trkpt lat="43.73454" lon="7.05455">
        <ele>811.59997558594</ele>
        <time>2011-04-03T14:26:29.000Z</time>
      </trkpt>
      <trkpt lat="43.7345" lon="7.05457">
        <ele>810.59997558594</ele>
        <time>2011-04-03T14:26:30.000Z</time>
      </trkpt>
      <trkpt lat="43.73432" lon="7.05473">
        <ele>806.40002441406</ele>
        <time>2011-04-03T14:26:34.000Z</time>
      </trkpt>
      <trkpt lat="43.73419" lon="7.05496">
        <ele>802.59997558594</ele>
        <time>2011-04-03T14:26:37.000Z</time>
      </trkpt>
      <trkpt lat="43.73415" lon="7.05505">
        <ele>802.20001220703</ele>
        <time>2011-04-03T14:26:38.000Z</time>
      </trkpt>
      <trkpt lat="43.73406" lon="7.05522">
        <ele>802.79998779297</ele>
        <time>2011-04-03T14:26:40.000Z</time>
      </trkpt>
      <trkpt lat="43.73398" lon="7.05538">
        <ele>803.40002441406</ele>
        <time>2011-04-03T14:26:42.000Z</time>
      </trkpt>
      <trkpt lat="43.73393" lon="7.05544">
        <ele>803.40002441406</ele>
        <time>2011-04-03T14:26:43.000Z</time>
      </trkpt>
      <trkpt lat="43.73388" lon="7.05549">
        <ele>803.40002441406</ele>
        <time>2011-04-03T14:26:44.000Z</time>
      </trkpt>
      <trkpt lat="43.73373" lon="7.05549">
        <ele>801.79998779297</ele>
        <time>2011-04-03T14:26:47.000Z</time>
      </trkpt>
      <trkpt lat="43.73365" lon="7.05535">
        <ele>799.40002441406</ele>
        <time>2011-04-03T14:26:50.000Z</time>
      </trkpt>
      <trkpt lat="43.73364" lon="7.05529">
        <ele>798.40002441406</ele>
        <time>2011-04-03T14:26:51.000Z</time>
      </trkpt>
      <trkpt lat="43.73361" lon="7.05515">
        <ele>796.79998779297</ele>
        <time>2011-04-03T14:26:53.000Z</time>
      </trkpt>
      <trkpt lat="43.73361" lon="7.05509">
        <ele>796.20001220703</ele>
        <time>2011-04-03T14:26:54.000Z</time>
      </trkpt>
      <trkpt lat="43.73362" lon="7.05503">
        <ele>795.59997558594</ele>
        <time>2011-04-03T14:26:55.000Z</time>
      </trkpt>
      <trkpt lat="43.73369" lon="7.0549">
        <ele>796</ele>
        <time>2011-04-03T14:26:58.000Z</time>
      </trkpt>
      <trkpt lat="43.73372" lon="7.05488">
        <ele>796.20001220703</ele>
        <time>2011-04-03T14:26:59.000Z</time>
      </trkpt>
      <trkpt lat="43.73375" lon="7.05484">
        <ele>796.59997558594</ele>
        <time>2011-04-03T14:27:02.000Z</time>
      </trkpt>
      <trkpt lat="43.73375" lon="7.05485">
        <ele>796.79998779297</ele>
        <time>2011-04-03T14:27:31.000Z</time>
      </trkpt>
      <trkpt lat="43.73375" lon="7.05485">
        <ele>796.79998779297</ele>
        <time>2011-04-03T14:27:37.000Z</time>
      </trkpt>
      <trkpt lat="43.73382" lon="7.05479">
        <ele>797.59997558594</ele>
        <time>2011-04-03T14:30:58.000Z</time>
      </trkpt>
      <trkpt lat="43.73384" lon="7.05474">
        <ele>798</ele>
        <time>2011-04-03T14:31:00.000Z</time>
      </trkpt>
      <trkpt lat="43.7339" lon="7.05457">
        <ele>799.20001220703</ele>
        <time>2011-04-03T14:31:05.000Z</time>
      </trkpt>
      <trkpt lat="43.73392" lon="7.05449">
        <ele>799.59997558594</ele>
        <time>2011-04-03T14:31:07.000Z</time>
      </trkpt>
      <trkpt lat="43.73389" lon="7.05436">
        <ele>799.20001220703</ele>
        <time>2011-04-03T14:31:10.000Z</time>
      </trkpt>
      <trkpt lat="43.73383" lon="7.05424">
        <ele>797.79998779297</ele>
        <time>2011-04-03T14:31:14.000Z</time>
      </trkpt>
      <trkpt lat="43.73381" lon="7.05419">
        <ele>797.20001220703</ele>
        <time>2011-04-03T14:31:16.000Z</time>
      </trkpt>
      <trkpt lat="43.73374" lon="7.05402">
        <ele>796</ele>
        <time>2011-04-03T14:31:23.000Z</time>
      </trkpt>
      <trkpt lat="43.73371" lon="7.05386">
        <ele>795.59997558594</ele>
        <time>2011-04-03T14:31:29.000Z</time>
      </trkpt>
      <trkpt lat="43.7337" lon="7.05377">
        <ele>795.59997558594</ele>
        <time>2011-04-03T14:31:32.000Z</time>
      </trkpt>
      <trkpt lat="43.7337" lon="7.05358">
        <ele>796.20001220703</ele>
        <time>2011-04-03T14:31:38.000Z</time>
      </trkpt>
      <trkpt lat="43.73371" lon="7.0535">
        <ele>796.40002441406</ele>
        <time>2011-04-03T14:31:40.000Z</time>
      </trkpt>
      <trkpt lat="43.73371" lon="7.0533">
        <ele>796.79998779297</ele>
        <time>2011-04-03T14:31:45.000Z</time>
      </trkpt>
      <trkpt lat="43.73371" lon="7.05323">
        <ele>797.20001220703</ele>
        <time>2011-04-03T14:31:47.000Z</time>
      </trkpt>
      <trkpt lat="43.73372" lon="7.05307">
        <ele>798</ele>
        <time>2011-04-03T14:31:52.000Z</time>
      </trkpt>
      <trkpt lat="43.73374" lon="7.05296">
        <ele>798.79998779297</ele>
        <time>2011-04-03T14:31:56.000Z</time>
      </trkpt>
      <trkpt lat="43.73374" lon="7.0529">
        <ele>799.20001220703</ele>
        <time>2011-04-03T14:31:58.000Z</time>
      </trkpt>
      <trkpt lat="43.73376" lon="7.05269">
        <ele>800.40002441406</ele>
        <time>2011-04-03T14:32:06.000Z</time>
      </trkpt>
      <trkpt lat="43.73376" lon="7.05266">
        <ele>800.59997558594</ele>
        <time>2011-04-03T14:32:07.000Z</time>
      </trkpt>
      <trkpt lat="43.73373" lon="7.05244">
        <ele>800.59997558594</ele>
        <time>2011-04-03T14:32:15.000Z</time>
      </trkpt>
      <trkpt lat="43.73368" lon="7.05224">
        <ele>800.40002441406</ele>
        <time>2011-04-03T14:32:23.000Z</time>
      </trkpt>
      <trkpt lat="43.73368" lon="7.0522">
        <ele>800.40002441406</ele>
        <time>2011-04-03T14:32:25.000Z</time>
      </trkpt>
      <trkpt lat="43.73364" lon="7.05206">
        <ele>800.20001220703</ele>
        <time>2011-04-03T14:32:31.000Z</time>
      </trkpt>
      <trkpt lat="43.73364" lon="7.05195">
        <ele>800.59997558594</ele>
        <time>2011-04-03T14:32:36.000Z</time>
      </trkpt>
      <trkpt lat="43.73365" lon="7.05189">
        <ele>801.20001220703</ele>
        <time>2011-04-03T14:32:39.000Z</time>
      </trkpt>
      <trkpt lat="43.73367" lon="7.05169">
        <ele>802.59997558594</ele>
        <time>2011-04-03T14:32:47.000Z</time>
      </trkpt>
      <trkpt lat="43.73368" lon="7.05167">
        <ele>802.79998779297</ele>
        <time>2011-04-03T14:32:48.000Z</time>
      </trkpt>
      <trkpt lat="43.73376" lon="7.05147">
        <ele>806.79998779297</ele>
        <time>2011-04-03T14:32:56.000Z</time>
      </trkpt>
      <trkpt lat="43.73377" lon="7.05144">
        <ele>807.20001220703</ele>
        <time>2011-04-03T14:32:57.000Z</time>
      </trkpt>
      <trkpt lat="43.73373" lon="7.05125">
        <ele>808.40002441406</ele>
        <time>2011-04-03T14:33:02.000Z</time>
      </trkpt>
      <trkpt lat="43.73359" lon="7.05117">
        <ele>806.40002441406</ele>
        <time>2011-04-03T14:33:06.000Z</time>
      </trkpt>
      <trkpt lat="43.73355" lon="7.05115">
        <ele>805.79998779297</ele>
        <time>2011-04-03T14:33:07.000Z</time>
      </trkpt>
      <trkpt lat="43.73341" lon="7.0511">
        <ele>803.40002441406</ele>
        <time>2011-04-03T14:33:12.000Z</time>
      </trkpt>
      <trkpt lat="43.73336" lon="7.05107">
        <ele>802.59997558594</ele>
        <time>2011-04-03T14:33:14.000Z</time>
      </trkpt>
      <trkpt lat="43.73325" lon="7.05093">
        <ele>802.79998779297</ele>
        <time>2011-04-03T14:33:20.000Z</time>
      </trkpt>
      <trkpt lat="43.73322" lon="7.05087">
        <ele>803.20001220703</ele>
        <time>2011-04-03T14:33:22.000Z</time>
      </trkpt>
      <trkpt lat="43.73311" lon="7.0507">
        <ele>804.79998779297</ele>
        <time>2011-04-03T14:33:28.000Z</time>
      </trkpt>
      <trkpt lat="43.7331" lon="7.05068">
        <ele>805.20001220703</ele>
        <time>2011-04-03T14:33:29.000Z</time>
      </trkpt>
      <trkpt lat="43.733" lon="7.05055">
        <ele>806.20001220703</ele>
        <time>2011-04-03T14:33:35.000Z</time>
      </trkpt>
      <trkpt lat="43.73294" lon="7.05052">
        <ele>806</ele>
        <time>2011-04-03T14:33:38.000Z</time>
      </trkpt>
      <trkpt lat="43.73284" lon="7.0505">
        <ele>805.40002441406</ele>
        <time>2011-04-03T14:33:43.000Z</time>
      </trkpt>
      <trkpt lat="43.73276" lon="7.05049">
        <ele>804.59997558594</ele>
        <time>2011-04-03T14:33:47.000Z</time>
      </trkpt>
      <trkpt lat="43.7327" lon="7.05048">
        <ele>804.20001220703</ele>
        <time>2011-04-03T14:33:50.000Z</time>
      </trkpt>
      <trkpt lat="43.73259" lon="7.05043">
        <ele>803.59997558594</ele>
        <time>2011-04-03T14:33:56.000Z</time>
      </trkpt>
      <trkpt lat="43.73253" lon="7.0504">
        <ele>803.59997558594</ele>
        <time>2011-04-03T14:33:59.000Z</time>
      </trkpt>
      <trkpt lat="43.73242" lon="7.05033">
        <ele>802.20001220703</ele>
        <time>2011-04-03T14:34:05.000Z</time>
      </trkpt>
      <trkpt lat="43.73238" lon="7.0503">
        <ele>801.79998779297</ele>
        <time>2011-04-03T14:34:07.000Z</time>
      </trkpt>
      <trkpt lat="43.73227" lon="7.05015">
        <ele>801.40002441406</ele>
        <time>2011-04-03T14:34:13.000Z</time>
      </trkpt>
      <trkpt lat="43.73225" lon="7.05012">
        <ele>801.59997558594</ele>
        <time>2011-04-03T14:34:14.000Z</time>
      </trkpt>
      <trkpt lat="43.73216" lon="7.04991">
        <ele>802.59997558594</ele>
        <time>2011-04-03T14:34:19.000Z</time>
      </trkpt>
      <trkpt lat="43.73214" lon="7.04982">
        <ele>803.20001220703</ele>
        <time>2011-04-03T14:34:21.000Z</time>
      </trkpt>
      <trkpt lat="43.73211" lon="7.04965">
        <ele>804.79998779297</ele>
        <time>2011-04-03T14:34:25.000Z</time>
      </trkpt>
      <trkpt lat="43.7321" lon="7.04953">
        <ele>806.20001220703</ele>
        <time>2011-04-03T14:34:28.000Z</time>
      </trkpt>
      <trkpt lat="43.73208" lon="7.04937">
        <ele>808</ele>
        <time>2011-04-03T14:34:32.000Z</time>
      </trkpt>
      <trkpt lat="43.73206" lon="7.04924">
        <ele>809.59997558594</ele>
        <time>2011-04-03T14:34:35.000Z</time>
      </trkpt>
      <trkpt lat="43.73204" lon="7.0491">
        <ele>810.79998779297</ele>
        <time>2011-04-03T14:34:38.000Z</time>
      </trkpt>
      <trkpt lat="43.73199" lon="7.04897">
        <ele>811.40002441406</ele>
        <time>2011-04-03T14:34:41.000Z</time>
      </trkpt>
      <trkpt lat="43.73192" lon="7.04886">
        <ele>811.59997558594</ele>
        <time>2011-04-03T14:34:44.000Z</time>
      </trkpt>
      <trkpt lat="43.73185" lon="7.04875">
        <ele>811.59997558594</ele>
        <time>2011-04-03T14:34:47.000Z</time>
      </trkpt>
      <trkpt lat="43.73176" lon="7.04868">
        <ele>811.20001220703</ele>
        <time>2011-04-03T14:34:50.000Z</time>
      </trkpt>
      <trkpt lat="43.7317" lon="7.04865">
        <ele>810.40002441406</ele>
        <time>2011-04-03T14:34:52.000Z</time>
      </trkpt>
      <trkpt lat="43.73157" lon="7.04861">
        <ele>810.20001220703</ele>
        <time>2011-04-03T14:34:56.000Z</time>
      </trkpt>
      <trkpt lat="43.73152" lon="7.0486">
        <ele>810</ele>
        <time>2011-04-03T14:34:58.000Z</time>
      </trkpt>
      <trkpt lat="43.73139" lon="7.04859">
        <ele>810</ele>
        <time>2011-04-03T14:35:02.000Z</time>
      </trkpt>
      <trkpt lat="43.73126" lon="7.04858">
        <ele>810</ele>
        <time>2011-04-03T14:35:06.000Z</time>
      </trkpt>
      <trkpt lat="43.73119" lon="7.04859">
        <ele>809.79998779297</ele>
        <time>2011-04-03T14:35:08.000Z</time>
      </trkpt>
      <trkpt lat="43.73109" lon="7.04864">
        <ele>808.79998779297</ele>
        <time>2011-04-03T14:35:11.000Z</time>
      </trkpt>
      <trkpt lat="43.73102" lon="7.04869">
        <ele>807.79998779297</ele>
        <time>2011-04-03T14:35:13.000Z</time>
      </trkpt>
      <trkpt lat="43.73088" lon="7.04883">
        <ele>805</ele>
        <time>2011-04-03T14:35:18.000Z</time>
      </trkpt>
      <trkpt lat="43.73085" lon="7.04886">
        <ele>804.59997558594</ele>
        <time>2011-04-03T14:35:19.000Z</time>
      </trkpt>
      <trkpt lat="43.73069" lon="7.04899">
        <ele>802.59997558594</ele>
        <time>2011-04-03T14:35:24.000Z</time>
      </trkpt>
      <trkpt lat="43.73066" lon="7.04901">
        <ele>802.20001220703</ele>
        <time>2011-04-03T14:35:25.000Z</time>
      </trkpt>
      <trkpt lat="43.73051" lon="7.04914">
        <ele>800.79998779297</ele>
        <time>2011-04-03T14:35:30.000Z</time>
      </trkpt>
      <trkpt lat="43.73045" lon="7.04916">
        <ele>800.79998779297</ele>
        <time>2011-04-03T14:35:32.000Z</time>
      </trkpt>
      <trkpt lat="43.73032" lon="7.04909">
        <ele>802.40002441406</ele>
        <time>2011-04-03T14:35:36.000Z</time>
      </trkpt>
      <trkpt lat="43.73019" lon="7.04893">
        <ele>805</ele>
        <time>2011-04-03T14:35:43.000Z</time>
      </trkpt>
      <trkpt lat="43.73017" lon="7.04891">
        <ele>805.20001220703</ele>
        <time>2011-04-03T14:35:44.000Z</time>
      </trkpt>
      <trkpt lat="43.73006" lon="7.04876">
        <ele>807.20001220703</ele>
        <time>2011-04-03T14:35:51.000Z</time>
      </trkpt>
      <trkpt lat="43.73002" lon="7.04873">
        <ele>807.59997558594</ele>
        <time>2011-04-03T14:35:53.000Z</time>
      </trkpt>
      <trkpt lat="43.72992" lon="7.04865">
        <ele>807.59997558594</ele>
        <time>2011-04-03T14:35:58.000Z</time>
      </trkpt>
      <trkpt lat="43.72985" lon="7.0486">
        <ele>807.59997558594</ele>
        <time>2011-04-03T14:36:01.000Z</time>
      </trkpt>
      <trkpt lat="43.72978" lon="7.04855">
        <ele>807.40002441406</ele>
        <time>2011-04-03T14:36:04.000Z</time>
      </trkpt>
      <trkpt lat="43.72971" lon="7.04845">
        <ele>807.59997558594</ele>
        <time>2011-04-03T14:36:08.000Z</time>
      </trkpt>
      <trkpt lat="43.72967" lon="7.04836">
        <ele>808.20001220703</ele>
        <time>2011-04-03T14:36:11.000Z</time>
      </trkpt>
      <trkpt lat="43.72969" lon="7.04819">
        <ele>809.40002441406</ele>
        <time>2011-04-03T14:36:17.000Z</time>
      </trkpt>
      <trkpt lat="43.72973" lon="7.04801">
        <ele>811</ele>
        <time>2011-04-03T14:36:25.000Z</time>
      </trkpt>
      <trkpt lat="43.72973" lon="7.04794">
        <ele>811.40002441406</ele>
        <time>2011-04-03T14:36:28.000Z</time>
      </trkpt>
      <trkpt lat="43.72972" lon="7.04782">
        <ele>812</ele>
        <time>2011-04-03T14:36:33.000Z</time>
      </trkpt>
      <trkpt lat="43.7297" lon="7.04769">
        <ele>812.40002441406</ele>
        <time>2011-04-03T14:36:39.000Z</time>
      </trkpt>
      <trkpt lat="43.72969" lon="7.04767">
        <ele>812.40002441406</ele>
        <time>2011-04-03T14:36:40.000Z</time>
      </trkpt>
      <trkpt lat="43.72964" lon="7.04751">
        <ele>812.59997558594</ele>
        <time>2011-04-03T14:36:47.000Z</time>
      </trkpt>
      <trkpt lat="43.72964" lon="7.04744">
        <ele>813.40002441406</ele>
        <time>2011-04-03T14:36:50.000Z</time>
      </trkpt>
      <trkpt lat="43.72967" lon="7.04739">
        <ele>814.40002441406</ele>
        <time>2011-04-03T14:36:53.000Z</time>
      </trkpt>
      <trkpt lat="43.72971" lon="7.04731">
        <ele>816</ele>
        <time>2011-04-03T14:36:59.000Z</time>
      </trkpt>
      <trkpt lat="43.72973" lon="7.04731">
        <ele>816.20001220703</ele>
        <time>2011-04-03T14:37:10.000Z</time>
      </trkpt>
      <trkpt lat="43.72976" lon="7.04733">
        <ele>816.40002441406</ele>
        <time>2011-04-03T14:37:47.000Z</time>
      </trkpt>
      <trkpt lat="43.72977" lon="7.04733">
        <ele>816.40002441406</ele>
        <time>2011-04-03T14:37:48.000Z</time>
      </trkpt>
      <trkpt lat="43.72984" lon="7.04732">
        <ele>817.59997558594</ele>
        <time>2011-04-03T14:37:52.000Z</time>
      </trkpt>
      <trkpt lat="43.72995" lon="7.0473">
        <ele>819.20001220703</ele>
        <time>2011-04-03T14:37:58.000Z</time>
      </trkpt>
      <trkpt lat="43.72998" lon="7.04729">
        <ele>819.79998779297</ele>
        <time>2011-04-03T14:38:00.000Z</time>
      </trkpt>
      <trkpt lat="43.73009" lon="7.0473">
        <ele>821.20001220703</ele>
        <time>2011-04-03T14:38:07.000Z</time>
      </trkpt>
      <trkpt lat="43.7301" lon="7.0473">
        <ele>821.40002441406</ele>
        <time>2011-04-03T14:38:08.000Z</time>
      </trkpt>
      <trkpt lat="43.73013" lon="7.04732">
        <ele>821.59997558594</ele>
        <time>2011-04-03T14:38:10.000Z</time>
      </trkpt>
      <trkpt lat="43.73018" lon="7.04733">
        <ele>822</ele>
        <time>2011-04-03T14:38:13.000Z</time>
      </trkpt>
      <trkpt lat="43.73029" lon="7.04737">
        <ele>823</ele>
        <time>2011-04-03T14:38:21.000Z</time>
      </trkpt>
      <trkpt lat="43.73031" lon="7.04738">
        <ele>823.20001220703</ele>
        <time>2011-04-03T14:38:23.000Z</time>
      </trkpt>
      <trkpt lat="43.73037" lon="7.04739">
        <ele>824</ele>
        <time>2011-04-03T14:38:28.000Z</time>
      </trkpt>
      <trkpt lat="43.73048" lon="7.04739">
        <ele>825.20001220703</ele>
        <time>2011-04-03T14:38:37.000Z</time>
      </trkpt>
      <trkpt lat="43.7305" lon="7.04739">
        <ele>825.40002441406</ele>
        <time>2011-04-03T14:38:38.000Z</time>
      </trkpt>
      <trkpt lat="43.73058" lon="7.04738">
        <ele>826.59997558594</ele>
        <time>2011-04-03T14:38:44.000Z</time>
      </trkpt>
      <trkpt lat="43.73067" lon="7.04737">
        <ele>828</ele>
        <time>2011-04-03T14:38:51.000Z</time>
      </trkpt>
      <trkpt lat="43.73069" lon="7.04737">
        <ele>828.20001220703</ele>
        <time>2011-04-03T14:38:52.000Z</time>
      </trkpt>
      <trkpt lat="43.73079" lon="7.04736">
        <ele>829.59997558594</ele>
        <time>2011-04-03T14:38:59.000Z</time>
      </trkpt>
      <trkpt lat="43.73087" lon="7.04735">
        <ele>830.59997558594</ele>
        <time>2011-04-03T14:39:05.000Z</time>
      </trkpt>
      <trkpt lat="43.7309" lon="7.04734">
        <ele>830.79998779297</ele>
        <time>2011-04-03T14:39:07.000Z</time>
      </trkpt>
      <trkpt lat="43.73104" lon="7.04733">
        <ele>832</ele>
        <time>2011-04-03T14:39:16.000Z</time>
      </trkpt>
      <trkpt lat="43.73106" lon="7.04733">
        <ele>832</ele>
        <time>2011-04-03T14:39:17.000Z</time>
      </trkpt>
      <trkpt lat="43.73112" lon="7.04732">
        <ele>832.59997558594</ele>
        <time>2011-04-03T14:39:21.000Z</time>
      </trkpt>
      <trkpt lat="43.73113" lon="7.0473">
        <ele>833</ele>
        <time>2011-04-03T14:39:22.000Z</time>
      </trkpt>
      <trkpt lat="43.73115" lon="7.04722">
        <ele>834.59997558594</ele>
        <time>2011-04-03T14:39:27.000Z</time>
      </trkpt>
      <trkpt lat="43.73113" lon="7.04719">
        <ele>835.20001220703</ele>
        <time>2011-04-03T14:39:29.000Z</time>
      </trkpt>
      <trkpt lat="43.73112" lon="7.04718">
        <ele>835.40002441406</ele>
        <time>2011-04-03T14:39:30.000Z</time>
      </trkpt>
      <trkpt lat="43.73109" lon="7.04714">
        <ele>836</ele>
        <time>2011-04-03T14:39:33.000Z</time>
      </trkpt>
      <trkpt lat="43.73106" lon="7.0471">
        <ele>836.59997558594</ele>
        <time>2011-04-03T14:39:36.000Z</time>
      </trkpt>
      <trkpt lat="43.73098" lon="7.04701">
        <ele>837.59997558594</ele>
        <time>2011-04-03T14:39:43.000Z</time>
      </trkpt>
      <trkpt lat="43.73097" lon="7.04699">
        <ele>837.59997558594</ele>
        <time>2011-04-03T14:39:44.000Z</time>
      </trkpt>
      <trkpt lat="43.73086" lon="7.04687">
        <ele>838.79998779297</ele>
        <time>2011-04-03T14:39:53.000Z</time>
      </trkpt>
      <trkpt lat="43.73084" lon="7.04683">
        <ele>839.20001220703</ele>
        <time>2011-04-03T14:39:55.000Z</time>
      </trkpt>
      <trkpt lat="43.73079" lon="7.04678">
        <ele>839.20001220703</ele>
        <time>2011-04-03T14:39:59.000Z</time>
      </trkpt>
      <trkpt lat="43.7307" lon="7.04666">
        <ele>839.59997558594</ele>
        <time>2011-04-03T14:40:06.000Z</time>
      </trkpt>
      <trkpt lat="43.73068" lon="7.04664">
        <ele>839.59997558594</ele>
        <time>2011-04-03T14:40:07.000Z</time>
      </trkpt>
      <trkpt lat="43.73057" lon="7.0465">
        <ele>840.20001220703</ele>
        <time>2011-04-03T14:40:15.000Z</time>
      </trkpt>
      <trkpt lat="43.73056" lon="7.04648">
        <ele>840.40002441406</ele>
        <time>2011-04-03T14:40:16.000Z</time>
      </trkpt>
      <trkpt lat="43.73045" lon="7.04634">
        <ele>841</ele>
        <time>2011-04-03T14:40:24.000Z</time>
      </trkpt>
      <trkpt lat="43.73043" lon="7.0463">
        <ele>841.20001220703</ele>
        <time>2011-04-03T14:40:26.000Z</time>
      </trkpt>
      <trkpt lat="43.73032" lon="7.04616">
        <ele>841.79998779297</ele>
        <time>2011-04-03T14:40:34.000Z</time>
      </trkpt>
      <trkpt lat="43.73029" lon="7.04613">
        <ele>841.79998779297</ele>
        <time>2011-04-03T14:40:36.000Z</time>
      </trkpt>
      <trkpt lat="43.73019" lon="7.04602">
        <ele>842</ele>
        <time>2011-04-03T14:40:43.000Z</time>
      </trkpt>
      <trkpt lat="43.73014" lon="7.04597">
        <ele>842</ele>
        <time>2011-04-03T14:40:47.000Z</time>
      </trkpt>
      <trkpt lat="43.73004" lon="7.04588">
        <ele>841.79998779297</ele>
        <time>2011-04-03T14:40:54.000Z</time>
      </trkpt>
      <trkpt lat="43.72998" lon="7.04581">
        <ele>842</ele>
        <time>2011-04-03T14:40:58.000Z</time>
      </trkpt>
      <trkpt lat="43.72991" lon="7.04575">
        <ele>842.20001220703</ele>
        <time>2011-04-03T14:41:03.000Z</time>
      </trkpt>
      <trkpt lat="43.72983" lon="7.04568">
        <ele>842.20001220703</ele>
        <time>2011-04-03T14:41:09.000Z</time>
      </trkpt>
      <trkpt lat="43.72982" lon="7.04567">
        <ele>842.20001220703</ele>
        <time>2011-04-03T14:41:10.000Z</time>
      </trkpt>
      <trkpt lat="43.72972" lon="7.04559">
        <ele>842</ele>
        <time>2011-04-03T14:41:17.000Z</time>
      </trkpt>
      <trkpt lat="43.72967" lon="7.04554">
        <ele>841.79998779297</ele>
        <time>2011-04-03T14:41:21.000Z</time>
      </trkpt>
      <trkpt lat="43.72963" lon="7.0455">
        <ele>841.59997558594</ele>
        <time>2011-04-03T14:41:24.000Z</time>
      </trkpt>
      <trkpt lat="43.72955" lon="7.04542">
        <ele>841.20001220703</ele>
        <time>2011-04-03T14:41:30.000Z</time>
      </trkpt>
      <trkpt lat="43.72952" lon="7.04539">
        <ele>841</ele>
        <time>2011-04-03T14:41:32.000Z</time>
      </trkpt>
      <trkpt lat="43.72942" lon="7.04533">
        <ele>840.20001220703</ele>
        <time>2011-04-03T14:41:37.000Z</time>
      </trkpt>
      <trkpt lat="43.72935" lon="7.04526">
        <ele>839.59997558594</ele>
        <time>2011-04-03T14:41:41.000Z</time>
      </trkpt>
      <trkpt lat="43.72933" lon="7.04522">
        <ele>839.40002441406</ele>
        <time>2011-04-03T14:41:43.000Z</time>
      </trkpt>
      <trkpt lat="43.72927" lon="7.04509">
        <ele>839.40002441406</ele>
        <time>2011-04-03T14:41:48.000Z</time>
      </trkpt>
      <trkpt lat="43.72927" lon="7.04505">
        <ele>839.79998779297</ele>
        <time>2011-04-03T14:41:49.000Z</time>
      </trkpt>
      <trkpt lat="43.72931" lon="7.04488">
        <ele>840.40002441406</ele>
        <time>2011-04-03T14:41:53.000Z</time>
      </trkpt>
      <trkpt lat="43.72933" lon="7.04483">
        <ele>840.59997558594</ele>
        <time>2011-04-03T14:41:54.000Z</time>
      </trkpt>
      <trkpt lat="43.72939" lon="7.04459">
        <ele>841.20001220703</ele>
        <time>2011-04-03T14:41:58.000Z</time>
      </trkpt>
      <trkpt lat="43.7294" lon="7.04452">
        <ele>841.40002441406</ele>
        <time>2011-04-03T14:41:59.000Z</time>
      </trkpt>
      <trkpt lat="43.72941" lon="7.04438">
        <ele>841.20001220703</ele>
        <time>2011-04-03T14:42:01.000Z</time>
      </trkpt>
      <trkpt lat="43.72941" lon="7.04432">
        <ele>840.79998779297</ele>
        <time>2011-04-03T14:42:02.000Z</time>
      </trkpt>
      <trkpt lat="43.72941" lon="7.04418">
        <ele>840.59997558594</ele>
        <time>2011-04-03T14:42:04.000Z</time>
      </trkpt>
      <trkpt lat="43.72942" lon="7.04403">
        <ele>840</ele>
        <time>2011-04-03T14:42:06.000Z</time>
      </trkpt>
      <trkpt lat="43.72942" lon="7.04385">
        <ele>839</ele>
        <time>2011-04-03T14:42:08.000Z</time>
      </trkpt>
      <trkpt lat="43.72942" lon="7.04375">
        <ele>838.40002441406</ele>
        <time>2011-04-03T14:42:09.000Z</time>
      </trkpt>
      <trkpt lat="43.72941" lon="7.04347">
        <ele>836.79998779297</ele>
        <time>2011-04-03T14:42:12.000Z</time>
      </trkpt>
      <trkpt lat="43.72942" lon="7.04331">
        <ele>836.20001220703</ele>
        <time>2011-04-03T14:42:14.000Z</time>
      </trkpt>
      <trkpt lat="43.72941" lon="7.04311">
        <ele>836.20001220703</ele>
        <time>2011-04-03T14:42:16.000Z</time>
      </trkpt>
      <trkpt lat="43.72941" lon="7.04307">
        <ele>836.20001220703</ele>
        <time>2011-04-03T14:42:18.000Z</time>
      </trkpt>
      <trkpt lat="43.72942" lon="7.04305">
        <ele>836.59997558594</ele>
        <time>2011-04-03T14:42:21.000Z</time>
      </trkpt>
      <trkpt lat="43.72945" lon="7.04297">
        <ele>837.59997558594</ele>
        <time>2011-04-03T14:42:43.000Z</time>
      </trkpt>
      <trkpt lat="43.72945" lon="7.04293">
        <ele>837.79998779297</ele>
        <time>2011-04-03T14:42:44.000Z</time>
      </trkpt>
      <trkpt lat="43.72948" lon="7.04278">
        <ele>838.79998779297</ele>
        <time>2011-04-03T14:42:47.000Z</time>
      </trkpt>
      <trkpt lat="43.72948" lon="7.04263">
        <ele>839</ele>
        <time>2011-04-03T14:42:50.000Z</time>
      </trkpt>
      <trkpt lat="43.72949" lon="7.04256">
        <ele>839.40002441406</ele>
        <time>2011-04-03T14:42:51.000Z</time>
      </trkpt>
      <trkpt lat="43.72955" lon="7.04241">
        <ele>841.20001220703</ele>
        <time>2011-04-03T14:42:53.000Z</time>
      </trkpt>
      <trkpt lat="43.72958" lon="7.04234">
        <ele>841.59997558594</ele>
        <time>2011-04-03T14:42:54.000Z</time>
      </trkpt>
      <trkpt lat="43.72959" lon="7.04226">
        <ele>841.79998779297</ele>
        <time>2011-04-03T14:42:55.000Z</time>
      </trkpt>
      <trkpt lat="43.72957" lon="7.04213">
        <ele>841</ele>
        <time>2011-04-03T14:42:58.000Z</time>
      </trkpt>
      <trkpt lat="43.7295" lon="7.04209">
        <ele>838.79998779297</ele>
        <time>2011-04-03T14:43:02.000Z</time>
      </trkpt>
      <trkpt lat="43.72945" lon="7.04204">
        <ele>837.20001220703</ele>
        <time>2011-04-03T14:43:07.000Z</time>
      </trkpt>
      <trkpt lat="43.72945" lon="7.04201">
        <ele>837.20001220703</ele>
        <time>2011-04-03T14:43:12.000Z</time>
      </trkpt>
      <trkpt lat="43.72946" lon="7.04197">
        <ele>837.20001220703</ele>
        <time>2011-04-03T14:43:13.000Z</time>
      </trkpt>
      <trkpt lat="43.7295" lon="7.04174">
        <ele>837.79998779297</ele>
        <time>2011-04-03T14:43:16.000Z</time>
      </trkpt>
      <trkpt lat="43.72951" lon="7.04168">
        <ele>838</ele>
        <time>2011-04-03T14:43:18.000Z</time>
      </trkpt>
      <trkpt lat="43.72952" lon="7.04155">
        <ele>839.79998779297</ele>
        <time>2011-04-03T14:43:20.000Z</time>
      </trkpt>
      <trkpt lat="43.72946" lon="7.04137">
        <ele>841</ele>
        <time>2011-04-03T14:43:23.000Z</time>
      </trkpt>
      <trkpt lat="43.72942" lon="7.04134">
        <ele>840.79998779297</ele>
        <time>2011-04-03T14:43:24.000Z</time>
      </trkpt>
      <trkpt lat="43.72935" lon="7.04132">
        <ele>839.59997558594</ele>
        <time>2011-04-03T14:43:26.000Z</time>
      </trkpt>
      <trkpt lat="43.72932" lon="7.04132">
        <ele>839.20001220703</ele>
        <time>2011-04-03T14:43:27.000Z</time>
      </trkpt>
      <trkpt lat="43.72929" lon="7.04132">
        <ele>838.59997558594</ele>
        <time>2011-04-03T14:43:28.000Z</time>
      </trkpt>
      <trkpt lat="43.72922" lon="7.0413">
        <ele>837.59997558594</ele>
        <time>2011-04-03T14:43:31.000Z</time>
      </trkpt>
      <trkpt lat="43.72919" lon="7.0413">
        <ele>837.20001220703</ele>
        <time>2011-04-03T14:43:32.000Z</time>
      </trkpt>
      <trkpt lat="43.72903" lon="7.04129">
        <ele>835.20001220703</ele>
        <time>2011-04-03T14:43:39.000Z</time>
      </trkpt>
      <trkpt lat="43.72889" lon="7.04133">
        <ele>832.40002441406</ele>
        <time>2011-04-03T14:43:46.000Z</time>
      </trkpt>
      <trkpt lat="43.72885" lon="7.04134">
        <ele>831.59997558594</ele>
        <time>2011-04-03T14:43:48.000Z</time>
      </trkpt>
      <trkpt lat="43.7287" lon="7.04135">
        <ele>829.40002441406</ele>
        <time>2011-04-03T14:43:55.000Z</time>
      </trkpt>
      <trkpt lat="43.72864" lon="7.04134">
        <ele>829</ele>
        <time>2011-04-03T14:43:56.000Z</time>
      </trkpt>
      <trkpt lat="43.7285" lon="7.04131">
        <ele>828</ele>
        <time>2011-04-03T14:44:01.000Z</time>
      </trkpt>
      <trkpt lat="43.72829" lon="7.04124">
        <ele>827.59997558594</ele>
        <time>2011-04-03T14:44:05.000Z</time>
      </trkpt>
      <trkpt lat="43.72816" lon="7.04118">
        <ele>828.40002441406</ele>
        <time>2011-04-03T14:44:06.000Z</time>
      </trkpt>
      <trkpt lat="43.72809" lon="7.04115">
        <ele>828.79998779297</ele>
        <time>2011-04-03T14:44:08.000Z</time>
      </trkpt>
      <trkpt lat="43.72803" lon="7.04113">
        <ele>829</ele>
        <time>2011-04-03T14:44:09.000Z</time>
      </trkpt>
      <trkpt lat="43.72797" lon="7.04114">
        <ele>828.40002441406</ele>
        <time>2011-04-03T14:44:10.000Z</time>
      </trkpt>
      <trkpt lat="43.72791" lon="7.04117">
        <ele>827.40002441406</ele>
        <time>2011-04-03T14:44:11.000Z</time>
      </trkpt>
      <trkpt lat="43.72768" lon="7.04128">
        <ele>823.59997558594</ele>
        <time>2011-04-03T14:44:15.000Z</time>
      </trkpt>
      <trkpt lat="43.72752" lon="7.04135">
        <ele>821.20001220703</ele>
        <time>2011-04-03T14:44:18.000Z</time>
      </trkpt>
      <trkpt lat="43.72746" lon="7.04136">
        <ele>820.40002441406</ele>
        <time>2011-04-03T14:44:19.000Z</time>
      </trkpt>
      <trkpt lat="43.72718" lon="7.04137">
        <ele>816.79998779297</ele>
        <time>2011-04-03T14:44:23.000Z</time>
      </trkpt>
      <trkpt lat="43.72712" lon="7.04137">
        <ele>816.20001220703</ele>
        <time>2011-04-03T14:44:25.000Z</time>
      </trkpt>
      <trkpt lat="43.72702" lon="7.04136">
        <ele>815.20001220703</ele>
        <time>2011-04-03T14:44:27.000Z</time>
      </trkpt>
      <trkpt lat="43.72697" lon="7.04135">
        <ele>815</ele>
        <time>2011-04-03T14:44:28.000Z</time>
      </trkpt>
      <trkpt lat="43.72688" lon="7.0413">
        <ele>815</ele>
        <time>2011-04-03T14:44:30.000Z</time>
      </trkpt>
      <trkpt lat="43.72683" lon="7.04127">
        <ele>815.20001220703</ele>
        <time>2011-04-03T14:44:31.000Z</time>
      </trkpt>
      <trkpt lat="43.72678" lon="7.04124">
        <ele>815.59997558594</ele>
        <time>2011-04-03T14:44:32.000Z</time>
      </trkpt>
      <trkpt lat="43.72667" lon="7.04116">
        <ele>816.40002441406</ele>
        <time>2011-04-03T14:44:34.000Z</time>
      </trkpt>
      <trkpt lat="43.72651" lon="7.04105">
        <ele>817</ele>
        <time>2011-04-03T14:44:36.000Z</time>
      </trkpt>
      <trkpt lat="43.72646" lon="7.04102">
        <ele>817.20001220703</ele>
        <time>2011-04-03T14:44:38.000Z</time>
      </trkpt>
      <trkpt lat="43.72635" lon="7.04097">
        <ele>816.79998779297</ele>
        <time>2011-04-03T14:44:40.000Z</time>
      </trkpt>
      <trkpt lat="43.72625" lon="7.04095">
        <ele>815.79998779297</ele>
        <time>2011-04-03T14:44:44.000Z</time>
      </trkpt>
      <trkpt lat="43.72611" lon="7.04094">
        <ele>814.20001220703</ele>
        <time>2011-04-03T14:44:46.000Z</time>
      </trkpt>
      <trkpt lat="43.72601" lon="7.04089">
        <ele>814</ele>
        <time>2011-04-03T14:44:48.000Z</time>
      </trkpt>
      <trkpt lat="43.72597" lon="7.04085">
        <ele>814.40002441406</ele>
        <time>2011-04-03T14:44:50.000Z</time>
      </trkpt>
      <trkpt lat="43.72588" lon="7.04075">
        <ele>816</ele>
        <time>2011-04-03T14:44:52.000Z</time>
      </trkpt>
      <trkpt lat="43.72583" lon="7.04072">
        <ele>816.40002441406</ele>
        <time>2011-04-03T14:44:53.000Z</time>
      </trkpt>
      <trkpt lat="43.72563" lon="7.04069">
        <ele>814.79998779297</ele>
        <time>2011-04-03T14:44:56.000Z</time>
      </trkpt>
      <trkpt lat="43.72549" lon="7.04064">
        <ele>814.40002441406</ele>
        <time>2011-04-03T14:45:01.000Z</time>
      </trkpt>
      <trkpt lat="43.72549" lon="7.04064">
        <ele>814.40002441406</ele>
        <time>2011-04-03T14:45:02.000Z</time>
      </trkpt>
      <trkpt lat="43.72546" lon="7.04062">
        <ele>814.59997558594</ele>
        <time>2011-04-03T14:45:03.000Z</time>
      </trkpt>
      <trkpt lat="43.72527" lon="7.0405">
        <ele>815.59997558594</ele>
        <time>2011-04-03T14:45:10.000Z</time>
      </trkpt>
      <trkpt lat="43.72524" lon="7.04048">
        <ele>815.79998779297</ele>
        <time>2011-04-03T14:45:11.000Z</time>
      </trkpt>
      <trkpt lat="43.72514" lon="7.0404">
        <ele>816.79998779297</ele>
        <time>2011-04-03T14:45:16.000Z</time>
      </trkpt>
      <trkpt lat="43.7251" lon="7.04037">
        <ele>816.79998779297</ele>
        <time>2011-04-03T14:45:18.000Z</time>
      </trkpt>
      <trkpt lat="43.725" lon="7.04034">
        <ele>816.59997558594</ele>
        <time>2011-04-03T14:45:22.000Z</time>
      </trkpt>
      <trkpt lat="43.72495" lon="7.04032">
        <ele>816.20001220703</ele>
        <time>2011-04-03T14:45:25.000Z</time>
      </trkpt>
      <trkpt lat="43.72485" lon="7.0403">
        <ele>815</ele>
        <time>2011-04-03T14:45:28.000Z</time>
      </trkpt>
      <trkpt lat="43.72474" lon="7.04025">
        <ele>814</ele>
        <time>2011-04-03T14:45:30.000Z</time>
      </trkpt>
      <trkpt lat="43.72463" lon="7.04021">
        <ele>813.20001220703</ele>
        <time>2011-04-03T14:45:32.000Z</time>
      </trkpt>
      <trkpt lat="43.72453" lon="7.04011">
        <ele>813.59997558594</ele>
        <time>2011-04-03T14:45:34.000Z</time>
      </trkpt>
      <trkpt lat="43.72444" lon="7.03999">
        <ele>814.79998779297</ele>
        <time>2011-04-03T14:45:36.000Z</time>
      </trkpt>
      <trkpt lat="43.7244" lon="7.03993">
        <ele>815.40002441406</ele>
        <time>2011-04-03T14:45:37.000Z</time>
      </trkpt>
      <trkpt lat="43.72436" lon="7.03986">
        <ele>816.20001220703</ele>
        <time>2011-04-03T14:45:38.000Z</time>
      </trkpt>
      <trkpt lat="43.72432" lon="7.0398">
        <ele>817</ele>
        <time>2011-04-03T14:45:40.000Z</time>
      </trkpt>
      <trkpt lat="43.72424" lon="7.03964">
        <ele>819.20001220703</ele>
        <time>2011-04-03T14:45:41.000Z</time>
      </trkpt>
      <trkpt lat="43.72419" lon="7.03949">
        <ele>821.79998779297</ele>
        <time>2011-04-03T14:45:43.000Z</time>
      </trkpt>
      <trkpt lat="43.72417" lon="7.03943">
        <ele>822.59997558594</ele>
        <time>2011-04-03T14:45:45.000Z</time>
      </trkpt>
      <trkpt lat="43.72405" lon="7.03937">
        <ele>824.59997558594</ele>
        <time>2011-04-03T14:45:47.000Z</time>
      </trkpt>
      <trkpt lat="43.72401" lon="7.0394">
        <ele>824</ele>
        <time>2011-04-03T14:45:48.000Z</time>
      </trkpt>
      <trkpt lat="43.72398" lon="7.03943">
        <ele>823.40002441406</ele>
        <time>2011-04-03T14:45:49.000Z</time>
      </trkpt>
      <trkpt lat="43.72392" lon="7.03949">
        <ele>822.20001220703</ele>
        <time>2011-04-03T14:45:52.000Z</time>
      </trkpt>
      <trkpt lat="43.72377" lon="7.03964">
        <ele>819</ele>
        <time>2011-04-03T14:45:55.000Z</time>
      </trkpt>
      <trkpt lat="43.72372" lon="7.03968">
        <ele>818.20001220703</ele>
        <time>2011-04-03T14:45:56.000Z</time>
      </trkpt>
      <trkpt lat="43.72363" lon="7.03976">
        <ele>816.40002441406</ele>
        <time>2011-04-03T14:45:58.000Z</time>
      </trkpt>
      <trkpt lat="43.72354" lon="7.03983">
        <ele>814.79998779297</ele>
        <time>2011-04-03T14:46:00.000Z</time>
      </trkpt>
      <trkpt lat="43.72354" lon="7.03983">
        <ele>814.79998779297</ele>
        <time>2011-04-03T14:46:01.000Z</time>
      </trkpt>
      <trkpt lat="43.72345" lon="7.0399">
        <ele>813.40002441406</ele>
        <time>2011-04-03T14:46:02.000Z</time>
      </trkpt>
      <trkpt lat="43.72335" lon="7.03993">
        <ele>812.79998779297</ele>
        <time>2011-04-03T14:46:04.000Z</time>
      </trkpt>
      <trkpt lat="43.72325" lon="7.03994">
        <ele>812.79998779297</ele>
        <time>2011-04-03T14:46:06.000Z</time>
      </trkpt>
      <trkpt lat="43.72316" lon="7.03991">
        <ele>813.79998779297</ele>
        <time>2011-04-03T14:46:08.000Z</time>
      </trkpt>
      <trkpt lat="43.72308" lon="7.03989">
        <ele>814.59997558594</ele>
        <time>2011-04-03T14:46:10.000Z</time>
      </trkpt>
      <trkpt lat="43.72304" lon="7.03988">
        <ele>814.79998779297</ele>
        <time>2011-04-03T14:46:11.000Z</time>
      </trkpt>
      <trkpt lat="43.72297" lon="7.03989">
        <ele>814.59997558594</ele>
        <time>2011-04-03T14:46:13.000Z</time>
      </trkpt>
      <trkpt lat="43.72288" lon="7.03991">
        <ele>814.59997558594</ele>
        <time>2011-04-03T14:46:16.000Z</time>
      </trkpt>
      <trkpt lat="43.72284" lon="7.0399">
        <ele>814.79998779297</ele>
        <time>2011-04-03T14:46:17.000Z</time>
      </trkpt>
      <trkpt lat="43.72276" lon="7.03989">
        <ele>815.40002441406</ele>
        <time>2011-04-03T14:46:19.000Z</time>
      </trkpt>
      <trkpt lat="43.72272" lon="7.03987">
        <ele>815.79998779297</ele>
        <time>2011-04-03T14:46:21.000Z</time>
      </trkpt>
      <trkpt lat="43.72259" lon="7.03981">
        <ele>817.40002441406</ele>
        <time>2011-04-03T14:46:23.000Z</time>
      </trkpt>
      <trkpt lat="43.72247" lon="7.03976">
        <ele>818</ele>
        <time>2011-04-03T14:46:26.000Z</time>
      </trkpt>
      <trkpt lat="43.72242" lon="7.03972">
        <ele>818.20001220703</ele>
        <time>2011-04-03T14:46:29.000Z</time>
      </trkpt>
      <trkpt lat="43.72239" lon="7.0397">
        <ele>818</ele>
        <time>2011-04-03T14:46:30.000Z</time>
      </trkpt>
      <trkpt lat="43.72238" lon="7.03969">
        <ele>818.20001220703</ele>
        <time>2011-04-03T14:46:34.000Z</time>
      </trkpt>
      <trkpt lat="43.72242" lon="7.03971">
        <ele>818.40002441406</ele>
        <time>2011-04-03T14:46:57.000Z</time>
      </trkpt>
      <trkpt lat="43.72236" lon="7.03973">
        <ele>817.20001220703</ele>
        <time>2011-04-03T14:48:41.000Z</time>
      </trkpt>
      <trkpt lat="43.72219" lon="7.03966">
        <ele>815.79998779297</ele>
        <time>2011-04-03T14:48:46.000Z</time>
      </trkpt>
      <trkpt lat="43.722" lon="7.03954">
        <ele>814.79998779297</ele>
        <time>2011-04-03T14:48:51.000Z</time>
      </trkpt>
      <trkpt lat="43.72193" lon="7.03949">
        <ele>814.40002441406</ele>
        <time>2011-04-03T14:48:53.000Z</time>
      </trkpt>
      <trkpt lat="43.72185" lon="7.03941">
        <ele>814</ele>
        <time>2011-04-03T14:48:56.000Z</time>
      </trkpt>
      <trkpt lat="43.72172" lon="7.03929">
        <ele>813.40002441406</ele>
        <time>2011-04-03T14:49:00.000Z</time>
      </trkpt>
      <trkpt lat="43.72169" lon="7.03926">
        <ele>813.20001220703</ele>
        <time>2011-04-03T14:49:01.000Z</time>
      </trkpt>
      <trkpt lat="43.72154" lon="7.03905">
        <ele>812</ele>
        <time>2011-04-03T14:49:06.000Z</time>
      </trkpt>
      <trkpt lat="43.72144" lon="7.03884">
        <ele>811.40002441406</ele>
        <time>2011-04-03T14:49:11.000Z</time>
      </trkpt>
      <trkpt lat="43.72139" lon="7.03876">
        <ele>811</ele>
        <time>2011-04-03T14:49:13.000Z</time>
      </trkpt>
      <trkpt lat="43.72133" lon="7.03859">
        <ele>811.20001220703</ele>
        <time>2011-04-03T14:49:16.000Z</time>
      </trkpt>
      <trkpt lat="43.7213" lon="7.03848">
        <ele>811.59997558594</ele>
        <time>2011-04-03T14:49:18.000Z</time>
      </trkpt>
      <trkpt lat="43.72127" lon="7.03837">
        <ele>812</ele>
        <time>2011-04-03T14:49:21.000Z</time>
      </trkpt>
      <trkpt lat="43.72124" lon="7.03827">
        <ele>811.59997558594</ele>
        <time>2011-04-03T14:49:22.000Z</time>
      </trkpt>
      <trkpt lat="43.72121" lon="7.0381">
        <ele>810.40002441406</ele>
        <time>2011-04-03T14:49:25.000Z</time>
      </trkpt>
      <trkpt lat="43.72121" lon="7.03804">
        <ele>810.40002441406</ele>
        <time>2011-04-03T14:49:26.000Z</time>
      </trkpt>
      <trkpt lat="43.72124" lon="7.03783">
        <ele>810.79998779297</ele>
        <time>2011-04-03T14:49:29.000Z</time>
      </trkpt>
      <trkpt lat="43.72125" lon="7.03776">
        <ele>810.79998779297</ele>
        <time>2011-04-03T14:49:30.000Z</time>
      </trkpt>
      <trkpt lat="43.72127" lon="7.03761">
        <ele>811.20001220703</ele>
        <time>2011-04-03T14:49:32.000Z</time>
      </trkpt>
      <trkpt lat="43.72127" lon="7.03746">
        <ele>811.20001220703</ele>
        <time>2011-04-03T14:49:34.000Z</time>
      </trkpt>
      <trkpt lat="43.72131" lon="7.03721">
        <ele>812.79998779297</ele>
        <time>2011-04-03T14:49:38.000Z</time>
      </trkpt>
      <trkpt lat="43.72133" lon="7.03717">
        <ele>813.59997558594</ele>
        <time>2011-04-03T14:49:39.000Z</time>
      </trkpt>
      <trkpt lat="43.72143" lon="7.03699">
        <ele>817</ele>
        <time>2011-04-03T14:49:44.000Z</time>
      </trkpt>
      <trkpt lat="43.72147" lon="7.03691">
        <ele>818.20001220703</ele>
        <time>2011-04-03T14:49:46.000Z</time>
      </trkpt>
      <trkpt lat="43.72153" lon="7.03676">
        <ele>820</ele>
        <time>2011-04-03T14:49:49.000Z</time>
      </trkpt>
      <trkpt lat="43.72154" lon="7.03665">
        <ele>820.59997558594</ele>
        <time>2011-04-03T14:49:51.000Z</time>
      </trkpt>
      <trkpt lat="43.72154" lon="7.03649">
        <ele>822.59997558594</ele>
        <time>2011-04-03T14:49:54.000Z</time>
      </trkpt>
      <trkpt lat="43.72152" lon="7.03641">
        <ele>823</ele>
        <time>2011-04-03T14:49:56.000Z</time>
      </trkpt>
      <trkpt lat="43.72146" lon="7.03627">
        <ele>823</ele>
        <time>2011-04-03T14:50:00.000Z</time>
      </trkpt>
      <trkpt lat="43.72142" lon="7.03621">
        <ele>822.79998779297</ele>
        <time>2011-04-03T14:50:02.000Z</time>
      </trkpt>
      <trkpt lat="43.72132" lon="7.03608">
        <ele>822.20001220703</ele>
        <time>2011-04-03T14:50:07.000Z</time>
      </trkpt>
      <trkpt lat="43.72127" lon="7.036">
        <ele>822</ele>
        <time>2011-04-03T14:50:10.000Z</time>
      </trkpt>
      <trkpt lat="43.72117" lon="7.03589">
        <ele>821.40002441406</ele>
        <time>2011-04-03T14:50:15.000Z</time>
      </trkpt>
      <trkpt lat="43.72114" lon="7.03585">
        <ele>821.40002441406</ele>
        <time>2011-04-03T14:50:17.000Z</time>
      </trkpt>
      <trkpt lat="43.72104" lon="7.03571">
        <ele>822</ele>
        <time>2011-04-03T14:50:24.000Z</time>
      </trkpt>
      <trkpt lat="43.72093" lon="7.03559">
        <ele>822</ele>
        <time>2011-04-03T14:50:31.000Z</time>
      </trkpt>
      <trkpt lat="43.7209" lon="7.03554">
        <ele>822</ele>
        <time>2011-04-03T14:50:33.000Z</time>
      </trkpt>
      <trkpt lat="43.72078" lon="7.03537">
        <ele>822.20001220703</ele>
        <time>2011-04-03T14:50:39.000Z</time>
      </trkpt>
      <trkpt lat="43.72076" lon="7.03534">
        <ele>822.20001220703</ele>
        <time>2011-04-03T14:50:40.000Z</time>
      </trkpt>
      <trkpt lat="43.7206" lon="7.03519">
        <ele>820.59997558594</ele>
        <time>2011-04-03T14:50:46.000Z</time>
      </trkpt>
      <trkpt lat="43.72046" lon="7.03504">
        <ele>819</ele>
        <time>2011-04-03T14:50:53.000Z</time>
      </trkpt>
      <trkpt lat="43.72044" lon="7.03501">
        <ele>819</ele>
        <time>2011-04-03T14:50:54.000Z</time>
      </trkpt>
      <trkpt lat="43.72037" lon="7.03483">
        <ele>819.59997558594</ele>
        <time>2011-04-03T14:51:00.000Z</time>
      </trkpt>
      <trkpt lat="43.72036" lon="7.0348">
        <ele>820</ele>
        <time>2011-04-03T14:51:01.000Z</time>
      </trkpt>
      <trkpt lat="43.72034" lon="7.03457">
        <ele>823</ele>
        <time>2011-04-03T14:51:08.000Z</time>
      </trkpt>
      <trkpt lat="43.72034" lon="7.03454">
        <ele>823.59997558594</ele>
        <time>2011-04-03T14:51:09.000Z</time>
      </trkpt>
      <trkpt lat="43.72034" lon="7.03436">
        <ele>826.40002441406</ele>
        <time>2011-04-03T14:51:16.000Z</time>
      </trkpt>
      <trkpt lat="43.72033" lon="7.03428">
        <ele>827.40002441406</ele>
        <time>2011-04-03T14:51:19.000Z</time>
      </trkpt>
      <trkpt lat="43.72031" lon="7.03421">
        <ele>827.79998779297</ele>
        <time>2011-04-03T14:51:22.000Z</time>
      </trkpt>
      <trkpt lat="43.72026" lon="7.03404">
        <ele>829.40002441406</ele>
        <time>2011-04-03T14:51:29.000Z</time>
      </trkpt>
      <trkpt lat="43.72025" lon="7.03402">
        <ele>829.59997558594</ele>
        <time>2011-04-03T14:51:30.000Z</time>
      </trkpt>
      <trkpt lat="43.72015" lon="7.03382">
        <ele>830.79998779297</ele>
        <time>2011-04-03T14:51:38.000Z</time>
      </trkpt>
      <trkpt lat="43.72013" lon="7.0338">
        <ele>830.79998779297</ele>
        <time>2011-04-03T14:51:39.000Z</time>
      </trkpt>
      <trkpt lat="43.72005" lon="7.03366">
        <ele>831.20001220703</ele>
        <time>2011-04-03T14:51:46.000Z</time>
      </trkpt>
      <trkpt lat="43.72003" lon="7.03362">
        <ele>831.20001220703</ele>
        <time>2011-04-03T14:51:48.000Z</time>
      </trkpt>
      <trkpt lat="43.71997" lon="7.03353">
        <ele>831.59997558594</ele>
        <time>2011-04-03T14:51:53.000Z</time>
      </trkpt>
      <trkpt lat="43.71992" lon="7.0334">
        <ele>833</ele>
        <time>2011-04-03T14:51:59.000Z</time>
      </trkpt>
      <trkpt lat="43.71988" lon="7.03332">
        <ele>834</ele>
        <time>2011-04-03T14:52:03.000Z</time>
      </trkpt>
      <trkpt lat="43.71984" lon="7.03317">
        <ele>836</ele>
        <time>2011-04-03T14:52:10.000Z</time>
      </trkpt>
      <trkpt lat="43.71975" lon="7.03298">
        <ele>837.40002441406</ele>
        <time>2011-04-03T14:52:19.000Z</time>
      </trkpt>
      <trkpt lat="43.71973" lon="7.03294">
        <ele>837.59997558594</ele>
        <time>2011-04-03T14:52:21.000Z</time>
      </trkpt>
      <trkpt lat="43.71967" lon="7.03284">
        <ele>837.40002441406</ele>
        <time>2011-04-03T14:52:26.000Z</time>
      </trkpt>
      <trkpt lat="43.7196" lon="7.03275">
        <ele>837</ele>
        <time>2011-04-03T14:52:31.000Z</time>
      </trkpt>
      <trkpt lat="43.71958" lon="7.03273">
        <ele>836.79998779297</ele>
        <time>2011-04-03T14:52:32.000Z</time>
      </trkpt>
      <trkpt lat="43.71946" lon="7.03258">
        <ele>835.79998779297</ele>
        <time>2011-04-03T14:52:38.000Z</time>
      </trkpt>
      <trkpt lat="43.71944" lon="7.03255">
        <ele>835.59997558594</ele>
        <time>2011-04-03T14:52:39.000Z</time>
      </trkpt>
      <trkpt lat="43.7193" lon="7.03241">
        <ele>832.59997558594</ele>
        <time>2011-04-03T14:52:44.000Z</time>
      </trkpt>
      <trkpt lat="43.71924" lon="7.03233">
        <ele>831</ele>
        <time>2011-04-03T14:52:46.000Z</time>
      </trkpt>
      <trkpt lat="43.71917" lon="7.03216">
        <ele>830.40002441406</ele>
        <time>2011-04-03T14:52:49.000Z</time>
      </trkpt>
      <trkpt lat="43.71915" lon="7.03209">
        <ele>830.20001220703</ele>
        <time>2011-04-03T14:52:50.000Z</time>
      </trkpt>
      <trkpt lat="43.71914" lon="7.03202">
        <ele>830.40002441406</ele>
        <time>2011-04-03T14:52:51.000Z</time>
      </trkpt>
      <trkpt lat="43.71913" lon="7.03189">
        <ele>831.40002441406</ele>
        <time>2011-04-03T14:52:53.000Z</time>
      </trkpt>
      <trkpt lat="43.71913" lon="7.03183">
        <ele>832</ele>
        <time>2011-04-03T14:52:54.000Z</time>
      </trkpt>
      <trkpt lat="43.71915" lon="7.03161">
        <ele>834.59997558594</ele>
        <time>2011-04-03T14:52:59.000Z</time>
      </trkpt>
      <trkpt lat="43.71915" lon="7.03132">
        <ele>837.40002441406</ele>
        <time>2011-04-03T14:53:05.000Z</time>
      </trkpt>
      <trkpt lat="43.71911" lon="7.03107">
        <ele>838.40002441406</ele>
        <time>2011-04-03T14:53:10.000Z</time>
      </trkpt>
      <trkpt lat="43.71909" lon="7.03102">
        <ele>838.59997558594</ele>
        <time>2011-04-03T14:53:11.000Z</time>
      </trkpt>
      <trkpt lat="43.71905" lon="7.03083">
        <ele>839.20001220703</ele>
        <time>2011-04-03T14:53:15.000Z</time>
      </trkpt>
      <trkpt lat="43.71902" lon="7.03069">
        <ele>840.20001220703</ele>
        <time>2011-04-03T14:53:18.000Z</time>
      </trkpt>
      <trkpt lat="43.71897" lon="7.03058">
        <ele>840.59997558594</ele>
        <time>2011-04-03T14:53:21.000Z</time>
      </trkpt>
      <trkpt lat="43.71891" lon="7.0305">
        <ele>840.40002441406</ele>
        <time>2011-04-03T14:53:23.000Z</time>
      </trkpt>
      <trkpt lat="43.71886" lon="7.03036">
        <ele>841.40002441406</ele>
        <time>2011-04-03T14:53:27.000Z</time>
      </trkpt>
      <trkpt lat="43.71884" lon="7.03033">
        <ele>841.59997558594</ele>
        <time>2011-04-03T14:53:28.000Z</time>
      </trkpt>
      <trkpt lat="43.71877" lon="7.03012">
        <ele>843.40002441406</ele>
        <time>2011-04-03T14:53:35.000Z</time>
      </trkpt>
      <trkpt lat="43.7187" lon="7.02997">
        <ele>844.59997558594</ele>
        <time>2011-04-03T14:53:40.000Z</time>
      </trkpt>
      <trkpt lat="43.71866" lon="7.02991">
        <ele>844.79998779297</ele>
        <time>2011-04-03T14:53:43.000Z</time>
      </trkpt>
      <trkpt lat="43.71863" lon="7.02986">
        <ele>844.79998779297</ele>
        <time>2011-04-03T14:53:45.000Z</time>
      </trkpt>
      <trkpt lat="43.71851" lon="7.02973">
        <ele>844.59997558594</ele>
        <time>2011-04-03T14:53:51.000Z</time>
      </trkpt>
      <trkpt lat="43.71847" lon="7.02967">
        <ele>844.59997558594</ele>
        <time>2011-04-03T14:53:54.000Z</time>
      </trkpt>
      <trkpt lat="43.7184" lon="7.02959">
        <ele>844.79998779297</ele>
        <time>2011-04-03T14:53:59.000Z</time>
      </trkpt>
      <trkpt lat="43.71837" lon="7.02956">
        <ele>844.59997558594</ele>
        <time>2011-04-03T14:54:01.000Z</time>
      </trkpt>
      <trkpt lat="43.7183" lon="7.02948">
        <ele>844.59997558594</ele>
        <time>2011-04-03T14:54:06.000Z</time>
      </trkpt>
      <trkpt lat="43.71823" lon="7.0294">
        <ele>844.79998779297</ele>
        <time>2011-04-03T14:54:11.000Z</time>
      </trkpt>
      <trkpt lat="43.71819" lon="7.02933">
        <ele>845.20001220703</ele>
        <time>2011-04-03T14:54:15.000Z</time>
      </trkpt>
      <trkpt lat="43.71811" lon="7.0292">
        <ele>846.20001220703</ele>
        <time>2011-04-03T14:54:22.000Z</time>
      </trkpt>
      <trkpt lat="43.7181" lon="7.02918">
        <ele>846.40002441406</ele>
        <time>2011-04-03T14:54:23.000Z</time>
      </trkpt>
      <trkpt lat="43.71799" lon="7.02904">
        <ele>846.40002441406</ele>
        <time>2011-04-03T14:54:30.000Z</time>
      </trkpt>
      <trkpt lat="43.71798" lon="7.02902">
        <ele>846.59997558594</ele>
        <time>2011-04-03T14:54:31.000Z</time>
      </trkpt>
      <trkpt lat="43.71791" lon="7.02892">
        <ele>846.79998779297</ele>
        <time>2011-04-03T14:54:37.000Z</time>
      </trkpt>
      <trkpt lat="43.71788" lon="7.02887">
        <ele>847</ele>
        <time>2011-04-03T14:55:00.000Z</time>
      </trkpt>
      <trkpt lat="43.71787" lon="7.02884">
        <ele>847</ele>
        <time>2011-04-03T14:55:01.000Z</time>
      </trkpt>
      <trkpt lat="43.71775" lon="7.02867">
        <ele>847.40002441406</ele>
        <time>2011-04-03T14:55:07.000Z</time>
      </trkpt>
      <trkpt lat="43.71772" lon="7.02864">
        <ele>847.40002441406</ele>
        <time>2011-04-03T14:55:08.000Z</time>
      </trkpt>
      <trkpt lat="43.7176" lon="7.02846">
        <ele>847.59997558594</ele>
        <time>2011-04-03T14:55:14.000Z</time>
      </trkpt>
      <trkpt lat="43.71752" lon="7.02835">
        <ele>848</ele>
        <time>2011-04-03T14:55:18.000Z</time>
      </trkpt>
      <trkpt lat="43.71746" lon="7.02827">
        <ele>847.79998779297</ele>
        <time>2011-04-03T14:55:21.000Z</time>
      </trkpt>
      <trkpt lat="43.71739" lon="7.02817">
        <ele>847.79998779297</ele>
        <time>2011-04-03T14:55:24.000Z</time>
      </trkpt>
      <trkpt lat="43.71731" lon="7.02807">
        <ele>847.59997558594</ele>
        <time>2011-04-03T14:55:28.000Z</time>
      </trkpt>
      <trkpt lat="43.71726" lon="7.02801">
        <ele>847.40002441406</ele>
        <time>2011-04-03T14:55:30.000Z</time>
      </trkpt>
      <trkpt lat="43.71717" lon="7.02788">
        <ele>847.59997558594</ele>
        <time>2011-04-03T14:55:34.000Z</time>
      </trkpt>
      <trkpt lat="43.71712" lon="7.02782">
        <ele>847.40002441406</ele>
        <time>2011-04-03T14:55:36.000Z</time>
      </trkpt>
      <trkpt lat="43.717" lon="7.0277">
        <ele>847</ele>
        <time>2011-04-03T14:55:40.000Z</time>
      </trkpt>
      <trkpt lat="43.7169" lon="7.02756">
        <ele>847.20001220703</ele>
        <time>2011-04-03T14:55:44.000Z</time>
      </trkpt>
      <trkpt lat="43.71685" lon="7.02749">
        <ele>847</ele>
        <time>2011-04-03T14:55:46.000Z</time>
      </trkpt>
      <trkpt lat="43.71673" lon="7.02731">
        <ele>845.79998779297</ele>
        <time>2011-04-03T14:55:51.000Z</time>
      </trkpt>
      <trkpt lat="43.71671" lon="7.02727">
        <ele>845.59997558594</ele>
        <time>2011-04-03T14:55:52.000Z</time>
      </trkpt>
      <trkpt lat="43.71665" lon="7.02703">
        <ele>845.20001220703</ele>
        <time>2011-04-03T14:55:57.000Z</time>
      </trkpt>
      <trkpt lat="43.71666" lon="7.02677">
        <ele>845.79998779297</ele>
        <time>2011-04-03T14:56:02.000Z</time>
      </trkpt>
      <trkpt lat="43.71673" lon="7.02651">
        <ele>845</ele>
        <time>2011-04-03T14:56:08.000Z</time>
      </trkpt>
      <trkpt lat="43.71684" lon="7.02641">
        <ele>844.40002441406</ele>
        <time>2011-04-03T14:56:12.000Z</time>
      </trkpt>
      <trkpt lat="43.71689" lon="7.02638">
        <ele>844.20001220703</ele>
        <time>2011-04-03T14:56:13.000Z</time>
      </trkpt>
      <trkpt lat="43.71708" lon="7.02629">
        <ele>843.79998779297</ele>
        <time>2011-04-03T14:56:17.000Z</time>
      </trkpt>
      <trkpt lat="43.71727" lon="7.02624">
        <ele>843.59997558594</ele>
        <time>2011-04-03T14:56:21.000Z</time>
      </trkpt>
      <trkpt lat="43.71735" lon="7.02621">
        <ele>843.40002441406</ele>
        <time>2011-04-03T14:56:23.000Z</time>
      </trkpt>
      <trkpt lat="43.71742" lon="7.02619">
        <ele>843.20001220703</ele>
        <time>2011-04-03T14:56:25.000Z</time>
      </trkpt>
      <trkpt lat="43.71746" lon="7.02617">
        <ele>843</ele>
        <time>2011-04-03T14:56:27.000Z</time>
      </trkpt>
      <trkpt lat="43.71758" lon="7.02612">
        <ele>843.40002441406</ele>
        <time>2011-04-03T14:56:32.000Z</time>
      </trkpt>
      <trkpt lat="43.71764" lon="7.02607">
        <ele>843.40002441406</ele>
        <time>2011-04-03T14:56:35.000Z</time>
      </trkpt>
      <trkpt lat="43.71767" lon="7.02605">
        <ele>843.59997558594</ele>
        <time>2011-04-03T14:56:37.000Z</time>
      </trkpt>
      <trkpt lat="43.71779" lon="7.02593">
        <ele>843.79998779297</ele>
        <time>2011-04-03T14:56:42.000Z</time>
      </trkpt>
      <trkpt lat="43.7179" lon="7.02572">
        <ele>843.59997558594</ele>
        <time>2011-04-03T14:56:47.000Z</time>
      </trkpt>
      <trkpt lat="43.71791" lon="7.02567">
        <ele>843.40002441406</ele>
        <time>2011-04-03T14:56:48.000Z</time>
      </trkpt>
      <trkpt lat="43.71794" lon="7.02547">
        <ele>842.59997558594</ele>
        <time>2011-04-03T14:56:52.000Z</time>
      </trkpt>
      <trkpt lat="43.71795" lon="7.02543">
        <ele>842.59997558594</ele>
        <time>2011-04-03T14:56:53.000Z</time>
      </trkpt>
      <trkpt lat="43.718" lon="7.02523">
        <ele>842.20001220703</ele>
        <time>2011-04-03T14:56:57.000Z</time>
      </trkpt>
      <trkpt lat="43.71804" lon="7.0251">
        <ele>841.79998779297</ele>
        <time>2011-04-03T14:57:00.000Z</time>
      </trkpt>
      <trkpt lat="43.71807" lon="7.02496">
        <ele>841.59997558594</ele>
        <time>2011-04-03T14:57:03.000Z</time>
      </trkpt>
      <trkpt lat="43.7181" lon="7.02483">
        <ele>841.59997558594</ele>
        <time>2011-04-03T14:57:06.000Z</time>
      </trkpt>
      <trkpt lat="43.71811" lon="7.02472">
        <ele>841.40002441406</ele>
        <time>2011-04-03T14:57:09.000Z</time>
      </trkpt>
      <trkpt lat="43.71813" lon="7.02452">
        <ele>841</ele>
        <time>2011-04-03T14:57:14.000Z</time>
      </trkpt>
      <trkpt lat="43.71814" lon="7.02443">
        <ele>840.79998779297</ele>
        <time>2011-04-03T14:57:16.000Z</time>
      </trkpt>
      <trkpt lat="43.71813" lon="7.0242">
        <ele>840</ele>
        <time>2011-04-03T14:57:21.000Z</time>
      </trkpt>
      <trkpt lat="43.71812" lon="7.02416">
        <ele>840</ele>
        <time>2011-04-03T14:57:22.000Z</time>
      </trkpt>
      <trkpt lat="43.7181" lon="7.02387">
        <ele>839.79998779297</ele>
        <time>2011-04-03T14:57:28.000Z</time>
      </trkpt>
      <trkpt lat="43.71807" lon="7.02361">
        <ele>839.79998779297</ele>
        <time>2011-04-03T14:57:34.000Z</time>
      </trkpt>
      <trkpt lat="43.71806" lon="7.02353">
        <ele>839.59997558594</ele>
        <time>2011-04-03T14:57:36.000Z</time>
      </trkpt>
      <trkpt lat="43.71803" lon="7.02333">
        <ele>839.59997558594</ele>
        <time>2011-04-03T14:57:41.000Z</time>
      </trkpt>
      <trkpt lat="43.71803" lon="7.02324">
        <ele>839.79998779297</ele>
        <time>2011-04-03T14:57:43.000Z</time>
      </trkpt>
      <trkpt lat="43.71803" lon="7.02303">
        <ele>840.59997558594</ele>
        <time>2011-04-03T14:57:47.000Z</time>
      </trkpt>
      <trkpt lat="43.71803" lon="7.02298">
        <ele>840.79998779297</ele>
        <time>2011-04-03T14:57:48.000Z</time>
      </trkpt>
      <trkpt lat="43.71804" lon="7.02278">
        <ele>841.59997558594</ele>
        <time>2011-04-03T14:57:52.000Z</time>
      </trkpt>
      <trkpt lat="43.71804" lon="7.02263">
        <ele>842.20001220703</ele>
        <time>2011-04-03T14:57:55.000Z</time>
      </trkpt>
      <trkpt lat="43.71803" lon="7.02252">
        <ele>842.40002441406</ele>
        <time>2011-04-03T14:57:57.000Z</time>
      </trkpt>
      <trkpt lat="43.71801" lon="7.02226">
        <ele>842</ele>
        <time>2011-04-03T14:58:02.000Z</time>
      </trkpt>
      <trkpt lat="43.71801" lon="7.02199">
        <ele>841.79998779297</ele>
        <time>2011-04-03T14:58:07.000Z</time>
      </trkpt>
      <trkpt lat="43.71801" lon="7.02193">
        <ele>841.79998779297</ele>
        <time>2011-04-03T14:58:08.000Z</time>
      </trkpt>
      <trkpt lat="43.718" lon="7.02172">
        <ele>841.40002441406</ele>
        <time>2011-04-03T14:58:12.000Z</time>
      </trkpt>
      <trkpt lat="43.718" lon="7.02167">
        <ele>841.40002441406</ele>
        <time>2011-04-03T14:58:13.000Z</time>
      </trkpt>
      <trkpt lat="43.71799" lon="7.02147">
        <ele>840.40002441406</ele>
        <time>2011-04-03T14:58:17.000Z</time>
      </trkpt>
      <trkpt lat="43.71798" lon="7.02131">
        <ele>839.79998779297</ele>
        <time>2011-04-03T14:58:20.000Z</time>
      </trkpt>
      <trkpt lat="43.71798" lon="7.02121">
        <ele>839.40002441406</ele>
        <time>2011-04-03T14:58:22.000Z</time>
      </trkpt>
      <trkpt lat="43.71799" lon="7.02098">
        <ele>838.79998779297</ele>
        <time>2011-04-03T14:58:27.000Z</time>
      </trkpt>
      <trkpt lat="43.71799" lon="7.02093">
        <ele>838.59997558594</ele>
        <time>2011-04-03T14:58:28.000Z</time>
      </trkpt>
      <trkpt lat="43.718" lon="7.02073">
        <ele>838</ele>
        <time>2011-04-03T14:58:32.000Z</time>
      </trkpt>
      <trkpt lat="43.71801" lon="7.02062">
        <ele>837.59997558594</ele>
        <time>2011-04-03T14:58:34.000Z</time>
      </trkpt>
      <trkpt lat="43.71805" lon="7.02044">
        <ele>837.40002441406</ele>
        <time>2011-04-03T14:58:37.000Z</time>
      </trkpt>
      <trkpt lat="43.71806" lon="7.02037">
        <ele>837.20001220703</ele>
        <time>2011-04-03T14:58:38.000Z</time>
      </trkpt>
      <trkpt lat="43.71807" lon="7.0203">
        <ele>837</ele>
        <time>2011-04-03T14:58:39.000Z</time>
      </trkpt>
      <trkpt lat="43.71812" lon="7.0201">
        <ele>836.79998779297</ele>
        <time>2011-04-03T14:58:42.000Z</time>
      </trkpt>
      <trkpt lat="43.71819" lon="7.01982">
        <ele>836.79998779297</ele>
        <time>2011-04-03T14:58:47.000Z</time>
      </trkpt>
      <trkpt lat="43.71821" lon="7.01978">
        <ele>837</ele>
        <time>2011-04-03T14:58:48.000Z</time>
      </trkpt>
      <trkpt lat="43.71825" lon="7.0197">
        <ele>837.20001220703</ele>
        <time>2011-04-03T14:58:50.000Z</time>
      </trkpt>
      <trkpt lat="43.71827" lon="7.01962">
        <ele>837.20001220703</ele>
        <time>2011-04-03T14:58:52.000Z</time>
      </trkpt>
      <trkpt lat="43.71828" lon="7.01958">
        <ele>837.20001220703</ele>
        <time>2011-04-03T14:58:53.000Z</time>
      </trkpt>
      <trkpt lat="43.71834" lon="7.01933">
        <ele>836.79998779297</ele>
        <time>2011-04-03T14:58:59.000Z</time>
      </trkpt>
      <trkpt lat="43.71834" lon="7.01928">
        <ele>836.59997558594</ele>
        <time>2011-04-03T14:59:00.000Z</time>
      </trkpt>
      <trkpt lat="43.71838" lon="7.01907">
        <ele>836.40002441406</ele>
        <time>2011-04-03T14:59:05.000Z</time>
      </trkpt>
      <trkpt lat="43.71839" lon="7.01898">
        <ele>836.20001220703</ele>
        <time>2011-04-03T14:59:07.000Z</time>
      </trkpt>
      <trkpt lat="43.71844" lon="7.01882">
        <ele>836.40002441406</ele>
        <time>2011-04-03T14:59:11.000Z</time>
      </trkpt>
      <trkpt lat="43.71847" lon="7.01873">
        <ele>836.59997558594</ele>
        <time>2011-04-03T14:59:13.000Z</time>
      </trkpt>
      <trkpt lat="43.71851" lon="7.01858">
        <ele>836.59997558594</ele>
        <time>2011-04-03T14:59:17.000Z</time>
      </trkpt>
      <trkpt lat="43.71851" lon="7.0185">
        <ele>836.40002441406</ele>
        <time>2011-04-03T14:59:19.000Z</time>
      </trkpt>
      <trkpt lat="43.71851" lon="7.01837">
        <ele>835.79998779297</ele>
        <time>2011-04-03T14:59:23.000Z</time>
      </trkpt>
      <trkpt lat="43.71851" lon="7.01837">
        <ele>835.79998779297</ele>
        <time>2011-04-03T14:59:24.000Z</time>
      </trkpt>
      <trkpt lat="43.7185" lon="7.01833">
        <ele>835.79998779297</ele>
        <time>2011-04-03T14:59:32.000Z</time>
      </trkpt>
      <trkpt lat="43.7185" lon="7.01827">
        <ele>835.79998779297</ele>
        <time>2011-04-03T14:59:34.000Z</time>
      </trkpt>
      <trkpt lat="43.71852" lon="7.01805">
        <ele>836</ele>
        <time>2011-04-03T14:59:40.000Z</time>
      </trkpt>
      <trkpt lat="43.71853" lon="7.01803">
        <ele>836.20001220703</ele>
        <time>2011-04-03T14:59:41.000Z</time>
      </trkpt>
      <trkpt lat="43.71855" lon="7.01801">
        <ele>836.20001220703</ele>
        <time>2011-04-03T14:59:42.000Z</time>
      </trkpt>
      <trkpt lat="43.7186" lon="7.01802">
        <ele>837</ele>
        <time>2011-04-03T14:59:45.000Z</time>
      </trkpt>
      <trkpt lat="43.71862" lon="7.01804">
        <ele>837.20001220703</ele>
        <time>2011-04-03T14:59:46.000Z</time>
      </trkpt>
      <trkpt lat="43.71867" lon="7.01808">
        <ele>837.59997558594</ele>
        <time>2011-04-03T14:59:49.000Z</time>
      </trkpt>
      <trkpt lat="43.71872" lon="7.01813">
        <ele>838.20001220703</ele>
        <time>2011-04-03T14:59:52.000Z</time>
      </trkpt>
      <trkpt lat="43.71882" lon="7.01815">
        <ele>839.40002441406</ele>
        <time>2011-04-03T14:59:58.000Z</time>
      </trkpt>
      <trkpt lat="43.71884" lon="7.01816">
        <ele>839.59997558594</ele>
        <time>2011-04-03T14:59:59.000Z</time>
      </trkpt>
      <trkpt lat="43.71897" lon="7.01819">
        <ele>840.79998779297</ele>
        <time>2011-04-03T15:00:05.000Z</time>
      </trkpt>
      <trkpt lat="43.71902" lon="7.01816">
        <ele>841.40002441406</ele>
        <time>2011-04-03T15:00:08.000Z</time>
      </trkpt>
      <trkpt lat="43.71904" lon="7.01814">
        <ele>841.79998779297</ele>
        <time>2011-04-03T15:00:10.000Z</time>
      </trkpt>
      <trkpt lat="43.71908" lon="7.01807">
        <ele>842.20001220703</ele>
        <time>2011-04-03T15:00:14.000Z</time>
      </trkpt>
      <trkpt lat="43.71908" lon="7.01807">
        <ele>842.20001220703</ele>
        <time>2011-04-03T15:00:15.000Z</time>
      </trkpt>
      <trkpt lat="43.71909" lon="7.01808">
        <ele>842.40002441406</ele>
        <time>2011-04-03T15:01:21.000Z</time>
      </trkpt>
      <trkpt lat="43.71913" lon="7.01798">
        <ele>842.79998779297</ele>
        <time>2011-04-03T15:01:26.000Z</time>
      </trkpt>
      <trkpt lat="43.7192" lon="7.01779">
        <ele>844.40002441406</ele>
        <time>2011-04-03T15:01:35.000Z</time>
      </trkpt>
      <trkpt lat="43.71922" lon="7.01774">
        <ele>844.79998779297</ele>
        <time>2011-04-03T15:01:37.000Z</time>
      </trkpt>
      <trkpt lat="43.71926" lon="7.01761">
        <ele>845.79998779297</ele>
        <time>2011-04-03T15:01:42.000Z</time>
      </trkpt>
      <trkpt lat="43.71925" lon="7.01749">
        <ele>845.79998779297</ele>
        <time>2011-04-03T15:01:47.000Z</time>
      </trkpt>
      <trkpt lat="43.71924" lon="7.01745">
        <ele>845.59997558594</ele>
        <time>2011-04-03T15:01:49.000Z</time>
      </trkpt>
      <trkpt lat="43.7192" lon="7.01739">
        <ele>845</ele>
        <time>2011-04-03T15:01:53.000Z</time>
      </trkpt>
      <trkpt lat="43.7192" lon="7.01739">
        <ele>845</ele>
        <time>2011-04-03T15:01:55.000Z</time>
      </trkpt>
      <trkpt lat="43.71922" lon="7.01737">
        <ele>845.59997558594</ele>
        <time>2011-04-03T15:01:59.000Z</time>
      </trkpt>
      <trkpt lat="43.71922" lon="7.01742">
        <ele>845.59997558594</ele>
        <time>2011-04-03T15:02:04.000Z</time>
      </trkpt>
      <trkpt lat="43.71924" lon="7.01746">
        <ele>845.79998779297</ele>
        <time>2011-04-03T15:02:07.000Z</time>
      </trkpt>
      <trkpt lat="43.71925" lon="7.01746">
        <ele>846</ele>
        <time>2011-04-03T15:02:10.000Z</time>
      </trkpt>
      <trkpt lat="43.71927" lon="7.01747">
        <ele>846.20001220703</ele>
        <time>2011-04-03T15:02:26.000Z</time>
      </trkpt>
      <trkpt lat="43.71923" lon="7.01747">
        <ele>845.40002441406</ele>
        <time>2011-04-03T15:03:01.000Z</time>
      </trkpt>
      <trkpt lat="43.71926" lon="7.01757">
        <ele>846</ele>
        <time>2011-04-03T15:04:09.000Z</time>
      </trkpt>
      <trkpt lat="43.71926" lon="7.01754">
        <ele>846</ele>
        <time>2011-04-03T15:04:11.000Z</time>
      </trkpt>
      <trkpt lat="43.71925" lon="7.01748">
        <ele>845.79998779297</ele>
        <time>2011-04-03T15:04:15.000Z</time>
      </trkpt>
      <trkpt lat="43.71925" lon="7.01748">
        <ele>846</ele>
        <time>2011-04-03T15:04:38.000Z</time>
      </trkpt>
      <trkpt lat="43.71923" lon="7.01744">
        <ele>845.59997558594</ele>
        <time>2011-04-03T15:04:45.000Z</time>
      </trkpt>
      <trkpt lat="43.71922" lon="7.01738">
        <ele>845.59997558594</ele>
        <time>2011-04-03T15:04:50.000Z</time>
      </trkpt>
      <trkpt lat="43.71922" lon="7.01738">
        <ele>845.59997558594</ele>
        <time>2011-04-03T15:04:52.000Z</time>
      </trkpt>
      <trkpt lat="43.71919" lon="7.01737">
        <ele>845</ele>
        <time>2011-04-03T15:04:56.000Z</time>
      </trkpt>
      <trkpt lat="43.71919" lon="7.01736">
        <ele>844.79998779297</ele>
        <time>2011-04-03T15:04:57.000Z</time>
      </trkpt>
      <trkpt lat="43.71918" lon="7.01734">
        <ele>844.79998779297</ele>
        <time>2011-04-03T15:05:01.000Z</time>
      </trkpt>
      <trkpt lat="43.71916" lon="7.0173">
        <ele>844.59997558594</ele>
        <time>2011-04-03T15:05:06.000Z</time>
      </trkpt>
      <trkpt lat="43.71916" lon="7.01728">
        <ele>844.59997558594</ele>
        <time>2011-04-03T15:05:07.000Z</time>
      </trkpt>
      <trkpt lat="43.71914" lon="7.01725">
        <ele>844.40002441406</ele>
        <time>2011-04-03T15:05:10.000Z</time>
      </trkpt>
      <trkpt lat="43.71912" lon="7.01721">
        <ele>844.40002441406</ele>
        <time>2011-04-03T15:05:13.000Z</time>
      </trkpt>
      <trkpt lat="43.71908" lon="7.01714">
        <ele>844</ele>
        <time>2011-04-03T15:05:17.000Z</time>
      </trkpt>
      <trkpt lat="43.71907" lon="7.01711">
        <ele>844</ele>
        <time>2011-04-03T15:05:18.000Z</time>
      </trkpt>
      <trkpt lat="43.71907" lon="7.01706">
        <ele>844.20001220703</ele>
        <time>2011-04-03T15:05:20.000Z</time>
      </trkpt>
      <trkpt lat="43.71904" lon="7.01692">
        <ele>844.40002441406</ele>
        <time>2011-04-03T15:05:25.000Z</time>
      </trkpt>
      <trkpt lat="43.71904" lon="7.01681">
        <ele>844.59997558594</ele>
        <time>2011-04-03T15:05:29.000Z</time>
      </trkpt>
      <trkpt lat="43.71903" lon="7.01676">
        <ele>844.59997558594</ele>
        <time>2011-04-03T15:05:31.000Z</time>
      </trkpt>
      <trkpt lat="43.71909" lon="7.01671">
        <ele>845.59997558594</ele>
        <time>2011-04-03T15:05:36.000Z</time>
      </trkpt>
      <trkpt lat="43.71913" lon="7.01671">
        <ele>846.20001220703</ele>
        <time>2011-04-03T15:05:39.000Z</time>
      </trkpt>
      <trkpt lat="43.71917" lon="7.01671">
        <ele>846.79998779297</ele>
        <time>2011-04-03T15:05:42.000Z</time>
      </trkpt>
      <trkpt lat="43.71918" lon="7.01672">
        <ele>847</ele>
        <time>2011-04-03T15:05:43.000Z</time>
      </trkpt>
      <trkpt lat="43.71923" lon="7.01672">
        <ele>848</ele>
        <time>2011-04-03T15:05:47.000Z</time>
      </trkpt>
      <trkpt lat="43.71926" lon="7.0167">
        <ele>848.79998779297</ele>
        <time>2011-04-03T15:05:50.000Z</time>
      </trkpt>
      <trkpt lat="43.7193" lon="7.0166">
        <ele>850.20001220703</ele>
        <time>2011-04-03T15:05:56.000Z</time>
      </trkpt>
      <trkpt lat="43.7193" lon="7.01654">
        <ele>850.79998779297</ele>
        <time>2011-04-03T15:05:59.000Z</time>
      </trkpt>
      <trkpt lat="43.7193" lon="7.01646">
        <ele>851.40002441406</ele>
        <time>2011-04-03T15:06:03.000Z</time>
      </trkpt>
      <trkpt lat="43.71931" lon="7.01634">
        <ele>852.59997558594</ele>
        <time>2011-04-03T15:06:09.000Z</time>
      </trkpt>
      <trkpt lat="43.7193" lon="7.0162">
        <ele>853.79998779297</ele>
        <time>2011-04-03T15:06:16.000Z</time>
      </trkpt>
      <trkpt lat="43.71931" lon="7.01609">
        <ele>854.79998779297</ele>
        <time>2011-04-03T15:06:21.000Z</time>
      </trkpt>
      <trkpt lat="43.7193" lon="7.01603">
        <ele>855.20001220703</ele>
        <time>2011-04-03T15:06:24.000Z</time>
      </trkpt>
      <trkpt lat="43.71928" lon="7.01583">
        <ele>856.59997558594</ele>
        <time>2011-04-03T15:06:33.000Z</time>
      </trkpt>
      <trkpt lat="43.71924" lon="7.01566">
        <ele>857.40002441406</ele>
        <time>2011-04-03T15:06:41.000Z</time>
      </trkpt>
      <trkpt lat="43.71923" lon="7.01557">
        <ele>857.79998779297</ele>
        <time>2011-04-03T15:06:45.000Z</time>
      </trkpt>
      <trkpt lat="43.71922" lon="7.01551">
        <ele>858.20001220703</ele>
        <time>2011-04-03T15:06:48.000Z</time>
      </trkpt>
      <trkpt lat="43.71921" lon="7.01538">
        <ele>859.20001220703</ele>
        <time>2011-04-03T15:06:54.000Z</time>
      </trkpt>
      <trkpt lat="43.7192" lon="7.01531">
        <ele>859.59997558594</ele>
        <time>2011-04-03T15:06:57.000Z</time>
      </trkpt>
      <trkpt lat="43.7192" lon="7.01524">
        <ele>860.20001220703</ele>
        <time>2011-04-03T15:07:00.000Z</time>
      </trkpt>
      <trkpt lat="43.71921" lon="7.01522">
        <ele>860.40002441406</ele>
        <time>2011-04-03T15:07:01.000Z</time>
      </trkpt>
      <trkpt lat="43.71926" lon="7.01514">
        <ele>861.40002441406</ele>
        <time>2011-04-03T15:07:05.000Z</time>
      </trkpt>
      <trkpt lat="43.71929" lon="7.01512">
        <ele>861.79998779297</ele>
        <time>2011-04-03T15:07:07.000Z</time>
      </trkpt>
      <trkpt lat="43.71934" lon="7.01511">
        <ele>862.20001220703</ele>
        <time>2011-04-03T15:07:10.000Z</time>
      </trkpt>
      <trkpt lat="43.71937" lon="7.0151">
        <ele>862.59997558594</ele>
        <time>2011-04-03T15:07:12.000Z</time>
      </trkpt>
      <trkpt lat="43.71947" lon="7.01511">
        <ele>863.20001220703</ele>
        <time>2011-04-03T15:07:18.000Z</time>
      </trkpt>
      <trkpt lat="43.7195" lon="7.01511">
        <ele>863.40002441406</ele>
        <time>2011-04-03T15:07:20.000Z</time>
      </trkpt>
      <trkpt lat="43.71951" lon="7.01509">
        <ele>863.59997558594</ele>
        <time>2011-04-03T15:07:21.000Z</time>
      </trkpt>
      <trkpt lat="43.71961" lon="7.01501">
        <ele>864.40002441406</ele>
        <time>2011-04-03T15:07:28.000Z</time>
      </trkpt>
      <trkpt lat="43.71961" lon="7.01501">
        <ele>864.40002441406</ele>
        <time>2011-04-03T15:07:29.000Z</time>
      </trkpt>
      <trkpt lat="43.71962" lon="7.01499">
        <ele>864.59997558594</ele>
        <time>2011-04-03T15:07:37.000Z</time>
      </trkpt>
      <trkpt lat="43.71963" lon="7.01497">
        <ele>864.79998779297</ele>
        <time>2011-04-03T15:07:38.000Z</time>
      </trkpt>
      <trkpt lat="43.71968" lon="7.01485">
        <ele>865.20001220703</ele>
        <time>2011-04-03T15:07:43.000Z</time>
      </trkpt>
      <trkpt lat="43.71969" lon="7.01479">
        <ele>865.40002441406</ele>
        <time>2011-04-03T15:07:45.000Z</time>
      </trkpt>
      <trkpt lat="43.71971" lon="7.01476">
        <ele>865.40002441406</ele>
        <time>2011-04-03T15:07:46.000Z</time>
      </trkpt>
      <trkpt lat="43.71979" lon="7.01452">
        <ele>866</ele>
        <time>2011-04-03T15:07:53.000Z</time>
      </trkpt>
      <trkpt lat="43.71987" lon="7.01428">
        <ele>866.59997558594</ele>
        <time>2011-04-03T15:08:00.000Z</time>
      </trkpt>
      <trkpt lat="43.7199" lon="7.01403">
        <ele>866.59997558594</ele>
        <time>2011-04-03T15:08:07.000Z</time>
      </trkpt>
      <trkpt lat="43.7199" lon="7.014">
        <ele>866.59997558594</ele>
        <time>2011-04-03T15:08:08.000Z</time>
      </trkpt>
      <trkpt lat="43.71989" lon="7.01378">
        <ele>866.59997558594</ele>
        <time>2011-04-03T15:08:14.000Z</time>
      </trkpt>
      <trkpt lat="43.71988" lon="7.01375">
        <ele>866.59997558594</ele>
        <time>2011-04-03T15:08:15.000Z</time>
      </trkpt>
      <trkpt lat="43.71985" lon="7.01352">
        <ele>866.59997558594</ele>
        <time>2011-04-03T15:08:22.000Z</time>
      </trkpt>
      <trkpt lat="43.71981" lon="7.01333">
        <ele>866.40002441406</ele>
        <time>2011-04-03T15:08:28.000Z</time>
      </trkpt>
      <trkpt lat="43.71979" lon="7.01326">
        <ele>866.59997558594</ele>
        <time>2011-04-03T15:08:30.000Z</time>
      </trkpt>
      <trkpt lat="43.71976" lon="7.01312">
        <ele>867.20001220703</ele>
        <time>2011-04-03T15:08:35.000Z</time>
      </trkpt>
      <trkpt lat="43.71971" lon="7.01303">
        <ele>867.40002441406</ele>
        <time>2011-04-03T15:08:39.000Z</time>
      </trkpt>
      <trkpt lat="43.71967" lon="7.0129">
        <ele>867.79998779297</ele>
        <time>2011-04-03T15:08:44.000Z</time>
      </trkpt>
      <trkpt lat="43.71965" lon="7.01278">
        <ele>868.40002441406</ele>
        <time>2011-04-03T15:08:49.000Z</time>
      </trkpt>
      <trkpt lat="43.71964" lon="7.0127">
        <ele>868.59997558594</ele>
        <time>2011-04-03T15:08:52.000Z</time>
      </trkpt>
      <trkpt lat="43.71969" lon="7.01256">
        <ele>869.40002441406</ele>
        <time>2011-04-03T15:08:58.000Z</time>
      </trkpt>
      <trkpt lat="43.7197" lon="7.01253">
        <ele>869.40002441406</ele>
        <time>2011-04-03T15:08:59.000Z</time>
      </trkpt>
      <trkpt lat="43.71979" lon="7.01231">
        <ele>871</ele>
        <time>2011-04-03T15:09:08.000Z</time>
      </trkpt>
      <trkpt lat="43.7198" lon="7.01229">
        <ele>871</ele>
        <time>2011-04-03T15:09:09.000Z</time>
      </trkpt>
      <trkpt lat="43.7199" lon="7.01212">
        <ele>872.20001220703</ele>
        <time>2011-04-03T15:09:17.000Z</time>
      </trkpt>
      <trkpt lat="43.71991" lon="7.0121">
        <ele>872.40002441406</ele>
        <time>2011-04-03T15:09:18.000Z</time>
      </trkpt>
      <trkpt lat="43.71996" lon="7.01194">
        <ele>873.40002441406</ele>
        <time>2011-04-03T15:09:24.000Z</time>
      </trkpt>
      <trkpt lat="43.71998" lon="7.01185">
        <ele>873.79998779297</ele>
        <time>2011-04-03T15:09:27.000Z</time>
      </trkpt>
      <trkpt lat="43.72001" lon="7.01168">
        <ele>874.79998779297</ele>
        <time>2011-04-03T15:09:32.000Z</time>
      </trkpt>
      <trkpt lat="43.72004" lon="7.01159">
        <ele>874.59997558594</ele>
        <time>2011-04-03T15:09:35.000Z</time>
      </trkpt>
      <trkpt lat="43.72007" lon="7.01144">
        <ele>874.20001220703</ele>
        <time>2011-04-03T15:09:39.000Z</time>
      </trkpt>
      <trkpt lat="43.7201" lon="7.01134">
        <ele>873.59997558594</ele>
        <time>2011-04-03T15:09:42.000Z</time>
      </trkpt>
      <trkpt lat="43.72013" lon="7.01115">
        <ele>873</ele>
        <time>2011-04-03T15:09:47.000Z</time>
      </trkpt>
      <trkpt lat="43.72015" lon="7.01107">
        <ele>872.59997558594</ele>
        <time>2011-04-03T15:09:49.000Z</time>
      </trkpt>
      <trkpt lat="43.72021" lon="7.01083">
        <ele>871.40002441406</ele>
        <time>2011-04-03T15:09:56.000Z</time>
      </trkpt>
      <trkpt lat="43.72022" lon="7.0108">
        <ele>870.79998779297</ele>
        <time>2011-04-03T15:09:57.000Z</time>
      </trkpt>
      <trkpt lat="43.72031" lon="7.0107">
        <ele>869.20001220703</ele>
        <time>2011-04-03T15:10:02.000Z</time>
      </trkpt>
      <trkpt lat="43.72036" lon="7.0107">
        <ele>869.20001220703</ele>
        <time>2011-04-03T15:10:04.000Z</time>
      </trkpt>
      <trkpt lat="43.72044" lon="7.01076">
        <ele>869.79998779297</ele>
        <time>2011-04-03T15:10:07.000Z</time>
      </trkpt>
      <trkpt lat="43.72049" lon="7.01089">
        <ele>871</ele>
        <time>2011-04-03T15:10:11.000Z</time>
      </trkpt>
      <trkpt lat="43.7205" lon="7.01092">
        <ele>871.20001220703</ele>
        <time>2011-04-03T15:10:12.000Z</time>
      </trkpt>
      <trkpt lat="43.72054" lon="7.01113">
        <ele>872.40002441406</ele>
        <time>2011-04-03T15:10:18.000Z</time>
      </trkpt>
      <trkpt lat="43.72055" lon="7.01116">
        <ele>872.59997558594</ele>
        <time>2011-04-03T15:10:19.000Z</time>
      </trkpt>
      <trkpt lat="43.72059" lon="7.01131">
        <ele>873.40002441406</ele>
        <time>2011-04-03T15:10:25.000Z</time>
      </trkpt>
      <trkpt lat="43.72061" lon="7.01138">
        <ele>873.79998779297</ele>
        <time>2011-04-03T15:10:28.000Z</time>
      </trkpt>
      <trkpt lat="43.72065" lon="7.01146">
        <ele>874.40002441406</ele>
        <time>2011-04-03T15:10:32.000Z</time>
      </trkpt>
      <trkpt lat="43.72072" lon="7.01158">
        <ele>875.20001220703</ele>
        <time>2011-04-03T15:10:38.000Z</time>
      </trkpt>
      <trkpt lat="43.72073" lon="7.01159">
        <ele>875.20001220703</ele>
        <time>2011-04-03T15:10:39.000Z</time>
      </trkpt>
      <trkpt lat="43.72084" lon="7.01172">
        <ele>876</ele>
        <time>2011-04-03T15:10:47.000Z</time>
      </trkpt>
      <trkpt lat="43.72085" lon="7.01176">
        <ele>876</ele>
        <time>2011-04-03T15:10:49.000Z</time>
      </trkpt>
      <trkpt lat="43.72091" lon="7.01185">
        <ele>876.40002441406</ele>
        <time>2011-04-03T15:10:54.000Z</time>
      </trkpt>
      <trkpt lat="43.72099" lon="7.01195">
        <ele>877</ele>
        <time>2011-04-03T15:11:01.000Z</time>
      </trkpt>
      <trkpt lat="43.721" lon="7.01196">
        <ele>877.20001220703</ele>
        <time>2011-04-03T15:11:02.000Z</time>
      </trkpt>
      <trkpt lat="43.7211" lon="7.01206">
        <ele>878.20001220703</ele>
        <time>2011-04-03T15:11:10.000Z</time>
      </trkpt>
      <trkpt lat="43.72115" lon="7.01211">
        <ele>878.59997558594</ele>
        <time>2011-04-03T15:11:14.000Z</time>
      </trkpt>
      <trkpt lat="43.72121" lon="7.01215">
        <ele>879.20001220703</ele>
        <time>2011-04-03T15:11:19.000Z</time>
      </trkpt>
      <trkpt lat="43.72131" lon="7.01222">
        <ele>880.40002441406</ele>
        <time>2011-04-03T15:11:27.000Z</time>
      </trkpt>
      <trkpt lat="43.72132" lon="7.01223">
        <ele>880.59997558594</ele>
        <time>2011-04-03T15:11:28.000Z</time>
      </trkpt>
      <trkpt lat="43.7214" lon="7.01223">
        <ele>881.40002441406</ele>
        <time>2011-04-03T15:11:34.000Z</time>
      </trkpt>
      <trkpt lat="43.7215" lon="7.01221">
        <ele>882.20001220703</ele>
        <time>2011-04-03T15:11:40.000Z</time>
      </trkpt>
      <trkpt lat="43.72153" lon="7.0122">
        <ele>882.40002441406</ele>
        <time>2011-04-03T15:11:42.000Z</time>
      </trkpt>
      <trkpt lat="43.72165" lon="7.01217">
        <ele>883.40002441406</ele>
        <time>2011-04-03T15:11:49.000Z</time>
      </trkpt>
      <trkpt lat="43.72169" lon="7.01215">
        <ele>883.40002441406</ele>
        <time>2011-04-03T15:11:51.000Z</time>
      </trkpt>
      <trkpt lat="43.72184" lon="7.0121">
        <ele>882.59997558594</ele>
        <time>2011-04-03T15:11:57.000Z</time>
      </trkpt>
      <trkpt lat="43.72188" lon="7.0121">
        <ele>882.59997558594</ele>
        <time>2011-04-03T15:11:59.000Z</time>
      </trkpt>
      <trkpt lat="43.722" lon="7.01211">
        <ele>882.40002441406</ele>
        <time>2011-04-03T15:12:04.000Z</time>
      </trkpt>
      <trkpt lat="43.72208" lon="7.01212">
        <ele>882.40002441406</ele>
        <time>2011-04-03T15:12:07.000Z</time>
      </trkpt>
      <trkpt lat="43.72216" lon="7.01216">
        <ele>882.59997558594</ele>
        <time>2011-04-03T15:12:11.000Z</time>
      </trkpt>
      <trkpt lat="43.72223" lon="7.01228">
        <ele>884.20001220703</ele>
        <time>2011-04-03T15:12:16.000Z</time>
      </trkpt>
      <trkpt lat="43.72223" lon="7.0123">
        <ele>884.59997558594</ele>
        <time>2011-04-03T15:12:17.000Z</time>
      </trkpt>
      <trkpt lat="43.72223" lon="7.01244">
        <ele>886.40002441406</ele>
        <time>2011-04-03T15:12:23.000Z</time>
      </trkpt>
      <trkpt lat="43.72222" lon="7.01251">
        <ele>887.40002441406</ele>
        <time>2011-04-03T15:12:26.000Z</time>
      </trkpt>
      <trkpt lat="43.72222" lon="7.01254">
        <ele>887.59997558594</ele>
        <time>2011-04-03T15:12:27.000Z</time>
      </trkpt>
      <trkpt lat="43.72223" lon="7.01259">
        <ele>888</ele>
        <time>2011-04-03T15:12:29.000Z</time>
      </trkpt>
      <trkpt lat="43.72221" lon="7.01272">
        <ele>889.20001220703</ele>
        <time>2011-04-03T15:12:35.000Z</time>
      </trkpt>
      <trkpt lat="43.72221" lon="7.01281">
        <ele>890.20001220703</ele>
        <time>2011-04-03T15:12:39.000Z</time>
      </trkpt>
      <trkpt lat="43.72221" lon="7.01283">
        <ele>890.40002441406</ele>
        <time>2011-04-03T15:12:40.000Z</time>
      </trkpt>
      <trkpt lat="43.72221" lon="7.01288">
        <ele>890.79998779297</ele>
        <time>2011-04-03T15:12:42.000Z</time>
      </trkpt>
      <trkpt lat="43.72218" lon="7.01306">
        <ele>892.20001220703</ele>
        <time>2011-04-03T15:12:50.000Z</time>
      </trkpt>
      <trkpt lat="43.72216" lon="7.01321">
        <ele>893.40002441406</ele>
        <time>2011-04-03T15:12:57.000Z</time>
      </trkpt>
      <trkpt lat="43.72214" lon="7.01332">
        <ele>894</ele>
        <time>2011-04-03T15:13:02.000Z</time>
      </trkpt>
      <trkpt lat="43.72214" lon="7.01334">
        <ele>894.20001220703</ele>
        <time>2011-04-03T15:13:03.000Z</time>
      </trkpt>
      <trkpt lat="43.72212" lon="7.01359">
        <ele>896</ele>
        <time>2011-04-03T15:13:13.000Z</time>
      </trkpt>
      <trkpt lat="43.72211" lon="7.01377">
        <ele>897.20001220703</ele>
        <time>2011-04-03T15:13:21.000Z</time>
      </trkpt>
      <trkpt lat="43.72211" lon="7.01384">
        <ele>897.79998779297</ele>
        <time>2011-04-03T15:13:24.000Z</time>
      </trkpt>
      <trkpt lat="43.72211" lon="7.01401">
        <ele>899.20001220703</ele>
        <time>2011-04-03T15:13:31.000Z</time>
      </trkpt>
      <trkpt lat="43.72212" lon="7.01411">
        <ele>900.20001220703</ele>
        <time>2011-04-03T15:13:35.000Z</time>
      </trkpt>
      <trkpt lat="43.72213" lon="7.0142">
        <ele>901.20001220703</ele>
        <time>2011-04-03T15:13:39.000Z</time>
      </trkpt>
      <trkpt lat="43.72216" lon="7.01436">
        <ele>902.79998779297</ele>
        <time>2011-04-03T15:13:46.000Z</time>
      </trkpt>
      <trkpt lat="43.72217" lon="7.01441">
        <ele>903.20001220703</ele>
        <time>2011-04-03T15:13:48.000Z</time>
      </trkpt>
      <trkpt lat="43.72219" lon="7.01461">
        <ele>904.59997558594</ele>
        <time>2011-04-03T15:13:56.000Z</time>
      </trkpt>
      <trkpt lat="43.72222" lon="7.01469">
        <ele>905.79998779297</ele>
        <time>2011-04-03T15:14:00.000Z</time>
      </trkpt>
      <trkpt lat="43.72225" lon="7.01469">
        <ele>906.40002441406</ele>
        <time>2011-04-03T15:14:02.000Z</time>
      </trkpt>
      <trkpt lat="43.72227" lon="7.01467">
        <ele>906.79998779297</ele>
        <time>2011-04-03T15:14:04.000Z</time>
      </trkpt>
      <trkpt lat="43.72232" lon="7.01462">
        <ele>907.59997558594</ele>
        <time>2011-04-03T15:14:08.000Z</time>
      </trkpt>
      <trkpt lat="43.72233" lon="7.0146">
        <ele>907.59997558594</ele>
        <time>2011-04-03T15:14:09.000Z</time>
      </trkpt>
      <trkpt lat="43.72235" lon="7.0145">
        <ele>907.59997558594</ele>
        <time>2011-04-03T15:14:14.000Z</time>
      </trkpt>
      <trkpt lat="43.72241" lon="7.01437">
        <ele>908.20001220703</ele>
        <time>2011-04-03T15:14:21.000Z</time>
      </trkpt>
      <trkpt lat="43.72244" lon="7.01433">
        <ele>908.59997558594</ele>
        <time>2011-04-03T15:14:24.000Z</time>
      </trkpt>
      <trkpt lat="43.72246" lon="7.0143">
        <ele>909</ele>
        <time>2011-04-03T15:14:26.000Z</time>
      </trkpt>
      <trkpt lat="43.72251" lon="7.01425">
        <ele>909.59997558594</ele>
        <time>2011-04-03T15:14:30.000Z</time>
      </trkpt>
      <trkpt lat="43.72253" lon="7.01424">
        <ele>909.59997558594</ele>
        <time>2011-04-03T15:14:31.000Z</time>
      </trkpt>
      <trkpt lat="43.72256" lon="7.01422">
        <ele>910</ele>
        <time>2011-04-03T15:14:33.000Z</time>
      </trkpt>
      <trkpt lat="43.72265" lon="7.01417">
        <ele>910.79998779297</ele>
        <time>2011-04-03T15:14:39.000Z</time>
      </trkpt>
      <trkpt lat="43.72272" lon="7.01411">
        <ele>910.79998779297</ele>
        <time>2011-04-03T15:14:44.000Z</time>
      </trkpt>
      <trkpt lat="43.7228" lon="7.01407">
        <ele>911.20001220703</ele>
        <time>2011-04-03T15:14:49.000Z</time>
      </trkpt>
      <trkpt lat="43.7229" lon="7.01404">
        <ele>912</ele>
        <time>2011-04-03T15:14:55.000Z</time>
      </trkpt>
      <trkpt lat="43.72295" lon="7.01403">
        <ele>912.40002441406</ele>
        <time>2011-04-03T15:14:58.000Z</time>
      </trkpt>
      <trkpt lat="43.72309" lon="7.014">
        <ele>913.79998779297</ele>
        <time>2011-04-03T15:15:06.000Z</time>
      </trkpt>
      <trkpt lat="43.72322" lon="7.01399">
        <ele>915</ele>
        <time>2011-04-03T15:15:14.000Z</time>
      </trkpt>
      <trkpt lat="43.72327" lon="7.01398">
        <ele>915.40002441406</ele>
        <time>2011-04-03T15:15:17.000Z</time>
      </trkpt>
      <trkpt lat="43.72332" lon="7.01397">
        <ele>916</ele>
        <time>2011-04-03T15:15:20.000Z</time>
      </trkpt>
      <trkpt lat="43.72343" lon="7.01397">
        <ele>917.40002441406</ele>
        <time>2011-04-03T15:15:27.000Z</time>
      </trkpt>
      <trkpt lat="43.72346" lon="7.01397">
        <ele>917.79998779297</ele>
        <time>2011-04-03T15:15:29.000Z</time>
      </trkpt>
      <trkpt lat="43.72353" lon="7.01396">
        <ele>918.59997558594</ele>
        <time>2011-04-03T15:15:33.000Z</time>
      </trkpt>
      <trkpt lat="43.72365" lon="7.01391">
        <ele>919.59997558594</ele>
        <time>2011-04-03T15:15:40.000Z</time>
      </trkpt>
      <trkpt lat="43.72378" lon="7.01383">
        <ele>920</ele>
        <time>2011-04-03T15:15:48.000Z</time>
      </trkpt>
      <trkpt lat="43.72383" lon="7.01381">
        <ele>920.40002441406</ele>
        <time>2011-04-03T15:15:51.000Z</time>
      </trkpt>
      <trkpt lat="43.72391" lon="7.01379">
        <ele>921.20001220703</ele>
        <time>2011-04-03T15:15:55.000Z</time>
      </trkpt>
      <trkpt lat="43.72401" lon="7.01375">
        <ele>921.79998779297</ele>
        <time>2011-04-03T15:16:00.000Z</time>
      </trkpt>
      <trkpt lat="43.72404" lon="7.01372">
        <ele>921.79998779297</ele>
        <time>2011-04-03T15:16:02.000Z</time>
      </trkpt>
      <trkpt lat="43.72414" lon="7.01363">
        <ele>921.59997558594</ele>
        <time>2011-04-03T15:16:08.000Z</time>
      </trkpt>
      <trkpt lat="43.72417" lon="7.01361">
        <ele>921.59997558594</ele>
        <time>2011-04-03T15:16:10.000Z</time>
      </trkpt>
      <trkpt lat="43.7243" lon="7.01354">
        <ele>923</ele>
        <time>2011-04-03T15:16:17.000Z</time>
      </trkpt>
      <trkpt lat="43.72434" lon="7.01351">
        <ele>923.20001220703</ele>
        <time>2011-04-03T15:16:19.000Z</time>
      </trkpt>
      <trkpt lat="43.72446" lon="7.01343">
        <ele>923.79998779297</ele>
        <time>2011-04-03T15:16:25.000Z</time>
      </trkpt>
      <trkpt lat="43.72452" lon="7.01339">
        <ele>924.20001220703</ele>
        <time>2011-04-03T15:16:28.000Z</time>
      </trkpt>
      <trkpt lat="43.72457" lon="7.01336">
        <ele>924.79998779297</ele>
        <time>2011-04-03T15:16:31.000Z</time>
      </trkpt>
      <trkpt lat="43.7247" lon="7.01329">
        <ele>925.79998779297</ele>
        <time>2011-04-03T15:16:37.000Z</time>
      </trkpt>
      <trkpt lat="43.72474" lon="7.01326">
        <ele>926</ele>
        <time>2011-04-03T15:16:39.000Z</time>
      </trkpt>
      <trkpt lat="43.72486" lon="7.01318">
        <ele>926.59997558594</ele>
        <time>2011-04-03T15:16:45.000Z</time>
      </trkpt>
      <trkpt lat="43.72496" lon="7.01311">
        <ele>927</ele>
        <time>2011-04-03T15:16:50.000Z</time>
      </trkpt>
      <trkpt lat="43.72504" lon="7.01304">
        <ele>927.20001220703</ele>
        <time>2011-04-03T15:16:54.000Z</time>
      </trkpt>
      <trkpt lat="43.72513" lon="7.01298">
        <ele>928</ele>
        <time>2011-04-03T15:16:58.000Z</time>
      </trkpt>
      <trkpt lat="43.72521" lon="7.01294">
        <ele>929.20001220703</ele>
        <time>2011-04-03T15:17:02.000Z</time>
      </trkpt>
      <trkpt lat="43.72527" lon="7.01289">
        <ele>929.40002441406</ele>
        <time>2011-04-03T15:17:05.000Z</time>
      </trkpt>
      <trkpt lat="43.72537" lon="7.01278">
        <ele>929.40002441406</ele>
        <time>2011-04-03T15:17:11.000Z</time>
      </trkpt>
      <trkpt lat="43.72549" lon="7.01266">
        <ele>929.79998779297</ele>
        <time>2011-04-03T15:17:19.000Z</time>
      </trkpt>
      <trkpt lat="43.72553" lon="7.01262">
        <ele>929.79998779297</ele>
        <time>2011-04-03T15:17:21.000Z</time>
      </trkpt>
      <trkpt lat="43.72561" lon="7.01253">
        <ele>929.59997558594</ele>
        <time>2011-04-03T15:17:26.000Z</time>
      </trkpt>
      <trkpt lat="43.72568" lon="7.01246">
        <ele>929.40002441406</ele>
        <time>2011-04-03T15:17:30.000Z</time>
      </trkpt>
      <trkpt lat="43.72578" lon="7.01239">
        <ele>928.79998779297</ele>
        <time>2011-04-03T15:17:35.000Z</time>
      </trkpt>
      <trkpt lat="43.72585" lon="7.01235">
        <ele>928.79998779297</ele>
        <time>2011-04-03T15:17:39.000Z</time>
      </trkpt>
      <trkpt lat="43.72593" lon="7.01232">
        <ele>928.79998779297</ele>
        <time>2011-04-03T15:17:44.000Z</time>
      </trkpt>
      <trkpt lat="43.72602" lon="7.0123">
        <ele>929.20001220703</ele>
        <time>2011-04-03T15:17:49.000Z</time>
      </trkpt>
      <trkpt lat="43.72606" lon="7.01228">
        <ele>929.40002441406</ele>
        <time>2011-04-03T15:17:51.000Z</time>
      </trkpt>
      <trkpt lat="43.7262" lon="7.01221">
        <ele>928.79998779297</ele>
        <time>2011-04-03T15:17:59.000Z</time>
      </trkpt>
      <trkpt lat="43.72633" lon="7.01209">
        <ele>926.79998779297</ele>
        <time>2011-04-03T15:18:07.000Z</time>
      </trkpt>
      <trkpt lat="43.72636" lon="7.01205">
        <ele>926</ele>
        <time>2011-04-03T15:18:09.000Z</time>
      </trkpt>
      <trkpt lat="43.72644" lon="7.01198">
        <ele>925</ele>
        <time>2011-04-03T15:18:14.000Z</time>
      </trkpt>
      <trkpt lat="43.72652" lon="7.01193">
        <ele>924.59997558594</ele>
        <time>2011-04-03T15:18:19.000Z</time>
      </trkpt>
      <trkpt lat="43.72655" lon="7.01192">
        <ele>924.79998779297</ele>
        <time>2011-04-03T15:18:21.000Z</time>
      </trkpt>
      <trkpt lat="43.72663" lon="7.01194">
        <ele>926.79998779297</ele>
        <time>2011-04-03T15:18:26.000Z</time>
      </trkpt>
      <trkpt lat="43.7267" lon="7.01198">
        <ele>928.40002441406</ele>
        <time>2011-04-03T15:18:31.000Z</time>
      </trkpt>
      <trkpt lat="43.72674" lon="7.01198">
        <ele>928.20001220703</ele>
        <time>2011-04-03T15:18:34.000Z</time>
      </trkpt>
      <trkpt lat="43.72676" lon="7.01196">
        <ele>927.40002441406</ele>
        <time>2011-04-03T15:18:36.000Z</time>
      </trkpt>
      <trkpt lat="43.72677" lon="7.01195">
        <ele>927.20001220703</ele>
        <time>2011-04-03T15:18:41.000Z</time>
      </trkpt>
      <trkpt lat="43.72678" lon="7.01195">
        <ele>927.20001220703</ele>
        <time>2011-04-03T15:19:07.000Z</time>
      </trkpt>
      <trkpt lat="43.72677" lon="7.01195">
        <ele>927</ele>
        <time>2011-04-03T15:19:19.000Z</time>
      </trkpt>
      <trkpt lat="43.72683" lon="7.01194">
        <ele>926.40002441406</ele>
        <time>2011-04-03T15:19:31.000Z</time>
      </trkpt>
      <trkpt lat="43.72686" lon="7.01195">
        <ele>926.40002441406</ele>
        <time>2011-04-03T15:19:33.000Z</time>
      </trkpt>
      <trkpt lat="43.72687" lon="7.01195">
        <ele>926.40002441406</ele>
        <time>2011-04-03T15:19:36.000Z</time>
      </trkpt>
      <trkpt lat="43.72693" lon="7.012">
        <ele>927.59997558594</ele>
        <time>2011-04-03T15:19:53.000Z</time>
      </trkpt>
      <trkpt lat="43.72702" lon="7.01209">
        <ele>929.20001220703</ele>
        <time>2011-04-03T15:19:57.000Z</time>
      </trkpt>
      <trkpt lat="43.72707" lon="7.01216">
        <ele>930.40002441406</ele>
        <time>2011-04-03T15:19:59.000Z</time>
      </trkpt>
      <trkpt lat="43.72717" lon="7.0123">
        <ele>932.59997558594</ele>
        <time>2011-04-03T15:20:03.000Z</time>
      </trkpt>
      <trkpt lat="43.72728" lon="7.01246">
        <ele>934.40002441406</ele>
        <time>2011-04-03T15:20:07.000Z</time>
      </trkpt>
      <trkpt lat="43.72732" lon="7.0125">
        <ele>934.59997558594</ele>
        <time>2011-04-03T15:20:08.000Z</time>
      </trkpt>
      <trkpt lat="43.72745" lon="7.01266">
        <ele>934.20001220703</ele>
        <time>2011-04-03T15:20:12.000Z</time>
      </trkpt>
      <trkpt lat="43.72751" lon="7.01277">
        <ele>933.79998779297</ele>
        <time>2011-04-03T15:20:14.000Z</time>
      </trkpt>
      <trkpt lat="43.72757" lon="7.01288">
        <ele>933.20001220703</ele>
        <time>2011-04-03T15:20:16.000Z</time>
      </trkpt>
      <trkpt lat="43.72768" lon="7.01314">
        <ele>932</ele>
        <time>2011-04-03T15:20:20.000Z</time>
      </trkpt>
      <trkpt lat="43.72772" lon="7.01321">
        <ele>931.59997558594</ele>
        <time>2011-04-03T15:20:21.000Z</time>
      </trkpt>
      <trkpt lat="43.72779" lon="7.01334">
        <ele>930.59997558594</ele>
        <time>2011-04-03T15:20:23.000Z</time>
      </trkpt>
      <trkpt lat="43.72791" lon="7.01344">
        <ele>928.59997558594</ele>
        <time>2011-04-03T15:20:25.000Z</time>
      </trkpt>
      <trkpt lat="43.72797" lon="7.01348">
        <ele>927.59997558594</ele>
        <time>2011-04-03T15:20:26.000Z</time>
      </trkpt>
      <trkpt lat="43.72818" lon="7.01358">
        <ele>922.59997558594</ele>
        <time>2011-04-03T15:20:30.000Z</time>
      </trkpt>
      <trkpt lat="43.72832" lon="7.01372">
        <ele>920.59997558594</ele>
        <time>2011-04-03T15:20:34.000Z</time>
      </trkpt>
      <trkpt lat="43.72834" lon="7.01377">
        <ele>920.40002441406</ele>
        <time>2011-04-03T15:20:35.000Z</time>
      </trkpt>
      <trkpt lat="43.72843" lon="7.01381">
        <ele>918.59997558594</ele>
        <time>2011-04-03T15:20:38.000Z</time>
      </trkpt>
      <trkpt lat="43.72843" lon="7.0137">
        <ele>917.20001220703</ele>
        <time>2011-04-03T15:20:41.000Z</time>
      </trkpt>
      <trkpt lat="43.72842" lon="7.01365">
        <ele>916.79998779297</ele>
        <time>2011-04-03T15:20:42.000Z</time>
      </trkpt>
      <trkpt lat="43.72842" lon="7.01343">
        <ele>913.79998779297</ele>
        <time>2011-04-03T15:20:45.000Z</time>
      </trkpt>
      <trkpt lat="43.72845" lon="7.01336">
        <ele>912.40002441406</ele>
        <time>2011-04-03T15:20:46.000Z</time>
      </trkpt>
      <trkpt lat="43.72851" lon="7.0131">
        <ele>908.20001220703</ele>
        <time>2011-04-03T15:20:49.000Z</time>
      </trkpt>
      <trkpt lat="43.72851" lon="7.01279">
        <ele>905.40002441406</ele>
        <time>2011-04-03T15:20:52.000Z</time>
      </trkpt>
      <trkpt lat="43.7285" lon="7.01268">
        <ele>904.59997558594</ele>
        <time>2011-04-03T15:20:53.000Z</time>
      </trkpt>
      <trkpt lat="43.72843" lon="7.01248">
        <ele>904.40002441406</ele>
        <time>2011-04-03T15:20:55.000Z</time>
      </trkpt>
      <trkpt lat="43.72838" lon="7.01238">
        <ele>905.20001220703</ele>
        <time>2011-04-03T15:20:56.000Z</time>
      </trkpt>
      <trkpt lat="43.72834" lon="7.01229">
        <ele>905.59997558594</ele>
        <time>2011-04-03T15:20:57.000Z</time>
      </trkpt>
      <trkpt lat="43.72832" lon="7.01219">
        <ele>905.79998779297</ele>
        <time>2011-04-03T15:20:58.000Z</time>
      </trkpt>
      <trkpt lat="43.72832" lon="7.01208">
        <ele>905.20001220703</ele>
        <time>2011-04-03T15:20:59.000Z</time>
      </trkpt>
      <trkpt lat="43.72837" lon="7.01188">
        <ele>903</ele>
        <time>2011-04-03T15:21:01.000Z</time>
      </trkpt>
      <trkpt lat="43.72841" lon="7.01178">
        <ele>901.79998779297</ele>
        <time>2011-04-03T15:21:02.000Z</time>
      </trkpt>
      <trkpt lat="43.72845" lon="7.01169">
        <ele>900.40002441406</ele>
        <time>2011-04-03T15:21:03.000Z</time>
      </trkpt>
      <trkpt lat="43.72851" lon="7.01161">
        <ele>899</ele>
        <time>2011-04-03T15:21:04.000Z</time>
      </trkpt>
      <trkpt lat="43.72857" lon="7.01153">
        <ele>897.59997558594</ele>
        <time>2011-04-03T15:21:05.000Z</time>
      </trkpt>
      <trkpt lat="43.72871" lon="7.01139">
        <ele>894.59997558594</ele>
        <time>2011-04-03T15:21:07.000Z</time>
      </trkpt>
      <trkpt lat="43.72885" lon="7.01122">
        <ele>892</ele>
        <time>2011-04-03T15:21:09.000Z</time>
      </trkpt>
      <trkpt lat="43.7289" lon="7.01113">
        <ele>891</ele>
        <time>2011-04-03T15:21:10.000Z</time>
      </trkpt>
      <trkpt lat="43.729" lon="7.01093">
        <ele>889.59997558594</ele>
        <time>2011-04-03T15:21:12.000Z</time>
      </trkpt>
      <trkpt lat="43.72907" lon="7.01071">
        <ele>888</ele>
        <time>2011-04-03T15:21:14.000Z</time>
      </trkpt>
      <trkpt lat="43.7291" lon="7.01061">
        <ele>886.79998779297</ele>
        <time>2011-04-03T15:21:15.000Z</time>
      </trkpt>
      <trkpt lat="43.72914" lon="7.01051">
        <ele>885.79998779297</ele>
        <time>2011-04-03T15:21:16.000Z</time>
      </trkpt>
      <trkpt lat="43.72921" lon="7.0103">
        <ele>883.79998779297</ele>
        <time>2011-04-03T15:21:18.000Z</time>
      </trkpt>
      <trkpt lat="43.72924" lon="7.0102">
        <ele>882.79998779297</ele>
        <time>2011-04-03T15:21:19.000Z</time>
      </trkpt>
      <trkpt lat="43.72934" lon="7.01001">
        <ele>881</ele>
        <time>2011-04-03T15:21:21.000Z</time>
      </trkpt>
      <trkpt lat="43.72939" lon="7.00993">
        <ele>880</ele>
        <time>2011-04-03T15:21:22.000Z</time>
      </trkpt>
      <trkpt lat="43.72949" lon="7.00978">
        <ele>878.40002441406</ele>
        <time>2011-04-03T15:21:24.000Z</time>
      </trkpt>
      <trkpt lat="43.7296" lon="7.00956">
        <ele>877</ele>
        <time>2011-04-03T15:21:27.000Z</time>
      </trkpt>
      <trkpt lat="43.72966" lon="7.00944">
        <ele>876.40002441406</ele>
        <time>2011-04-03T15:21:30.000Z</time>
      </trkpt>
      <trkpt lat="43.72966" lon="7.00944">
        <ele>876.40002441406</ele>
        <time>2011-04-03T15:21:35.000Z</time>
      </trkpt>
      <trkpt lat="43.72965" lon="7.00947">
        <ele>876.59997558594</ele>
        <time>2011-04-03T15:21:51.000Z</time>
      </trkpt>
      <trkpt lat="43.72965" lon="7.00944">
        <ele>876.40002441406</ele>
        <time>2011-04-03T15:22:06.000Z</time>
      </trkpt>
      <trkpt lat="43.72967" lon="7.0094">
        <ele>876.40002441406</ele>
        <time>2011-04-03T15:22:09.000Z</time>
      </trkpt>
      <trkpt lat="43.72967" lon="7.0094">
        <ele>876.40002441406</ele>
        <time>2011-04-03T15:22:12.000Z</time>
      </trkpt>
      <trkpt lat="43.72967" lon="7.0094">
        <ele>876.40002441406</ele>
        <time>2011-04-03T15:23:17.000Z</time>
      </trkpt>
      <trkpt lat="43.72965" lon="7.0094">
        <ele>876.40002441406</ele>
        <time>2011-04-03T15:23:23.000Z</time>
      </trkpt>
      <trkpt lat="43.72964" lon="7.00941">
        <ele>876.40002441406</ele>
        <time>2011-04-03T15:23:33.000Z</time>
      </trkpt>
      <trkpt lat="43.72964" lon="7.0094">
        <ele>876.40002441406</ele>
        <time>2011-04-03T15:23:39.000Z</time>
      </trkpt>
      <trkpt lat="43.72964" lon="7.00942">
        <ele>876.40002441406</ele>
        <time>2011-04-03T15:23:46.000Z</time>
      </trkpt>
      <trkpt lat="43.72964" lon="7.0094">
        <ele>876.40002441406</ele>
        <time>2011-04-03T15:23:51.000Z</time>
      </trkpt>
      <trkpt lat="43.72964" lon="7.0094">
        <ele>876.40002441406</ele>
        <time>2011-04-03T15:23:56.000Z</time>
      </trkpt>
      <trkpt lat="43.72964" lon="7.00941">
        <ele>876.40002441406</ele>
        <time>2011-04-03T15:24:27.000Z</time>
      </trkpt>
      <trkpt lat="43.72966" lon="7.0094">
        <ele>876.40002441406</ele>
        <time>2011-04-03T15:25:17.000Z</time>
      </trkpt>
      <trkpt lat="43.72967" lon="7.0094">
        <ele>876.40002441406</ele>
        <time>2011-04-03T15:25:22.000Z</time>
      </trkpt>
      <trkpt lat="43.72967" lon="7.00942">
        <ele>876.40002441406</ele>
        <time>2011-04-03T15:25:54.000Z</time>
      </trkpt>
      <trkpt lat="43.72972" lon="7.00946">
        <ele>876.20001220703</ele>
        <time>2011-04-03T15:27:29.000Z</time>
      </trkpt>
      <trkpt lat="43.72981" lon="7.00947">
        <ele>876</ele>
        <time>2011-04-03T15:27:33.000Z</time>
      </trkpt>
      <trkpt lat="43.72983" lon="7.00949">
        <ele>875.79998779297</ele>
        <time>2011-04-03T15:27:34.000Z</time>
      </trkpt>
      <trkpt lat="43.72989" lon="7.00956">
        <ele>875.59997558594</ele>
        <time>2011-04-03T15:27:39.000Z</time>
      </trkpt>
      <trkpt lat="43.72991" lon="7.0096">
        <ele>875.40002441406</ele>
        <time>2011-04-03T15:27:54.000Z</time>
      </trkpt>
      <trkpt lat="43.72996" lon="7.0096">
        <ele>875.20001220703</ele>
        <time>2011-04-03T15:27:56.000Z</time>
      </trkpt>
      <trkpt lat="43.72998" lon="7.00961">
        <ele>875</ele>
        <time>2011-04-03T15:27:57.000Z</time>
      </trkpt>
      <trkpt lat="43.73004" lon="7.00959">
        <ele>874.40002441406</ele>
        <time>2011-04-03T15:27:59.000Z</time>
      </trkpt>
      <trkpt lat="43.7301" lon="7.00959">
        <ele>873.79998779297</ele>
        <time>2011-04-03T15:28:02.000Z</time>
      </trkpt>
      <trkpt lat="43.73015" lon="7.00959">
        <ele>873.40002441406</ele>
        <time>2011-04-03T15:28:04.000Z</time>
      </trkpt>
      <trkpt lat="43.73017" lon="7.00958">
        <ele>873.20001220703</ele>
        <time>2011-04-03T15:28:05.000Z</time>
      </trkpt>
      <trkpt lat="43.73021" lon="7.00956">
        <ele>872.59997558594</ele>
        <time>2011-04-03T15:28:07.000Z</time>
      </trkpt>
      <trkpt lat="43.73032" lon="7.00954">
        <ele>871.40002441406</ele>
        <time>2011-04-03T15:28:11.000Z</time>
      </trkpt>
      <trkpt lat="43.73035" lon="7.00953">
        <ele>871.20001220703</ele>
        <time>2011-04-03T15:28:12.000Z</time>
      </trkpt>
      <trkpt lat="43.73049" lon="7.0095">
        <ele>869.59997558594</ele>
        <time>2011-04-03T15:28:17.000Z</time>
      </trkpt>
      <trkpt lat="43.73052" lon="7.0095">
        <ele>869.40002441406</ele>
        <time>2011-04-03T15:28:18.000Z</time>
      </trkpt>
      <trkpt lat="43.7306" lon="7.00945">
        <ele>868.59997558594</ele>
        <time>2011-04-03T15:28:22.000Z</time>
      </trkpt>
      <trkpt lat="43.73071" lon="7.00943">
        <ele>867.20001220703</ele>
        <time>2011-04-03T15:28:27.000Z</time>
      </trkpt>
      <trkpt lat="43.73075" lon="7.00943">
        <ele>866.79998779297</ele>
        <time>2011-04-03T15:28:29.000Z</time>
      </trkpt>
      <trkpt lat="43.73082" lon="7.00945">
        <ele>866</ele>
        <time>2011-04-03T15:28:32.000Z</time>
      </trkpt>
      <trkpt lat="43.7309" lon="7.00946">
        <ele>865.20001220703</ele>
        <time>2011-04-03T15:28:35.000Z</time>
      </trkpt>
      <trkpt lat="43.73094" lon="7.00948">
        <ele>864.79998779297</ele>
        <time>2011-04-03T15:28:37.000Z</time>
      </trkpt>
      <trkpt lat="43.73097" lon="7.00948">
        <ele>864.59997558594</ele>
        <time>2011-04-03T15:28:39.000Z</time>
      </trkpt>
      <trkpt lat="43.73097" lon="7.00947">
        <ele>864.40002441406</ele>
        <time>2011-04-03T15:28:41.000Z</time>
      </trkpt>
      <trkpt lat="43.73098" lon="7.00947">
        <ele>864.40002441406</ele>
        <time>2011-04-03T15:28:47.000Z</time>
      </trkpt>
      <trkpt lat="43.73107" lon="7.00947">
        <ele>863.40002441406</ele>
        <time>2011-04-03T15:29:05.000Z</time>
      </trkpt>
      <trkpt lat="43.73112" lon="7.00948">
        <ele>863</ele>
        <time>2011-04-03T15:29:10.000Z</time>
      </trkpt>
      <trkpt lat="43.73114" lon="7.00948">
        <ele>862.79998779297</ele>
        <time>2011-04-03T15:29:11.000Z</time>
      </trkpt>
      <trkpt lat="43.73124" lon="7.00951">
        <ele>861.79998779297</ele>
        <time>2011-04-03T15:29:16.000Z</time>
      </trkpt>
      <trkpt lat="43.73131" lon="7.0095">
        <ele>861.20001220703</ele>
        <time>2011-04-03T15:29:19.000Z</time>
      </trkpt>
      <trkpt lat="43.73136" lon="7.00949">
        <ele>860.59997558594</ele>
        <time>2011-04-03T15:29:21.000Z</time>
      </trkpt>
      <trkpt lat="43.73139" lon="7.0095">
        <ele>860.20001220703</ele>
        <time>2011-04-03T15:29:25.000Z</time>
      </trkpt>
      <trkpt lat="43.73146" lon="7.00954">
        <ele>859.79998779297</ele>
        <time>2011-04-03T15:29:54.000Z</time>
      </trkpt>
      <trkpt lat="43.73149" lon="7.00953">
        <ele>859.40002441406</ele>
        <time>2011-04-03T15:29:56.000Z</time>
      </trkpt>
      <trkpt lat="43.73151" lon="7.00953">
        <ele>859.20001220703</ele>
        <time>2011-04-03T15:29:57.000Z</time>
      </trkpt>
      <trkpt lat="43.73164" lon="7.00952">
        <ele>857.79998779297</ele>
        <time>2011-04-03T15:30:03.000Z</time>
      </trkpt>
      <trkpt lat="43.73166" lon="7.00951">
        <ele>857.59997558594</ele>
        <time>2011-04-03T15:30:04.000Z</time>
      </trkpt>
      <trkpt lat="43.73167" lon="7.00952">
        <ele>857.59997558594</ele>
        <time>2011-04-03T15:30:05.000Z</time>
      </trkpt>
      <trkpt lat="43.73174" lon="7.00952">
        <ele>857</ele>
        <time>2011-04-03T15:30:09.000Z</time>
      </trkpt>
      <trkpt lat="43.73176" lon="7.00952">
        <ele>856.79998779297</ele>
        <time>2011-04-03T15:30:10.000Z</time>
      </trkpt>
      <trkpt lat="43.73185" lon="7.00955">
        <ele>856</ele>
        <time>2011-04-03T15:30:14.000Z</time>
      </trkpt>
      <trkpt lat="43.73187" lon="7.00955">
        <ele>855.79998779297</ele>
        <time>2011-04-03T15:30:15.000Z</time>
      </trkpt>
      <trkpt lat="43.73198" lon="7.00957">
        <ele>854.79998779297</ele>
        <time>2011-04-03T15:30:20.000Z</time>
      </trkpt>
      <trkpt lat="43.73206" lon="7.00957">
        <ele>854</ele>
        <time>2011-04-03T15:30:23.000Z</time>
      </trkpt>
      <trkpt lat="43.73214" lon="7.00955">
        <ele>853.20001220703</ele>
        <time>2011-04-03T15:30:26.000Z</time>
      </trkpt>
      <trkpt lat="43.73224" lon="7.00954">
        <ele>852.20001220703</ele>
        <time>2011-04-03T15:30:30.000Z</time>
      </trkpt>
      <trkpt lat="43.73227" lon="7.00955">
        <ele>851.79998779297</ele>
        <time>2011-04-03T15:30:31.000Z</time>
      </trkpt>
      <trkpt lat="43.7324" lon="7.00964">
        <ele>851.40002441406</ele>
        <time>2011-04-03T15:30:35.000Z</time>
      </trkpt>
      <trkpt lat="43.73243" lon="7.00966">
        <ele>851.20001220703</ele>
        <time>2011-04-03T15:30:36.000Z</time>
      </trkpt>
      <trkpt lat="43.73255" lon="7.00967">
        <ele>849.59997558594</ele>
        <time>2011-04-03T15:30:39.000Z</time>
      </trkpt>
      <trkpt lat="43.73263" lon="7.0097">
        <ele>848.59997558594</ele>
        <time>2011-04-03T15:30:41.000Z</time>
      </trkpt>
      <trkpt lat="43.73269" lon="7.00974">
        <ele>847.79998779297</ele>
        <time>2011-04-03T15:30:43.000Z</time>
      </trkpt>
      <trkpt lat="43.73282" lon="7.00979">
        <ele>845.79998779297</ele>
        <time>2011-04-03T15:30:48.000Z</time>
      </trkpt>
      <trkpt lat="43.73285" lon="7.0098">
        <ele>845.20001220703</ele>
        <time>2011-04-03T15:30:49.000Z</time>
      </trkpt>
      <trkpt lat="43.73291" lon="7.00983">
        <ele>844.40002441406</ele>
        <time>2011-04-03T15:30:51.000Z</time>
      </trkpt>
      <trkpt lat="43.73299" lon="7.00987">
        <ele>843.20001220703</ele>
        <time>2011-04-03T15:30:54.000Z</time>
      </trkpt>
      <trkpt lat="43.73302" lon="7.00988">
        <ele>842.59997558594</ele>
        <time>2011-04-03T15:30:55.000Z</time>
      </trkpt>
      <trkpt lat="43.73304" lon="7.00989">
        <ele>842.20001220703</ele>
        <time>2011-04-03T15:30:56.000Z</time>
      </trkpt>
      <trkpt lat="43.73314" lon="7.00993">
        <ele>840.59997558594</ele>
        <time>2011-04-03T15:30:59.000Z</time>
      </trkpt>
      <trkpt lat="43.73319" lon="7.00997">
        <ele>839.59997558594</ele>
        <time>2011-04-03T15:31:01.000Z</time>
      </trkpt>
      <trkpt lat="43.73323" lon="7.01002">
        <ele>839</ele>
        <time>2011-04-03T15:31:03.000Z</time>
      </trkpt>
      <trkpt lat="43.73326" lon="7.01004">
        <ele>838.40002441406</ele>
        <time>2011-04-03T15:31:08.000Z</time>
      </trkpt>
      <trkpt lat="43.73328" lon="7.01007">
        <ele>838</ele>
        <time>2011-04-03T15:31:11.000Z</time>
      </trkpt>
      <trkpt lat="43.73332" lon="7.0101">
        <ele>837.40002441406</ele>
        <time>2011-04-03T15:31:13.000Z</time>
      </trkpt>
      <trkpt lat="43.73336" lon="7.01013">
        <ele>836.20001220703</ele>
        <time>2011-04-03T15:31:15.000Z</time>
      </trkpt>
      <trkpt lat="43.7334" lon="7.0102">
        <ele>835</ele>
        <time>2011-04-03T15:31:18.000Z</time>
      </trkpt>
      <trkpt lat="43.7334" lon="7.01025">
        <ele>835</ele>
        <time>2011-04-03T15:31:20.000Z</time>
      </trkpt>
      <trkpt lat="43.73342" lon="7.01039">
        <ele>834.59997558594</ele>
        <time>2011-04-03T15:31:25.000Z</time>
      </trkpt>
      <trkpt lat="43.73344" lon="7.01054">
        <ele>834</ele>
        <time>2011-04-03T15:31:31.000Z</time>
      </trkpt>
      <trkpt lat="43.73344" lon="7.01056">
        <ele>834</ele>
        <time>2011-04-03T15:31:32.000Z</time>
      </trkpt>
      <trkpt lat="43.73347" lon="7.01064">
        <ele>833</ele>
        <time>2011-04-03T15:31:36.000Z</time>
      </trkpt>
      <trkpt lat="43.73347" lon="7.01066">
        <ele>833</ele>
        <time>2011-04-03T15:31:37.000Z</time>
      </trkpt>
      <trkpt lat="43.73348" lon="7.0107">
        <ele>832.79998779297</ele>
        <time>2011-04-03T15:31:42.000Z</time>
      </trkpt>
      <trkpt lat="43.73347" lon="7.01078">
        <ele>833.20001220703</ele>
        <time>2011-04-03T15:31:45.000Z</time>
      </trkpt>
      <trkpt lat="43.73347" lon="7.01091">
        <ele>832.79998779297</ele>
        <time>2011-04-03T15:31:48.000Z</time>
      </trkpt>
      <trkpt lat="43.73348" lon="7.01098">
        <ele>832.20001220703</ele>
        <time>2011-04-03T15:31:50.000Z</time>
      </trkpt>
      <trkpt lat="43.73352" lon="7.01113">
        <ele>830</ele>
        <time>2011-04-03T15:31:54.000Z</time>
      </trkpt>
      <trkpt lat="43.73353" lon="7.01117">
        <ele>829.59997558594</ele>
        <time>2011-04-03T15:31:55.000Z</time>
      </trkpt>
      <trkpt lat="43.73357" lon="7.01131">
        <ele>827.79998779297</ele>
        <time>2011-04-03T15:31:59.000Z</time>
      </trkpt>
      <trkpt lat="43.73363" lon="7.0114">
        <ele>826.20001220703</ele>
        <time>2011-04-03T15:32:03.000Z</time>
      </trkpt>
      <trkpt lat="43.73365" lon="7.01141">
        <ele>825.59997558594</ele>
        <time>2011-04-03T15:32:05.000Z</time>
      </trkpt>
      <trkpt lat="43.73373" lon="7.01145">
        <ele>824</ele>
        <time>2011-04-03T15:32:10.000Z</time>
      </trkpt>
      <trkpt lat="43.7338" lon="7.01143">
        <ele>822.40002441406</ele>
        <time>2011-04-03T15:32:14.000Z</time>
      </trkpt>
      <trkpt lat="43.73382" lon="7.01143">
        <ele>822</ele>
        <time>2011-04-03T15:32:15.000Z</time>
      </trkpt>
      <trkpt lat="43.7339" lon="7.01142">
        <ele>820.40002441406</ele>
        <time>2011-04-03T15:32:19.000Z</time>
      </trkpt>
      <trkpt lat="43.73392" lon="7.01141">
        <ele>820</ele>
        <time>2011-04-03T15:32:21.000Z</time>
      </trkpt>
      <trkpt lat="43.73393" lon="7.01143">
        <ele>819.79998779297</ele>
        <time>2011-04-03T15:32:36.000Z</time>
      </trkpt>
      <trkpt lat="43.73394" lon="7.01141">
        <ele>819.59997558594</ele>
        <time>2011-04-03T15:32:54.000Z</time>
      </trkpt>
      <trkpt lat="43.73396" lon="7.01141">
        <ele>819.20001220703</ele>
        <time>2011-04-03T15:33:01.000Z</time>
      </trkpt>
      <trkpt lat="43.73395" lon="7.01142">
        <ele>819.40002441406</ele>
        <time>2011-04-03T15:33:04.000Z</time>
      </trkpt>
      <trkpt lat="43.73394" lon="7.01144">
        <ele>819.59997558594</ele>
        <time>2011-04-03T15:33:06.000Z</time>
      </trkpt>
      <trkpt lat="43.7339" lon="7.01153">
        <ele>820.79998779297</ele>
        <time>2011-04-03T15:33:15.000Z</time>
      </trkpt>
      <trkpt lat="43.73387" lon="7.01157">
        <ele>821.20001220703</ele>
        <time>2011-04-03T15:33:23.000Z</time>
      </trkpt>
      <trkpt lat="43.73388" lon="7.01158">
        <ele>821.20001220703</ele>
        <time>2011-04-03T15:33:33.000Z</time>
      </trkpt>
      <trkpt lat="43.7339" lon="7.01164">
        <ele>821</ele>
        <time>2011-04-03T15:33:40.000Z</time>
      </trkpt>
      <trkpt lat="43.73391" lon="7.01167">
        <ele>821</ele>
        <time>2011-04-03T15:33:41.000Z</time>
      </trkpt>
      <trkpt lat="43.73394" lon="7.01178">
        <ele>820.59997558594</ele>
        <time>2011-04-03T15:33:44.000Z</time>
      </trkpt>
      <trkpt lat="43.73397" lon="7.0118">
        <ele>820.40002441406</ele>
        <time>2011-04-03T15:33:45.000Z</time>
      </trkpt>
      <trkpt lat="43.73401" lon="7.01185">
        <ele>820</ele>
        <time>2011-04-03T15:33:47.000Z</time>
      </trkpt>
      <trkpt lat="43.73408" lon="7.01188">
        <ele>819</ele>
        <time>2011-04-03T15:33:50.000Z</time>
      </trkpt>
      <trkpt lat="43.73417" lon="7.01195">
        <ele>818.20001220703</ele>
        <time>2011-04-03T15:33:55.000Z</time>
      </trkpt>
      <trkpt lat="43.73427" lon="7.01214">
        <ele>817.40002441406</ele>
        <time>2011-04-03T15:34:01.000Z</time>
      </trkpt>
      <trkpt lat="43.7343" lon="7.01219">
        <ele>817</ele>
        <time>2011-04-03T15:34:02.000Z</time>
      </trkpt>
      <trkpt lat="43.73444" lon="7.01237">
        <ele>815.59997558594</ele>
        <time>2011-04-03T15:34:07.000Z</time>
      </trkpt>
      <trkpt lat="43.73453" lon="7.0125">
        <ele>814.79998779297</ele>
        <time>2011-04-03T15:34:11.000Z</time>
      </trkpt>
      <trkpt lat="43.73455" lon="7.01258">
        <ele>814.20001220703</ele>
        <time>2011-04-03T15:34:13.000Z</time>
      </trkpt>
      <trkpt lat="43.73457" lon="7.0126">
        <ele>814</ele>
        <time>2011-04-03T15:34:14.000Z</time>
      </trkpt>
      <trkpt lat="43.73461" lon="7.0126">
        <ele>813.20001220703</ele>
        <time>2011-04-03T15:34:16.000Z</time>
      </trkpt>
      <trkpt lat="43.7347" lon="7.01256">
        <ele>811.79998779297</ele>
        <time>2011-04-03T15:34:20.000Z</time>
      </trkpt>
      <trkpt lat="43.73472" lon="7.01256">
        <ele>811.40002441406</ele>
        <time>2011-04-03T15:34:21.000Z</time>
      </trkpt>
      <trkpt lat="43.73481" lon="7.01257">
        <ele>810</ele>
        <time>2011-04-03T15:34:27.000Z</time>
      </trkpt>
      <trkpt lat="43.73486" lon="7.01262">
        <ele>809</ele>
        <time>2011-04-03T15:34:36.000Z</time>
      </trkpt>
      <trkpt lat="43.73488" lon="7.01261">
        <ele>808.59997558594</ele>
        <time>2011-04-03T15:34:37.000Z</time>
      </trkpt>
      <trkpt lat="43.7349" lon="7.01261">
        <ele>808.20001220703</ele>
        <time>2011-04-03T15:34:38.000Z</time>
      </trkpt>
      <trkpt lat="43.73499" lon="7.01265">
        <ele>806.59997558594</ele>
        <time>2011-04-03T15:34:41.000Z</time>
      </trkpt>
      <trkpt lat="43.73508" lon="7.0127">
        <ele>804.79998779297</ele>
        <time>2011-04-03T15:34:44.000Z</time>
      </trkpt>
      <trkpt lat="43.73513" lon="7.01275">
        <ele>803.59997558594</ele>
        <time>2011-04-03T15:34:47.000Z</time>
      </trkpt>
      <trkpt lat="43.73522" lon="7.01281">
        <ele>801.59997558594</ele>
        <time>2011-04-03T15:34:52.000Z</time>
      </trkpt>
      <trkpt lat="43.73524" lon="7.01282">
        <ele>801.20001220703</ele>
        <time>2011-04-03T15:34:56.000Z</time>
      </trkpt>
      <trkpt lat="43.73528" lon="7.01285">
        <ele>800.40002441406</ele>
        <time>2011-04-03T15:34:59.000Z</time>
      </trkpt>
      <trkpt lat="43.73541" lon="7.01292">
        <ele>797.79998779297</ele>
        <time>2011-04-03T15:35:04.000Z</time>
      </trkpt>
      <trkpt lat="43.73551" lon="7.01311">
        <ele>796</ele>
        <time>2011-04-03T15:35:10.000Z</time>
      </trkpt>
      <trkpt lat="43.73552" lon="7.01314">
        <ele>796</ele>
        <time>2011-04-03T15:35:11.000Z</time>
      </trkpt>
      <trkpt lat="43.73557" lon="7.0133">
        <ele>795.40002441406</ele>
        <time>2011-04-03T15:35:16.000Z</time>
      </trkpt>
      <trkpt lat="43.73563" lon="7.01329">
        <ele>794.20001220703</ele>
        <time>2011-04-03T15:35:20.000Z</time>
      </trkpt>
      <trkpt lat="43.73574" lon="7.01323">
        <ele>792.20001220703</ele>
        <time>2011-04-03T15:35:25.000Z</time>
      </trkpt>
      <trkpt lat="43.73582" lon="7.01319">
        <ele>790.59997558594</ele>
        <time>2011-04-03T15:35:29.000Z</time>
      </trkpt>
      <trkpt lat="43.73586" lon="7.01316">
        <ele>789.79998779297</ele>
        <time>2011-04-03T15:35:31.000Z</time>
      </trkpt>
      <trkpt lat="43.736" lon="7.01307">
        <ele>786.40002441406</ele>
        <time>2011-04-03T15:35:37.000Z</time>
      </trkpt>
      <trkpt lat="43.73605" lon="7.01316">
        <ele>785.59997558594</ele>
        <time>2011-04-03T15:35:41.000Z</time>
      </trkpt>
      <trkpt lat="43.73608" lon="7.01329">
        <ele>785.40002441406</ele>
        <time>2011-04-03T15:35:45.000Z</time>
      </trkpt>
      <trkpt lat="43.73609" lon="7.01333">
        <ele>785.40002441406</ele>
        <time>2011-04-03T15:35:46.000Z</time>
      </trkpt>
      <trkpt lat="43.73613" lon="7.01351">
        <ele>784.20001220703</ele>
        <time>2011-04-03T15:35:51.000Z</time>
      </trkpt>
      <trkpt lat="43.73614" lon="7.01354">
        <ele>784</ele>
        <time>2011-04-03T15:35:52.000Z</time>
      </trkpt>
      <trkpt lat="43.73614" lon="7.01357">
        <ele>784</ele>
        <time>2011-04-03T15:35:53.000Z</time>
      </trkpt>
      <trkpt lat="43.73615" lon="7.01361">
        <ele>783.59997558594</ele>
        <time>2011-04-03T15:35:55.000Z</time>
      </trkpt>
      <trkpt lat="43.73622" lon="7.01361">
        <ele>782.20001220703</ele>
        <time>2011-04-03T15:35:58.000Z</time>
      </trkpt>
      <trkpt lat="43.73625" lon="7.0136">
        <ele>781.79998779297</ele>
        <time>2011-04-03T15:35:59.000Z</time>
      </trkpt>
      <trkpt lat="43.73628" lon="7.0136">
        <ele>781.20001220703</ele>
        <time>2011-04-03T15:36:00.000Z</time>
      </trkpt>
      <trkpt lat="43.7364" lon="7.01365">
        <ele>779</ele>
        <time>2011-04-03T15:36:04.000Z</time>
      </trkpt>
      <trkpt lat="43.73645" lon="7.01369">
        <ele>778</ele>
        <time>2011-04-03T15:36:06.000Z</time>
      </trkpt>
      <trkpt lat="43.73655" lon="7.01375">
        <ele>776.59997558594</ele>
        <time>2011-04-03T15:36:10.000Z</time>
      </trkpt>
      <trkpt lat="43.73657" lon="7.01376">
        <ele>776.20001220703</ele>
        <time>2011-04-03T15:36:16.000Z</time>
      </trkpt>
      <trkpt lat="43.73659" lon="7.01375">
        <ele>775.79998779297</ele>
        <time>2011-04-03T15:36:18.000Z</time>
      </trkpt>
      <trkpt lat="43.7366" lon="7.01375">
        <ele>775.40002441406</ele>
        <time>2011-04-03T15:36:20.000Z</time>
      </trkpt>
      <trkpt lat="43.73661" lon="7.01376">
        <ele>775.40002441406</ele>
        <time>2011-04-03T15:36:22.000Z</time>
      </trkpt>
      <trkpt lat="43.73662" lon="7.01377">
        <ele>775.20001220703</ele>
        <time>2011-04-03T15:36:23.000Z</time>
      </trkpt>
      <trkpt lat="43.73666" lon="7.01382">
        <ele>774.79998779297</ele>
        <time>2011-04-03T15:36:25.000Z</time>
      </trkpt>
      <trkpt lat="43.73669" lon="7.01401">
        <ele>774.79998779297</ele>
        <time>2011-04-03T15:36:30.000Z</time>
      </trkpt>
      <trkpt lat="43.7367" lon="7.01402">
        <ele>774.79998779297</ele>
        <time>2011-04-03T15:36:31.000Z</time>
      </trkpt>
      <trkpt lat="43.73672" lon="7.01409">
        <ele>774.59997558594</ele>
        <time>2011-04-03T15:36:40.000Z</time>
      </trkpt>
      <trkpt lat="43.73673" lon="7.01411">
        <ele>774.59997558594</ele>
        <time>2011-04-03T15:36:42.000Z</time>
      </trkpt>
      <trkpt lat="43.73674" lon="7.01414">
        <ele>774.59997558594</ele>
        <time>2011-04-03T15:36:45.000Z</time>
      </trkpt>
      <trkpt lat="43.73678" lon="7.0142">
        <ele>774</ele>
        <time>2011-04-03T15:36:51.000Z</time>
      </trkpt>
      <trkpt lat="43.73679" lon="7.0142">
        <ele>773.79998779297</ele>
        <time>2011-04-03T15:36:52.000Z</time>
      </trkpt>
      <trkpt lat="43.7368" lon="7.0142">
        <ele>773.79998779297</ele>
        <time>2011-04-03T15:36:53.000Z</time>
      </trkpt>
      <trkpt lat="43.7368" lon="7.01419">
        <ele>773.59997558594</ele>
        <time>2011-04-03T15:36:54.000Z</time>
      </trkpt>
      <trkpt lat="43.73682" lon="7.01417">
        <ele>773.20001220703</ele>
        <time>2011-04-03T15:36:56.000Z</time>
      </trkpt>
      <trkpt lat="43.73686" lon="7.01413">
        <ele>772.20001220703</ele>
        <time>2011-04-03T15:37:02.000Z</time>
      </trkpt>
      <trkpt lat="43.73694" lon="7.01402">
        <ele>770.40002441406</ele>
        <time>2011-04-03T15:37:07.000Z</time>
      </trkpt>
      <trkpt lat="43.73696" lon="7.01401">
        <ele>770</ele>
        <time>2011-04-03T15:37:08.000Z</time>
      </trkpt>
      <trkpt lat="43.73702" lon="7.01403">
        <ele>769</ele>
        <time>2011-04-03T15:37:12.000Z</time>
      </trkpt>
      <trkpt lat="43.73704" lon="7.01402">
        <ele>768.59997558594</ele>
        <time>2011-04-03T15:37:13.000Z</time>
      </trkpt>
      <trkpt lat="43.73711" lon="7.01393">
        <ele>767</ele>
        <time>2011-04-03T15:37:17.000Z</time>
      </trkpt>
      <trkpt lat="43.73714" lon="7.01391">
        <ele>766.20001220703</ele>
        <time>2011-04-03T15:37:19.000Z</time>
      </trkpt>
      <trkpt lat="43.73719" lon="7.0139">
        <ele>765.20001220703</ele>
        <time>2011-04-03T15:37:22.000Z</time>
      </trkpt>
      <trkpt lat="43.73729" lon="7.0139">
        <ele>763.40002441406</ele>
        <time>2011-04-03T15:37:27.000Z</time>
      </trkpt>
      <trkpt lat="43.73741" lon="7.01388">
        <ele>761.20001220703</ele>
        <time>2011-04-03T15:37:32.000Z</time>
      </trkpt>
      <trkpt lat="43.73747" lon="7.01383">
        <ele>759.79998779297</ele>
        <time>2011-04-03T15:37:35.000Z</time>
      </trkpt>
      <trkpt lat="43.7375" lon="7.0138">
        <ele>759.20001220703</ele>
        <time>2011-04-03T15:37:37.000Z</time>
      </trkpt>
      <trkpt lat="43.73752" lon="7.01378">
        <ele>758.79998779297</ele>
        <time>2011-04-03T15:37:38.000Z</time>
      </trkpt>
      <trkpt lat="43.73758" lon="7.01376">
        <ele>757.79998779297</ele>
        <time>2011-04-03T15:37:41.000Z</time>
      </trkpt>
      <trkpt lat="43.73759" lon="7.01375">
        <ele>757.59997558594</ele>
        <time>2011-04-03T15:37:46.000Z</time>
      </trkpt>
      <trkpt lat="43.73765" lon="7.01375">
        <ele>756.79998779297</ele>
        <time>2011-04-03T15:37:52.000Z</time>
      </trkpt>
      <trkpt lat="43.73773" lon="7.01375">
        <ele>755.59997558594</ele>
        <time>2011-04-03T15:37:56.000Z</time>
      </trkpt>
      <trkpt lat="43.73774" lon="7.01376">
        <ele>755.59997558594</ele>
        <time>2011-04-03T15:37:57.000Z</time>
      </trkpt>
      <trkpt lat="43.73782" lon="7.0138">
        <ele>754.79998779297</ele>
        <time>2011-04-03T15:38:01.000Z</time>
      </trkpt>
      <trkpt lat="43.73783" lon="7.0138">
        <ele>754.59997558594</ele>
        <time>2011-04-03T15:38:02.000Z</time>
      </trkpt>
      <trkpt lat="43.73784" lon="7.0138">
        <ele>754.40002441406</ele>
        <time>2011-04-03T15:38:03.000Z</time>
      </trkpt>
      <trkpt lat="43.7379" lon="7.01376">
        <ele>753.20001220703</ele>
        <time>2011-04-03T15:38:07.000Z</time>
      </trkpt>
      <trkpt lat="43.73791" lon="7.01375">
        <ele>753</ele>
        <time>2011-04-03T15:38:08.000Z</time>
      </trkpt>
      <trkpt lat="43.73799" lon="7.01367">
        <ele>751</ele>
        <time>2011-04-03T15:38:12.000Z</time>
      </trkpt>
      <trkpt lat="43.738" lon="7.01363">
        <ele>750.20001220703</ele>
        <time>2011-04-03T15:38:13.000Z</time>
      </trkpt>
      <trkpt lat="43.73804" lon="7.01347">
        <ele>747.59997558594</ele>
        <time>2011-04-03T15:38:16.000Z</time>
      </trkpt>
      <trkpt lat="43.73805" lon="7.01342">
        <ele>746.79998779297</ele>
        <time>2011-04-03T15:38:17.000Z</time>
      </trkpt>
      <trkpt lat="43.73806" lon="7.01337">
        <ele>745.79998779297</ele>
        <time>2011-04-03T15:38:18.000Z</time>
      </trkpt>
      <trkpt lat="43.73816" lon="7.01321">
        <ele>742.40002441406</ele>
        <time>2011-04-03T15:38:22.000Z</time>
      </trkpt>
      <trkpt lat="43.73818" lon="7.01318">
        <ele>741.59997558594</ele>
        <time>2011-04-03T15:38:23.000Z</time>
      </trkpt>
      <trkpt lat="43.73829" lon="7.01302">
        <ele>737.59997558594</ele>
        <time>2011-04-03T15:38:27.000Z</time>
      </trkpt>
      <trkpt lat="43.73833" lon="7.013">
        <ele>736.40002441406</ele>
        <time>2011-04-03T15:38:28.000Z</time>
      </trkpt>
      <trkpt lat="43.7384" lon="7.01298">
        <ele>735.20001220703</ele>
        <time>2011-04-03T15:38:30.000Z</time>
      </trkpt>
      <trkpt lat="43.73849" lon="7.01296">
        <ele>734.20001220703</ele>
        <time>2011-04-03T15:38:33.000Z</time>
      </trkpt>
      <trkpt lat="43.73851" lon="7.01297">
        <ele>734</ele>
        <time>2011-04-03T15:38:34.000Z</time>
      </trkpt>
      <trkpt lat="43.73858" lon="7.013">
        <ele>733.59997558594</ele>
        <time>2011-04-03T15:38:37.000Z</time>
      </trkpt>
      <trkpt lat="43.73866" lon="7.01302">
        <ele>733.20001220703</ele>
        <time>2011-04-03T15:38:39.000Z</time>
      </trkpt>
      <trkpt lat="43.73869" lon="7.01303">
        <ele>733</ele>
        <time>2011-04-03T15:38:40.000Z</time>
      </trkpt>
      <trkpt lat="43.73881" lon="7.01307">
        <ele>732.40002441406</ele>
        <time>2011-04-03T15:38:44.000Z</time>
      </trkpt>
      <trkpt lat="43.73883" lon="7.01306">
        <ele>732</ele>
        <time>2011-04-03T15:38:45.000Z</time>
      </trkpt>
      <trkpt lat="43.73885" lon="7.01305">
        <ele>731.59997558594</ele>
        <time>2011-04-03T15:38:49.000Z</time>
      </trkpt>
      <trkpt lat="43.73888" lon="7.01306">
        <ele>731.40002441406</ele>
        <time>2011-04-03T15:38:53.000Z</time>
      </trkpt>
      <trkpt lat="43.7389" lon="7.01305">
        <ele>731.20001220703</ele>
        <time>2011-04-03T15:38:54.000Z</time>
      </trkpt>
      <trkpt lat="43.73907" lon="7.01302">
        <ele>728.79998779297</ele>
        <time>2011-04-03T15:38:59.000Z</time>
      </trkpt>
      <trkpt lat="43.73928" lon="7.01299">
        <ele>726.59997558594</ele>
        <time>2011-04-03T15:39:04.000Z</time>
      </trkpt>
      <trkpt lat="43.73932" lon="7.01299">
        <ele>726.40002441406</ele>
        <time>2011-04-03T15:39:05.000Z</time>
      </trkpt>
      <trkpt lat="43.73946" lon="7.01294">
        <ele>725</ele>
        <time>2011-04-03T15:39:09.000Z</time>
      </trkpt>
      <trkpt lat="43.73948" lon="7.0129">
        <ele>724.20001220703</ele>
        <time>2011-04-03T15:39:10.000Z</time>
      </trkpt>
      <trkpt lat="43.73961" lon="7.01281">
        <ele>721.79998779297</ele>
        <time>2011-04-03T15:39:14.000Z</time>
      </trkpt>
      <trkpt lat="43.73974" lon="7.01284">
        <ele>722.20001220703</ele>
        <time>2011-04-03T15:39:18.000Z</time>
      </trkpt>
      <trkpt lat="43.73977" lon="7.01284">
        <ele>722</ele>
        <time>2011-04-03T15:39:21.000Z</time>
      </trkpt>
      <trkpt lat="43.73979" lon="7.01282">
        <ele>721.59997558594</ele>
        <time>2011-04-03T15:39:28.000Z</time>
      </trkpt>
      <trkpt lat="43.7398" lon="7.01281">
        <ele>721.40002441406</ele>
        <time>2011-04-03T15:39:29.000Z</time>
      </trkpt>
      <trkpt lat="43.73982" lon="7.01277">
        <ele>720.59997558594</ele>
        <time>2011-04-03T15:39:35.000Z</time>
      </trkpt>
      <trkpt lat="43.73983" lon="7.01272">
        <ele>719.40002441406</ele>
        <time>2011-04-03T15:39:40.000Z</time>
      </trkpt>
      <trkpt lat="43.73984" lon="7.0127">
        <ele>719.20001220703</ele>
        <time>2011-04-03T15:39:41.000Z</time>
      </trkpt>
      <trkpt lat="43.73989" lon="7.01262">
        <ele>717.40002441406</ele>
        <time>2011-04-03T15:39:44.000Z</time>
      </trkpt>
      <trkpt lat="43.73994" lon="7.01253">
        <ele>715.59997558594</ele>
        <time>2011-04-03T15:39:46.000Z</time>
      </trkpt>
      <trkpt lat="43.73998" lon="7.01239">
        <ele>713</ele>
        <time>2011-04-03T15:39:49.000Z</time>
      </trkpt>
      <trkpt lat="43.73999" lon="7.01234">
        <ele>712</ele>
        <time>2011-04-03T15:39:50.000Z</time>
      </trkpt>
      <trkpt lat="43.74005" lon="7.01214">
        <ele>708.20001220703</ele>
        <time>2011-04-03T15:39:54.000Z</time>
      </trkpt>
      <trkpt lat="43.7401" lon="7.01205">
        <ele>706.59997558594</ele>
        <time>2011-04-03T15:39:56.000Z</time>
      </trkpt>
      <trkpt lat="43.74017" lon="7.01196">
        <ele>704.79998779297</ele>
        <time>2011-04-03T15:39:59.000Z</time>
      </trkpt>
      <trkpt lat="43.74024" lon="7.01187">
        <ele>703.40002441406</ele>
        <time>2011-04-03T15:40:01.000Z</time>
      </trkpt>
      <trkpt lat="43.74034" lon="7.01176">
        <ele>701.40002441406</ele>
        <time>2011-04-03T15:40:04.000Z</time>
      </trkpt>
      <trkpt lat="43.74039" lon="7.01172">
        <ele>700.59997558594</ele>
        <time>2011-04-03T15:40:06.000Z</time>
      </trkpt>
      <trkpt lat="43.74048" lon="7.01162">
        <ele>698.79998779297</ele>
        <time>2011-04-03T15:40:10.000Z</time>
      </trkpt>
      <trkpt lat="43.74051" lon="7.0116">
        <ele>698.59997558594</ele>
        <time>2011-04-03T15:40:11.000Z</time>
      </trkpt>
      <trkpt lat="43.74058" lon="7.01156">
        <ele>697.59997558594</ele>
        <time>2011-04-03T15:40:15.000Z</time>
      </trkpt>
      <trkpt lat="43.74059" lon="7.01155">
        <ele>697.40002441406</ele>
        <time>2011-04-03T15:40:19.000Z</time>
      </trkpt>
      <trkpt lat="43.74064" lon="7.01153">
        <ele>697</ele>
        <time>2011-04-03T15:40:28.000Z</time>
      </trkpt>
      <trkpt lat="43.74069" lon="7.0115">
        <ele>696.40002441406</ele>
        <time>2011-04-03T15:40:34.000Z</time>
      </trkpt>
      <trkpt lat="43.74069" lon="7.0115">
        <ele>696.20001220703</ele>
        <time>2011-04-03T15:40:35.000Z</time>
      </trkpt>
      <trkpt lat="43.74073" lon="7.01148">
        <ele>695.79998779297</ele>
        <time>2011-04-03T15:40:41.000Z</time>
      </trkpt>
      <trkpt lat="43.74076" lon="7.01146">
        <ele>695.59997558594</ele>
        <time>2011-04-03T15:40:44.000Z</time>
      </trkpt>
      <trkpt lat="43.74079" lon="7.01145">
        <ele>695.20001220703</ele>
        <time>2011-04-03T15:40:48.000Z</time>
      </trkpt>
      <trkpt lat="43.7408" lon="7.01144">
        <ele>695</ele>
        <time>2011-04-03T15:40:49.000Z</time>
      </trkpt>
      <trkpt lat="43.74081" lon="7.01142">
        <ele>694.59997558594</ele>
        <time>2011-04-03T15:40:53.000Z</time>
      </trkpt>
      <trkpt lat="43.74085" lon="7.0114">
        <ele>693.79998779297</ele>
        <time>2011-04-03T15:40:57.000Z</time>
      </trkpt>
      <trkpt lat="43.74086" lon="7.01138">
        <ele>693.20001220703</ele>
        <time>2011-04-03T15:41:00.000Z</time>
      </trkpt>
      <trkpt lat="43.74088" lon="7.01136">
        <ele>692.40002441406</ele>
        <time>2011-04-03T15:41:06.000Z</time>
      </trkpt>
      <trkpt lat="43.74096" lon="7.01139">
        <ele>691.40002441406</ele>
        <time>2011-04-03T15:41:11.000Z</time>
      </trkpt>
      <trkpt lat="43.74099" lon="7.01138">
        <ele>690.79998779297</ele>
        <time>2011-04-03T15:41:18.000Z</time>
      </trkpt>
      <trkpt lat="43.74102" lon="7.01139">
        <ele>690.40002441406</ele>
        <time>2011-04-03T15:41:20.000Z</time>
      </trkpt>
      <trkpt lat="43.74104" lon="7.01143">
        <ele>690.79998779297</ele>
        <time>2011-04-03T15:41:22.000Z</time>
      </trkpt>
      <trkpt lat="43.74104" lon="7.01145">
        <ele>691.20001220703</ele>
        <time>2011-04-03T15:41:26.000Z</time>
      </trkpt>
      <trkpt lat="43.74107" lon="7.01144">
        <ele>690.20001220703</ele>
        <time>2011-04-03T15:41:31.000Z</time>
      </trkpt>
      <trkpt lat="43.74108" lon="7.01137">
        <ele>688.59997558594</ele>
        <time>2011-04-03T15:41:38.000Z</time>
      </trkpt>
      <trkpt lat="43.74112" lon="7.01138">
        <ele>688</ele>
        <time>2011-04-03T15:41:43.000Z</time>
      </trkpt>
      <trkpt lat="43.74115" lon="7.01143">
        <ele>688.59997558594</ele>
        <time>2011-04-03T15:41:50.000Z</time>
      </trkpt>
      <trkpt lat="43.74118" lon="7.01146">
        <ele>688.79998779297</ele>
        <time>2011-04-03T15:41:55.000Z</time>
      </trkpt>
      <trkpt lat="43.74121" lon="7.01148">
        <ele>688.59997558594</ele>
        <time>2011-04-03T15:42:01.000Z</time>
      </trkpt>
      <trkpt lat="43.7412" lon="7.01141">
        <ele>687.20001220703</ele>
        <time>2011-04-03T15:42:06.000Z</time>
      </trkpt>
      <trkpt lat="43.7412" lon="7.01139">
        <ele>686.59997558594</ele>
        <time>2011-04-03T15:42:07.000Z</time>
      </trkpt>
      <trkpt lat="43.74122" lon="7.01138">
        <ele>686.20001220703</ele>
        <time>2011-04-03T15:42:09.000Z</time>
      </trkpt>
      <trkpt lat="43.74123" lon="7.01138">
        <ele>686</ele>
        <time>2011-04-03T15:42:10.000Z</time>
      </trkpt>
      <trkpt lat="43.74127" lon="7.01143">
        <ele>686.20001220703</ele>
        <time>2011-04-03T15:42:13.000Z</time>
      </trkpt>
      <trkpt lat="43.74131" lon="7.01149">
        <ele>686.79998779297</ele>
        <time>2011-04-03T15:42:16.000Z</time>
      </trkpt>
      <trkpt lat="43.74133" lon="7.01154">
        <ele>687.59997558594</ele>
        <time>2011-04-03T15:42:19.000Z</time>
      </trkpt>
      <trkpt lat="43.74136" lon="7.01161">
        <ele>688.40002441406</ele>
        <time>2011-04-03T15:42:22.000Z</time>
      </trkpt>
      <trkpt lat="43.74141" lon="7.01167">
        <ele>688.79998779297</ele>
        <time>2011-04-03T15:42:26.000Z</time>
      </trkpt>
      <trkpt lat="43.74142" lon="7.01166">
        <ele>688.59997558594</ele>
        <time>2011-04-03T15:42:27.000Z</time>
      </trkpt>
      <trkpt lat="43.74142" lon="7.01166">
        <ele>688.40002441406</ele>
        <time>2011-04-03T15:42:28.000Z</time>
      </trkpt>
      <trkpt lat="43.74147" lon="7.01164">
        <ele>687</ele>
        <time>2011-04-03T15:42:31.000Z</time>
      </trkpt>
      <trkpt lat="43.74149" lon="7.01162">
        <ele>686.40002441406</ele>
        <time>2011-04-03T15:42:32.000Z</time>
      </trkpt>
      <trkpt lat="43.74152" lon="7.01158">
        <ele>684.79998779297</ele>
        <time>2011-04-03T15:42:35.000Z</time>
      </trkpt>
      <trkpt lat="43.74153" lon="7.01157">
        <ele>684.59997558594</ele>
        <time>2011-04-03T15:42:37.000Z</time>
      </trkpt>
      <trkpt lat="43.74155" lon="7.01154">
        <ele>683.20001220703</ele>
        <time>2011-04-03T15:42:42.000Z</time>
      </trkpt>
      <trkpt lat="43.74157" lon="7.0115">
        <ele>681.79998779297</ele>
        <time>2011-04-03T15:42:46.000Z</time>
      </trkpt>
      <trkpt lat="43.74159" lon="7.01146">
        <ele>680.79998779297</ele>
        <time>2011-04-03T15:42:49.000Z</time>
      </trkpt>
      <trkpt lat="43.7416" lon="7.01144">
        <ele>680.20001220703</ele>
        <time>2011-04-03T15:42:51.000Z</time>
      </trkpt>
      <trkpt lat="43.7416" lon="7.01143">
        <ele>679.79998779297</ele>
        <time>2011-04-03T15:42:52.000Z</time>
      </trkpt>
      <trkpt lat="43.74161" lon="7.01139">
        <ele>678.79998779297</ele>
        <time>2011-04-03T15:42:55.000Z</time>
      </trkpt>
      <trkpt lat="43.74162" lon="7.01137">
        <ele>678</ele>
        <time>2011-04-03T15:42:57.000Z</time>
      </trkpt>
      <trkpt lat="43.74166" lon="7.01135">
        <ele>676.79998779297</ele>
        <time>2011-04-03T15:43:02.000Z</time>
      </trkpt>
      <trkpt lat="43.74171" lon="7.0113">
        <ele>675.20001220703</ele>
        <time>2011-04-03T15:43:08.000Z</time>
      </trkpt>
      <trkpt lat="43.74172" lon="7.01127">
        <ele>674.59997558594</ele>
        <time>2011-04-03T15:43:10.000Z</time>
      </trkpt>
      <trkpt lat="43.74175" lon="7.01124">
        <ele>673.79998779297</ele>
        <time>2011-04-03T15:43:14.000Z</time>
      </trkpt>
      <trkpt lat="43.74181" lon="7.0112">
        <ele>672.40002441406</ele>
        <time>2011-04-03T15:43:21.000Z</time>
      </trkpt>
      <trkpt lat="43.74184" lon="7.01117">
        <ele>671.59997558594</ele>
        <time>2011-04-03T15:43:26.000Z</time>
      </trkpt>
      <trkpt lat="43.74188" lon="7.01114">
        <ele>670.59997558594</ele>
        <time>2011-04-03T15:43:29.000Z</time>
      </trkpt>
      <trkpt lat="43.7419" lon="7.01112">
        <ele>670.20001220703</ele>
        <time>2011-04-03T15:43:30.000Z</time>
      </trkpt>
      <trkpt lat="43.74205" lon="7.01107">
        <ele>668.20001220703</ele>
        <time>2011-04-03T15:43:36.000Z</time>
      </trkpt>
      <trkpt lat="43.74208" lon="7.01106">
        <ele>667.79998779297</ele>
        <time>2011-04-03T15:43:37.000Z</time>
      </trkpt>
      <trkpt lat="43.74223" lon="7.011">
        <ele>665.59997558594</ele>
        <time>2011-04-03T15:43:42.000Z</time>
      </trkpt>
      <trkpt lat="43.74226" lon="7.01099">
        <ele>665.40002441406</ele>
        <time>2011-04-03T15:43:43.000Z</time>
      </trkpt>
      <trkpt lat="43.74238" lon="7.01093">
        <ele>663.59997558594</ele>
        <time>2011-04-03T15:43:47.000Z</time>
      </trkpt>
      <trkpt lat="43.74243" lon="7.01086">
        <ele>661.79998779297</ele>
        <time>2011-04-03T15:43:50.000Z</time>
      </trkpt>
      <trkpt lat="43.74243" lon="7.01081">
        <ele>661</ele>
        <time>2011-04-03T15:43:51.000Z</time>
      </trkpt>
      <trkpt lat="43.74241" lon="7.0106">
        <ele>657.79998779297</ele>
        <time>2011-04-03T15:43:55.000Z</time>
      </trkpt>
      <trkpt lat="43.74243" lon="7.01038">
        <ele>654.59997558594</ele>
        <time>2011-04-03T15:44:00.000Z</time>
      </trkpt>
      <trkpt lat="43.74244" lon="7.01033">
        <ele>653.79998779297</ele>
        <time>2011-04-03T15:44:01.000Z</time>
      </trkpt>
      <trkpt lat="43.74253" lon="7.01019">
        <ele>651.59997558594</ele>
        <time>2011-04-03T15:44:05.000Z</time>
      </trkpt>
      <trkpt lat="43.74259" lon="7.0101">
        <ele>650</ele>
        <time>2011-04-03T15:44:07.000Z</time>
      </trkpt>
      <trkpt lat="43.74268" lon="7.01003">
        <ele>648.79998779297</ele>
        <time>2011-04-03T15:44:09.000Z</time>
      </trkpt>
      <trkpt lat="43.74277" lon="7.00997">
        <ele>647.40002441406</ele>
        <time>2011-04-03T15:44:12.000Z</time>
      </trkpt>
      <trkpt lat="43.74279" lon="7.00994">
        <ele>647</ele>
        <time>2011-04-03T15:44:13.000Z</time>
      </trkpt>
      <trkpt lat="43.74291" lon="7.00983">
        <ele>645</ele>
        <time>2011-04-03T15:44:18.000Z</time>
      </trkpt>
      <trkpt lat="43.74293" lon="7.00983">
        <ele>644.79998779297</ele>
        <time>2011-04-03T15:44:23.000Z</time>
      </trkpt>
      <trkpt lat="43.74295" lon="7.00982">
        <ele>644.59997558594</ele>
        <time>2011-04-03T15:44:25.000Z</time>
      </trkpt>
      <trkpt lat="43.74296" lon="7.00978">
        <ele>644</ele>
        <time>2011-04-03T15:44:31.000Z</time>
      </trkpt>
      <trkpt lat="43.74302" lon="7.00971">
        <ele>642.59997558594</ele>
        <time>2011-04-03T15:44:35.000Z</time>
      </trkpt>
      <trkpt lat="43.74307" lon="7.00963">
        <ele>641.20001220703</ele>
        <time>2011-04-03T15:44:38.000Z</time>
      </trkpt>
      <trkpt lat="43.74313" lon="7.00957">
        <ele>640</ele>
        <time>2011-04-03T15:44:41.000Z</time>
      </trkpt>
      <trkpt lat="43.74315" lon="7.00955">
        <ele>639.59997558594</ele>
        <time>2011-04-03T15:44:43.000Z</time>
      </trkpt>
      <trkpt lat="43.74318" lon="7.00954">
        <ele>639.40002441406</ele>
        <time>2011-04-03T15:44:45.000Z</time>
      </trkpt>
      <trkpt lat="43.74325" lon="7.00953">
        <ele>639</ele>
        <time>2011-04-03T15:44:48.000Z</time>
      </trkpt>
      <trkpt lat="43.74331" lon="7.00955">
        <ele>639</ele>
        <time>2011-04-03T15:44:50.000Z</time>
      </trkpt>
      <trkpt lat="43.74342" lon="7.0096">
        <ele>639</ele>
        <time>2011-04-03T15:44:53.000Z</time>
      </trkpt>
      <trkpt lat="43.74346" lon="7.00964">
        <ele>639.20001220703</ele>
        <time>2011-04-03T15:44:54.000Z</time>
      </trkpt>
      <trkpt lat="43.7436" lon="7.00972">
        <ele>639.59997558594</ele>
        <time>2011-04-03T15:44:58.000Z</time>
      </trkpt>
      <trkpt lat="43.74363" lon="7.0097">
        <ele>639</ele>
        <time>2011-04-03T15:44:59.000Z</time>
      </trkpt>
      <trkpt lat="43.74369" lon="7.0096">
        <ele>636.79998779297</ele>
        <time>2011-04-03T15:45:01.000Z</time>
      </trkpt>
      <trkpt lat="43.74375" lon="7.0095">
        <ele>634.40002441406</ele>
        <time>2011-04-03T15:45:03.000Z</time>
      </trkpt>
      <trkpt lat="43.74384" lon="7.00933">
        <ele>630.40002441406</ele>
        <time>2011-04-03T15:45:07.000Z</time>
      </trkpt>
      <trkpt lat="43.74385" lon="7.00929">
        <ele>629.59997558594</ele>
        <time>2011-04-03T15:45:10.000Z</time>
      </trkpt>
      <trkpt lat="43.74386" lon="7.00929">
        <ele>629.40002441406</ele>
        <time>2011-04-03T15:45:15.000Z</time>
      </trkpt>
      <trkpt lat="43.74387" lon="7.00928">
        <ele>629.20001220703</ele>
        <time>2011-04-03T15:45:17.000Z</time>
      </trkpt>
      <trkpt lat="43.74388" lon="7.00926">
        <ele>628.79998779297</ele>
        <time>2011-04-03T15:45:20.000Z</time>
      </trkpt>
      <trkpt lat="43.74388" lon="7.00924">
        <ele>628.40002441406</ele>
        <time>2011-04-03T15:45:21.000Z</time>
      </trkpt>
      <trkpt lat="43.74385" lon="7.00912">
        <ele>626.79998779297</ele>
        <time>2011-04-03T15:45:24.000Z</time>
      </trkpt>
      <trkpt lat="43.7438" lon="7.00909">
        <ele>627</ele>
        <time>2011-04-03T15:45:26.000Z</time>
      </trkpt>
      <trkpt lat="43.74377" lon="7.00909">
        <ele>627.40002441406</ele>
        <time>2011-04-03T15:45:27.000Z</time>
      </trkpt>
      <trkpt lat="43.74372" lon="7.00909">
        <ele>627.79998779297</ele>
        <time>2011-04-03T15:45:30.000Z</time>
      </trkpt>
      <trkpt lat="43.7437" lon="7.00908">
        <ele>628</ele>
        <time>2011-04-03T15:45:31.000Z</time>
      </trkpt>
      <trkpt lat="43.74369" lon="7.00906">
        <ele>627.79998779297</ele>
        <time>2011-04-03T15:45:32.000Z</time>
      </trkpt>
      <trkpt lat="43.74364" lon="7.00898">
        <ele>627.59997558594</ele>
        <time>2011-04-03T15:45:36.000Z</time>
      </trkpt>
      <trkpt lat="43.74359" lon="7.00895">
        <ele>627.59997558594</ele>
        <time>2011-04-03T15:45:39.000Z</time>
      </trkpt>
      <trkpt lat="43.74354" lon="7.0089">
        <ele>627.59997558594</ele>
        <time>2011-04-03T15:45:44.000Z</time>
      </trkpt>
      <trkpt lat="43.74354" lon="7.00892">
        <ele>628</ele>
        <time>2011-04-03T15:45:50.000Z</time>
      </trkpt>
      <trkpt lat="43.74354" lon="7.00896">
        <ele>628.20001220703</ele>
        <time>2011-04-03T15:46:28.000Z</time>
      </trkpt>
      <trkpt lat="43.74353" lon="7.00898">
        <ele>628.59997558594</ele>
        <time>2011-04-03T15:46:36.000Z</time>
      </trkpt>
      <trkpt lat="43.74352" lon="7.00898">
        <ele>628.59997558594</ele>
        <time>2011-04-03T15:46:45.000Z</time>
      </trkpt>
      <trkpt lat="43.74352" lon="7.00896">
        <ele>628.59997558594</ele>
        <time>2011-04-03T15:46:52.000Z</time>
      </trkpt>
    </trkseg>
  </trk>
</gpx>